<?xml version="1.0" encoding="UTF-8" standalone="no" ?>
<gpx xmlns="http://www.topografix.com/GPX/1/1" xmlns:xsi="http://www.w3.org/2001/XMLSchema-instance" xsi:schemaLocation="http://www.topografix.com/GPX/1/1 http://www.topografix.com/GPX/1/1/gpx.xsd" version="1.1" creator="VisuGPX - https://www.visugpx.com">
  <metadata>
    <name>VTT Annonay  La louvesc</name>
  </metadata>
  <trk>
    <name><![CDATA[VTT Annonay  La louvesc]]></name>
    <trkseg>
      <trkpt lat="45.23823" lon="4.66864">
        <ele>306.60000610352</ele>
        <time>2021-09-07T06:10:52Z</time>
      </trkpt>
      <trkpt lat="45.23823" lon="4.66865">
        <ele>307.60000610352</ele>
        <time>2021-09-07T06:11:24Z</time>
      </trkpt>
      <trkpt lat="45.23829" lon="4.66898">
        <ele>308.20001220703</ele>
        <time>2021-09-07T06:11:32Z</time>
      </trkpt>
      <trkpt lat="45.23837" lon="4.66937">
        <ele>307.79998779297</ele>
        <time>2021-09-07T06:11:43Z</time>
      </trkpt>
      <trkpt lat="45.23857" lon="4.66938">
        <ele>308.39999389648</ele>
        <time>2021-09-07T06:11:51Z</time>
      </trkpt>
      <trkpt lat="45.23857" lon="4.66939">
        <ele>308.39999389648</ele>
        <time>2021-09-07T06:11:52Z</time>
      </trkpt>
      <trkpt lat="45.23872" lon="4.66936">
        <ele>308.39999389648</ele>
        <time>2021-09-07T06:12:00Z</time>
      </trkpt>
      <trkpt lat="45.23878" lon="4.6693">
        <ele>308.60000610352</ele>
        <time>2021-09-07T06:12:04Z</time>
      </trkpt>
      <trkpt lat="45.23879" lon="4.6691">
        <ele>309</ele>
        <time>2021-09-07T06:12:10Z</time>
      </trkpt>
      <trkpt lat="45.23881" lon="4.66878">
        <ele>310.39999389648</ele>
        <time>2021-09-07T06:12:19Z</time>
      </trkpt>
      <trkpt lat="45.23879" lon="4.66842">
        <ele>312.39999389648</ele>
        <time>2021-09-07T06:12:28Z</time>
      </trkpt>
      <trkpt lat="45.23881" lon="4.66809">
        <ele>314</ele>
        <time>2021-09-07T06:12:37Z</time>
      </trkpt>
      <trkpt lat="45.23878" lon="4.66767">
        <ele>316.39999389648</ele>
        <time>2021-09-07T06:12:49Z</time>
      </trkpt>
      <trkpt lat="45.23875" lon="4.66726">
        <ele>317.79998779297</ele>
        <time>2021-09-07T06:12:59Z</time>
      </trkpt>
      <trkpt lat="45.23875" lon="4.66681">
        <ele>319.79998779297</ele>
        <time>2021-09-07T06:13:09Z</time>
      </trkpt>
      <trkpt lat="45.23879" lon="4.6664">
        <ele>321.60000610352</ele>
        <time>2021-09-07T06:13:19Z</time>
      </trkpt>
      <trkpt lat="45.23894" lon="4.66641">
        <ele>323.20001220703</ele>
        <time>2021-09-07T06:13:26Z</time>
      </trkpt>
      <trkpt lat="45.23896" lon="4.66652">
        <ele>324.20001220703</ele>
        <time>2021-09-07T06:13:30Z</time>
      </trkpt>
      <trkpt lat="45.23895" lon="4.66696">
        <ele>326.60000610352</ele>
        <time>2021-09-07T06:13:42Z</time>
      </trkpt>
      <trkpt lat="45.23895" lon="4.66739">
        <ele>328.60000610352</ele>
        <time>2021-09-07T06:13:54Z</time>
      </trkpt>
      <trkpt lat="45.23906" lon="4.66772">
        <ele>330.60000610352</ele>
        <time>2021-09-07T06:14:05Z</time>
      </trkpt>
      <trkpt lat="45.23911" lon="4.66774">
        <ele>331</ele>
        <time>2021-09-07T06:14:07Z</time>
      </trkpt>
      <trkpt lat="45.23914" lon="4.66768">
        <ele>331.60000610352</ele>
        <time>2021-09-07T06:14:12Z</time>
      </trkpt>
      <trkpt lat="45.23909" lon="4.66738">
        <ele>333.39999389648</ele>
        <time>2021-09-07T06:14:23Z</time>
      </trkpt>
      <trkpt lat="45.23909" lon="4.66708">
        <ele>334.60000610352</ele>
        <time>2021-09-07T06:14:32Z</time>
      </trkpt>
      <trkpt lat="45.23913" lon="4.66675">
        <ele>336</ele>
        <time>2021-09-07T06:14:40Z</time>
      </trkpt>
      <trkpt lat="45.23923" lon="4.66649">
        <ele>337</ele>
        <time>2021-09-07T06:14:46Z</time>
      </trkpt>
      <trkpt lat="45.23939" lon="4.66633">
        <ele>339</ele>
        <time>2021-09-07T06:14:56Z</time>
      </trkpt>
      <trkpt lat="45.23941" lon="4.66653">
        <ele>341</ele>
        <time>2021-09-07T06:15:03Z</time>
      </trkpt>
      <trkpt lat="45.2394" lon="4.66658">
        <ele>341.20001220703</ele>
        <time>2021-09-07T06:15:05Z</time>
      </trkpt>
      <trkpt lat="45.23941" lon="4.66698">
        <ele>343</ele>
        <time>2021-09-07T06:15:17Z</time>
      </trkpt>
      <trkpt lat="45.23943" lon="4.66714">
        <ele>343.60000610352</ele>
        <time>2021-09-07T06:15:22Z</time>
      </trkpt>
      <trkpt lat="45.23944" lon="4.66725">
        <ele>344.20001220703</ele>
        <time>2021-09-07T06:15:26Z</time>
      </trkpt>
      <trkpt lat="45.23945" lon="4.66738">
        <ele>344.60000610352</ele>
        <time>2021-09-07T06:15:30Z</time>
      </trkpt>
      <trkpt lat="45.23948" lon="4.66759">
        <ele>345.39999389648</ele>
        <time>2021-09-07T06:15:37Z</time>
      </trkpt>
      <trkpt lat="45.23953" lon="4.66769">
        <ele>346.39999389648</ele>
        <time>2021-09-07T06:15:43Z</time>
      </trkpt>
      <trkpt lat="45.23967" lon="4.66769">
        <ele>347.39999389648</ele>
        <time>2021-09-07T06:15:49Z</time>
      </trkpt>
      <trkpt lat="45.23973" lon="4.66751">
        <ele>348.39999389648</ele>
        <time>2021-09-07T06:15:56Z</time>
      </trkpt>
      <trkpt lat="45.23975" lon="4.66738">
        <ele>349.20001220703</ele>
        <time>2021-09-07T06:16:00Z</time>
      </trkpt>
      <trkpt lat="45.23978" lon="4.66724">
        <ele>350.20001220703</ele>
        <time>2021-09-07T06:16:06Z</time>
      </trkpt>
      <trkpt lat="45.23977" lon="4.66716">
        <ele>350.79998779297</ele>
        <time>2021-09-07T06:16:11Z</time>
      </trkpt>
      <trkpt lat="45.23982" lon="4.66685">
        <ele>352.79998779297</ele>
        <time>2021-09-07T06:16:22Z</time>
      </trkpt>
      <trkpt lat="45.23985" lon="4.66643">
        <ele>354</ele>
        <time>2021-09-07T06:16:31Z</time>
      </trkpt>
      <trkpt lat="45.23985" lon="4.66619">
        <ele>355</ele>
        <time>2021-09-07T06:16:36Z</time>
      </trkpt>
      <trkpt lat="45.23989" lon="4.66598">
        <ele>355.60000610352</ele>
        <time>2021-09-07T06:16:41Z</time>
      </trkpt>
      <trkpt lat="45.23992" lon="4.66579">
        <ele>356.79998779297</ele>
        <time>2021-09-07T06:16:47Z</time>
      </trkpt>
      <trkpt lat="45.23992" lon="4.66556">
        <ele>357.79998779297</ele>
        <time>2021-09-07T06:16:54Z</time>
      </trkpt>
      <trkpt lat="45.2399" lon="4.66553">
        <ele>357.79998779297</ele>
        <time>2021-09-07T06:16:55Z</time>
      </trkpt>
      <trkpt lat="45.23985" lon="4.66532">
        <ele>357.79998779297</ele>
        <time>2021-09-07T06:16:59Z</time>
      </trkpt>
      <trkpt lat="45.23983" lon="4.66527">
        <ele>357.79998779297</ele>
        <time>2021-09-07T06:17:00Z</time>
      </trkpt>
      <trkpt lat="45.23983" lon="4.66479">
        <ele>357.79998779297</ele>
        <time>2021-09-07T06:17:07Z</time>
      </trkpt>
      <trkpt lat="45.23979" lon="4.66449">
        <ele>357.79998779297</ele>
        <time>2021-09-07T06:17:11Z</time>
      </trkpt>
      <trkpt lat="45.23977" lon="4.66396">
        <ele>357.79998779297</ele>
        <time>2021-09-07T06:17:17Z</time>
      </trkpt>
      <trkpt lat="45.23969" lon="4.66361">
        <ele>357.79998779297</ele>
        <time>2021-09-07T06:17:21Z</time>
      </trkpt>
      <trkpt lat="45.23968" lon="4.66353">
        <ele>357.79998779297</ele>
        <time>2021-09-07T06:17:22Z</time>
      </trkpt>
      <trkpt lat="45.2395" lon="4.66195">
        <ele>355.79998779297</ele>
        <time>2021-09-07T06:17:39Z</time>
      </trkpt>
      <trkpt lat="45.2394" lon="4.66114">
        <ele>354</ele>
        <time>2021-09-07T06:17:48Z</time>
      </trkpt>
      <trkpt lat="45.23935" lon="4.66068">
        <ele>353.20001220703</ele>
        <time>2021-09-07T06:17:53Z</time>
      </trkpt>
      <trkpt lat="45.23932" lon="4.66037">
        <ele>352.60000610352</ele>
        <time>2021-09-07T06:17:56Z</time>
      </trkpt>
      <trkpt lat="45.23947" lon="4.65988">
        <ele>351.20001220703</ele>
        <time>2021-09-07T06:18:01Z</time>
      </trkpt>
      <trkpt lat="45.23981" lon="4.65938">
        <ele>349.60000610352</ele>
        <time>2021-09-07T06:18:07Z</time>
      </trkpt>
      <trkpt lat="45.24" lon="4.65915">
        <ele>348.60000610352</ele>
        <time>2021-09-07T06:18:10Z</time>
      </trkpt>
      <trkpt lat="45.24029" lon="4.65907">
        <ele>347.60000610352</ele>
        <time>2021-09-07T06:18:14Z</time>
      </trkpt>
      <trkpt lat="45.24045" lon="4.65908">
        <ele>347</ele>
        <time>2021-09-07T06:18:16Z</time>
      </trkpt>
      <trkpt lat="45.24065" lon="4.65905">
        <ele>346.20001220703</ele>
        <time>2021-09-07T06:18:19Z</time>
      </trkpt>
      <trkpt lat="45.241" lon="4.65887">
        <ele>345.20001220703</ele>
        <time>2021-09-07T06:18:24Z</time>
      </trkpt>
      <trkpt lat="45.24118" lon="4.65865">
        <ele>344.60000610352</ele>
        <time>2021-09-07T06:18:27Z</time>
      </trkpt>
      <trkpt lat="45.24162" lon="4.65806">
        <ele>342.60000610352</ele>
        <time>2021-09-07T06:18:35Z</time>
      </trkpt>
      <trkpt lat="45.24183" lon="4.65785">
        <ele>341.39999389648</ele>
        <time>2021-09-07T06:18:39Z</time>
      </trkpt>
      <trkpt lat="45.24196" lon="4.6576">
        <ele>341</ele>
        <time>2021-09-07T06:18:46Z</time>
      </trkpt>
      <trkpt lat="45.24198" lon="4.65751">
        <ele>341</ele>
        <time>2021-09-07T06:18:48Z</time>
      </trkpt>
      <trkpt lat="45.24206" lon="4.65723">
        <ele>340.79998779297</ele>
        <time>2021-09-07T06:18:52Z</time>
      </trkpt>
      <trkpt lat="45.24197" lon="4.65662">
        <ele>338.60000610352</ele>
        <time>2021-09-07T06:18:59Z</time>
      </trkpt>
      <trkpt lat="45.24175" lon="4.65663">
        <ele>337.20001220703</ele>
        <time>2021-09-07T06:19:02Z</time>
      </trkpt>
      <trkpt lat="45.24148" lon="4.65666">
        <ele>333.79998779297</ele>
        <time>2021-09-07T06:19:06Z</time>
      </trkpt>
      <trkpt lat="45.2411" lon="4.65679">
        <ele>333.39999389648</ele>
        <time>2021-09-07T06:19:16Z</time>
      </trkpt>
      <trkpt lat="45.2409" lon="4.6569">
        <ele>336.60000610352</ele>
        <time>2021-09-07T06:19:26Z</time>
      </trkpt>
      <trkpt lat="45.24088" lon="4.6569">
        <ele>337</ele>
        <time>2021-09-07T06:19:27Z</time>
      </trkpt>
      <trkpt lat="45.24088" lon="4.65683">
        <ele>337.60000610352</ele>
        <time>2021-09-07T06:19:31Z</time>
      </trkpt>
      <trkpt lat="45.2409" lon="4.65676">
        <ele>338.20001220703</ele>
        <time>2021-09-07T06:19:34Z</time>
      </trkpt>
      <trkpt lat="45.24079" lon="4.65674">
        <ele>341</ele>
        <time>2021-09-07T06:19:42Z</time>
      </trkpt>
      <trkpt lat="45.24066" lon="4.65686">
        <ele>343</ele>
        <time>2021-09-07T06:19:51Z</time>
      </trkpt>
      <trkpt lat="45.24049" lon="4.65697">
        <ele>344.79998779297</ele>
        <time>2021-09-07T06:20:02Z</time>
      </trkpt>
      <trkpt lat="45.24025" lon="4.65707">
        <ele>346.79998779297</ele>
        <time>2021-09-07T06:20:14Z</time>
      </trkpt>
      <trkpt lat="45.24017" lon="4.65714">
        <ele>347.20001220703</ele>
        <time>2021-09-07T06:20:18Z</time>
      </trkpt>
      <trkpt lat="45.24008" lon="4.65717">
        <ele>347.60000610352</ele>
        <time>2021-09-07T06:20:22Z</time>
      </trkpt>
      <trkpt lat="45.23998" lon="4.65723">
        <ele>349</ele>
        <time>2021-09-07T06:20:28Z</time>
      </trkpt>
      <trkpt lat="45.23975" lon="4.65731">
        <ele>351.79998779297</ele>
        <time>2021-09-07T06:20:42Z</time>
      </trkpt>
      <trkpt lat="45.23953" lon="4.65733">
        <ele>353.79998779297</ele>
        <time>2021-09-07T06:20:54Z</time>
      </trkpt>
      <trkpt lat="45.23935" lon="4.65743">
        <ele>354.79998779297</ele>
        <time>2021-09-07T06:21:05Z</time>
      </trkpt>
      <trkpt lat="45.23916" lon="4.65762">
        <ele>357.39999389648</ele>
        <time>2021-09-07T06:21:18Z</time>
      </trkpt>
      <trkpt lat="45.23915" lon="4.65764">
        <ele>357.39999389648</ele>
        <time>2021-09-07T06:21:19Z</time>
      </trkpt>
      <trkpt lat="45.23909" lon="4.65767">
        <ele>357.79998779297</ele>
        <time>2021-09-07T06:21:23Z</time>
      </trkpt>
      <trkpt lat="45.23897" lon="4.65779">
        <ele>359.60000610352</ele>
        <time>2021-09-07T06:21:33Z</time>
      </trkpt>
      <trkpt lat="45.23891" lon="4.65779">
        <ele>360</ele>
        <time>2021-09-07T06:21:37Z</time>
      </trkpt>
      <trkpt lat="45.23885" lon="4.65775">
        <ele>360.79998779297</ele>
        <time>2021-09-07T06:21:41Z</time>
      </trkpt>
      <trkpt lat="45.23879" lon="4.65772">
        <ele>361</ele>
        <time>2021-09-07T06:21:45Z</time>
      </trkpt>
      <trkpt lat="45.23862" lon="4.65763">
        <ele>362.79998779297</ele>
        <time>2021-09-07T06:21:58Z</time>
      </trkpt>
      <trkpt lat="45.2386" lon="4.65761">
        <ele>363</ele>
        <time>2021-09-07T06:22:00Z</time>
      </trkpt>
      <trkpt lat="45.23849" lon="4.65752">
        <ele>364.60000610352</ele>
        <time>2021-09-07T06:22:09Z</time>
      </trkpt>
      <trkpt lat="45.23829" lon="4.65742">
        <ele>366.20001220703</ele>
        <time>2021-09-07T06:22:21Z</time>
      </trkpt>
      <trkpt lat="45.23825" lon="4.65739">
        <ele>366.39999389648</ele>
        <time>2021-09-07T06:22:24Z</time>
      </trkpt>
      <trkpt lat="45.23811" lon="4.65738">
        <ele>368.20001220703</ele>
        <time>2021-09-07T06:22:36Z</time>
      </trkpt>
      <trkpt lat="45.23794" lon="4.6573">
        <ele>369.39999389648</ele>
        <time>2021-09-07T06:22:47Z</time>
      </trkpt>
      <trkpt lat="45.23782" lon="4.65727">
        <ele>370.20001220703</ele>
        <time>2021-09-07T06:22:55Z</time>
      </trkpt>
      <trkpt lat="45.2377" lon="4.65724">
        <ele>371</ele>
        <time>2021-09-07T06:23:02Z</time>
      </trkpt>
      <trkpt lat="45.23757" lon="4.65721">
        <ele>372.39999389648</ele>
        <time>2021-09-07T06:23:11Z</time>
      </trkpt>
      <trkpt lat="45.23758" lon="4.65719">
        <ele>372.60000610352</ele>
        <time>2021-09-07T06:23:13Z</time>
      </trkpt>
      <trkpt lat="45.23769" lon="4.65719">
        <ele>373.60000610352</ele>
        <time>2021-09-07T06:23:20Z</time>
      </trkpt>
      <trkpt lat="45.23779" lon="4.65717">
        <ele>374.79998779297</ele>
        <time>2021-09-07T06:23:26Z</time>
      </trkpt>
      <trkpt lat="45.23791" lon="4.65722">
        <ele>376.20001220703</ele>
        <time>2021-09-07T06:23:35Z</time>
      </trkpt>
      <trkpt lat="45.23799" lon="4.65721">
        <ele>376.60000610352</ele>
        <time>2021-09-07T06:23:40Z</time>
      </trkpt>
      <trkpt lat="45.23809" lon="4.65721">
        <ele>378</ele>
        <time>2021-09-07T06:23:47Z</time>
      </trkpt>
      <trkpt lat="45.23817" lon="4.65719">
        <ele>379</ele>
        <time>2021-09-07T06:23:51Z</time>
      </trkpt>
      <trkpt lat="45.23823" lon="4.65717">
        <ele>379.39999389648</ele>
        <time>2021-09-07T06:23:54Z</time>
      </trkpt>
      <trkpt lat="45.23845" lon="4.65711">
        <ele>381</ele>
        <time>2021-09-07T06:24:03Z</time>
      </trkpt>
      <trkpt lat="45.2385" lon="4.65712">
        <ele>381.20001220703</ele>
        <time>2021-09-07T06:24:06Z</time>
      </trkpt>
      <trkpt lat="45.23854" lon="4.65706">
        <ele>381.60000610352</ele>
        <time>2021-09-07T06:24:10Z</time>
      </trkpt>
      <trkpt lat="45.23861" lon="4.65705">
        <ele>382.60000610352</ele>
        <time>2021-09-07T06:24:14Z</time>
      </trkpt>
      <trkpt lat="45.23867" lon="4.65703">
        <ele>383.20001220703</ele>
        <time>2021-09-07T06:24:18Z</time>
      </trkpt>
      <trkpt lat="45.2387" lon="4.65702">
        <ele>383.60000610352</ele>
        <time>2021-09-07T06:24:22Z</time>
      </trkpt>
      <trkpt lat="45.23882" lon="4.65692">
        <ele>384.79998779297</ele>
        <time>2021-09-07T06:24:30Z</time>
      </trkpt>
      <trkpt lat="45.23899" lon="4.6568">
        <ele>386</ele>
        <time>2021-09-07T06:24:40Z</time>
      </trkpt>
      <trkpt lat="45.23908" lon="4.65667">
        <ele>387.39999389648</ele>
        <time>2021-09-07T06:24:46Z</time>
      </trkpt>
      <trkpt lat="45.23911" lon="4.65663">
        <ele>387.79998779297</ele>
        <time>2021-09-07T06:24:48Z</time>
      </trkpt>
      <trkpt lat="45.23921" lon="4.65645">
        <ele>389</ele>
        <time>2021-09-07T06:24:56Z</time>
      </trkpt>
      <trkpt lat="45.23924" lon="4.65634">
        <ele>390.20001220703</ele>
        <time>2021-09-07T06:25:01Z</time>
      </trkpt>
      <trkpt lat="45.23924" lon="4.65618">
        <ele>391.20001220703</ele>
        <time>2021-09-07T06:25:08Z</time>
      </trkpt>
      <trkpt lat="45.23924" lon="4.65593">
        <ele>392.60000610352</ele>
        <time>2021-09-07T06:25:18Z</time>
      </trkpt>
      <trkpt lat="45.23921" lon="4.65594">
        <ele>393</ele>
        <time>2021-09-07T06:25:21Z</time>
      </trkpt>
      <trkpt lat="45.2392" lon="4.656">
        <ele>393.79998779297</ele>
        <time>2021-09-07T06:25:24Z</time>
      </trkpt>
      <trkpt lat="45.23914" lon="4.65614">
        <ele>395</ele>
        <time>2021-09-07T06:25:32Z</time>
      </trkpt>
      <trkpt lat="45.23908" lon="4.65622">
        <ele>395.79998779297</ele>
        <time>2021-09-07T06:25:37Z</time>
      </trkpt>
      <trkpt lat="45.23888" lon="4.65636">
        <ele>398</ele>
        <time>2021-09-07T06:25:50Z</time>
      </trkpt>
      <trkpt lat="45.23864" lon="4.65638">
        <ele>400.20001220703</ele>
        <time>2021-09-07T06:26:04Z</time>
      </trkpt>
      <trkpt lat="45.23848" lon="4.65636">
        <ele>401.60000610352</ele>
        <time>2021-09-07T06:26:14Z</time>
      </trkpt>
      <trkpt lat="45.23829" lon="4.65635">
        <ele>403.39999389648</ele>
        <time>2021-09-07T06:26:24Z</time>
      </trkpt>
      <trkpt lat="45.23826" lon="4.65634">
        <ele>403.60000610352</ele>
        <time>2021-09-07T06:26:26Z</time>
      </trkpt>
      <trkpt lat="45.2381" lon="4.65638">
        <ele>404.60000610352</ele>
        <time>2021-09-07T06:26:34Z</time>
      </trkpt>
      <trkpt lat="45.23811" lon="4.65631">
        <ele>406.20001220703</ele>
        <time>2021-09-07T06:26:42Z</time>
      </trkpt>
      <trkpt lat="45.23816" lon="4.65628">
        <ele>406.79998779297</ele>
        <time>2021-09-07T06:26:46Z</time>
      </trkpt>
      <trkpt lat="45.23828" lon="4.65622">
        <ele>408.39999389648</ele>
        <time>2021-09-07T06:26:56Z</time>
      </trkpt>
      <trkpt lat="45.23844" lon="4.65607">
        <ele>409.79998779297</ele>
        <time>2021-09-07T06:27:08Z</time>
      </trkpt>
      <trkpt lat="45.23859" lon="4.65595">
        <ele>411.39999389648</ele>
        <time>2021-09-07T06:27:16Z</time>
      </trkpt>
      <trkpt lat="45.23861" lon="4.65582">
        <ele>412</ele>
        <time>2021-09-07T06:27:20Z</time>
      </trkpt>
      <trkpt lat="45.23857" lon="4.65572">
        <ele>412.79998779297</ele>
        <time>2021-09-07T06:27:25Z</time>
      </trkpt>
      <trkpt lat="45.2385" lon="4.65578">
        <ele>413.60000610352</ele>
        <time>2021-09-07T06:27:30Z</time>
      </trkpt>
      <trkpt lat="45.23843" lon="4.65582">
        <ele>414.60000610352</ele>
        <time>2021-09-07T06:27:35Z</time>
      </trkpt>
      <trkpt lat="45.23824" lon="4.65585">
        <ele>416.20001220703</ele>
        <time>2021-09-07T06:27:47Z</time>
      </trkpt>
      <trkpt lat="45.23807" lon="4.65589">
        <ele>418</ele>
        <time>2021-09-07T06:27:58Z</time>
      </trkpt>
      <trkpt lat="45.23786" lon="4.65594">
        <ele>419.60000610352</ele>
        <time>2021-09-07T06:28:09Z</time>
      </trkpt>
      <trkpt lat="45.23782" lon="4.65594">
        <ele>419.79998779297</ele>
        <time>2021-09-07T06:28:11Z</time>
      </trkpt>
      <trkpt lat="45.23768" lon="4.65598">
        <ele>421.20001220703</ele>
        <time>2021-09-07T06:28:18Z</time>
      </trkpt>
      <trkpt lat="45.23746" lon="4.65605">
        <ele>423</ele>
        <time>2021-09-07T06:28:30Z</time>
      </trkpt>
      <trkpt lat="45.23722" lon="4.65602">
        <ele>424.79998779297</ele>
        <time>2021-09-07T06:28:43Z</time>
      </trkpt>
      <trkpt lat="45.23702" lon="4.6559">
        <ele>426.79998779297</ele>
        <time>2021-09-07T06:28:57Z</time>
      </trkpt>
      <trkpt lat="45.23684" lon="4.6559">
        <ele>428.39999389648</ele>
        <time>2021-09-07T06:29:08Z</time>
      </trkpt>
      <trkpt lat="45.23664" lon="4.65591">
        <ele>430.60000610352</ele>
        <time>2021-09-07T06:29:19Z</time>
      </trkpt>
      <trkpt lat="45.23641" lon="4.65585">
        <ele>431.60000610352</ele>
        <time>2021-09-07T06:29:31Z</time>
      </trkpt>
      <trkpt lat="45.2363" lon="4.6558">
        <ele>432</ele>
        <time>2021-09-07T06:29:38Z</time>
      </trkpt>
      <trkpt lat="45.23629" lon="4.65573">
        <ele>432.60000610352</ele>
        <time>2021-09-07T06:29:42Z</time>
      </trkpt>
      <trkpt lat="45.23629" lon="4.65546">
        <ele>435</ele>
        <time>2021-09-07T06:29:54Z</time>
      </trkpt>
      <trkpt lat="45.23629" lon="4.65526">
        <ele>438</ele>
        <time>2021-09-07T06:30:05Z</time>
      </trkpt>
      <trkpt lat="45.23629" lon="4.65524">
        <ele>438.20001220703</ele>
        <time>2021-09-07T06:30:06Z</time>
      </trkpt>
      <trkpt lat="45.23623" lon="4.65486">
        <ele>440.79998779297</ele>
        <time>2021-09-07T06:30:21Z</time>
      </trkpt>
      <trkpt lat="45.23623" lon="4.65481">
        <ele>441.20001220703</ele>
        <time>2021-09-07T06:30:23Z</time>
      </trkpt>
      <trkpt lat="45.23628" lon="4.65451">
        <ele>443.20001220703</ele>
        <time>2021-09-07T06:30:35Z</time>
      </trkpt>
      <trkpt lat="45.23628" lon="4.65421">
        <ele>444.60000610352</ele>
        <time>2021-09-07T06:30:47Z</time>
      </trkpt>
      <trkpt lat="45.23633" lon="4.65385">
        <ele>446.20001220703</ele>
        <time>2021-09-07T06:31:00Z</time>
      </trkpt>
      <trkpt lat="45.23634" lon="4.65348">
        <ele>447.20001220703</ele>
        <time>2021-09-07T06:31:11Z</time>
      </trkpt>
      <trkpt lat="45.23627" lon="4.65286">
        <ele>448</ele>
        <time>2021-09-07T06:31:27Z</time>
      </trkpt>
      <trkpt lat="45.23622" lon="4.65276">
        <ele>448.39999389648</ele>
        <time>2021-09-07T06:31:30Z</time>
      </trkpt>
      <trkpt lat="45.23601" lon="4.65276">
        <ele>450</ele>
        <time>2021-09-07T06:31:38Z</time>
      </trkpt>
      <trkpt lat="45.23567" lon="4.65281">
        <ele>452</ele>
        <time>2021-09-07T06:31:50Z</time>
      </trkpt>
      <trkpt lat="45.23531" lon="4.65278">
        <ele>454.79998779297</ele>
        <time>2021-09-07T06:32:05Z</time>
      </trkpt>
      <trkpt lat="45.23492" lon="4.65291">
        <ele>457.39999389648</ele>
        <time>2021-09-07T06:32:22Z</time>
      </trkpt>
      <trkpt lat="45.23446" lon="4.65287">
        <ele>459.39999389648</ele>
        <time>2021-09-07T06:32:40Z</time>
      </trkpt>
      <trkpt lat="45.23427" lon="4.6528">
        <ele>460.20001220703</ele>
        <time>2021-09-07T06:32:47Z</time>
      </trkpt>
      <trkpt lat="45.23404" lon="4.65254">
        <ele>460.39999389648</ele>
        <time>2021-09-07T06:32:53Z</time>
      </trkpt>
      <trkpt lat="45.23397" lon="4.65243">
        <ele>460.20001220703</ele>
        <time>2021-09-07T06:32:55Z</time>
      </trkpt>
      <trkpt lat="45.23382" lon="4.65221">
        <ele>459</ele>
        <time>2021-09-07T06:32:59Z</time>
      </trkpt>
      <trkpt lat="45.23366" lon="4.65206">
        <ele>458.79998779297</ele>
        <time>2021-09-07T06:33:03Z</time>
      </trkpt>
      <trkpt lat="45.23335" lon="4.65179">
        <ele>457.79998779297</ele>
        <time>2021-09-07T06:33:11Z</time>
      </trkpt>
      <trkpt lat="45.23301" lon="4.65126">
        <ele>456.79998779297</ele>
        <time>2021-09-07T06:33:21Z</time>
      </trkpt>
      <trkpt lat="45.23292" lon="4.6512">
        <ele>456.60000610352</ele>
        <time>2021-09-07T06:33:23Z</time>
      </trkpt>
      <trkpt lat="45.2318" lon="4.65071">
        <ele>456</ele>
        <time>2021-09-07T06:33:47Z</time>
      </trkpt>
      <trkpt lat="45.23174" lon="4.65066">
        <ele>456</ele>
        <time>2021-09-07T06:33:49Z</time>
      </trkpt>
      <trkpt lat="45.23177" lon="4.6505">
        <ele>455.79998779297</ele>
        <time>2021-09-07T06:33:53Z</time>
      </trkpt>
      <trkpt lat="45.23187" lon="4.65028">
        <ele>455.60000610352</ele>
        <time>2021-09-07T06:33:57Z</time>
      </trkpt>
      <trkpt lat="45.23229" lon="4.64923">
        <ele>454.39999389648</ele>
        <time>2021-09-07T06:34:13Z</time>
      </trkpt>
      <trkpt lat="45.23254" lon="4.64904">
        <ele>452.39999389648</ele>
        <time>2021-09-07T06:34:19Z</time>
      </trkpt>
      <trkpt lat="45.2328" lon="4.64878">
        <ele>451.39999389648</ele>
        <time>2021-09-07T06:34:27Z</time>
      </trkpt>
      <trkpt lat="45.23287" lon="4.64863">
        <ele>451.39999389648</ele>
        <time>2021-09-07T06:34:30Z</time>
      </trkpt>
      <trkpt lat="45.23298" lon="4.64817">
        <ele>452.79998779297</ele>
        <time>2021-09-07T06:34:40Z</time>
      </trkpt>
      <trkpt lat="45.23329" lon="4.64761">
        <ele>455.39999389648</ele>
        <time>2021-09-07T06:34:55Z</time>
      </trkpt>
      <trkpt lat="45.23358" lon="4.64717">
        <ele>457.60000610352</ele>
        <time>2021-09-07T06:35:09Z</time>
      </trkpt>
      <trkpt lat="45.23383" lon="4.64677">
        <ele>460</ele>
        <time>2021-09-07T06:35:22Z</time>
      </trkpt>
      <trkpt lat="45.2339" lon="4.64658">
        <ele>460.60000610352</ele>
        <time>2021-09-07T06:35:27Z</time>
      </trkpt>
      <trkpt lat="45.23391" lon="4.64647">
        <ele>460.79998779297</ele>
        <time>2021-09-07T06:35:29Z</time>
      </trkpt>
      <trkpt lat="45.23388" lon="4.64588">
        <ele>460.79998779297</ele>
        <time>2021-09-07T06:35:41Z</time>
      </trkpt>
      <trkpt lat="45.23384" lon="4.64546">
        <ele>463.39999389648</ele>
        <time>2021-09-07T06:35:53Z</time>
      </trkpt>
      <trkpt lat="45.23375" lon="4.64495">
        <ele>465.79998779297</ele>
        <time>2021-09-07T06:36:05Z</time>
      </trkpt>
      <trkpt lat="45.2337" lon="4.64443">
        <ele>466</ele>
        <time>2021-09-07T06:36:15Z</time>
      </trkpt>
      <trkpt lat="45.23362" lon="4.64375">
        <ele>466.20001220703</ele>
        <time>2021-09-07T06:36:29Z</time>
      </trkpt>
      <trkpt lat="45.2333" lon="4.64341">
        <ele>466.39999389648</ele>
        <time>2021-09-07T06:36:42Z</time>
      </trkpt>
      <trkpt lat="45.23317" lon="4.64328">
        <ele>466.60000610352</ele>
        <time>2021-09-07T06:36:47Z</time>
      </trkpt>
      <trkpt lat="45.23303" lon="4.64313">
        <ele>467</ele>
        <time>2021-09-07T06:36:54Z</time>
      </trkpt>
      <trkpt lat="45.23278" lon="4.64309">
        <ele>470</ele>
        <time>2021-09-07T06:37:08Z</time>
      </trkpt>
      <trkpt lat="45.23257" lon="4.64311">
        <ele>471.39999389648</ele>
        <time>2021-09-07T06:37:18Z</time>
      </trkpt>
      <trkpt lat="45.23235" lon="4.64313">
        <ele>473.39999389648</ele>
        <time>2021-09-07T06:37:28Z</time>
      </trkpt>
      <trkpt lat="45.2322" lon="4.64313">
        <ele>474.39999389648</ele>
        <time>2021-09-07T06:37:34Z</time>
      </trkpt>
      <trkpt lat="45.23203" lon="4.64315">
        <ele>476.39999389648</ele>
        <time>2021-09-07T06:37:43Z</time>
      </trkpt>
      <trkpt lat="45.23174" lon="4.64318">
        <ele>479</ele>
        <time>2021-09-07T06:37:55Z</time>
      </trkpt>
      <trkpt lat="45.23153" lon="4.6431">
        <ele>481.20001220703</ele>
        <time>2021-09-07T06:38:05Z</time>
      </trkpt>
      <trkpt lat="45.23133" lon="4.64298">
        <ele>481.79998779297</ele>
        <time>2021-09-07T06:38:13Z</time>
      </trkpt>
      <trkpt lat="45.23121" lon="4.64287">
        <ele>482.20001220703</ele>
        <time>2021-09-07T06:38:18Z</time>
      </trkpt>
      <trkpt lat="45.23117" lon="4.64284">
        <ele>482.20001220703</ele>
        <time>2021-09-07T06:38:19Z</time>
      </trkpt>
      <trkpt lat="45.2311" lon="4.64276">
        <ele>482.60000610352</ele>
        <time>2021-09-07T06:38:22Z</time>
      </trkpt>
      <trkpt lat="45.23097" lon="4.64266">
        <ele>482.79998779297</ele>
        <time>2021-09-07T06:38:26Z</time>
      </trkpt>
      <trkpt lat="45.2307" lon="4.64239">
        <ele>482.79998779297</ele>
        <time>2021-09-07T06:38:35Z</time>
      </trkpt>
      <trkpt lat="45.23053" lon="4.64221">
        <ele>482.79998779297</ele>
        <time>2021-09-07T06:38:41Z</time>
      </trkpt>
      <trkpt lat="45.2303" lon="4.64186">
        <ele>483.79998779297</ele>
        <time>2021-09-07T06:38:51Z</time>
      </trkpt>
      <trkpt lat="45.23014" lon="4.6417">
        <ele>484.39999389648</ele>
        <time>2021-09-07T06:38:56Z</time>
      </trkpt>
      <trkpt lat="45.22985" lon="4.64149">
        <ele>485.79998779297</ele>
        <time>2021-09-07T06:39:07Z</time>
      </trkpt>
      <trkpt lat="45.22968" lon="4.64142">
        <ele>486</ele>
        <time>2021-09-07T06:39:11Z</time>
      </trkpt>
      <trkpt lat="45.22944" lon="4.64121">
        <ele>487.39999389648</ele>
        <time>2021-09-07T06:39:22Z</time>
      </trkpt>
      <trkpt lat="45.22932" lon="4.6409">
        <ele>488.39999389648</ele>
        <time>2021-09-07T06:39:29Z</time>
      </trkpt>
      <trkpt lat="45.22912" lon="4.6406">
        <ele>489</ele>
        <time>2021-09-07T06:39:37Z</time>
      </trkpt>
      <trkpt lat="45.22882" lon="4.64042">
        <ele>489.60000610352</ele>
        <time>2021-09-07T06:39:49Z</time>
      </trkpt>
      <trkpt lat="45.22852" lon="4.64028">
        <ele>491.79998779297</ele>
        <time>2021-09-07T06:40:00Z</time>
      </trkpt>
      <trkpt lat="45.22831" lon="4.64018">
        <ele>493</ele>
        <time>2021-09-07T06:40:08Z</time>
      </trkpt>
      <trkpt lat="45.22821" lon="4.6401">
        <ele>494.39999389648</ele>
        <time>2021-09-07T06:40:12Z</time>
      </trkpt>
      <trkpt lat="45.22815" lon="4.64008">
        <ele>494.79998779297</ele>
        <time>2021-09-07T06:40:14Z</time>
      </trkpt>
      <trkpt lat="45.22792" lon="4.63997">
        <ele>495.39999389648</ele>
        <time>2021-09-07T06:40:21Z</time>
      </trkpt>
      <trkpt lat="45.2277" lon="4.63984">
        <ele>494.79998779297</ele>
        <time>2021-09-07T06:40:30Z</time>
      </trkpt>
      <trkpt lat="45.2275" lon="4.63976">
        <ele>496.39999389648</ele>
        <time>2021-09-07T06:40:39Z</time>
      </trkpt>
      <trkpt lat="45.22727" lon="4.63957">
        <ele>497.79998779297</ele>
        <time>2021-09-07T06:40:47Z</time>
      </trkpt>
      <trkpt lat="45.22716" lon="4.63943">
        <ele>498.20001220703</ele>
        <time>2021-09-07T06:40:51Z</time>
      </trkpt>
      <trkpt lat="45.22703" lon="4.63931">
        <ele>498.39999389648</ele>
        <time>2021-09-07T06:40:55Z</time>
      </trkpt>
      <trkpt lat="45.22692" lon="4.63914">
        <ele>499.79998779297</ele>
        <time>2021-09-07T06:41:02Z</time>
      </trkpt>
      <trkpt lat="45.22677" lon="4.639">
        <ele>500.79998779297</ele>
        <time>2021-09-07T06:41:08Z</time>
      </trkpt>
      <trkpt lat="45.2267" lon="4.63895">
        <ele>501</ele>
        <time>2021-09-07T06:41:11Z</time>
      </trkpt>
      <trkpt lat="45.22641" lon="4.63884">
        <ele>501</ele>
        <time>2021-09-07T06:41:21Z</time>
      </trkpt>
      <trkpt lat="45.22635" lon="4.63891">
        <ele>501.20001220703</ele>
        <time>2021-09-07T06:41:25Z</time>
      </trkpt>
      <trkpt lat="45.22635" lon="4.63897">
        <ele>501.39999389648</ele>
        <time>2021-09-07T06:41:29Z</time>
      </trkpt>
      <trkpt lat="45.2263" lon="4.63905">
        <ele>502.60000610352</ele>
        <time>2021-09-07T06:41:34Z</time>
      </trkpt>
      <trkpt lat="45.22629" lon="4.63921">
        <ele>505.20001220703</ele>
        <time>2021-09-07T06:41:41Z</time>
      </trkpt>
      <trkpt lat="45.22629" lon="4.63929">
        <ele>505.79998779297</ele>
        <time>2021-09-07T06:41:44Z</time>
      </trkpt>
      <trkpt lat="45.22621" lon="4.63946">
        <ele>507.79998779297</ele>
        <time>2021-09-07T06:41:54Z</time>
      </trkpt>
      <trkpt lat="45.22613" lon="4.63972">
        <ele>509.79998779297</ele>
        <time>2021-09-07T06:42:04Z</time>
      </trkpt>
      <trkpt lat="45.22611" lon="4.63975">
        <ele>510</ele>
        <time>2021-09-07T06:42:06Z</time>
      </trkpt>
      <trkpt lat="45.22612" lon="4.6399">
        <ele>511.60000610352</ele>
        <time>2021-09-07T06:42:10Z</time>
      </trkpt>
      <trkpt lat="45.22607" lon="4.64012">
        <ele>513</ele>
        <time>2021-09-07T06:42:17Z</time>
      </trkpt>
      <trkpt lat="45.22607" lon="4.64012">
        <ele>513</ele>
        <time>2021-09-07T06:42:18Z</time>
      </trkpt>
      <trkpt lat="45.22604" lon="4.64028">
        <ele>515.59997558594</ele>
        <time>2021-09-07T06:42:26Z</time>
      </trkpt>
      <trkpt lat="45.22603" lon="4.64033">
        <ele>515.79998779297</ele>
        <time>2021-09-07T06:42:28Z</time>
      </trkpt>
      <trkpt lat="45.22602" lon="4.64041">
        <ele>516.59997558594</ele>
        <time>2021-09-07T06:42:32Z</time>
      </trkpt>
      <trkpt lat="45.22592" lon="4.64063">
        <ele>519</ele>
        <time>2021-09-07T06:42:44Z</time>
      </trkpt>
      <trkpt lat="45.2258" lon="4.64058">
        <ele>520.59997558594</ele>
        <time>2021-09-07T06:42:55Z</time>
      </trkpt>
      <trkpt lat="45.22559" lon="4.64024">
        <ele>521.20001220703</ele>
        <time>2021-09-07T06:43:08Z</time>
      </trkpt>
      <trkpt lat="45.22556" lon="4.64018">
        <ele>521.40002441406</ele>
        <time>2021-09-07T06:43:10Z</time>
      </trkpt>
      <trkpt lat="45.22535" lon="4.63993">
        <ele>523</ele>
        <time>2021-09-07T06:43:19Z</time>
      </trkpt>
      <trkpt lat="45.22531" lon="4.63988">
        <ele>523.20001220703</ele>
        <time>2021-09-07T06:43:21Z</time>
      </trkpt>
      <trkpt lat="45.22499" lon="4.63949">
        <ele>524.40002441406</ele>
        <time>2021-09-07T06:43:34Z</time>
      </trkpt>
      <trkpt lat="45.22455" lon="4.63897">
        <ele>523.59997558594</ele>
        <time>2021-09-07T06:43:46Z</time>
      </trkpt>
      <trkpt lat="45.22451" lon="4.63892">
        <ele>523.59997558594</ele>
        <time>2021-09-07T06:43:47Z</time>
      </trkpt>
      <trkpt lat="45.22406" lon="4.6384">
        <ele>522.59997558594</ele>
        <time>2021-09-07T06:43:58Z</time>
      </trkpt>
      <trkpt lat="45.22379" lon="4.63821">
        <ele>522.59997558594</ele>
        <time>2021-09-07T06:44:03Z</time>
      </trkpt>
      <trkpt lat="45.2236" lon="4.63805">
        <ele>522</ele>
        <time>2021-09-07T06:44:07Z</time>
      </trkpt>
      <trkpt lat="45.22275" lon="4.63758">
        <ele>519.79998779297</ele>
        <time>2021-09-07T06:44:22Z</time>
      </trkpt>
      <trkpt lat="45.22222" lon="4.63747">
        <ele>519</ele>
        <time>2021-09-07T06:44:33Z</time>
      </trkpt>
      <trkpt lat="45.22168" lon="4.63732">
        <ele>519</ele>
        <time>2021-09-07T06:44:43Z</time>
      </trkpt>
      <trkpt lat="45.22149" lon="4.63722">
        <ele>518.59997558594</ele>
        <time>2021-09-07T06:44:46Z</time>
      </trkpt>
      <trkpt lat="45.22065" lon="4.63676">
        <ele>515.59997558594</ele>
        <time>2021-09-07T06:44:59Z</time>
      </trkpt>
      <trkpt lat="45.22057" lon="4.63638">
        <ele>514.79998779297</ele>
        <time>2021-09-07T06:45:05Z</time>
      </trkpt>
      <trkpt lat="45.22068" lon="4.63627">
        <ele>513.79998779297</ele>
        <time>2021-09-07T06:45:07Z</time>
      </trkpt>
      <trkpt lat="45.22081" lon="4.63615">
        <ele>513.20001220703</ele>
        <time>2021-09-07T06:45:09Z</time>
      </trkpt>
      <trkpt lat="45.22099" lon="4.63547">
        <ele>510.39999389648</ele>
        <time>2021-09-07T06:45:15Z</time>
      </trkpt>
      <trkpt lat="45.22097" lon="4.63533">
        <ele>510.20001220703</ele>
        <time>2021-09-07T06:45:16Z</time>
      </trkpt>
      <trkpt lat="45.22095" lon="4.63521">
        <ele>509.79998779297</ele>
        <time>2021-09-07T06:45:17Z</time>
      </trkpt>
      <trkpt lat="45.22109" lon="4.63468">
        <ele>506.79998779297</ele>
        <time>2021-09-07T06:45:22Z</time>
      </trkpt>
      <trkpt lat="45.22116" lon="4.63433">
        <ele>505.39999389648</ele>
        <time>2021-09-07T06:45:26Z</time>
      </trkpt>
      <trkpt lat="45.22115" lon="4.63425">
        <ele>505.39999389648</ele>
        <time>2021-09-07T06:45:27Z</time>
      </trkpt>
      <trkpt lat="45.2209" lon="4.6334">
        <ele>504.39999389648</ele>
        <time>2021-09-07T06:45:37Z</time>
      </trkpt>
      <trkpt lat="45.22087" lon="4.63328">
        <ele>504.20001220703</ele>
        <time>2021-09-07T06:45:38Z</time>
      </trkpt>
      <trkpt lat="45.22064" lon="4.63296">
        <ele>503.20001220703</ele>
        <time>2021-09-07T06:45:42Z</time>
      </trkpt>
      <trkpt lat="45.22037" lon="4.6327">
        <ele>501.60000610352</ele>
        <time>2021-09-07T06:45:46Z</time>
      </trkpt>
      <trkpt lat="45.22032" lon="4.63263">
        <ele>501.39999389648</ele>
        <time>2021-09-07T06:45:47Z</time>
      </trkpt>
      <trkpt lat="45.22017" lon="4.63236">
        <ele>500.39999389648</ele>
        <time>2021-09-07T06:45:50Z</time>
      </trkpt>
      <trkpt lat="45.22012" lon="4.63226">
        <ele>500.20001220703</ele>
        <time>2021-09-07T06:45:51Z</time>
      </trkpt>
      <trkpt lat="45.21967" lon="4.63175">
        <ele>497.60000610352</ele>
        <time>2021-09-07T06:45:58Z</time>
      </trkpt>
      <trkpt lat="45.21938" lon="4.63156">
        <ele>496.20001220703</ele>
        <time>2021-09-07T06:46:02Z</time>
      </trkpt>
      <trkpt lat="45.21922" lon="4.6312">
        <ele>493.60000610352</ele>
        <time>2021-09-07T06:46:08Z</time>
      </trkpt>
      <trkpt lat="45.21938" lon="4.63102">
        <ele>492.79998779297</ele>
        <time>2021-09-07T06:46:13Z</time>
      </trkpt>
      <trkpt lat="45.21946" lon="4.63099">
        <ele>492.60000610352</ele>
        <time>2021-09-07T06:46:15Z</time>
      </trkpt>
      <trkpt lat="45.21966" lon="4.63101">
        <ele>492.60000610352</ele>
        <time>2021-09-07T06:46:20Z</time>
      </trkpt>
      <trkpt lat="45.22004" lon="4.63109">
        <ele>495.60000610352</ele>
        <time>2021-09-07T06:46:33Z</time>
      </trkpt>
      <trkpt lat="45.22024" lon="4.63113">
        <ele>496.39999389648</ele>
        <time>2021-09-07T06:46:40Z</time>
      </trkpt>
      <trkpt lat="45.22061" lon="4.63124">
        <ele>499.60000610352</ele>
        <time>2021-09-07T06:46:54Z</time>
      </trkpt>
      <trkpt lat="45.22086" lon="4.63136">
        <ele>502.39999389648</ele>
        <time>2021-09-07T06:47:07Z</time>
      </trkpt>
      <trkpt lat="45.22108" lon="4.6316">
        <ele>505.20001220703</ele>
        <time>2021-09-07T06:47:21Z</time>
      </trkpt>
      <trkpt lat="45.22137" lon="4.63173">
        <ele>506.79998779297</ele>
        <time>2021-09-07T06:47:36Z</time>
      </trkpt>
      <trkpt lat="45.22164" lon="4.63179">
        <ele>508.20001220703</ele>
        <time>2021-09-07T06:47:48Z</time>
      </trkpt>
      <trkpt lat="45.22188" lon="4.63185">
        <ele>509.79998779297</ele>
        <time>2021-09-07T06:48:00Z</time>
      </trkpt>
      <trkpt lat="45.22216" lon="4.6319">
        <ele>511.39999389648</ele>
        <time>2021-09-07T06:48:12Z</time>
      </trkpt>
      <trkpt lat="45.22248" lon="4.63213">
        <ele>512.79998779297</ele>
        <time>2021-09-07T06:48:26Z</time>
      </trkpt>
      <trkpt lat="45.22282" lon="4.63219">
        <ele>514.59997558594</ele>
        <time>2021-09-07T06:48:41Z</time>
      </trkpt>
      <trkpt lat="45.22307" lon="4.63221">
        <ele>516.79998779297</ele>
        <time>2021-09-07T06:48:52Z</time>
      </trkpt>
      <trkpt lat="45.22333" lon="4.63209">
        <ele>518.40002441406</ele>
        <time>2021-09-07T06:49:05Z</time>
      </trkpt>
      <trkpt lat="45.22351" lon="4.63179">
        <ele>519.59997558594</ele>
        <time>2021-09-07T06:49:18Z</time>
      </trkpt>
      <trkpt lat="45.22359" lon="4.63129">
        <ele>522</ele>
        <time>2021-09-07T06:49:35Z</time>
      </trkpt>
      <trkpt lat="45.22352" lon="4.6308">
        <ele>524.59997558594</ele>
        <time>2021-09-07T06:49:52Z</time>
      </trkpt>
      <trkpt lat="45.22344" lon="4.63042">
        <ele>526.40002441406</ele>
        <time>2021-09-07T06:50:07Z</time>
      </trkpt>
      <trkpt lat="45.22338" lon="4.62997">
        <ele>528.40002441406</ele>
        <time>2021-09-07T06:50:23Z</time>
      </trkpt>
      <trkpt lat="45.22336" lon="4.62957">
        <ele>530.20001220703</ele>
        <time>2021-09-07T06:50:38Z</time>
      </trkpt>
      <trkpt lat="45.22315" lon="4.62956">
        <ele>533.40002441406</ele>
        <time>2021-09-07T06:50:51Z</time>
      </trkpt>
      <trkpt lat="45.22295" lon="4.62954">
        <ele>536.40002441406</ele>
        <time>2021-09-07T06:51:03Z</time>
      </trkpt>
      <trkpt lat="45.22277" lon="4.62951">
        <ele>539.40002441406</ele>
        <time>2021-09-07T06:51:14Z</time>
      </trkpt>
      <trkpt lat="45.22259" lon="4.62945">
        <ele>542</ele>
        <time>2021-09-07T06:51:26Z</time>
      </trkpt>
      <trkpt lat="45.22258" lon="4.62937">
        <ele>542.79998779297</ele>
        <time>2021-09-07T06:51:30Z</time>
      </trkpt>
      <trkpt lat="45.22262" lon="4.62916">
        <ele>545.79998779297</ele>
        <time>2021-09-07T06:51:40Z</time>
      </trkpt>
      <trkpt lat="45.22272" lon="4.62889">
        <ele>548.79998779297</ele>
        <time>2021-09-07T06:51:54Z</time>
      </trkpt>
      <trkpt lat="45.22275" lon="4.62876">
        <ele>549.79998779297</ele>
        <time>2021-09-07T06:52:00Z</time>
      </trkpt>
      <trkpt lat="45.22262" lon="4.62876">
        <ele>550.79998779297</ele>
        <time>2021-09-07T06:52:08Z</time>
      </trkpt>
      <trkpt lat="45.22256" lon="4.62879">
        <ele>552.20001220703</ele>
        <time>2021-09-07T06:52:11Z</time>
      </trkpt>
      <trkpt lat="45.22228" lon="4.62889">
        <ele>555.20001220703</ele>
        <time>2021-09-07T06:52:27Z</time>
      </trkpt>
      <trkpt lat="45.22202" lon="4.62895">
        <ele>557.20001220703</ele>
        <time>2021-09-07T06:52:42Z</time>
      </trkpt>
      <trkpt lat="45.22173" lon="4.62887">
        <ele>559.79998779297</ele>
        <time>2021-09-07T06:52:58Z</time>
      </trkpt>
      <trkpt lat="45.22156" lon="4.62882">
        <ele>562.79998779297</ele>
        <time>2021-09-07T06:53:09Z</time>
      </trkpt>
      <trkpt lat="45.22137" lon="4.6287">
        <ele>565.79998779297</ele>
        <time>2021-09-07T06:53:22Z</time>
      </trkpt>
      <trkpt lat="45.22115" lon="4.62858">
        <ele>568.79998779297</ele>
        <time>2021-09-07T06:53:36Z</time>
      </trkpt>
      <trkpt lat="45.22098" lon="4.62826">
        <ele>572</ele>
        <time>2021-09-07T06:53:53Z</time>
      </trkpt>
      <trkpt lat="45.22084" lon="4.62808">
        <ele>574.20001220703</ele>
        <time>2021-09-07T06:54:05Z</time>
      </trkpt>
      <trkpt lat="45.22064" lon="4.62791">
        <ele>576.79998779297</ele>
        <time>2021-09-07T06:54:20Z</time>
      </trkpt>
      <trkpt lat="45.22045" lon="4.62768">
        <ele>579.59997558594</ele>
        <time>2021-09-07T06:54:36Z</time>
      </trkpt>
      <trkpt lat="45.22026" lon="4.62755">
        <ele>582.79998779297</ele>
        <time>2021-09-07T06:54:51Z</time>
      </trkpt>
      <trkpt lat="45.22007" lon="4.62744">
        <ele>585</ele>
        <time>2021-09-07T06:55:04Z</time>
      </trkpt>
      <trkpt lat="45.21987" lon="4.6272">
        <ele>587</ele>
        <time>2021-09-07T06:55:21Z</time>
      </trkpt>
      <trkpt lat="45.21981" lon="4.62709">
        <ele>588.40002441406</ele>
        <time>2021-09-07T06:55:28Z</time>
      </trkpt>
      <trkpt lat="45.21979" lon="4.62697">
        <ele>589.59997558594</ele>
        <time>2021-09-07T06:55:35Z</time>
      </trkpt>
      <trkpt lat="45.21975" lon="4.62684">
        <ele>591.59997558594</ele>
        <time>2021-09-07T06:55:42Z</time>
      </trkpt>
      <trkpt lat="45.21971" lon="4.62676">
        <ele>592.59997558594</ele>
        <time>2021-09-07T06:55:46Z</time>
      </trkpt>
      <trkpt lat="45.21967" lon="4.62666">
        <ele>593.40002441406</ele>
        <time>2021-09-07T06:55:51Z</time>
      </trkpt>
      <trkpt lat="45.2196" lon="4.62654">
        <ele>594.40002441406</ele>
        <time>2021-09-07T06:55:58Z</time>
      </trkpt>
      <trkpt lat="45.21957" lon="4.62652">
        <ele>595.40002441406</ele>
        <time>2021-09-07T06:56:01Z</time>
      </trkpt>
      <trkpt lat="45.21949" lon="4.62645">
        <ele>596.79998779297</ele>
        <time>2021-09-07T06:56:11Z</time>
      </trkpt>
      <trkpt lat="45.21937" lon="4.62629">
        <ele>599.59997558594</ele>
        <time>2021-09-07T06:56:23Z</time>
      </trkpt>
      <trkpt lat="45.21931" lon="4.62621">
        <ele>602</ele>
        <time>2021-09-07T06:56:32Z</time>
      </trkpt>
      <trkpt lat="45.21923" lon="4.62608">
        <ele>603.79998779297</ele>
        <time>2021-09-07T06:56:38Z</time>
      </trkpt>
      <trkpt lat="45.21914" lon="4.62591">
        <ele>605.40002441406</ele>
        <time>2021-09-07T06:56:47Z</time>
      </trkpt>
      <trkpt lat="45.21906" lon="4.62575">
        <ele>607.79998779297</ele>
        <time>2021-09-07T06:57:00Z</time>
      </trkpt>
      <trkpt lat="45.21902" lon="4.62569">
        <ele>609</ele>
        <time>2021-09-07T06:57:04Z</time>
      </trkpt>
      <trkpt lat="45.21898" lon="4.62561">
        <ele>609.79998779297</ele>
        <time>2021-09-07T06:57:10Z</time>
      </trkpt>
      <trkpt lat="45.21897" lon="4.62559">
        <ele>610.20001220703</ele>
        <time>2021-09-07T06:57:11Z</time>
      </trkpt>
      <trkpt lat="45.21896" lon="4.62551">
        <ele>611.79998779297</ele>
        <time>2021-09-07T06:57:17Z</time>
      </trkpt>
      <trkpt lat="45.21891" lon="4.62544">
        <ele>613.20001220703</ele>
        <time>2021-09-07T06:57:24Z</time>
      </trkpt>
      <trkpt lat="45.21889" lon="4.62534">
        <ele>614.59997558594</ele>
        <time>2021-09-07T06:57:29Z</time>
      </trkpt>
      <trkpt lat="45.21882" lon="4.62516">
        <ele>616.20001220703</ele>
        <time>2021-09-07T06:57:38Z</time>
      </trkpt>
      <trkpt lat="45.21873" lon="4.62506">
        <ele>618.20001220703</ele>
        <time>2021-09-07T06:57:47Z</time>
      </trkpt>
      <trkpt lat="45.21868" lon="4.62501">
        <ele>619.79998779297</ele>
        <time>2021-09-07T06:57:58Z</time>
      </trkpt>
      <trkpt lat="45.21867" lon="4.62499">
        <ele>620</ele>
        <time>2021-09-07T06:58:01Z</time>
      </trkpt>
      <trkpt lat="45.21861" lon="4.62485">
        <ele>621.79998779297</ele>
        <time>2021-09-07T06:58:09Z</time>
      </trkpt>
      <trkpt lat="45.21865" lon="4.62482">
        <ele>623</ele>
        <time>2021-09-07T06:58:14Z</time>
      </trkpt>
      <trkpt lat="45.21874" lon="4.62485">
        <ele>623.40002441406</ele>
        <time>2021-09-07T06:58:23Z</time>
      </trkpt>
      <trkpt lat="45.21877" lon="4.62488">
        <ele>623.79998779297</ele>
        <time>2021-09-07T06:58:26Z</time>
      </trkpt>
      <trkpt lat="45.2188" lon="4.62487">
        <ele>624.59997558594</ele>
        <time>2021-09-07T06:58:31Z</time>
      </trkpt>
      <trkpt lat="45.21893" lon="4.62486">
        <ele>627.20001220703</ele>
        <time>2021-09-07T06:58:42Z</time>
      </trkpt>
      <trkpt lat="45.21894" lon="4.62486">
        <ele>627.59997558594</ele>
        <time>2021-09-07T06:58:43Z</time>
      </trkpt>
      <trkpt lat="45.21903" lon="4.62483">
        <ele>628.79998779297</ele>
        <time>2021-09-07T06:58:52Z</time>
      </trkpt>
      <trkpt lat="45.21911" lon="4.62485">
        <ele>629.59997558594</ele>
        <time>2021-09-07T06:58:56Z</time>
      </trkpt>
      <trkpt lat="45.21917" lon="4.62483">
        <ele>630.79998779297</ele>
        <time>2021-09-07T06:59:03Z</time>
      </trkpt>
      <trkpt lat="45.21919" lon="4.62484">
        <ele>631.20001220703</ele>
        <time>2021-09-07T06:59:05Z</time>
      </trkpt>
      <trkpt lat="45.21921" lon="4.62486">
        <ele>631.79998779297</ele>
        <time>2021-09-07T06:59:08Z</time>
      </trkpt>
      <trkpt lat="45.21932" lon="4.62487">
        <ele>633.40002441406</ele>
        <time>2021-09-07T06:59:16Z</time>
      </trkpt>
      <trkpt lat="45.21941" lon="4.62487">
        <ele>634.40002441406</ele>
        <time>2021-09-07T06:59:22Z</time>
      </trkpt>
      <trkpt lat="45.21953" lon="4.62488">
        <ele>636.79998779297</ele>
        <time>2021-09-07T06:59:31Z</time>
      </trkpt>
      <trkpt lat="45.21959" lon="4.62486">
        <ele>638</ele>
        <time>2021-09-07T06:59:36Z</time>
      </trkpt>
      <trkpt lat="45.21969" lon="4.62483">
        <ele>639.20001220703</ele>
        <time>2021-09-07T06:59:42Z</time>
      </trkpt>
      <trkpt lat="45.21973" lon="4.62484">
        <ele>639.59997558594</ele>
        <time>2021-09-07T06:59:45Z</time>
      </trkpt>
      <trkpt lat="45.21982" lon="4.6248">
        <ele>640.20001220703</ele>
        <time>2021-09-07T06:59:51Z</time>
      </trkpt>
      <trkpt lat="45.21986" lon="4.62481">
        <ele>641.40002441406</ele>
        <time>2021-09-07T06:59:55Z</time>
      </trkpt>
      <trkpt lat="45.21988" lon="4.62479">
        <ele>641.79998779297</ele>
        <time>2021-09-07T06:59:58Z</time>
      </trkpt>
      <trkpt lat="45.21994" lon="4.62475">
        <ele>642.79998779297</ele>
        <time>2021-09-07T07:00:03Z</time>
      </trkpt>
      <trkpt lat="45.22002" lon="4.62473">
        <ele>643.79998779297</ele>
        <time>2021-09-07T07:00:08Z</time>
      </trkpt>
      <trkpt lat="45.22004" lon="4.6247">
        <ele>644.79998779297</ele>
        <time>2021-09-07T07:00:12Z</time>
      </trkpt>
      <trkpt lat="45.22007" lon="4.62472">
        <ele>645.79998779297</ele>
        <time>2021-09-07T07:00:16Z</time>
      </trkpt>
      <trkpt lat="45.22009" lon="4.62472">
        <ele>646.20001220703</ele>
        <time>2021-09-07T07:00:19Z</time>
      </trkpt>
      <trkpt lat="45.22016" lon="4.62471">
        <ele>646.79998779297</ele>
        <time>2021-09-07T07:00:23Z</time>
      </trkpt>
      <trkpt lat="45.22029" lon="4.62466">
        <ele>648</ele>
        <time>2021-09-07T07:00:29Z</time>
      </trkpt>
      <trkpt lat="45.22032" lon="4.62467">
        <ele>648.59997558594</ele>
        <time>2021-09-07T07:00:32Z</time>
      </trkpt>
      <trkpt lat="45.22041" lon="4.62462">
        <ele>650</ele>
        <time>2021-09-07T07:00:38Z</time>
      </trkpt>
      <trkpt lat="45.22047" lon="4.62456">
        <ele>650.79998779297</ele>
        <time>2021-09-07T07:00:43Z</time>
      </trkpt>
      <trkpt lat="45.22054" lon="4.62457">
        <ele>651.40002441406</ele>
        <time>2021-09-07T07:00:46Z</time>
      </trkpt>
      <trkpt lat="45.22055" lon="4.62456">
        <ele>651.59997558594</ele>
        <time>2021-09-07T07:00:47Z</time>
      </trkpt>
      <trkpt lat="45.22057" lon="4.62454">
        <ele>651.59997558594</ele>
        <time>2021-09-07T07:00:48Z</time>
      </trkpt>
      <trkpt lat="45.22058" lon="4.62452">
        <ele>652</ele>
        <time>2021-09-07T07:00:50Z</time>
      </trkpt>
      <trkpt lat="45.22061" lon="4.62452">
        <ele>652.79998779297</ele>
        <time>2021-09-07T07:00:53Z</time>
      </trkpt>
      <trkpt lat="45.22067" lon="4.6245">
        <ele>653.79998779297</ele>
        <time>2021-09-07T07:00:59Z</time>
      </trkpt>
      <trkpt lat="45.22073" lon="4.62449">
        <ele>654.79998779297</ele>
        <time>2021-09-07T07:01:04Z</time>
      </trkpt>
      <trkpt lat="45.22079" lon="4.62446">
        <ele>655.40002441406</ele>
        <time>2021-09-07T07:01:08Z</time>
      </trkpt>
      <trkpt lat="45.22089" lon="4.62448">
        <ele>656.59997558594</ele>
        <time>2021-09-07T07:01:15Z</time>
      </trkpt>
      <trkpt lat="45.22101" lon="4.62448">
        <ele>657.40002441406</ele>
        <time>2021-09-07T07:01:21Z</time>
      </trkpt>
      <trkpt lat="45.22107" lon="4.62445">
        <ele>657.79998779297</ele>
        <time>2021-09-07T07:01:25Z</time>
      </trkpt>
      <trkpt lat="45.22116" lon="4.62445">
        <ele>658.20001220703</ele>
        <time>2021-09-07T07:01:33Z</time>
      </trkpt>
      <trkpt lat="45.22126" lon="4.6245">
        <ele>658.59997558594</ele>
        <time>2021-09-07T07:01:37Z</time>
      </trkpt>
      <trkpt lat="45.22134" lon="4.62441">
        <ele>658.79998779297</ele>
        <time>2021-09-07T07:01:44Z</time>
      </trkpt>
      <trkpt lat="45.22119" lon="4.6243">
        <ele>661.59997558594</ele>
        <time>2021-09-07T07:01:56Z</time>
      </trkpt>
      <trkpt lat="45.22117" lon="4.62428">
        <ele>662.59997558594</ele>
        <time>2021-09-07T07:01:58Z</time>
      </trkpt>
      <trkpt lat="45.22108" lon="4.62418">
        <ele>665.40002441406</ele>
        <time>2021-09-07T07:02:10Z</time>
      </trkpt>
      <trkpt lat="45.22104" lon="4.62415">
        <ele>668</ele>
        <time>2021-09-07T07:02:21Z</time>
      </trkpt>
      <trkpt lat="45.22104" lon="4.62415">
        <ele>668.20001220703</ele>
        <time>2021-09-07T07:02:29Z</time>
      </trkpt>
      <trkpt lat="45.22099" lon="4.62411">
        <ele>671.79998779297</ele>
        <time>2021-09-07T07:04:45Z</time>
      </trkpt>
      <trkpt lat="45.22098" lon="4.6241">
        <ele>672</ele>
        <time>2021-09-07T07:04:46Z</time>
      </trkpt>
      <trkpt lat="45.22072" lon="4.62389">
        <ele>673.79998779297</ele>
        <time>2021-09-07T07:05:10Z</time>
      </trkpt>
      <trkpt lat="45.22063" lon="4.62382">
        <ele>675.20001220703</ele>
        <time>2021-09-07T07:05:16Z</time>
      </trkpt>
      <trkpt lat="45.22061" lon="4.6238">
        <ele>675.40002441406</ele>
        <time>2021-09-07T07:05:17Z</time>
      </trkpt>
      <trkpt lat="45.2206" lon="4.62375">
        <ele>676.40002441406</ele>
        <time>2021-09-07T07:05:20Z</time>
      </trkpt>
      <trkpt lat="45.22057" lon="4.62368">
        <ele>677.20001220703</ele>
        <time>2021-09-07T07:05:23Z</time>
      </trkpt>
      <trkpt lat="45.22049" lon="4.62358">
        <ele>679.20001220703</ele>
        <time>2021-09-07T07:05:31Z</time>
      </trkpt>
      <trkpt lat="45.22045" lon="4.62356">
        <ele>679.59997558594</ele>
        <time>2021-09-07T07:05:34Z</time>
      </trkpt>
      <trkpt lat="45.2204" lon="4.62349">
        <ele>681</ele>
        <time>2021-09-07T07:05:40Z</time>
      </trkpt>
      <trkpt lat="45.22035" lon="4.62346">
        <ele>682.20001220703</ele>
        <time>2021-09-07T07:05:44Z</time>
      </trkpt>
      <trkpt lat="45.22027" lon="4.62328">
        <ele>684.59997558594</ele>
        <time>2021-09-07T07:05:54Z</time>
      </trkpt>
      <trkpt lat="45.22027" lon="4.62326">
        <ele>684.79998779297</ele>
        <time>2021-09-07T07:05:55Z</time>
      </trkpt>
      <trkpt lat="45.22023" lon="4.6232">
        <ele>685.59997558594</ele>
        <time>2021-09-07T07:05:59Z</time>
      </trkpt>
      <trkpt lat="45.22005" lon="4.62306">
        <ele>687.59997558594</ele>
        <time>2021-09-07T07:06:11Z</time>
      </trkpt>
      <trkpt lat="45.21998" lon="4.62297">
        <ele>688.79998779297</ele>
        <time>2021-09-07T07:06:21Z</time>
      </trkpt>
      <trkpt lat="45.21988" lon="4.62285">
        <ele>690</ele>
        <time>2021-09-07T07:06:31Z</time>
      </trkpt>
      <trkpt lat="45.21972" lon="4.62267">
        <ele>691.40002441406</ele>
        <time>2021-09-07T07:06:42Z</time>
      </trkpt>
      <trkpt lat="45.2197" lon="4.62266">
        <ele>691.59997558594</ele>
        <time>2021-09-07T07:06:43Z</time>
      </trkpt>
      <trkpt lat="45.21951" lon="4.6225">
        <ele>693.40002441406</ele>
        <time>2021-09-07T07:06:56Z</time>
      </trkpt>
      <trkpt lat="45.21929" lon="4.62241">
        <ele>695</ele>
        <time>2021-09-07T07:07:10Z</time>
      </trkpt>
      <trkpt lat="45.21919" lon="4.62239">
        <ele>695.59997558594</ele>
        <time>2021-09-07T07:07:16Z</time>
      </trkpt>
      <trkpt lat="45.21899" lon="4.62238">
        <ele>696.59997558594</ele>
        <time>2021-09-07T07:07:27Z</time>
      </trkpt>
      <trkpt lat="45.21875" lon="4.62232">
        <ele>699</ele>
        <time>2021-09-07T07:07:40Z</time>
      </trkpt>
      <trkpt lat="45.21852" lon="4.62221">
        <ele>701</ele>
        <time>2021-09-07T07:07:55Z</time>
      </trkpt>
      <trkpt lat="45.21829" lon="4.62211">
        <ele>703.20001220703</ele>
        <time>2021-09-07T07:08:08Z</time>
      </trkpt>
      <trkpt lat="45.21809" lon="4.62206">
        <ele>704.79998779297</ele>
        <time>2021-09-07T07:08:20Z</time>
      </trkpt>
      <trkpt lat="45.21796" lon="4.62205">
        <ele>705.79998779297</ele>
        <time>2021-09-07T07:08:27Z</time>
      </trkpt>
      <trkpt lat="45.21784" lon="4.62201">
        <ele>706.79998779297</ele>
        <time>2021-09-07T07:08:34Z</time>
      </trkpt>
      <trkpt lat="45.2178" lon="4.62204">
        <ele>707.20001220703</ele>
        <time>2021-09-07T07:08:39Z</time>
      </trkpt>
      <trkpt lat="45.21765" lon="4.62213">
        <ele>708.59997558594</ele>
        <time>2021-09-07T07:08:48Z</time>
      </trkpt>
      <trkpt lat="45.21763" lon="4.62215">
        <ele>708.59997558594</ele>
        <time>2021-09-07T07:08:49Z</time>
      </trkpt>
      <trkpt lat="45.2175" lon="4.62228">
        <ele>710</ele>
        <time>2021-09-07T07:08:57Z</time>
      </trkpt>
      <trkpt lat="45.21731" lon="4.62243">
        <ele>710.79998779297</ele>
        <time>2021-09-07T07:09:07Z</time>
      </trkpt>
      <trkpt lat="45.217" lon="4.62243">
        <ele>712.20001220703</ele>
        <time>2021-09-07T07:09:21Z</time>
      </trkpt>
      <trkpt lat="45.2167" lon="4.62231">
        <ele>713.40002441406</ele>
        <time>2021-09-07T07:09:36Z</time>
      </trkpt>
      <trkpt lat="45.21647" lon="4.6222">
        <ele>714.79998779297</ele>
        <time>2021-09-07T07:09:47Z</time>
      </trkpt>
      <trkpt lat="45.21624" lon="4.62208">
        <ele>716</ele>
        <time>2021-09-07T07:09:57Z</time>
      </trkpt>
      <trkpt lat="45.21599" lon="4.62194">
        <ele>716.79998779297</ele>
        <time>2021-09-07T07:10:07Z</time>
      </trkpt>
      <trkpt lat="45.21567" lon="4.62175">
        <ele>718</ele>
        <time>2021-09-07T07:10:19Z</time>
      </trkpt>
      <trkpt lat="45.21532" lon="4.62154">
        <ele>718.79998779297</ele>
        <time>2021-09-07T07:10:32Z</time>
      </trkpt>
      <trkpt lat="45.21489" lon="4.62138">
        <ele>719</ele>
        <time>2021-09-07T07:10:45Z</time>
      </trkpt>
      <trkpt lat="45.21448" lon="4.62126">
        <ele>719.20001220703</ele>
        <time>2021-09-07T07:10:57Z</time>
      </trkpt>
      <trkpt lat="45.21445" lon="4.62124">
        <ele>719.20001220703</ele>
        <time>2021-09-07T07:10:58Z</time>
      </trkpt>
      <trkpt lat="45.21409" lon="4.62088">
        <ele>720.59997558594</ele>
        <time>2021-09-07T07:11:11Z</time>
      </trkpt>
      <trkpt lat="45.21404" lon="4.62082">
        <ele>720.59997558594</ele>
        <time>2021-09-07T07:11:13Z</time>
      </trkpt>
      <trkpt lat="45.21396" lon="4.62039">
        <ele>721</ele>
        <time>2021-09-07T07:11:22Z</time>
      </trkpt>
      <trkpt lat="45.21395" lon="4.6202">
        <ele>721.40002441406</ele>
        <time>2021-09-07T07:11:26Z</time>
      </trkpt>
      <trkpt lat="45.21402" lon="4.61952">
        <ele>723.40002441406</ele>
        <time>2021-09-07T07:11:41Z</time>
      </trkpt>
      <trkpt lat="45.21415" lon="4.6189">
        <ele>725.79998779297</ele>
        <time>2021-09-07T07:11:56Z</time>
      </trkpt>
      <trkpt lat="45.21433" lon="4.61844">
        <ele>727.40002441406</ele>
        <time>2021-09-07T07:12:09Z</time>
      </trkpt>
      <trkpt lat="45.21459" lon="4.61804">
        <ele>729.59997558594</ele>
        <time>2021-09-07T07:12:23Z</time>
      </trkpt>
      <trkpt lat="45.21475" lon="4.61773">
        <ele>731</ele>
        <time>2021-09-07T07:12:33Z</time>
      </trkpt>
      <trkpt lat="45.215" lon="4.61735">
        <ele>732.59997558594</ele>
        <time>2021-09-07T07:12:47Z</time>
      </trkpt>
      <trkpt lat="45.21521" lon="4.617">
        <ele>734.20001220703</ele>
        <time>2021-09-07T07:12:59Z</time>
      </trkpt>
      <trkpt lat="45.21546" lon="4.61673">
        <ele>735.79998779297</ele>
        <time>2021-09-07T07:13:09Z</time>
      </trkpt>
      <trkpt lat="45.21558" lon="4.61658">
        <ele>736.20001220703</ele>
        <time>2021-09-07T07:13:14Z</time>
      </trkpt>
      <trkpt lat="45.21561" lon="4.6164">
        <ele>736.59997558594</ele>
        <time>2021-09-07T07:13:19Z</time>
      </trkpt>
      <trkpt lat="45.2155" lon="4.6162">
        <ele>737.59997558594</ele>
        <time>2021-09-07T07:13:26Z</time>
      </trkpt>
      <trkpt lat="45.2153" lon="4.61596">
        <ele>739.40002441406</ele>
        <time>2021-09-07T07:13:38Z</time>
      </trkpt>
      <trkpt lat="45.21518" lon="4.61564">
        <ele>740.79998779297</ele>
        <time>2021-09-07T07:13:47Z</time>
      </trkpt>
      <trkpt lat="45.21517" lon="4.61558">
        <ele>741.20001220703</ele>
        <time>2021-09-07T07:13:49Z</time>
      </trkpt>
      <trkpt lat="45.21498" lon="4.61528">
        <ele>742.20001220703</ele>
        <time>2021-09-07T07:13:58Z</time>
      </trkpt>
      <trkpt lat="45.21492" lon="4.61517">
        <ele>742.20001220703</ele>
        <time>2021-09-07T07:14:00Z</time>
      </trkpt>
      <trkpt lat="45.21478" lon="4.61487">
        <ele>742.20001220703</ele>
        <time>2021-09-07T07:14:05Z</time>
      </trkpt>
      <trkpt lat="45.21472" lon="4.61469">
        <ele>742</ele>
        <time>2021-09-07T07:14:08Z</time>
      </trkpt>
      <trkpt lat="45.21464" lon="4.61453">
        <ele>741.79998779297</ele>
        <time>2021-09-07T07:14:11Z</time>
      </trkpt>
      <trkpt lat="45.21431" lon="4.61387">
        <ele>740.20001220703</ele>
        <time>2021-09-07T07:14:24Z</time>
      </trkpt>
      <trkpt lat="45.21418" lon="4.61372">
        <ele>739.59997558594</ele>
        <time>2021-09-07T07:14:28Z</time>
      </trkpt>
      <trkpt lat="45.21394" lon="4.61366">
        <ele>739.40002441406</ele>
        <time>2021-09-07T07:14:34Z</time>
      </trkpt>
      <trkpt lat="45.2137" lon="4.6137">
        <ele>740.20001220703</ele>
        <time>2021-09-07T07:14:43Z</time>
      </trkpt>
      <trkpt lat="45.21355" lon="4.61381">
        <ele>743.59997558594</ele>
        <time>2021-09-07T07:14:55Z</time>
      </trkpt>
      <trkpt lat="45.21351" lon="4.61383">
        <ele>743.79998779297</ele>
        <time>2021-09-07T07:14:56Z</time>
      </trkpt>
      <trkpt lat="45.2135" lon="4.61385">
        <ele>744.20001220703</ele>
        <time>2021-09-07T07:14:57Z</time>
      </trkpt>
      <trkpt lat="45.21332" lon="4.61393">
        <ele>744.79998779297</ele>
        <time>2021-09-07T07:15:03Z</time>
      </trkpt>
      <trkpt lat="45.21327" lon="4.61401">
        <ele>745.40002441406</ele>
        <time>2021-09-07T07:15:07Z</time>
      </trkpt>
      <trkpt lat="45.21308" lon="4.61417">
        <ele>746.40002441406</ele>
        <time>2021-09-07T07:15:14Z</time>
      </trkpt>
      <trkpt lat="45.21289" lon="4.61424">
        <ele>747.20001220703</ele>
        <time>2021-09-07T07:15:20Z</time>
      </trkpt>
      <trkpt lat="45.21275" lon="4.61431">
        <ele>747.59997558594</ele>
        <time>2021-09-07T07:15:26Z</time>
      </trkpt>
      <trkpt lat="45.2126" lon="4.61435">
        <ele>748</ele>
        <time>2021-09-07T07:15:32Z</time>
      </trkpt>
      <trkpt lat="45.21255" lon="4.61435">
        <ele>748.40002441406</ele>
        <time>2021-09-07T07:15:34Z</time>
      </trkpt>
      <trkpt lat="45.2122" lon="4.61435">
        <ele>750.59997558594</ele>
        <time>2021-09-07T07:15:48Z</time>
      </trkpt>
      <trkpt lat="45.212" lon="4.6143">
        <ele>751.59997558594</ele>
        <time>2021-09-07T07:15:56Z</time>
      </trkpt>
      <trkpt lat="45.21176" lon="4.6141">
        <ele>752.59997558594</ele>
        <time>2021-09-07T07:16:07Z</time>
      </trkpt>
      <trkpt lat="45.21172" lon="4.61393">
        <ele>752.79998779297</ele>
        <time>2021-09-07T07:16:12Z</time>
      </trkpt>
      <trkpt lat="45.21163" lon="4.61369">
        <ele>754.20001220703</ele>
        <time>2021-09-07T07:16:19Z</time>
      </trkpt>
      <trkpt lat="45.21162" lon="4.61365">
        <ele>754.40002441406</ele>
        <time>2021-09-07T07:16:20Z</time>
      </trkpt>
      <trkpt lat="45.21159" lon="4.6135">
        <ele>754.79998779297</ele>
        <time>2021-09-07T07:16:24Z</time>
      </trkpt>
      <trkpt lat="45.21152" lon="4.61332">
        <ele>755</ele>
        <time>2021-09-07T07:16:29Z</time>
      </trkpt>
      <trkpt lat="45.21151" lon="4.61329">
        <ele>755.20001220703</ele>
        <time>2021-09-07T07:16:30Z</time>
      </trkpt>
      <trkpt lat="45.21155" lon="4.61316">
        <ele>755.40002441406</ele>
        <time>2021-09-07T07:16:33Z</time>
      </trkpt>
      <trkpt lat="45.21151" lon="4.61293">
        <ele>756.20001220703</ele>
        <time>2021-09-07T07:16:40Z</time>
      </trkpt>
      <trkpt lat="45.21147" lon="4.61273">
        <ele>757.40002441406</ele>
        <time>2021-09-07T07:16:46Z</time>
      </trkpt>
      <trkpt lat="45.21146" lon="4.61266">
        <ele>758.20001220703</ele>
        <time>2021-09-07T07:16:48Z</time>
      </trkpt>
      <trkpt lat="45.21143" lon="4.61259">
        <ele>758.59997558594</ele>
        <time>2021-09-07T07:16:50Z</time>
      </trkpt>
      <trkpt lat="45.21134" lon="4.61233">
        <ele>759.40002441406</ele>
        <time>2021-09-07T07:16:57Z</time>
      </trkpt>
      <trkpt lat="45.21133" lon="4.61215">
        <ele>759.79998779297</ele>
        <time>2021-09-07T07:17:03Z</time>
      </trkpt>
      <trkpt lat="45.21124" lon="4.61191">
        <ele>761.20001220703</ele>
        <time>2021-09-07T07:17:11Z</time>
      </trkpt>
      <trkpt lat="45.21121" lon="4.61188">
        <ele>761.40002441406</ele>
        <time>2021-09-07T07:17:12Z</time>
      </trkpt>
      <trkpt lat="45.21115" lon="4.61177">
        <ele>761.79998779297</ele>
        <time>2021-09-07T07:17:16Z</time>
      </trkpt>
      <trkpt lat="45.2111" lon="4.61173">
        <ele>762</ele>
        <time>2021-09-07T07:17:18Z</time>
      </trkpt>
      <trkpt lat="45.21102" lon="4.61158">
        <ele>762.59997558594</ele>
        <time>2021-09-07T07:17:23Z</time>
      </trkpt>
      <trkpt lat="45.21095" lon="4.61138">
        <ele>764</ele>
        <time>2021-09-07T07:17:29Z</time>
      </trkpt>
      <trkpt lat="45.21093" lon="4.61135">
        <ele>764</ele>
        <time>2021-09-07T07:17:30Z</time>
      </trkpt>
      <trkpt lat="45.2109" lon="4.6113">
        <ele>764.20001220703</ele>
        <time>2021-09-07T07:17:32Z</time>
      </trkpt>
      <trkpt lat="45.21079" lon="4.61112">
        <ele>765</ele>
        <time>2021-09-07T07:17:39Z</time>
      </trkpt>
      <trkpt lat="45.21073" lon="4.61082">
        <ele>766.59997558594</ele>
        <time>2021-09-07T07:17:48Z</time>
      </trkpt>
      <trkpt lat="45.21072" lon="4.61076">
        <ele>767</ele>
        <time>2021-09-07T07:17:50Z</time>
      </trkpt>
      <trkpt lat="45.21065" lon="4.61064">
        <ele>767.40002441406</ele>
        <time>2021-09-07T07:17:54Z</time>
      </trkpt>
      <trkpt lat="45.21065" lon="4.61061">
        <ele>767.59997558594</ele>
        <time>2021-09-07T07:17:55Z</time>
      </trkpt>
      <trkpt lat="45.21055" lon="4.61041">
        <ele>768.40002441406</ele>
        <time>2021-09-07T07:18:02Z</time>
      </trkpt>
      <trkpt lat="45.21054" lon="4.61039">
        <ele>768.59997558594</ele>
        <time>2021-09-07T07:18:03Z</time>
      </trkpt>
      <trkpt lat="45.21046" lon="4.61021">
        <ele>769.20001220703</ele>
        <time>2021-09-07T07:18:07Z</time>
      </trkpt>
      <trkpt lat="45.21045" lon="4.61018">
        <ele>769.20001220703</ele>
        <time>2021-09-07T07:18:08Z</time>
      </trkpt>
      <trkpt lat="45.21041" lon="4.61014">
        <ele>769.59997558594</ele>
        <time>2021-09-07T07:18:11Z</time>
      </trkpt>
      <trkpt lat="45.21039" lon="4.60998">
        <ele>770.40002441406</ele>
        <time>2021-09-07T07:18:17Z</time>
      </trkpt>
      <trkpt lat="45.21036" lon="4.60993">
        <ele>770.59997558594</ele>
        <time>2021-09-07T07:18:19Z</time>
      </trkpt>
      <trkpt lat="45.21031" lon="4.60985">
        <ele>771</ele>
        <time>2021-09-07T07:18:22Z</time>
      </trkpt>
      <trkpt lat="45.21025" lon="4.60966">
        <ele>771.20001220703</ele>
        <time>2021-09-07T07:18:27Z</time>
      </trkpt>
      <trkpt lat="45.21023" lon="4.60959">
        <ele>771.40002441406</ele>
        <time>2021-09-07T07:18:29Z</time>
      </trkpt>
      <trkpt lat="45.21021" lon="4.60951">
        <ele>771.20001220703</ele>
        <time>2021-09-07T07:18:31Z</time>
      </trkpt>
      <trkpt lat="45.21012" lon="4.60923">
        <ele>772.20001220703</ele>
        <time>2021-09-07T07:18:39Z</time>
      </trkpt>
      <trkpt lat="45.21006" lon="4.60903">
        <ele>773.40002441406</ele>
        <time>2021-09-07T07:18:44Z</time>
      </trkpt>
      <trkpt lat="45.21005" lon="4.60899">
        <ele>773.59997558594</ele>
        <time>2021-09-07T07:18:45Z</time>
      </trkpt>
      <trkpt lat="45.20999" lon="4.60885">
        <ele>774.20001220703</ele>
        <time>2021-09-07T07:18:50Z</time>
      </trkpt>
      <trkpt lat="45.20997" lon="4.60883">
        <ele>774.40002441406</ele>
        <time>2021-09-07T07:18:51Z</time>
      </trkpt>
      <trkpt lat="45.20983" lon="4.60862">
        <ele>774.79998779297</ele>
        <time>2021-09-07T07:18:58Z</time>
      </trkpt>
      <trkpt lat="45.20981" lon="4.60853">
        <ele>775.20001220703</ele>
        <time>2021-09-07T07:19:01Z</time>
      </trkpt>
      <trkpt lat="45.20979" lon="4.60852">
        <ele>775.59997558594</ele>
        <time>2021-09-07T07:19:02Z</time>
      </trkpt>
      <trkpt lat="45.20969" lon="4.60839">
        <ele>776.40002441406</ele>
        <time>2021-09-07T07:19:08Z</time>
      </trkpt>
      <trkpt lat="45.20962" lon="4.60834">
        <ele>777</ele>
        <time>2021-09-07T07:19:12Z</time>
      </trkpt>
      <trkpt lat="45.20932" lon="4.60821">
        <ele>777.40002441406</ele>
        <time>2021-09-07T07:19:23Z</time>
      </trkpt>
      <trkpt lat="45.20905" lon="4.6082">
        <ele>779.20001220703</ele>
        <time>2021-09-07T07:19:33Z</time>
      </trkpt>
      <trkpt lat="45.20893" lon="4.60829">
        <ele>779.59997558594</ele>
        <time>2021-09-07T07:19:39Z</time>
      </trkpt>
      <trkpt lat="45.20886" lon="4.60829">
        <ele>779.59997558594</ele>
        <time>2021-09-07T07:19:42Z</time>
      </trkpt>
      <trkpt lat="45.20877" lon="4.6084">
        <ele>780.40002441406</ele>
        <time>2021-09-07T07:19:49Z</time>
      </trkpt>
      <trkpt lat="45.20861" lon="4.60852">
        <ele>781.20001220703</ele>
        <time>2021-09-07T07:19:56Z</time>
      </trkpt>
      <trkpt lat="45.20852" lon="4.60865">
        <ele>782.20001220703</ele>
        <time>2021-09-07T07:20:01Z</time>
      </trkpt>
      <trkpt lat="45.20835" lon="4.60889">
        <ele>782.79998779297</ele>
        <time>2021-09-07T07:20:08Z</time>
      </trkpt>
      <trkpt lat="45.2083" lon="4.60894">
        <ele>782.79998779297</ele>
        <time>2021-09-07T07:20:10Z</time>
      </trkpt>
      <trkpt lat="45.20816" lon="4.60915">
        <ele>783.59997558594</ele>
        <time>2021-09-07T07:20:16Z</time>
      </trkpt>
      <trkpt lat="45.20811" lon="4.60921">
        <ele>783.79998779297</ele>
        <time>2021-09-07T07:20:18Z</time>
      </trkpt>
      <trkpt lat="45.20809" lon="4.60923">
        <ele>784</ele>
        <time>2021-09-07T07:20:19Z</time>
      </trkpt>
      <trkpt lat="45.20806" lon="4.60939">
        <ele>784.79998779297</ele>
        <time>2021-09-07T07:20:24Z</time>
      </trkpt>
      <trkpt lat="45.20795" lon="4.60967">
        <ele>787</ele>
        <time>2021-09-07T07:20:34Z</time>
      </trkpt>
      <trkpt lat="45.20776" lon="4.61005">
        <ele>787.79998779297</ele>
        <time>2021-09-07T07:20:45Z</time>
      </trkpt>
      <trkpt lat="45.20774" lon="4.61007">
        <ele>787.79998779297</ele>
        <time>2021-09-07T07:20:46Z</time>
      </trkpt>
      <trkpt lat="45.20745" lon="4.61014">
        <ele>789</ele>
        <time>2021-09-07T07:20:55Z</time>
      </trkpt>
      <trkpt lat="45.20699" lon="4.61005">
        <ele>790</ele>
        <time>2021-09-07T07:21:10Z</time>
      </trkpt>
      <trkpt lat="45.20668" lon="4.60981">
        <ele>792.20001220703</ele>
        <time>2021-09-07T07:21:24Z</time>
      </trkpt>
      <trkpt lat="45.20654" lon="4.60969">
        <ele>793.40002441406</ele>
        <time>2021-09-07T07:21:31Z</time>
      </trkpt>
      <trkpt lat="45.20643" lon="4.60958">
        <ele>794.20001220703</ele>
        <time>2021-09-07T07:21:36Z</time>
      </trkpt>
      <trkpt lat="45.20621" lon="4.60936">
        <ele>795.59997558594</ele>
        <time>2021-09-07T07:21:47Z</time>
      </trkpt>
      <trkpt lat="45.20601" lon="4.60906">
        <ele>796.20001220703</ele>
        <time>2021-09-07T07:21:58Z</time>
      </trkpt>
      <trkpt lat="45.20585" lon="4.6089">
        <ele>797.20001220703</ele>
        <time>2021-09-07T07:22:05Z</time>
      </trkpt>
      <trkpt lat="45.20582" lon="4.60884">
        <ele>797.59997558594</ele>
        <time>2021-09-07T07:22:07Z</time>
      </trkpt>
      <trkpt lat="45.20572" lon="4.60876">
        <ele>798.20001220703</ele>
        <time>2021-09-07T07:22:11Z</time>
      </trkpt>
      <trkpt lat="45.20546" lon="4.60875">
        <ele>800</ele>
        <time>2021-09-07T07:22:23Z</time>
      </trkpt>
      <trkpt lat="45.20517" lon="4.60879">
        <ele>801.59997558594</ele>
        <time>2021-09-07T07:22:35Z</time>
      </trkpt>
      <trkpt lat="45.20493" lon="4.60878">
        <ele>803</ele>
        <time>2021-09-07T07:22:45Z</time>
      </trkpt>
      <trkpt lat="45.20476" lon="4.60895">
        <ele>803.59997558594</ele>
        <time>2021-09-07T07:22:52Z</time>
      </trkpt>
      <trkpt lat="45.2047" lon="4.60907">
        <ele>803.79998779297</ele>
        <time>2021-09-07T07:22:56Z</time>
      </trkpt>
      <trkpt lat="45.20466" lon="4.60912">
        <ele>804.20001220703</ele>
        <time>2021-09-07T07:22:58Z</time>
      </trkpt>
      <trkpt lat="45.20458" lon="4.60922">
        <ele>805.40002441406</ele>
        <time>2021-09-07T07:23:02Z</time>
      </trkpt>
      <trkpt lat="45.20437" lon="4.60946">
        <ele>806.40002441406</ele>
        <time>2021-09-07T07:23:12Z</time>
      </trkpt>
      <trkpt lat="45.20415" lon="4.60959">
        <ele>807.20001220703</ele>
        <time>2021-09-07T07:23:22Z</time>
      </trkpt>
      <trkpt lat="45.2041" lon="4.60961">
        <ele>807.59997558594</ele>
        <time>2021-09-07T07:23:25Z</time>
      </trkpt>
      <trkpt lat="45.20397" lon="4.60969">
        <ele>808</ele>
        <time>2021-09-07T07:23:30Z</time>
      </trkpt>
      <trkpt lat="45.20393" lon="4.6097">
        <ele>808.20001220703</ele>
        <time>2021-09-07T07:23:31Z</time>
      </trkpt>
      <trkpt lat="45.20373" lon="4.60974">
        <ele>809.20001220703</ele>
        <time>2021-09-07T07:23:36Z</time>
      </trkpt>
      <trkpt lat="45.20352" lon="4.60972">
        <ele>809.79998779297</ele>
        <time>2021-09-07T07:23:43Z</time>
      </trkpt>
      <trkpt lat="45.20343" lon="4.60966">
        <ele>810.20001220703</ele>
        <time>2021-09-07T07:23:47Z</time>
      </trkpt>
      <trkpt lat="45.20334" lon="4.60956">
        <ele>810.59997558594</ele>
        <time>2021-09-07T07:23:52Z</time>
      </trkpt>
      <trkpt lat="45.20317" lon="4.60939">
        <ele>812.59997558594</ele>
        <time>2021-09-07T07:24:03Z</time>
      </trkpt>
      <trkpt lat="45.20308" lon="4.60917">
        <ele>814.40002441406</ele>
        <time>2021-09-07T07:24:13Z</time>
      </trkpt>
      <trkpt lat="45.20299" lon="4.609">
        <ele>816</ele>
        <time>2021-09-07T07:24:23Z</time>
      </trkpt>
      <trkpt lat="45.20294" lon="4.60887">
        <ele>817.40002441406</ele>
        <time>2021-09-07T07:24:30Z</time>
      </trkpt>
      <trkpt lat="45.20292" lon="4.60886">
        <ele>817.79998779297</ele>
        <time>2021-09-07T07:24:32Z</time>
      </trkpt>
      <trkpt lat="45.20287" lon="4.6088">
        <ele>818.59997558594</ele>
        <time>2021-09-07T07:24:36Z</time>
      </trkpt>
      <trkpt lat="45.20283" lon="4.60868">
        <ele>819.59997558594</ele>
        <time>2021-09-07T07:24:42Z</time>
      </trkpt>
      <trkpt lat="45.20279" lon="4.60849">
        <ele>820.20001220703</ele>
        <time>2021-09-07T07:24:48Z</time>
      </trkpt>
      <trkpt lat="45.20276" lon="4.60847">
        <ele>821.40002441406</ele>
        <time>2021-09-07T07:24:52Z</time>
      </trkpt>
      <trkpt lat="45.20271" lon="4.6083">
        <ele>823</ele>
        <time>2021-09-07T07:24:59Z</time>
      </trkpt>
      <trkpt lat="45.20268" lon="4.60826">
        <ele>823.79998779297</ele>
        <time>2021-09-07T07:25:02Z</time>
      </trkpt>
      <trkpt lat="45.20268" lon="4.6082">
        <ele>824.40002441406</ele>
        <time>2021-09-07T07:25:04Z</time>
      </trkpt>
      <trkpt lat="45.20265" lon="4.60815">
        <ele>825.20001220703</ele>
        <time>2021-09-07T07:25:08Z</time>
      </trkpt>
      <trkpt lat="45.20265" lon="4.60814">
        <ele>825.59997558594</ele>
        <time>2021-09-07T07:25:11Z</time>
      </trkpt>
      <trkpt lat="45.2026" lon="4.60804">
        <ele>826.20001220703</ele>
        <time>2021-09-07T07:25:18Z</time>
      </trkpt>
      <trkpt lat="45.20256" lon="4.60799">
        <ele>826.79998779297</ele>
        <time>2021-09-07T07:25:20Z</time>
      </trkpt>
      <trkpt lat="45.20251" lon="4.60787">
        <ele>827.40002441406</ele>
        <time>2021-09-07T07:25:26Z</time>
      </trkpt>
      <trkpt lat="45.2025" lon="4.60771">
        <ele>828.40002441406</ele>
        <time>2021-09-07T07:25:32Z</time>
      </trkpt>
      <trkpt lat="45.20243" lon="4.60755">
        <ele>829.40002441406</ele>
        <time>2021-09-07T07:25:38Z</time>
      </trkpt>
      <trkpt lat="45.20243" lon="4.60755">
        <ele>829.40002441406</ele>
        <time>2021-09-07T07:25:39Z</time>
      </trkpt>
      <trkpt lat="45.20241" lon="4.60746">
        <ele>830.20001220703</ele>
        <time>2021-09-07T07:25:44Z</time>
      </trkpt>
      <trkpt lat="45.20234" lon="4.6073">
        <ele>831.59997558594</ele>
        <time>2021-09-07T07:25:50Z</time>
      </trkpt>
      <trkpt lat="45.2023" lon="4.60717">
        <ele>832.59997558594</ele>
        <time>2021-09-07T07:25:56Z</time>
      </trkpt>
      <trkpt lat="45.20232" lon="4.60711">
        <ele>833</ele>
        <time>2021-09-07T07:26:00Z</time>
      </trkpt>
      <trkpt lat="45.20231" lon="4.60708">
        <ele>833.79998779297</ele>
        <time>2021-09-07T07:26:04Z</time>
      </trkpt>
      <trkpt lat="45.20225" lon="4.60695">
        <ele>835</ele>
        <time>2021-09-07T07:26:12Z</time>
      </trkpt>
      <trkpt lat="45.20219" lon="4.60683">
        <ele>836</ele>
        <time>2021-09-07T07:26:19Z</time>
      </trkpt>
      <trkpt lat="45.20213" lon="4.60676">
        <ele>837</ele>
        <time>2021-09-07T07:26:23Z</time>
      </trkpt>
      <trkpt lat="45.20212" lon="4.60666">
        <ele>838.20001220703</ele>
        <time>2021-09-07T07:26:29Z</time>
      </trkpt>
      <trkpt lat="45.20212" lon="4.60665">
        <ele>839</ele>
        <time>2021-09-07T07:26:31Z</time>
      </trkpt>
      <trkpt lat="45.20202" lon="4.60646">
        <ele>840.20001220703</ele>
        <time>2021-09-07T07:26:36Z</time>
      </trkpt>
      <trkpt lat="45.20205" lon="4.6064">
        <ele>841.59997558594</ele>
        <time>2021-09-07T07:26:40Z</time>
      </trkpt>
      <trkpt lat="45.20198" lon="4.60629">
        <ele>843</ele>
        <time>2021-09-07T07:26:46Z</time>
      </trkpt>
      <trkpt lat="45.20196" lon="4.60624">
        <ele>845</ele>
        <time>2021-09-07T07:26:53Z</time>
      </trkpt>
      <trkpt lat="45.20186" lon="4.60605">
        <ele>846.20001220703</ele>
        <time>2021-09-07T07:26:59Z</time>
      </trkpt>
      <trkpt lat="45.20186" lon="4.60604">
        <ele>846.40002441406</ele>
        <time>2021-09-07T07:27:00Z</time>
      </trkpt>
      <trkpt lat="45.20183" lon="4.606">
        <ele>848.59997558594</ele>
        <time>2021-09-07T07:27:14Z</time>
      </trkpt>
      <trkpt lat="45.20182" lon="4.60597">
        <ele>850</ele>
        <time>2021-09-07T07:27:40Z</time>
      </trkpt>
      <trkpt lat="45.20175" lon="4.60585">
        <ele>853</ele>
        <time>2021-09-07T07:28:04Z</time>
      </trkpt>
      <trkpt lat="45.20173" lon="4.6058">
        <ele>853</ele>
        <time>2021-09-07T07:28:32Z</time>
      </trkpt>
      <trkpt lat="45.20164" lon="4.60552">
        <ele>855.20001220703</ele>
        <time>2021-09-07T07:29:14Z</time>
      </trkpt>
      <trkpt lat="45.2016" lon="4.60544">
        <ele>856</ele>
        <time>2021-09-07T07:29:17Z</time>
      </trkpt>
      <trkpt lat="45.20148" lon="4.60524">
        <ele>856.79998779297</ele>
        <time>2021-09-07T07:29:25Z</time>
      </trkpt>
      <trkpt lat="45.2014" lon="4.60508">
        <ele>857.79998779297</ele>
        <time>2021-09-07T07:29:33Z</time>
      </trkpt>
      <trkpt lat="45.20136" lon="4.60495">
        <ele>859</ele>
        <time>2021-09-07T07:29:40Z</time>
      </trkpt>
      <trkpt lat="45.20136" lon="4.60492">
        <ele>859.40002441406</ele>
        <time>2021-09-07T07:29:42Z</time>
      </trkpt>
      <trkpt lat="45.2013" lon="4.60477">
        <ele>861.20001220703</ele>
        <time>2021-09-07T07:29:52Z</time>
      </trkpt>
      <trkpt lat="45.2012" lon="4.60456">
        <ele>862.79998779297</ele>
        <time>2021-09-07T07:30:02Z</time>
      </trkpt>
      <trkpt lat="45.20118" lon="4.60453">
        <ele>863</ele>
        <time>2021-09-07T07:30:04Z</time>
      </trkpt>
      <trkpt lat="45.20114" lon="4.60446">
        <ele>863.79998779297</ele>
        <time>2021-09-07T07:30:08Z</time>
      </trkpt>
      <trkpt lat="45.20112" lon="4.60442">
        <ele>864.59997558594</ele>
        <time>2021-09-07T07:30:11Z</time>
      </trkpt>
      <trkpt lat="45.20106" lon="4.60432">
        <ele>865.20001220703</ele>
        <time>2021-09-07T07:30:16Z</time>
      </trkpt>
      <trkpt lat="45.20098" lon="4.60428">
        <ele>866</ele>
        <time>2021-09-07T07:30:21Z</time>
      </trkpt>
      <trkpt lat="45.20098" lon="4.60425">
        <ele>866</ele>
        <time>2021-09-07T07:30:23Z</time>
      </trkpt>
      <trkpt lat="45.20096" lon="4.60423">
        <ele>866.20001220703</ele>
        <time>2021-09-07T07:30:25Z</time>
      </trkpt>
      <trkpt lat="45.20095" lon="4.60416">
        <ele>867.20001220703</ele>
        <time>2021-09-07T07:30:30Z</time>
      </trkpt>
      <trkpt lat="45.20094" lon="4.60414">
        <ele>869.20001220703</ele>
        <time>2021-09-07T07:30:59Z</time>
      </trkpt>
      <trkpt lat="45.20083" lon="4.60399">
        <ele>871.40002441406</ele>
        <time>2021-09-07T07:33:16Z</time>
      </trkpt>
      <trkpt lat="45.20081" lon="4.60397">
        <ele>872.59997558594</ele>
        <time>2021-09-07T07:33:27Z</time>
      </trkpt>
      <trkpt lat="45.20077" lon="4.60396">
        <ele>875.20001220703</ele>
        <time>2021-09-07T07:33:46Z</time>
      </trkpt>
      <trkpt lat="45.20074" lon="4.60393">
        <ele>875.59997558594</ele>
        <time>2021-09-07T07:33:49Z</time>
      </trkpt>
      <trkpt lat="45.20072" lon="4.60379">
        <ele>876.59997558594</ele>
        <time>2021-09-07T07:33:59Z</time>
      </trkpt>
      <trkpt lat="45.20072" lon="4.60377">
        <ele>878</ele>
        <time>2021-09-07T07:34:05Z</time>
      </trkpt>
      <trkpt lat="45.20074" lon="4.60372">
        <ele>879.20001220703</ele>
        <time>2021-09-07T07:34:14Z</time>
      </trkpt>
      <trkpt lat="45.20082" lon="4.60361">
        <ele>881.40002441406</ele>
        <time>2021-09-07T07:34:33Z</time>
      </trkpt>
      <trkpt lat="45.20094" lon="4.60348">
        <ele>884.20001220703</ele>
        <time>2021-09-07T07:34:43Z</time>
      </trkpt>
      <trkpt lat="45.201" lon="4.60332">
        <ele>885.59997558594</ele>
        <time>2021-09-07T07:34:52Z</time>
      </trkpt>
      <trkpt lat="45.20105" lon="4.60321">
        <ele>886</ele>
        <time>2021-09-07T07:34:56Z</time>
      </trkpt>
      <trkpt lat="45.20098" lon="4.60309">
        <ele>886.20001220703</ele>
        <time>2021-09-07T07:35:02Z</time>
      </trkpt>
      <trkpt lat="45.20094" lon="4.60299">
        <ele>886.40002441406</ele>
        <time>2021-09-07T07:35:08Z</time>
      </trkpt>
      <trkpt lat="45.20085" lon="4.60283">
        <ele>887.20001220703</ele>
        <time>2021-09-07T07:35:15Z</time>
      </trkpt>
      <trkpt lat="45.20074" lon="4.60264">
        <ele>888.20001220703</ele>
        <time>2021-09-07T07:35:25Z</time>
      </trkpt>
      <trkpt lat="45.2006" lon="4.60253">
        <ele>890.40002441406</ele>
        <time>2021-09-07T07:35:35Z</time>
      </trkpt>
      <trkpt lat="45.20054" lon="4.60249">
        <ele>890.79998779297</ele>
        <time>2021-09-07T07:35:39Z</time>
      </trkpt>
      <trkpt lat="45.20046" lon="4.60248">
        <ele>891.40002441406</ele>
        <time>2021-09-07T07:35:44Z</time>
      </trkpt>
      <trkpt lat="45.20039" lon="4.60244">
        <ele>892.20001220703</ele>
        <time>2021-09-07T07:35:50Z</time>
      </trkpt>
      <trkpt lat="45.2003" lon="4.60237">
        <ele>893.59997558594</ele>
        <time>2021-09-07T07:35:58Z</time>
      </trkpt>
      <trkpt lat="45.20017" lon="4.60235">
        <ele>895.20001220703</ele>
        <time>2021-09-07T07:36:06Z</time>
      </trkpt>
      <trkpt lat="45.20015" lon="4.60235">
        <ele>896</ele>
        <time>2021-09-07T07:36:12Z</time>
      </trkpt>
      <trkpt lat="45.20008" lon="4.60227">
        <ele>897</ele>
        <time>2021-09-07T07:36:19Z</time>
      </trkpt>
      <trkpt lat="45.19999" lon="4.60221">
        <ele>897.59997558594</ele>
        <time>2021-09-07T07:36:24Z</time>
      </trkpt>
      <trkpt lat="45.19994" lon="4.60212">
        <ele>898.59997558594</ele>
        <time>2021-09-07T07:36:30Z</time>
      </trkpt>
      <trkpt lat="45.19993" lon="4.60207">
        <ele>899.40002441406</ele>
        <time>2021-09-07T07:36:33Z</time>
      </trkpt>
      <trkpt lat="45.19983" lon="4.60193">
        <ele>900</ele>
        <time>2021-09-07T07:36:37Z</time>
      </trkpt>
      <trkpt lat="45.19985" lon="4.60178">
        <ele>900.59997558594</ele>
        <time>2021-09-07T07:36:45Z</time>
      </trkpt>
      <trkpt lat="45.19974" lon="4.60171">
        <ele>901.40002441406</ele>
        <time>2021-09-07T07:36:49Z</time>
      </trkpt>
      <trkpt lat="45.1997" lon="4.60162">
        <ele>902.40002441406</ele>
        <time>2021-09-07T07:36:55Z</time>
      </trkpt>
      <trkpt lat="45.19969" lon="4.60152">
        <ele>902.79998779297</ele>
        <time>2021-09-07T07:36:59Z</time>
      </trkpt>
      <trkpt lat="45.19968" lon="4.60149">
        <ele>903</ele>
        <time>2021-09-07T07:37:01Z</time>
      </trkpt>
      <trkpt lat="45.19961" lon="4.60143">
        <ele>903.79998779297</ele>
        <time>2021-09-07T07:37:05Z</time>
      </trkpt>
      <trkpt lat="45.1996" lon="4.60139">
        <ele>904.20001220703</ele>
        <time>2021-09-07T07:37:07Z</time>
      </trkpt>
      <trkpt lat="45.19956" lon="4.60131">
        <ele>904.79998779297</ele>
        <time>2021-09-07T07:37:11Z</time>
      </trkpt>
      <trkpt lat="45.19952" lon="4.60124">
        <ele>905</ele>
        <time>2021-09-07T07:37:14Z</time>
      </trkpt>
      <trkpt lat="45.19946" lon="4.60102">
        <ele>905.59997558594</ele>
        <time>2021-09-07T07:37:22Z</time>
      </trkpt>
      <trkpt lat="45.19936" lon="4.60085">
        <ele>906.20001220703</ele>
        <time>2021-09-07T07:37:31Z</time>
      </trkpt>
      <trkpt lat="45.19922" lon="4.60063">
        <ele>907</ele>
        <time>2021-09-07T07:37:39Z</time>
      </trkpt>
      <trkpt lat="45.19917" lon="4.60051">
        <ele>907.20001220703</ele>
        <time>2021-09-07T07:37:43Z</time>
      </trkpt>
      <trkpt lat="45.19914" lon="4.60047">
        <ele>907.79998779297</ele>
        <time>2021-09-07T07:37:46Z</time>
      </trkpt>
      <trkpt lat="45.19915" lon="4.60042">
        <ele>908.59997558594</ele>
        <time>2021-09-07T07:37:49Z</time>
      </trkpt>
      <trkpt lat="45.19908" lon="4.60034">
        <ele>909.59997558594</ele>
        <time>2021-09-07T07:37:55Z</time>
      </trkpt>
      <trkpt lat="45.19903" lon="4.6003">
        <ele>910</ele>
        <time>2021-09-07T07:37:58Z</time>
      </trkpt>
      <trkpt lat="45.19895" lon="4.60012">
        <ele>911.40002441406</ele>
        <time>2021-09-07T07:38:08Z</time>
      </trkpt>
      <trkpt lat="45.19881" lon="4.59993">
        <ele>912.59997558594</ele>
        <time>2021-09-07T07:38:17Z</time>
      </trkpt>
      <trkpt lat="45.19875" lon="4.5998">
        <ele>913.79998779297</ele>
        <time>2021-09-07T07:38:24Z</time>
      </trkpt>
      <trkpt lat="45.19869" lon="4.59974">
        <ele>914.79998779297</ele>
        <time>2021-09-07T07:38:29Z</time>
      </trkpt>
      <trkpt lat="45.19861" lon="4.5996">
        <ele>917</ele>
        <time>2021-09-07T07:38:38Z</time>
      </trkpt>
      <trkpt lat="45.19854" lon="4.59955">
        <ele>917.40002441406</ele>
        <time>2021-09-07T07:38:42Z</time>
      </trkpt>
      <trkpt lat="45.19837" lon="4.59943">
        <ele>919.20001220703</ele>
        <time>2021-09-07T07:38:54Z</time>
      </trkpt>
      <trkpt lat="45.19827" lon="4.59946">
        <ele>920.59997558594</ele>
        <time>2021-09-07T07:39:02Z</time>
      </trkpt>
      <trkpt lat="45.1981" lon="4.59946">
        <ele>922.20001220703</ele>
        <time>2021-09-07T07:39:13Z</time>
      </trkpt>
      <trkpt lat="45.19808" lon="4.59946">
        <ele>922.40002441406</ele>
        <time>2021-09-07T07:39:15Z</time>
      </trkpt>
      <trkpt lat="45.19798" lon="4.59949">
        <ele>923.40002441406</ele>
        <time>2021-09-07T07:39:23Z</time>
      </trkpt>
      <trkpt lat="45.19778" lon="4.59957">
        <ele>924.79998779297</ele>
        <time>2021-09-07T07:39:34Z</time>
      </trkpt>
      <trkpt lat="45.19758" lon="4.59962">
        <ele>926.20001220703</ele>
        <time>2021-09-07T07:39:45Z</time>
      </trkpt>
      <trkpt lat="45.19743" lon="4.59964">
        <ele>927.79998779297</ele>
        <time>2021-09-07T07:39:54Z</time>
      </trkpt>
      <trkpt lat="45.19724" lon="4.59961">
        <ele>929.20001220703</ele>
        <time>2021-09-07T07:40:06Z</time>
      </trkpt>
      <trkpt lat="45.19718" lon="4.59959">
        <ele>929.79998779297</ele>
        <time>2021-09-07T07:40:10Z</time>
      </trkpt>
      <trkpt lat="45.19696" lon="4.59955">
        <ele>932.40002441406</ele>
        <time>2021-09-07T07:40:24Z</time>
      </trkpt>
      <trkpt lat="45.19677" lon="4.59954">
        <ele>933.79998779297</ele>
        <time>2021-09-07T07:40:34Z</time>
      </trkpt>
      <trkpt lat="45.19658" lon="4.59951">
        <ele>935.79998779297</ele>
        <time>2021-09-07T07:40:46Z</time>
      </trkpt>
      <trkpt lat="45.19641" lon="4.59953">
        <ele>936.79998779297</ele>
        <time>2021-09-07T07:40:56Z</time>
      </trkpt>
      <trkpt lat="45.19618" lon="4.59957">
        <ele>938.79998779297</ele>
        <time>2021-09-07T07:41:09Z</time>
      </trkpt>
      <trkpt lat="45.19606" lon="4.59964">
        <ele>939.79998779297</ele>
        <time>2021-09-07T07:41:18Z</time>
      </trkpt>
      <trkpt lat="45.19602" lon="4.59968">
        <ele>940.40002441406</ele>
        <time>2021-09-07T07:41:23Z</time>
      </trkpt>
      <trkpt lat="45.19586" lon="4.59981">
        <ele>941.59997558594</ele>
        <time>2021-09-07T07:41:33Z</time>
      </trkpt>
      <trkpt lat="45.19583" lon="4.59984">
        <ele>942</ele>
        <time>2021-09-07T07:41:35Z</time>
      </trkpt>
      <trkpt lat="45.19581" lon="4.59988">
        <ele>942.40002441406</ele>
        <time>2021-09-07T07:41:38Z</time>
      </trkpt>
      <trkpt lat="45.19576" lon="4.59991">
        <ele>942.79998779297</ele>
        <time>2021-09-07T07:41:40Z</time>
      </trkpt>
      <trkpt lat="45.19565" lon="4.60006">
        <ele>944</ele>
        <time>2021-09-07T07:41:49Z</time>
      </trkpt>
      <trkpt lat="45.19547" lon="4.60025">
        <ele>945.79998779297</ele>
        <time>2021-09-07T07:42:01Z</time>
      </trkpt>
      <trkpt lat="45.1953" lon="4.60036">
        <ele>947.20001220703</ele>
        <time>2021-09-07T07:42:12Z</time>
      </trkpt>
      <trkpt lat="45.1951" lon="4.60043">
        <ele>948.59997558594</ele>
        <time>2021-09-07T07:42:23Z</time>
      </trkpt>
      <trkpt lat="45.19489" lon="4.60047">
        <ele>950</ele>
        <time>2021-09-07T07:42:35Z</time>
      </trkpt>
      <trkpt lat="45.19472" lon="4.60042">
        <ele>951.79998779297</ele>
        <time>2021-09-07T07:42:45Z</time>
      </trkpt>
      <trkpt lat="45.1945" lon="4.60038">
        <ele>952.20001220703</ele>
        <time>2021-09-07T07:42:56Z</time>
      </trkpt>
      <trkpt lat="45.19434" lon="4.60027">
        <ele>954.20001220703</ele>
        <time>2021-09-07T07:43:05Z</time>
      </trkpt>
      <trkpt lat="45.19415" lon="4.60022">
        <ele>955.59997558594</ele>
        <time>2021-09-07T07:43:14Z</time>
      </trkpt>
      <trkpt lat="45.19393" lon="4.60011">
        <ele>956</ele>
        <time>2021-09-07T07:43:26Z</time>
      </trkpt>
      <trkpt lat="45.19387" lon="4.60009">
        <ele>956.40002441406</ele>
        <time>2021-09-07T07:43:29Z</time>
      </trkpt>
      <trkpt lat="45.19379" lon="4.60006">
        <ele>957.20001220703</ele>
        <time>2021-09-07T07:43:33Z</time>
      </trkpt>
      <trkpt lat="45.19357" lon="4.60002">
        <ele>958.79998779297</ele>
        <time>2021-09-07T07:43:44Z</time>
      </trkpt>
      <trkpt lat="45.19332" lon="4.59993">
        <ele>960.40002441406</ele>
        <time>2021-09-07T07:43:57Z</time>
      </trkpt>
      <trkpt lat="45.19308" lon="4.59989">
        <ele>962</ele>
        <time>2021-09-07T07:44:10Z</time>
      </trkpt>
      <trkpt lat="45.19294" lon="4.59981">
        <ele>963.59997558594</ele>
        <time>2021-09-07T07:44:19Z</time>
      </trkpt>
      <trkpt lat="45.19293" lon="4.5998">
        <ele>963.59997558594</ele>
        <time>2021-09-07T07:44:20Z</time>
      </trkpt>
      <trkpt lat="45.19289" lon="4.59976">
        <ele>964.40002441406</ele>
        <time>2021-09-07T07:44:23Z</time>
      </trkpt>
      <trkpt lat="45.19274" lon="4.59968">
        <ele>966</ele>
        <time>2021-09-07T07:44:31Z</time>
      </trkpt>
      <trkpt lat="45.19259" lon="4.59958">
        <ele>967</ele>
        <time>2021-09-07T07:44:39Z</time>
      </trkpt>
      <trkpt lat="45.19252" lon="4.59957">
        <ele>967.20001220703</ele>
        <time>2021-09-07T07:44:41Z</time>
      </trkpt>
      <trkpt lat="45.19239" lon="4.59945">
        <ele>968.40002441406</ele>
        <time>2021-09-07T07:44:47Z</time>
      </trkpt>
      <trkpt lat="45.19236" lon="4.59943">
        <ele>968.79998779297</ele>
        <time>2021-09-07T07:44:49Z</time>
      </trkpt>
      <trkpt lat="45.19228" lon="4.59935">
        <ele>970</ele>
        <time>2021-09-07T07:44:56Z</time>
      </trkpt>
      <trkpt lat="45.19228" lon="4.59933">
        <ele>970.40002441406</ele>
        <time>2021-09-07T07:44:59Z</time>
      </trkpt>
      <trkpt lat="45.19224" lon="4.59927">
        <ele>971</ele>
        <time>2021-09-07T07:45:03Z</time>
      </trkpt>
      <trkpt lat="45.19203" lon="4.59916">
        <ele>972</ele>
        <time>2021-09-07T07:45:10Z</time>
      </trkpt>
      <trkpt lat="45.19192" lon="4.59907">
        <ele>973</ele>
        <time>2021-09-07T07:45:17Z</time>
      </trkpt>
      <trkpt lat="45.19175" lon="4.59895">
        <ele>973.59997558594</ele>
        <time>2021-09-07T07:45:24Z</time>
      </trkpt>
      <trkpt lat="45.19173" lon="4.59895">
        <ele>973.59997558594</ele>
        <time>2021-09-07T07:45:25Z</time>
      </trkpt>
      <trkpt lat="45.1917" lon="4.59892">
        <ele>974</ele>
        <time>2021-09-07T07:45:28Z</time>
      </trkpt>
      <trkpt lat="45.1916" lon="4.59885">
        <ele>974.59997558594</ele>
        <time>2021-09-07T07:45:33Z</time>
      </trkpt>
      <trkpt lat="45.19151" lon="4.59876">
        <ele>974.79998779297</ele>
        <time>2021-09-07T07:45:39Z</time>
      </trkpt>
      <trkpt lat="45.19142" lon="4.59869">
        <ele>976.20001220703</ele>
        <time>2021-09-07T07:45:48Z</time>
      </trkpt>
      <trkpt lat="45.19135" lon="4.59866">
        <ele>976.59997558594</ele>
        <time>2021-09-07T07:45:51Z</time>
      </trkpt>
      <trkpt lat="45.19121" lon="4.59855">
        <ele>977</ele>
        <time>2021-09-07T07:45:56Z</time>
      </trkpt>
      <trkpt lat="45.19107" lon="4.59836">
        <ele>977.40002441406</ele>
        <time>2021-09-07T07:46:03Z</time>
      </trkpt>
      <trkpt lat="45.19107" lon="4.59831">
        <ele>977.40002441406</ele>
        <time>2021-09-07T07:46:04Z</time>
      </trkpt>
      <trkpt lat="45.19102" lon="4.59817">
        <ele>977.79998779297</ele>
        <time>2021-09-07T07:46:08Z</time>
      </trkpt>
      <trkpt lat="45.19099" lon="4.59803">
        <ele>978</ele>
        <time>2021-09-07T07:46:13Z</time>
      </trkpt>
      <trkpt lat="45.19086" lon="4.59786">
        <ele>978</ele>
        <time>2021-09-07T07:46:23Z</time>
      </trkpt>
      <trkpt lat="45.19081" lon="4.59762">
        <ele>980.40002441406</ele>
        <time>2021-09-07T07:46:33Z</time>
      </trkpt>
      <trkpt lat="45.19083" lon="4.59742">
        <ele>981.59997558594</ele>
        <time>2021-09-07T07:46:43Z</time>
      </trkpt>
      <trkpt lat="45.19089" lon="4.59701">
        <ele>982.20001220703</ele>
        <time>2021-09-07T07:46:54Z</time>
      </trkpt>
      <trkpt lat="45.19086" lon="4.59671">
        <ele>982.20001220703</ele>
        <time>2021-09-07T07:47:01Z</time>
      </trkpt>
      <trkpt lat="45.19082" lon="4.5964">
        <ele>981.79998779297</ele>
        <time>2021-09-07T07:47:08Z</time>
      </trkpt>
      <trkpt lat="45.19083" lon="4.59635">
        <ele>981.79998779297</ele>
        <time>2021-09-07T07:47:09Z</time>
      </trkpt>
      <trkpt lat="45.19084" lon="4.59632">
        <ele>981.79998779297</ele>
        <time>2021-09-07T07:47:10Z</time>
      </trkpt>
      <trkpt lat="45.19078" lon="4.59616">
        <ele>981</ele>
        <time>2021-09-07T07:47:15Z</time>
      </trkpt>
      <trkpt lat="45.19077" lon="4.5961">
        <ele>981</ele>
        <time>2021-09-07T07:47:17Z</time>
      </trkpt>
      <trkpt lat="45.19078" lon="4.59597">
        <ele>981.40002441406</ele>
        <time>2021-09-07T07:47:21Z</time>
      </trkpt>
      <trkpt lat="45.19074" lon="4.59579">
        <ele>982</ele>
        <time>2021-09-07T07:47:27Z</time>
      </trkpt>
      <trkpt lat="45.19059" lon="4.59548">
        <ele>982.40002441406</ele>
        <time>2021-09-07T07:47:35Z</time>
      </trkpt>
      <trkpt lat="45.1905" lon="4.59522">
        <ele>982.40002441406</ele>
        <time>2021-09-07T07:47:40Z</time>
      </trkpt>
      <trkpt lat="45.19051" lon="4.59498">
        <ele>982.40002441406</ele>
        <time>2021-09-07T07:47:45Z</time>
      </trkpt>
      <trkpt lat="45.19053" lon="4.59493">
        <ele>982.40002441406</ele>
        <time>2021-09-07T07:47:46Z</time>
      </trkpt>
      <trkpt lat="45.19047" lon="4.59473">
        <ele>982.40002441406</ele>
        <time>2021-09-07T07:47:50Z</time>
      </trkpt>
      <trkpt lat="45.19036" lon="4.59434">
        <ele>981.59997558594</ele>
        <time>2021-09-07T07:47:57Z</time>
      </trkpt>
      <trkpt lat="45.19039" lon="4.59418">
        <ele>981</ele>
        <time>2021-09-07T07:48:00Z</time>
      </trkpt>
      <trkpt lat="45.19038" lon="4.59413">
        <ele>980.59997558594</ele>
        <time>2021-09-07T07:48:01Z</time>
      </trkpt>
      <trkpt lat="45.19039" lon="4.59377">
        <ele>979.59997558594</ele>
        <time>2021-09-07T07:48:07Z</time>
      </trkpt>
      <trkpt lat="45.19046" lon="4.59355">
        <ele>979</ele>
        <time>2021-09-07T07:48:10Z</time>
      </trkpt>
      <trkpt lat="45.19096" lon="4.59274">
        <ele>976.59997558594</ele>
        <time>2021-09-07T07:48:19Z</time>
      </trkpt>
      <trkpt lat="45.19102" lon="4.59263">
        <ele>976.40002441406</ele>
        <time>2021-09-07T07:48:20Z</time>
      </trkpt>
      <trkpt lat="45.19108" lon="4.59251">
        <ele>975.40002441406</ele>
        <time>2021-09-07T07:48:21Z</time>
      </trkpt>
      <trkpt lat="45.19128" lon="4.59224">
        <ele>973</ele>
        <time>2021-09-07T07:48:24Z</time>
      </trkpt>
      <trkpt lat="45.19133" lon="4.59216">
        <ele>972.79998779297</ele>
        <time>2021-09-07T07:48:25Z</time>
      </trkpt>
      <trkpt lat="45.19142" lon="4.59194">
        <ele>972</ele>
        <time>2021-09-07T07:48:27Z</time>
      </trkpt>
      <trkpt lat="45.1917" lon="4.59173">
        <ele>970.59997558594</ele>
        <time>2021-09-07T07:48:32Z</time>
      </trkpt>
      <trkpt lat="45.19184" lon="4.59164">
        <ele>968.40002441406</ele>
        <time>2021-09-07T07:48:35Z</time>
      </trkpt>
      <trkpt lat="45.19199" lon="4.59157">
        <ele>967</ele>
        <time>2021-09-07T07:48:38Z</time>
      </trkpt>
      <trkpt lat="45.19222" lon="4.59134">
        <ele>964</ele>
        <time>2021-09-07T07:48:44Z</time>
      </trkpt>
      <trkpt lat="45.19227" lon="4.59128">
        <ele>963.59997558594</ele>
        <time>2021-09-07T07:48:45Z</time>
      </trkpt>
      <trkpt lat="45.1925" lon="4.59089">
        <ele>962</ele>
        <time>2021-09-07T07:48:53Z</time>
      </trkpt>
      <trkpt lat="45.19252" lon="4.59084">
        <ele>961.79998779297</ele>
        <time>2021-09-07T07:48:54Z</time>
      </trkpt>
      <trkpt lat="45.19264" lon="4.59045">
        <ele>962.40002441406</ele>
        <time>2021-09-07T07:49:02Z</time>
      </trkpt>
      <trkpt lat="45.19267" lon="4.59015">
        <ele>962.79998779297</ele>
        <time>2021-09-07T07:49:08Z</time>
      </trkpt>
      <trkpt lat="45.19268" lon="4.59009">
        <ele>963</ele>
        <time>2021-09-07T07:49:09Z</time>
      </trkpt>
      <trkpt lat="45.19267" lon="4.58993">
        <ele>963</ele>
        <time>2021-09-07T07:49:12Z</time>
      </trkpt>
      <trkpt lat="45.19268" lon="4.5897">
        <ele>963</ele>
        <time>2021-09-07T07:49:17Z</time>
      </trkpt>
      <trkpt lat="45.19268" lon="4.58953">
        <ele>963</ele>
        <time>2021-09-07T07:49:21Z</time>
      </trkpt>
      <trkpt lat="45.1925" lon="4.5889">
        <ele>963</ele>
        <time>2021-09-07T07:49:35Z</time>
      </trkpt>
      <trkpt lat="45.19238" lon="4.58866">
        <ele>963</ele>
        <time>2021-09-07T07:49:40Z</time>
      </trkpt>
      <trkpt lat="45.19222" lon="4.58839">
        <ele>962.59997558594</ele>
        <time>2021-09-07T07:49:46Z</time>
      </trkpt>
      <trkpt lat="45.19185" lon="4.58803">
        <ele>960.59997558594</ele>
        <time>2021-09-07T07:49:59Z</time>
      </trkpt>
      <trkpt lat="45.1916" lon="4.58786">
        <ele>959.79998779297</ele>
        <time>2021-09-07T07:50:08Z</time>
      </trkpt>
      <trkpt lat="45.19152" lon="4.58778">
        <ele>959.79998779297</ele>
        <time>2021-09-07T07:50:10Z</time>
      </trkpt>
      <trkpt lat="45.19133" lon="4.5875">
        <ele>959.79998779297</ele>
        <time>2021-09-07T07:50:18Z</time>
      </trkpt>
      <trkpt lat="45.1913" lon="4.58746">
        <ele>959.79998779297</ele>
        <time>2021-09-07T07:50:21Z</time>
      </trkpt>
      <trkpt lat="45.19118" lon="4.58709">
        <ele>960.79998779297</ele>
        <time>2021-09-07T07:50:30Z</time>
      </trkpt>
      <trkpt lat="45.19106" lon="4.58696">
        <ele>961.40002441406</ele>
        <time>2021-09-07T07:50:34Z</time>
      </trkpt>
      <trkpt lat="45.19087" lon="4.58667">
        <ele>962.20001220703</ele>
        <time>2021-09-07T07:50:42Z</time>
      </trkpt>
      <trkpt lat="45.19086" lon="4.58656">
        <ele>962.79998779297</ele>
        <time>2021-09-07T07:50:46Z</time>
      </trkpt>
      <trkpt lat="45.19077" lon="4.58644">
        <ele>964.40002441406</ele>
        <time>2021-09-07T07:50:52Z</time>
      </trkpt>
      <trkpt lat="45.19077" lon="4.58642">
        <ele>965.20001220703</ele>
        <time>2021-09-07T07:50:55Z</time>
      </trkpt>
      <trkpt lat="45.19083" lon="4.58635">
        <ele>965.79998779297</ele>
        <time>2021-09-07T07:50:58Z</time>
      </trkpt>
      <trkpt lat="45.19081" lon="4.5862">
        <ele>966.59997558594</ele>
        <time>2021-09-07T07:51:04Z</time>
      </trkpt>
      <trkpt lat="45.19081" lon="4.58613">
        <ele>966.79998779297</ele>
        <time>2021-09-07T07:51:06Z</time>
      </trkpt>
      <trkpt lat="45.1908" lon="4.58601">
        <ele>968</ele>
        <time>2021-09-07T07:51:11Z</time>
      </trkpt>
      <trkpt lat="45.1908" lon="4.58592">
        <ele>968.59997558594</ele>
        <time>2021-09-07T07:51:15Z</time>
      </trkpt>
      <trkpt lat="45.19075" lon="4.58583">
        <ele>969</ele>
        <time>2021-09-07T07:51:19Z</time>
      </trkpt>
      <trkpt lat="45.19068" lon="4.58576">
        <ele>969.59997558594</ele>
        <time>2021-09-07T07:51:23Z</time>
      </trkpt>
      <trkpt lat="45.19067" lon="4.5856">
        <ele>971</ele>
        <time>2021-09-07T07:51:29Z</time>
      </trkpt>
      <trkpt lat="45.19072" lon="4.58552">
        <ele>971.59997558594</ele>
        <time>2021-09-07T07:51:32Z</time>
      </trkpt>
      <trkpt lat="45.19066" lon="4.5854">
        <ele>972</ele>
        <time>2021-09-07T07:51:37Z</time>
      </trkpt>
      <trkpt lat="45.19061" lon="4.58535">
        <ele>972.40002441406</ele>
        <time>2021-09-07T07:51:41Z</time>
      </trkpt>
      <trkpt lat="45.19065" lon="4.58524">
        <ele>972.79998779297</ele>
        <time>2021-09-07T07:51:45Z</time>
      </trkpt>
      <trkpt lat="45.19066" lon="4.58522">
        <ele>973</ele>
        <time>2021-09-07T07:51:46Z</time>
      </trkpt>
      <trkpt lat="45.19067" lon="4.58519">
        <ele>973</ele>
        <time>2021-09-07T07:51:48Z</time>
      </trkpt>
      <trkpt lat="45.19066" lon="4.58513">
        <ele>974</ele>
        <time>2021-09-07T07:51:52Z</time>
      </trkpt>
      <trkpt lat="45.19065" lon="4.58501">
        <ele>974.79998779297</ele>
        <time>2021-09-07T07:51:59Z</time>
      </trkpt>
      <trkpt lat="45.19063" lon="4.58496">
        <ele>975.20001220703</ele>
        <time>2021-09-07T07:52:02Z</time>
      </trkpt>
      <trkpt lat="45.19061" lon="4.58487">
        <ele>976</ele>
        <time>2021-09-07T07:52:07Z</time>
      </trkpt>
      <trkpt lat="45.19059" lon="4.58476">
        <ele>976.59997558594</ele>
        <time>2021-09-07T07:52:12Z</time>
      </trkpt>
      <trkpt lat="45.19054" lon="4.58463">
        <ele>977.20001220703</ele>
        <time>2021-09-07T07:52:17Z</time>
      </trkpt>
      <trkpt lat="45.19048" lon="4.58439">
        <ele>978.20001220703</ele>
        <time>2021-09-07T07:52:23Z</time>
      </trkpt>
      <trkpt lat="45.19053" lon="4.58426">
        <ele>978.59997558594</ele>
        <time>2021-09-07T07:52:27Z</time>
      </trkpt>
      <trkpt lat="45.19055" lon="4.58422">
        <ele>979</ele>
        <time>2021-09-07T07:52:29Z</time>
      </trkpt>
      <trkpt lat="45.1905" lon="4.58416">
        <ele>979.59997558594</ele>
        <time>2021-09-07T07:52:34Z</time>
      </trkpt>
      <trkpt lat="45.19048" lon="4.58407">
        <ele>980.40002441406</ele>
        <time>2021-09-07T07:52:39Z</time>
      </trkpt>
      <trkpt lat="45.1905" lon="4.58394">
        <ele>981.79998779297</ele>
        <time>2021-09-07T07:52:45Z</time>
      </trkpt>
      <trkpt lat="45.19047" lon="4.58381">
        <ele>982.40002441406</ele>
        <time>2021-09-07T07:52:50Z</time>
      </trkpt>
      <trkpt lat="45.19047" lon="4.58376">
        <ele>983.20001220703</ele>
        <time>2021-09-07T07:52:54Z</time>
      </trkpt>
      <trkpt lat="45.19049" lon="4.5837">
        <ele>983.40002441406</ele>
        <time>2021-09-07T07:52:56Z</time>
      </trkpt>
      <trkpt lat="45.19045" lon="4.58356">
        <ele>984.40002441406</ele>
        <time>2021-09-07T07:53:01Z</time>
      </trkpt>
      <trkpt lat="45.19053" lon="4.58346">
        <ele>985.59997558594</ele>
        <time>2021-09-07T07:53:06Z</time>
      </trkpt>
      <trkpt lat="45.19057" lon="4.58339">
        <ele>986.59997558594</ele>
        <time>2021-09-07T07:53:11Z</time>
      </trkpt>
      <trkpt lat="45.19055" lon="4.58337">
        <ele>987.59997558594</ele>
        <time>2021-09-07T07:53:15Z</time>
      </trkpt>
      <trkpt lat="45.19053" lon="4.58336">
        <ele>988</ele>
        <time>2021-09-07T07:53:17Z</time>
      </trkpt>
      <trkpt lat="45.1905" lon="4.58329">
        <ele>989.59997558594</ele>
        <time>2021-09-07T07:53:24Z</time>
      </trkpt>
      <trkpt lat="45.1905" lon="4.58321">
        <ele>991</ele>
        <time>2021-09-07T07:53:30Z</time>
      </trkpt>
      <trkpt lat="45.19048" lon="4.58314">
        <ele>991.40002441406</ele>
        <time>2021-09-07T07:53:32Z</time>
      </trkpt>
      <trkpt lat="45.19051" lon="4.58307">
        <ele>992.40002441406</ele>
        <time>2021-09-07T07:53:36Z</time>
      </trkpt>
      <trkpt lat="45.1905" lon="4.5829">
        <ele>993</ele>
        <time>2021-09-07T07:53:40Z</time>
      </trkpt>
      <trkpt lat="45.1905" lon="4.5829">
        <ele>993.40002441406</ele>
        <time>2021-09-07T07:53:41Z</time>
      </trkpt>
      <trkpt lat="45.19066" lon="4.58283">
        <ele>994.20001220703</ele>
        <time>2021-09-07T07:53:44Z</time>
      </trkpt>
      <trkpt lat="45.19062" lon="4.58273">
        <ele>995.20001220703</ele>
        <time>2021-09-07T07:53:48Z</time>
      </trkpt>
      <trkpt lat="45.19062" lon="4.58273">
        <ele>995.59997558594</ele>
        <time>2021-09-07T07:53:50Z</time>
      </trkpt>
      <trkpt lat="45.19061" lon="4.5827">
        <ele>996.20001220703</ele>
        <time>2021-09-07T07:53:53Z</time>
      </trkpt>
      <trkpt lat="45.19061" lon="4.58263">
        <ele>997</ele>
        <time>2021-09-07T07:53:57Z</time>
      </trkpt>
      <trkpt lat="45.19063" lon="4.58252">
        <ele>998.20001220703</ele>
        <time>2021-09-07T07:54:02Z</time>
      </trkpt>
      <trkpt lat="45.19064" lon="4.58241">
        <ele>999.20001220703</ele>
        <time>2021-09-07T07:54:07Z</time>
      </trkpt>
      <trkpt lat="45.19065" lon="4.5824">
        <ele>1000.200012207</ele>
        <time>2021-09-07T07:54:13Z</time>
      </trkpt>
      <trkpt lat="45.19066" lon="4.58228">
        <ele>1001.200012207</ele>
        <time>2021-09-07T07:54:18Z</time>
      </trkpt>
      <trkpt lat="45.1907" lon="4.58217">
        <ele>1003.4000244141</ele>
        <time>2021-09-07T07:54:25Z</time>
      </trkpt>
      <trkpt lat="45.1907" lon="4.58217">
        <ele>1003.4000244141</ele>
        <time>2021-09-07T07:54:26Z</time>
      </trkpt>
      <trkpt lat="45.19067" lon="4.58203">
        <ele>1005</ele>
        <time>2021-09-07T07:54:32Z</time>
      </trkpt>
      <trkpt lat="45.1907" lon="4.58189">
        <ele>1006.200012207</ele>
        <time>2021-09-07T07:54:39Z</time>
      </trkpt>
      <trkpt lat="45.19073" lon="4.58183">
        <ele>1006.5999755859</ele>
        <time>2021-09-07T07:54:41Z</time>
      </trkpt>
      <trkpt lat="45.19073" lon="4.58179">
        <ele>1007.4000244141</ele>
        <time>2021-09-07T07:54:45Z</time>
      </trkpt>
      <trkpt lat="45.19076" lon="4.58173">
        <ele>1007.799987793</ele>
        <time>2021-09-07T07:54:48Z</time>
      </trkpt>
      <trkpt lat="45.19079" lon="4.58165">
        <ele>1008.5999755859</ele>
        <time>2021-09-07T07:54:52Z</time>
      </trkpt>
      <trkpt lat="45.19079" lon="4.58161">
        <ele>1010.4000244141</ele>
        <time>2021-09-07T07:54:59Z</time>
      </trkpt>
      <trkpt lat="45.19078" lon="4.58159">
        <ele>1012.200012207</ele>
        <time>2021-09-07T07:55:08Z</time>
      </trkpt>
      <trkpt lat="45.19077" lon="4.58153">
        <ele>1012.4000244141</ele>
        <time>2021-09-07T07:55:10Z</time>
      </trkpt>
      <trkpt lat="45.19073" lon="4.58141">
        <ele>1013.4000244141</ele>
        <time>2021-09-07T07:55:16Z</time>
      </trkpt>
      <trkpt lat="45.19072" lon="4.58134">
        <ele>1014</ele>
        <time>2021-09-07T07:55:19Z</time>
      </trkpt>
      <trkpt lat="45.19072" lon="4.58123">
        <ele>1015.5999755859</ele>
        <time>2021-09-07T07:55:26Z</time>
      </trkpt>
      <trkpt lat="45.19067" lon="4.58118">
        <ele>1017.200012207</ele>
        <time>2021-09-07T07:55:32Z</time>
      </trkpt>
      <trkpt lat="45.19061" lon="4.58102">
        <ele>1018</ele>
        <time>2021-09-07T07:55:37Z</time>
      </trkpt>
      <trkpt lat="45.19062" lon="4.58089">
        <ele>1018.200012207</ele>
        <time>2021-09-07T07:55:40Z</time>
      </trkpt>
      <trkpt lat="45.1906" lon="4.58072">
        <ele>1018.4000244141</ele>
        <time>2021-09-07T07:55:44Z</time>
      </trkpt>
      <trkpt lat="45.1906" lon="4.58068">
        <ele>1018.4000244141</ele>
        <time>2021-09-07T07:55:45Z</time>
      </trkpt>
      <trkpt lat="45.19053" lon="4.58047">
        <ele>1018</ele>
        <time>2021-09-07T07:55:52Z</time>
      </trkpt>
      <trkpt lat="45.19042" lon="4.58022">
        <ele>1017.200012207</ele>
        <time>2021-09-07T07:56:00Z</time>
      </trkpt>
      <trkpt lat="45.19017" lon="4.57993">
        <ele>1017</ele>
        <time>2021-09-07T07:56:08Z</time>
      </trkpt>
      <trkpt lat="45.19016" lon="4.57986">
        <ele>1017</ele>
        <time>2021-09-07T07:56:09Z</time>
      </trkpt>
      <trkpt lat="45.19011" lon="4.57972">
        <ele>1016.200012207</ele>
        <time>2021-09-07T07:56:12Z</time>
      </trkpt>
      <trkpt lat="45.18992" lon="4.57949">
        <ele>1015.5999755859</ele>
        <time>2021-09-07T07:56:17Z</time>
      </trkpt>
      <trkpt lat="45.18992" lon="4.57942">
        <ele>1015.5999755859</ele>
        <time>2021-09-07T07:56:19Z</time>
      </trkpt>
      <trkpt lat="45.18992" lon="4.57937">
        <ele>1015.4000244141</ele>
        <time>2021-09-07T07:56:20Z</time>
      </trkpt>
      <trkpt lat="45.18988" lon="4.57913">
        <ele>1015.4000244141</ele>
        <time>2021-09-07T07:56:26Z</time>
      </trkpt>
      <trkpt lat="45.18982" lon="4.57886">
        <ele>1015.200012207</ele>
        <time>2021-09-07T07:56:30Z</time>
      </trkpt>
      <trkpt lat="45.18975" lon="4.57875">
        <ele>1015</ele>
        <time>2021-09-07T07:56:32Z</time>
      </trkpt>
      <trkpt lat="45.18956" lon="4.57854">
        <ele>1015</ele>
        <time>2021-09-07T07:56:37Z</time>
      </trkpt>
      <trkpt lat="45.18964" lon="4.57828">
        <ele>1015.200012207</ele>
        <time>2021-09-07T07:56:41Z</time>
      </trkpt>
      <trkpt lat="45.18955" lon="4.57815">
        <ele>1015.4000244141</ele>
        <time>2021-09-07T07:56:45Z</time>
      </trkpt>
      <trkpt lat="45.1895" lon="4.57805">
        <ele>1016</ele>
        <time>2021-09-07T07:56:48Z</time>
      </trkpt>
      <trkpt lat="45.18949" lon="4.578">
        <ele>1016</ele>
        <time>2021-09-07T07:56:49Z</time>
      </trkpt>
      <trkpt lat="45.18945" lon="4.57761">
        <ele>1016.4000244141</ele>
        <time>2021-09-07T07:56:56Z</time>
      </trkpt>
      <trkpt lat="45.18943" lon="4.57702">
        <ele>1016.200012207</ele>
        <time>2021-09-07T07:57:04Z</time>
      </trkpt>
      <trkpt lat="45.18933" lon="4.57634">
        <ele>1013.200012207</ele>
        <time>2021-09-07T07:57:11Z</time>
      </trkpt>
      <trkpt lat="45.18931" lon="4.57626">
        <ele>1013</ele>
        <time>2021-09-07T07:57:12Z</time>
      </trkpt>
      <trkpt lat="45.18923" lon="4.57603">
        <ele>1012.200012207</ele>
        <time>2021-09-07T07:57:15Z</time>
      </trkpt>
      <trkpt lat="45.18921" lon="4.57596">
        <ele>1012</ele>
        <time>2021-09-07T07:57:16Z</time>
      </trkpt>
      <trkpt lat="45.18925" lon="4.57569">
        <ele>1011.799987793</ele>
        <time>2021-09-07T07:57:20Z</time>
      </trkpt>
      <trkpt lat="45.1894" lon="4.57516">
        <ele>1010.799987793</ele>
        <time>2021-09-07T07:57:28Z</time>
      </trkpt>
      <trkpt lat="45.18952" lon="4.5747">
        <ele>1010.4000244141</ele>
        <time>2021-09-07T07:57:35Z</time>
      </trkpt>
      <trkpt lat="45.18955" lon="4.5745">
        <ele>1010.4000244141</ele>
        <time>2021-09-07T07:57:38Z</time>
      </trkpt>
      <trkpt lat="45.18954" lon="4.57404">
        <ele>1009.4000244141</ele>
        <time>2021-09-07T07:57:45Z</time>
      </trkpt>
      <trkpt lat="45.18949" lon="4.5739">
        <ele>1008.799987793</ele>
        <time>2021-09-07T07:57:48Z</time>
      </trkpt>
      <trkpt lat="45.18942" lon="4.57386">
        <ele>1008.799987793</ele>
        <time>2021-09-07T07:57:50Z</time>
      </trkpt>
      <trkpt lat="45.18925" lon="4.57385">
        <ele>1008.5999755859</ele>
        <time>2021-09-07T07:57:53Z</time>
      </trkpt>
      <trkpt lat="45.18878" lon="4.57389">
        <ele>1007.799987793</ele>
        <time>2021-09-07T07:58:02Z</time>
      </trkpt>
      <trkpt lat="45.1885" lon="4.57394">
        <ele>1007</ele>
        <time>2021-09-07T07:58:07Z</time>
      </trkpt>
      <trkpt lat="45.18779" lon="4.57393">
        <ele>1004.799987793</ele>
        <time>2021-09-07T07:58:20Z</time>
      </trkpt>
      <trkpt lat="45.18739" lon="4.57372">
        <ele>1002.799987793</ele>
        <time>2021-09-07T07:58:28Z</time>
      </trkpt>
      <trkpt lat="45.18727" lon="4.57366">
        <ele>1002.799987793</ele>
        <time>2021-09-07T07:58:30Z</time>
      </trkpt>
      <trkpt lat="45.18702" lon="4.57338">
        <ele>1001</ele>
        <time>2021-09-07T07:58:37Z</time>
      </trkpt>
      <trkpt lat="45.18678" lon="4.57321">
        <ele>1000.5999755859</ele>
        <time>2021-09-07T07:58:42Z</time>
      </trkpt>
      <trkpt lat="45.18674" lon="4.5731">
        <ele>1000.4000244141</ele>
        <time>2021-09-07T07:58:44Z</time>
      </trkpt>
      <trkpt lat="45.18669" lon="4.57294">
        <ele>999.79998779297</ele>
        <time>2021-09-07T07:58:46Z</time>
      </trkpt>
      <trkpt lat="45.18649" lon="4.57275">
        <ele>998.79998779297</ele>
        <time>2021-09-07T07:58:50Z</time>
      </trkpt>
      <trkpt lat="45.18621" lon="4.57258">
        <ele>998.40002441406</ele>
        <time>2021-09-07T07:58:53Z</time>
      </trkpt>
      <trkpt lat="45.18601" lon="4.57223">
        <ele>998</ele>
        <time>2021-09-07T07:58:57Z</time>
      </trkpt>
      <trkpt lat="45.18598" lon="4.57218">
        <ele>998</ele>
        <time>2021-09-07T07:58:58Z</time>
      </trkpt>
      <trkpt lat="45.18566" lon="4.57177">
        <ele>996.59997558594</ele>
        <time>2021-09-07T07:59:07Z</time>
      </trkpt>
      <trkpt lat="45.1856" lon="4.57173">
        <ele>996.59997558594</ele>
        <time>2021-09-07T07:59:08Z</time>
      </trkpt>
      <trkpt lat="45.18548" lon="4.57166">
        <ele>996.20001220703</ele>
        <time>2021-09-07T07:59:10Z</time>
      </trkpt>
      <trkpt lat="45.18535" lon="4.57156">
        <ele>996</ele>
        <time>2021-09-07T07:59:13Z</time>
      </trkpt>
      <trkpt lat="45.18526" lon="4.57149">
        <ele>996</ele>
        <time>2021-09-07T07:59:19Z</time>
      </trkpt>
      <trkpt lat="45.18518" lon="4.57127">
        <ele>996.20001220703</ele>
        <time>2021-09-07T07:59:30Z</time>
      </trkpt>
      <trkpt lat="45.18514" lon="4.57113">
        <ele>996.40002441406</ele>
        <time>2021-09-07T07:59:35Z</time>
      </trkpt>
      <trkpt lat="45.18509" lon="4.57097">
        <ele>998</ele>
        <time>2021-09-07T07:59:43Z</time>
      </trkpt>
      <trkpt lat="45.18507" lon="4.57091">
        <ele>998.20001220703</ele>
        <time>2021-09-07T07:59:48Z</time>
      </trkpt>
      <trkpt lat="45.18506" lon="4.57089">
        <ele>998.59997558594</ele>
        <time>2021-09-07T08:00:00Z</time>
      </trkpt>
      <trkpt lat="45.18506" lon="4.57088">
        <ele>999.20001220703</ele>
        <time>2021-09-07T08:00:22Z</time>
      </trkpt>
      <trkpt lat="45.18479" lon="4.57055">
        <ele>998.20001220703</ele>
        <time>2021-09-07T08:00:34Z</time>
      </trkpt>
      <trkpt lat="45.18476" lon="4.57048">
        <ele>998</ele>
        <time>2021-09-07T08:00:36Z</time>
      </trkpt>
      <trkpt lat="45.18474" lon="4.57044">
        <ele>998</ele>
        <time>2021-09-07T08:00:37Z</time>
      </trkpt>
      <trkpt lat="45.18463" lon="4.57021">
        <ele>997.40002441406</ele>
        <time>2021-09-07T08:00:43Z</time>
      </trkpt>
      <trkpt lat="45.1845" lon="4.57002">
        <ele>994.20001220703</ele>
        <time>2021-09-07T08:00:49Z</time>
      </trkpt>
      <trkpt lat="45.18426" lon="4.56977">
        <ele>991.59997558594</ele>
        <time>2021-09-07T08:00:56Z</time>
      </trkpt>
      <trkpt lat="45.18424" lon="4.56973">
        <ele>991.59997558594</ele>
        <time>2021-09-07T08:00:57Z</time>
      </trkpt>
      <trkpt lat="45.1842" lon="4.56968">
        <ele>990.40002441406</ele>
        <time>2021-09-07T08:00:59Z</time>
      </trkpt>
      <trkpt lat="45.18417" lon="4.56964">
        <ele>990.20001220703</ele>
        <time>2021-09-07T08:01:00Z</time>
      </trkpt>
      <trkpt lat="45.18398" lon="4.5693">
        <ele>987.20001220703</ele>
        <time>2021-09-07T08:01:09Z</time>
      </trkpt>
      <trkpt lat="45.18395" lon="4.56928">
        <ele>986.59997558594</ele>
        <time>2021-09-07T08:01:10Z</time>
      </trkpt>
      <trkpt lat="45.18377" lon="4.56907">
        <ele>984.59997558594</ele>
        <time>2021-09-07T08:01:16Z</time>
      </trkpt>
      <trkpt lat="45.18371" lon="4.56895">
        <ele>981</ele>
        <time>2021-09-07T08:01:21Z</time>
      </trkpt>
      <trkpt lat="45.18363" lon="4.56892">
        <ele>980.20001220703</ele>
        <time>2021-09-07T08:01:23Z</time>
      </trkpt>
      <trkpt lat="45.18358" lon="4.56885">
        <ele>979.40002441406</ele>
        <time>2021-09-07T08:01:26Z</time>
      </trkpt>
      <trkpt lat="45.18355" lon="4.56877">
        <ele>976.40002441406</ele>
        <time>2021-09-07T08:01:39Z</time>
      </trkpt>
      <trkpt lat="45.18353" lon="4.56875">
        <ele>975</ele>
        <time>2021-09-07T08:01:45Z</time>
      </trkpt>
      <trkpt lat="45.18344" lon="4.56866">
        <ele>972.20001220703</ele>
        <time>2021-09-07T08:02:01Z</time>
      </trkpt>
      <trkpt lat="45.18335" lon="4.56861">
        <ele>969.59997558594</ele>
        <time>2021-09-07T08:02:15Z</time>
      </trkpt>
      <trkpt lat="45.18326" lon="4.56853">
        <ele>966.40002441406</ele>
        <time>2021-09-07T08:02:26Z</time>
      </trkpt>
      <trkpt lat="45.18317" lon="4.56844">
        <ele>964.20001220703</ele>
        <time>2021-09-07T08:02:39Z</time>
      </trkpt>
      <trkpt lat="45.1831" lon="4.56838">
        <ele>960.79998779297</ele>
        <time>2021-09-07T08:02:56Z</time>
      </trkpt>
      <trkpt lat="45.18303" lon="4.56833">
        <ele>960</ele>
        <time>2021-09-07T08:03:04Z</time>
      </trkpt>
      <trkpt lat="45.18291" lon="4.56827">
        <ele>957.79998779297</ele>
        <time>2021-09-07T08:03:14Z</time>
      </trkpt>
      <trkpt lat="45.18288" lon="4.56826">
        <ele>956.59997558594</ele>
        <time>2021-09-07T08:03:18Z</time>
      </trkpt>
      <trkpt lat="45.18287" lon="4.5682">
        <ele>954.59997558594</ele>
        <time>2021-09-07T08:03:30Z</time>
      </trkpt>
      <trkpt lat="45.18284" lon="4.56816">
        <ele>951.20001220703</ele>
        <time>2021-09-07T08:03:56Z</time>
      </trkpt>
      <trkpt lat="45.18282" lon="4.56813">
        <ele>948.20001220703</ele>
        <time>2021-09-07T08:04:12Z</time>
      </trkpt>
      <trkpt lat="45.18279" lon="4.5681">
        <ele>947</ele>
        <time>2021-09-07T08:04:22Z</time>
      </trkpt>
      <trkpt lat="45.18271" lon="4.56804">
        <ele>945.59997558594</ele>
        <time>2021-09-07T08:04:29Z</time>
      </trkpt>
      <trkpt lat="45.1826" lon="4.568">
        <ele>944</ele>
        <time>2021-09-07T08:04:39Z</time>
      </trkpt>
      <trkpt lat="45.18246" lon="4.568">
        <ele>943.59997558594</ele>
        <time>2021-09-07T08:04:47Z</time>
      </trkpt>
      <trkpt lat="45.18241" lon="4.56797">
        <ele>940.79998779297</ele>
        <time>2021-09-07T08:05:03Z</time>
      </trkpt>
      <trkpt lat="45.18239" lon="4.56797">
        <ele>937</ele>
        <time>2021-09-07T08:05:21Z</time>
      </trkpt>
      <trkpt lat="45.18233" lon="4.56793">
        <ele>934.20001220703</ele>
        <time>2021-09-07T08:05:33Z</time>
      </trkpt>
      <trkpt lat="45.18228" lon="4.56787">
        <ele>931.59997558594</ele>
        <time>2021-09-07T08:05:59Z</time>
      </trkpt>
      <trkpt lat="45.18222" lon="4.56782">
        <ele>930.59997558594</ele>
        <time>2021-09-07T08:06:02Z</time>
      </trkpt>
      <trkpt lat="45.18215" lon="4.56778">
        <ele>929.79998779297</ele>
        <time>2021-09-07T08:06:06Z</time>
      </trkpt>
      <trkpt lat="45.18203" lon="4.56771">
        <ele>928</ele>
        <time>2021-09-07T08:06:13Z</time>
      </trkpt>
      <trkpt lat="45.18198" lon="4.56763">
        <ele>927</ele>
        <time>2021-09-07T08:06:16Z</time>
      </trkpt>
      <trkpt lat="45.18183" lon="4.56737">
        <ele>925.40002441406</ele>
        <time>2021-09-07T08:06:23Z</time>
      </trkpt>
      <trkpt lat="45.18178" lon="4.56732">
        <ele>924.20001220703</ele>
        <time>2021-09-07T08:06:25Z</time>
      </trkpt>
      <trkpt lat="45.18175" lon="4.56732">
        <ele>924</ele>
        <time>2021-09-07T08:06:26Z</time>
      </trkpt>
      <trkpt lat="45.18165" lon="4.56734">
        <ele>923.40002441406</ele>
        <time>2021-09-07T08:06:33Z</time>
      </trkpt>
      <trkpt lat="45.18127" lon="4.5675">
        <ele>923.79998779297</ele>
        <time>2021-09-07T08:06:47Z</time>
      </trkpt>
      <trkpt lat="45.18106" lon="4.56754">
        <ele>924</ele>
        <time>2021-09-07T08:06:53Z</time>
      </trkpt>
      <trkpt lat="45.18078" lon="4.56749">
        <ele>924.40002441406</ele>
        <time>2021-09-07T08:07:02Z</time>
      </trkpt>
      <trkpt lat="45.18076" lon="4.56748">
        <ele>924.40002441406</ele>
        <time>2021-09-07T08:07:03Z</time>
      </trkpt>
      <trkpt lat="45.18052" lon="4.56729">
        <ele>924.79998779297</ele>
        <time>2021-09-07T08:07:10Z</time>
      </trkpt>
      <trkpt lat="45.18049" lon="4.56724">
        <ele>924.79998779297</ele>
        <time>2021-09-07T08:07:11Z</time>
      </trkpt>
      <trkpt lat="45.18032" lon="4.5671">
        <ele>925.20001220703</ele>
        <time>2021-09-07T08:07:16Z</time>
      </trkpt>
      <trkpt lat="45.18013" lon="4.56684">
        <ele>925</ele>
        <time>2021-09-07T08:07:22Z</time>
      </trkpt>
      <trkpt lat="45.18" lon="4.56667">
        <ele>925.20001220703</ele>
        <time>2021-09-07T08:07:29Z</time>
      </trkpt>
      <trkpt lat="45.17988" lon="4.56657">
        <ele>925.59997558594</ele>
        <time>2021-09-07T08:07:35Z</time>
      </trkpt>
      <trkpt lat="45.17983" lon="4.56654">
        <ele>926.79998779297</ele>
        <time>2021-09-07T08:07:40Z</time>
      </trkpt>
      <trkpt lat="45.17966" lon="4.56641">
        <ele>928.20001220703</ele>
        <time>2021-09-07T08:07:46Z</time>
      </trkpt>
      <trkpt lat="45.17961" lon="4.56636">
        <ele>928.20001220703</ele>
        <time>2021-09-07T08:07:48Z</time>
      </trkpt>
      <trkpt lat="45.17959" lon="4.56633">
        <ele>928.59997558594</ele>
        <time>2021-09-07T08:07:50Z</time>
      </trkpt>
      <trkpt lat="45.17942" lon="4.56621">
        <ele>929.59997558594</ele>
        <time>2021-09-07T08:07:56Z</time>
      </trkpt>
      <trkpt lat="45.1793" lon="4.56618">
        <ele>930.59997558594</ele>
        <time>2021-09-07T08:08:00Z</time>
      </trkpt>
      <trkpt lat="45.17927" lon="4.56617">
        <ele>930.79998779297</ele>
        <time>2021-09-07T08:08:01Z</time>
      </trkpt>
      <trkpt lat="45.17917" lon="4.56608">
        <ele>931.20001220703</ele>
        <time>2021-09-07T08:08:05Z</time>
      </trkpt>
      <trkpt lat="45.17914" lon="4.56604">
        <ele>931.59997558594</ele>
        <time>2021-09-07T08:08:07Z</time>
      </trkpt>
      <trkpt lat="45.17898" lon="4.56595">
        <ele>932.40002441406</ele>
        <time>2021-09-07T08:08:13Z</time>
      </trkpt>
      <trkpt lat="45.17887" lon="4.56587">
        <ele>933.79998779297</ele>
        <time>2021-09-07T08:08:21Z</time>
      </trkpt>
      <trkpt lat="45.17873" lon="4.56572">
        <ele>935.40002441406</ele>
        <time>2021-09-07T08:08:31Z</time>
      </trkpt>
      <trkpt lat="45.1787" lon="4.56567">
        <ele>935.79998779297</ele>
        <time>2021-09-07T08:08:33Z</time>
      </trkpt>
      <trkpt lat="45.17859" lon="4.56552">
        <ele>937</ele>
        <time>2021-09-07T08:08:41Z</time>
      </trkpt>
      <trkpt lat="45.17848" lon="4.56545">
        <ele>938.20001220703</ele>
        <time>2021-09-07T08:08:48Z</time>
      </trkpt>
      <trkpt lat="45.17846" lon="4.56544">
        <ele>938.40002441406</ele>
        <time>2021-09-07T08:08:50Z</time>
      </trkpt>
      <trkpt lat="45.17836" lon="4.56537">
        <ele>939.40002441406</ele>
        <time>2021-09-07T08:08:55Z</time>
      </trkpt>
      <trkpt lat="45.17827" lon="4.56532">
        <ele>940</ele>
        <time>2021-09-07T08:08:59Z</time>
      </trkpt>
      <trkpt lat="45.17824" lon="4.56527">
        <ele>941</ele>
        <time>2021-09-07T08:09:04Z</time>
      </trkpt>
      <trkpt lat="45.17815" lon="4.56524">
        <ele>941.79998779297</ele>
        <time>2021-09-07T08:09:08Z</time>
      </trkpt>
      <trkpt lat="45.17814" lon="4.56523">
        <ele>942</ele>
        <time>2021-09-07T08:09:09Z</time>
      </trkpt>
      <trkpt lat="45.17811" lon="4.56519">
        <ele>942.40002441406</ele>
        <time>2021-09-07T08:09:13Z</time>
      </trkpt>
      <trkpt lat="45.17797" lon="4.56505">
        <ele>943.40002441406</ele>
        <time>2021-09-07T08:09:21Z</time>
      </trkpt>
      <trkpt lat="45.17784" lon="4.56501">
        <ele>945</ele>
        <time>2021-09-07T08:09:26Z</time>
      </trkpt>
      <trkpt lat="45.17776" lon="4.56497">
        <ele>945.20001220703</ele>
        <time>2021-09-07T08:09:29Z</time>
      </trkpt>
      <trkpt lat="45.17768" lon="4.56497">
        <ele>945.79998779297</ele>
        <time>2021-09-07T08:09:34Z</time>
      </trkpt>
      <trkpt lat="45.17764" lon="4.56496">
        <ele>946</ele>
        <time>2021-09-07T08:09:36Z</time>
      </trkpt>
      <trkpt lat="45.17756" lon="4.56492">
        <ele>946.40002441406</ele>
        <time>2021-09-07T08:09:40Z</time>
      </trkpt>
      <trkpt lat="45.17753" lon="4.56492">
        <ele>946.59997558594</ele>
        <time>2021-09-07T08:09:41Z</time>
      </trkpt>
      <trkpt lat="45.17739" lon="4.56502">
        <ele>947.59997558594</ele>
        <time>2021-09-07T08:09:47Z</time>
      </trkpt>
      <trkpt lat="45.17728" lon="4.56509">
        <ele>948.79998779297</ele>
        <time>2021-09-07T08:09:55Z</time>
      </trkpt>
      <trkpt lat="45.17714" lon="4.56519">
        <ele>949.79998779297</ele>
        <time>2021-09-07T08:10:02Z</time>
      </trkpt>
      <trkpt lat="45.17699" lon="4.56534">
        <ele>950.59997558594</ele>
        <time>2021-09-07T08:10:10Z</time>
      </trkpt>
      <trkpt lat="45.17696" lon="4.56552">
        <ele>951.40002441406</ele>
        <time>2021-09-07T08:10:16Z</time>
      </trkpt>
      <trkpt lat="45.17675" lon="4.56567">
        <ele>953.40002441406</ele>
        <time>2021-09-07T08:10:23Z</time>
      </trkpt>
      <trkpt lat="45.17674" lon="4.56574">
        <ele>953.79998779297</ele>
        <time>2021-09-07T08:10:27Z</time>
      </trkpt>
      <trkpt lat="45.17659" lon="4.56587">
        <ele>954.40002441406</ele>
        <time>2021-09-07T08:10:34Z</time>
      </trkpt>
      <trkpt lat="45.17654" lon="4.56595">
        <ele>955</ele>
        <time>2021-09-07T08:10:39Z</time>
      </trkpt>
      <trkpt lat="45.17648" lon="4.56602">
        <ele>955.59997558594</ele>
        <time>2021-09-07T08:10:43Z</time>
      </trkpt>
      <trkpt lat="45.17638" lon="4.5661">
        <ele>957.20001220703</ele>
        <time>2021-09-07T08:10:49Z</time>
      </trkpt>
      <trkpt lat="45.17616" lon="4.56626">
        <ele>958.40002441406</ele>
        <time>2021-09-07T08:10:59Z</time>
      </trkpt>
      <trkpt lat="45.17609" lon="4.56635">
        <ele>959</ele>
        <time>2021-09-07T08:11:03Z</time>
      </trkpt>
      <trkpt lat="45.17598" lon="4.56647">
        <ele>959.59997558594</ele>
        <time>2021-09-07T08:11:09Z</time>
      </trkpt>
      <trkpt lat="45.17593" lon="4.56648">
        <ele>960</ele>
        <time>2021-09-07T08:11:10Z</time>
      </trkpt>
      <trkpt lat="45.17578" lon="4.56654">
        <ele>961</ele>
        <time>2021-09-07T08:11:16Z</time>
      </trkpt>
      <trkpt lat="45.17572" lon="4.56655">
        <ele>961.59997558594</ele>
        <time>2021-09-07T08:11:20Z</time>
      </trkpt>
      <trkpt lat="45.17569" lon="4.56653">
        <ele>962.20001220703</ele>
        <time>2021-09-07T08:11:23Z</time>
      </trkpt>
      <trkpt lat="45.17568" lon="4.56643">
        <ele>963.20001220703</ele>
        <time>2021-09-07T08:11:29Z</time>
      </trkpt>
      <trkpt lat="45.17562" lon="4.56627">
        <ele>965.40002441406</ele>
        <time>2021-09-07T08:11:38Z</time>
      </trkpt>
      <trkpt lat="45.17561" lon="4.56625">
        <ele>965.79998779297</ele>
        <time>2021-09-07T08:11:40Z</time>
      </trkpt>
      <trkpt lat="45.17545" lon="4.56612">
        <ele>967.40002441406</ele>
        <time>2021-09-07T08:11:49Z</time>
      </trkpt>
      <trkpt lat="45.17538" lon="4.56602">
        <ele>968.20001220703</ele>
        <time>2021-09-07T08:11:55Z</time>
      </trkpt>
      <trkpt lat="45.17535" lon="4.56592">
        <ele>968.40002441406</ele>
        <time>2021-09-07T08:11:59Z</time>
      </trkpt>
      <trkpt lat="45.17538" lon="4.56571">
        <ele>969.40002441406</ele>
        <time>2021-09-07T08:12:07Z</time>
      </trkpt>
      <trkpt lat="45.17546" lon="4.56557">
        <ele>970.20001220703</ele>
        <time>2021-09-07T08:12:14Z</time>
      </trkpt>
      <trkpt lat="45.17556" lon="4.56521">
        <ele>971</ele>
        <time>2021-09-07T08:12:26Z</time>
      </trkpt>
      <trkpt lat="45.17568" lon="4.56479">
        <ele>972.79998779297</ele>
        <time>2021-09-07T08:12:39Z</time>
      </trkpt>
      <trkpt lat="45.17572" lon="4.56467">
        <ele>973.20001220703</ele>
        <time>2021-09-07T08:12:42Z</time>
      </trkpt>
      <trkpt lat="45.17579" lon="4.56446">
        <ele>973.79998779297</ele>
        <time>2021-09-07T08:12:48Z</time>
      </trkpt>
      <trkpt lat="45.1758" lon="4.56441">
        <ele>974</ele>
        <time>2021-09-07T08:12:50Z</time>
      </trkpt>
      <trkpt lat="45.17597" lon="4.56404">
        <ele>975.59997558594</ele>
        <time>2021-09-07T08:13:04Z</time>
      </trkpt>
      <trkpt lat="45.17612" lon="4.5638">
        <ele>976.79998779297</ele>
        <time>2021-09-07T08:13:14Z</time>
      </trkpt>
      <trkpt lat="45.17614" lon="4.56374">
        <ele>977</ele>
        <time>2021-09-07T08:13:16Z</time>
      </trkpt>
      <trkpt lat="45.17624" lon="4.56355">
        <ele>978</ele>
        <time>2021-09-07T08:13:24Z</time>
      </trkpt>
      <trkpt lat="45.1764" lon="4.56327">
        <ele>979.20001220703</ele>
        <time>2021-09-07T08:13:32Z</time>
      </trkpt>
      <trkpt lat="45.17648" lon="4.56319">
        <ele>980.59997558594</ele>
        <time>2021-09-07T08:13:37Z</time>
      </trkpt>
      <trkpt lat="45.17657" lon="4.56304">
        <ele>982.20001220703</ele>
        <time>2021-09-07T08:13:48Z</time>
      </trkpt>
      <trkpt lat="45.17667" lon="4.56268">
        <ele>984.20001220703</ele>
        <time>2021-09-07T08:13:59Z</time>
      </trkpt>
      <trkpt lat="45.17668" lon="4.56259">
        <ele>984.79998779297</ele>
        <time>2021-09-07T08:14:02Z</time>
      </trkpt>
      <trkpt lat="45.17673" lon="4.56238">
        <ele>985</ele>
        <time>2021-09-07T08:14:08Z</time>
      </trkpt>
      <trkpt lat="45.17679" lon="4.56207">
        <ele>985.20001220703</ele>
        <time>2021-09-07T08:14:17Z</time>
      </trkpt>
      <trkpt lat="45.17685" lon="4.56185">
        <ele>985.40002441406</ele>
        <time>2021-09-07T08:14:22Z</time>
      </trkpt>
      <trkpt lat="45.17695" lon="4.56143">
        <ele>986</ele>
        <time>2021-09-07T08:14:34Z</time>
      </trkpt>
      <trkpt lat="45.17707" lon="4.56105">
        <ele>986.79998779297</ele>
        <time>2021-09-07T08:14:42Z</time>
      </trkpt>
      <trkpt lat="45.17709" lon="4.56094">
        <ele>986.79998779297</ele>
        <time>2021-09-07T08:14:44Z</time>
      </trkpt>
      <trkpt lat="45.1771" lon="4.56068">
        <ele>986.40002441406</ele>
        <time>2021-09-07T08:14:48Z</time>
      </trkpt>
      <trkpt lat="45.17713" lon="4.56048">
        <ele>985.79998779297</ele>
        <time>2021-09-07T08:14:52Z</time>
      </trkpt>
      <trkpt lat="45.17707" lon="4.56026">
        <ele>984.59997558594</ele>
        <time>2021-09-07T08:14:57Z</time>
      </trkpt>
      <trkpt lat="45.17694" lon="4.56003">
        <ele>984.20001220703</ele>
        <time>2021-09-07T08:15:02Z</time>
      </trkpt>
      <trkpt lat="45.17665" lon="4.55961">
        <ele>982.40002441406</ele>
        <time>2021-09-07T08:15:09Z</time>
      </trkpt>
      <trkpt lat="45.17663" lon="4.55959">
        <ele>982.40002441406</ele>
        <time>2021-09-07T08:15:10Z</time>
      </trkpt>
      <trkpt lat="45.17638" lon="4.55932">
        <ele>982.59997558594</ele>
        <time>2021-09-07T08:15:21Z</time>
      </trkpt>
      <trkpt lat="45.17619" lon="4.55909">
        <ele>983</ele>
        <time>2021-09-07T08:15:29Z</time>
      </trkpt>
      <trkpt lat="45.17593" lon="4.55884">
        <ele>985.40002441406</ele>
        <time>2021-09-07T08:15:39Z</time>
      </trkpt>
      <trkpt lat="45.17591" lon="4.55882">
        <ele>985.40002441406</ele>
        <time>2021-09-07T08:15:40Z</time>
      </trkpt>
      <trkpt lat="45.17576" lon="4.55872">
        <ele>986.20001220703</ele>
        <time>2021-09-07T08:15:47Z</time>
      </trkpt>
      <trkpt lat="45.17556" lon="4.55854">
        <ele>987.79998779297</ele>
        <time>2021-09-07T08:15:58Z</time>
      </trkpt>
      <trkpt lat="45.17554" lon="4.55851">
        <ele>988.20001220703</ele>
        <time>2021-09-07T08:15:59Z</time>
      </trkpt>
      <trkpt lat="45.17544" lon="4.55841">
        <ele>988.79998779297</ele>
        <time>2021-09-07T08:16:03Z</time>
      </trkpt>
      <trkpt lat="45.17537" lon="4.55839">
        <ele>989.59997558594</ele>
        <time>2021-09-07T08:16:07Z</time>
      </trkpt>
      <trkpt lat="45.1753" lon="4.55826">
        <ele>990.20001220703</ele>
        <time>2021-09-07T08:16:12Z</time>
      </trkpt>
      <trkpt lat="45.17528" lon="4.55823">
        <ele>990.40002441406</ele>
        <time>2021-09-07T08:16:13Z</time>
      </trkpt>
      <trkpt lat="45.17525" lon="4.55814">
        <ele>990.79998779297</ele>
        <time>2021-09-07T08:16:16Z</time>
      </trkpt>
      <trkpt lat="45.17522" lon="4.55797">
        <ele>991.59997558594</ele>
        <time>2021-09-07T08:16:23Z</time>
      </trkpt>
      <trkpt lat="45.17525" lon="4.55781">
        <ele>992.79998779297</ele>
        <time>2021-09-07T08:16:29Z</time>
      </trkpt>
      <trkpt lat="45.17525" lon="4.55762">
        <ele>994</ele>
        <time>2021-09-07T08:16:36Z</time>
      </trkpt>
      <trkpt lat="45.17523" lon="4.5575">
        <ele>994.20001220703</ele>
        <time>2021-09-07T08:16:40Z</time>
      </trkpt>
      <trkpt lat="45.17523" lon="4.55742">
        <ele>994.79998779297</ele>
        <time>2021-09-07T08:16:43Z</time>
      </trkpt>
      <trkpt lat="45.17523" lon="4.55721">
        <ele>996.20001220703</ele>
        <time>2021-09-07T08:16:51Z</time>
      </trkpt>
      <trkpt lat="45.1752" lon="4.55712">
        <ele>996.79998779297</ele>
        <time>2021-09-07T08:16:55Z</time>
      </trkpt>
      <trkpt lat="45.17521" lon="4.557">
        <ele>997.20001220703</ele>
        <time>2021-09-07T08:17:00Z</time>
      </trkpt>
      <trkpt lat="45.17525" lon="4.55681">
        <ele>998.20001220703</ele>
        <time>2021-09-07T08:17:07Z</time>
      </trkpt>
      <trkpt lat="45.17527" lon="4.55671">
        <ele>998.59997558594</ele>
        <time>2021-09-07T08:17:10Z</time>
      </trkpt>
      <trkpt lat="45.17525" lon="4.5565">
        <ele>999.20001220703</ele>
        <time>2021-09-07T08:17:17Z</time>
      </trkpt>
      <trkpt lat="45.17524" lon="4.55646">
        <ele>999.20001220703</ele>
        <time>2021-09-07T08:17:18Z</time>
      </trkpt>
      <trkpt lat="45.17524" lon="4.55643">
        <ele>999.40002441406</ele>
        <time>2021-09-07T08:17:19Z</time>
      </trkpt>
      <trkpt lat="45.1753" lon="4.55619">
        <ele>1001</ele>
        <time>2021-09-07T08:17:28Z</time>
      </trkpt>
      <trkpt lat="45.17532" lon="4.55613">
        <ele>1001.200012207</ele>
        <time>2021-09-07T08:17:30Z</time>
      </trkpt>
      <trkpt lat="45.17534" lon="4.55602">
        <ele>1002.4000244141</ele>
        <time>2021-09-07T08:17:34Z</time>
      </trkpt>
      <trkpt lat="45.17537" lon="4.55589">
        <ele>1003</ele>
        <time>2021-09-07T08:17:41Z</time>
      </trkpt>
      <trkpt lat="45.17552" lon="4.55562">
        <ele>1003.799987793</ele>
        <time>2021-09-07T08:17:50Z</time>
      </trkpt>
      <trkpt lat="45.17556" lon="4.5555">
        <ele>1003.799987793</ele>
        <time>2021-09-07T08:17:52Z</time>
      </trkpt>
      <trkpt lat="45.17573" lon="4.55444">
        <ele>1001.4000244141</ele>
        <time>2021-09-07T08:18:03Z</time>
      </trkpt>
      <trkpt lat="45.17584" lon="4.55383">
        <ele>999.40002441406</ele>
        <time>2021-09-07T08:18:08Z</time>
      </trkpt>
      <trkpt lat="45.176" lon="4.55339">
        <ele>997.59997558594</ele>
        <time>2021-09-07T08:18:12Z</time>
      </trkpt>
      <trkpt lat="45.17609" lon="4.55309">
        <ele>996.59997558594</ele>
        <time>2021-09-07T08:18:15Z</time>
      </trkpt>
      <trkpt lat="45.17621" lon="4.55283">
        <ele>996.20001220703</ele>
        <time>2021-09-07T08:18:18Z</time>
      </trkpt>
      <trkpt lat="45.17628" lon="4.55261">
        <ele>995.40002441406</ele>
        <time>2021-09-07T08:18:21Z</time>
      </trkpt>
      <trkpt lat="45.17647" lon="4.55173">
        <ele>994.79998779297</ele>
        <time>2021-09-07T08:18:31Z</time>
      </trkpt>
      <trkpt lat="45.17646" lon="4.5516">
        <ele>995</ele>
        <time>2021-09-07T08:18:33Z</time>
      </trkpt>
      <trkpt lat="45.17649" lon="4.55137">
        <ele>995.79998779297</ele>
        <time>2021-09-07T08:18:38Z</time>
      </trkpt>
      <trkpt lat="45.17657" lon="4.55099">
        <ele>998.40002441406</ele>
        <time>2021-09-07T08:18:48Z</time>
      </trkpt>
      <trkpt lat="45.17661" lon="4.55085">
        <ele>999</ele>
        <time>2021-09-07T08:18:52Z</time>
      </trkpt>
      <trkpt lat="45.17662" lon="4.55065">
        <ele>1000.5999755859</ele>
        <time>2021-09-07T08:18:59Z</time>
      </trkpt>
      <trkpt lat="45.17661" lon="4.55062">
        <ele>1000.5999755859</ele>
        <time>2021-09-07T08:19:00Z</time>
      </trkpt>
      <trkpt lat="45.1766" lon="4.55055">
        <ele>1001</ele>
        <time>2021-09-07T08:19:03Z</time>
      </trkpt>
      <trkpt lat="45.17658" lon="4.55045">
        <ele>1001.5999755859</ele>
        <time>2021-09-07T08:19:08Z</time>
      </trkpt>
      <trkpt lat="45.17646" lon="4.55031">
        <ele>1002.799987793</ele>
        <time>2021-09-07T08:19:16Z</time>
      </trkpt>
      <trkpt lat="45.17626" lon="4.55014">
        <ele>1004</ele>
        <time>2021-09-07T08:19:25Z</time>
      </trkpt>
      <trkpt lat="45.17612" lon="4.55">
        <ele>1005.4000244141</ele>
        <time>2021-09-07T08:19:33Z</time>
      </trkpt>
      <trkpt lat="45.17599" lon="4.5499">
        <ele>1006</ele>
        <time>2021-09-07T08:19:39Z</time>
      </trkpt>
      <trkpt lat="45.17578" lon="4.54979">
        <ele>1007</ele>
        <time>2021-09-07T08:19:47Z</time>
      </trkpt>
      <trkpt lat="45.17573" lon="4.54975">
        <ele>1007.4000244141</ele>
        <time>2021-09-07T08:19:49Z</time>
      </trkpt>
      <trkpt lat="45.17569" lon="4.5497">
        <ele>1007.5999755859</ele>
        <time>2021-09-07T08:19:51Z</time>
      </trkpt>
      <trkpt lat="45.17559" lon="4.54959">
        <ele>1007.799987793</ele>
        <time>2021-09-07T08:19:55Z</time>
      </trkpt>
      <trkpt lat="45.17546" lon="4.54951">
        <ele>1008</ele>
        <time>2021-09-07T08:20:00Z</time>
      </trkpt>
      <trkpt lat="45.17531" lon="4.54943">
        <ele>1008.200012207</ele>
        <time>2021-09-07T08:20:04Z</time>
      </trkpt>
      <trkpt lat="45.17529" lon="4.54942">
        <ele>1008.4000244141</ele>
        <time>2021-09-07T08:20:05Z</time>
      </trkpt>
      <trkpt lat="45.17511" lon="4.54922">
        <ele>1008.5999755859</ele>
        <time>2021-09-07T08:20:12Z</time>
      </trkpt>
      <trkpt lat="45.17455" lon="4.54859">
        <ele>1010.799987793</ele>
        <time>2021-09-07T08:20:39Z</time>
      </trkpt>
      <trkpt lat="45.17439" lon="4.54847">
        <ele>1012.200012207</ele>
        <time>2021-09-07T08:20:48Z</time>
      </trkpt>
      <trkpt lat="45.17437" lon="4.54846">
        <ele>1012.4000244141</ele>
        <time>2021-09-07T08:20:49Z</time>
      </trkpt>
      <trkpt lat="45.17436" lon="4.54845">
        <ele>1012.5999755859</ele>
        <time>2021-09-07T08:20:50Z</time>
      </trkpt>
      <trkpt lat="45.17431" lon="4.5483">
        <ele>1013.799987793</ele>
        <time>2021-09-07T08:20:56Z</time>
      </trkpt>
      <trkpt lat="45.17432" lon="4.54821">
        <ele>1014.4000244141</ele>
        <time>2021-09-07T08:21:08Z</time>
      </trkpt>
      <trkpt lat="45.17428" lon="4.54823">
        <ele>1014.200012207</ele>
        <time>2021-09-07T08:21:21Z</time>
      </trkpt>
      <trkpt lat="45.1744" lon="4.54826">
        <ele>1013.799987793</ele>
        <time>2021-09-07T08:21:27Z</time>
      </trkpt>
      <trkpt lat="45.17467" lon="4.54806">
        <ele>1011.799987793</ele>
        <time>2021-09-07T08:21:37Z</time>
      </trkpt>
      <trkpt lat="45.17472" lon="4.54795">
        <ele>1010.5999755859</ele>
        <time>2021-09-07T08:21:40Z</time>
      </trkpt>
      <trkpt lat="45.17481" lon="4.54783">
        <ele>1009.799987793</ele>
        <time>2021-09-07T08:21:43Z</time>
      </trkpt>
      <trkpt lat="45.175" lon="4.54754">
        <ele>1007.200012207</ele>
        <time>2021-09-07T08:21:50Z</time>
      </trkpt>
      <trkpt lat="45.17503" lon="4.54747">
        <ele>1006.4000244141</ele>
        <time>2021-09-07T08:21:51Z</time>
      </trkpt>
      <trkpt lat="45.17524" lon="4.54725">
        <ele>1004.799987793</ele>
        <time>2021-09-07T08:21:56Z</time>
      </trkpt>
      <trkpt lat="45.17563" lon="4.54688">
        <ele>1001.4000244141</ele>
        <time>2021-09-07T08:22:03Z</time>
      </trkpt>
      <trkpt lat="45.17578" lon="4.54664">
        <ele>1000.200012207</ele>
        <time>2021-09-07T08:22:08Z</time>
      </trkpt>
      <trkpt lat="45.17587" lon="4.54656">
        <ele>998</ele>
        <time>2021-09-07T08:22:12Z</time>
      </trkpt>
      <trkpt lat="45.1759" lon="4.54652">
        <ele>997.79998779297</ele>
        <time>2021-09-07T08:22:13Z</time>
      </trkpt>
      <trkpt lat="45.17613" lon="4.54624">
        <ele>994.20001220703</ele>
        <time>2021-09-07T08:22:21Z</time>
      </trkpt>
      <trkpt lat="45.17632" lon="4.54593">
        <ele>991.79998779297</ele>
        <time>2021-09-07T08:22:29Z</time>
      </trkpt>
      <trkpt lat="45.17646" lon="4.54571">
        <ele>988</ele>
        <time>2021-09-07T08:22:34Z</time>
      </trkpt>
      <trkpt lat="45.17653" lon="4.54548">
        <ele>985.40002441406</ele>
        <time>2021-09-07T08:22:38Z</time>
      </trkpt>
      <trkpt lat="45.17657" lon="4.54523">
        <ele>982.20001220703</ele>
        <time>2021-09-07T08:22:42Z</time>
      </trkpt>
      <trkpt lat="45.17675" lon="4.54499">
        <ele>979.20001220703</ele>
        <time>2021-09-07T08:22:47Z</time>
      </trkpt>
      <trkpt lat="45.17678" lon="4.54492">
        <ele>977.59997558594</ele>
        <time>2021-09-07T08:22:49Z</time>
      </trkpt>
      <trkpt lat="45.17679" lon="4.5448">
        <ele>974.79998779297</ele>
        <time>2021-09-07T08:22:53Z</time>
      </trkpt>
      <trkpt lat="45.17679" lon="4.54478">
        <ele>974.59997558594</ele>
        <time>2021-09-07T08:22:54Z</time>
      </trkpt>
      <trkpt lat="45.17684" lon="4.54448">
        <ele>971.20001220703</ele>
        <time>2021-09-07T08:23:00Z</time>
      </trkpt>
      <trkpt lat="45.17689" lon="4.54409">
        <ele>968.59997558594</ele>
        <time>2021-09-07T08:23:06Z</time>
      </trkpt>
      <trkpt lat="45.17692" lon="4.54398">
        <ele>967.40002441406</ele>
        <time>2021-09-07T08:23:08Z</time>
      </trkpt>
      <trkpt lat="45.17701" lon="4.54378">
        <ele>964.40002441406</ele>
        <time>2021-09-07T08:23:12Z</time>
      </trkpt>
      <trkpt lat="45.17702" lon="4.54354">
        <ele>961.79998779297</ele>
        <time>2021-09-07T08:23:16Z</time>
      </trkpt>
      <trkpt lat="45.17704" lon="4.54342">
        <ele>961.59997558594</ele>
        <time>2021-09-07T08:23:18Z</time>
      </trkpt>
      <trkpt lat="45.1771" lon="4.54313">
        <ele>958.59997558594</ele>
        <time>2021-09-07T08:23:24Z</time>
      </trkpt>
      <trkpt lat="45.17714" lon="4.54306">
        <ele>958</ele>
        <time>2021-09-07T08:23:25Z</time>
      </trkpt>
      <trkpt lat="45.17718" lon="4.543">
        <ele>957.40002441406</ele>
        <time>2021-09-07T08:23:26Z</time>
      </trkpt>
      <trkpt lat="45.17719" lon="4.54259">
        <ele>954.40002441406</ele>
        <time>2021-09-07T08:23:32Z</time>
      </trkpt>
      <trkpt lat="45.17722" lon="4.54241">
        <ele>953.79998779297</ele>
        <time>2021-09-07T08:23:34Z</time>
      </trkpt>
      <trkpt lat="45.17726" lon="4.54218">
        <ele>951.79998779297</ele>
        <time>2021-09-07T08:23:38Z</time>
      </trkpt>
      <trkpt lat="45.17731" lon="4.54189">
        <ele>949.59997558594</ele>
        <time>2021-09-07T08:23:44Z</time>
      </trkpt>
      <trkpt lat="45.17744" lon="4.54108">
        <ele>946.40002441406</ele>
        <time>2021-09-07T08:23:53Z</time>
      </trkpt>
      <trkpt lat="45.17743" lon="4.54081">
        <ele>944.79998779297</ele>
        <time>2021-09-07T08:23:59Z</time>
      </trkpt>
      <trkpt lat="45.17744" lon="4.5406">
        <ele>944.79998779297</ele>
        <time>2021-09-07T08:24:06Z</time>
      </trkpt>
      <trkpt lat="45.17745" lon="4.5402">
        <ele>946.40002441406</ele>
        <time>2021-09-07T08:24:21Z</time>
      </trkpt>
      <trkpt lat="45.17746" lon="4.54014">
        <ele>947.59997558594</ele>
        <time>2021-09-07T08:24:24Z</time>
      </trkpt>
      <trkpt lat="45.17753" lon="4.53995">
        <ele>948.79998779297</ele>
        <time>2021-09-07T08:24:31Z</time>
      </trkpt>
      <trkpt lat="45.1776" lon="4.53976">
        <ele>950</ele>
        <time>2021-09-07T08:24:37Z</time>
      </trkpt>
      <trkpt lat="45.17769" lon="4.5396">
        <ele>951.20001220703</ele>
        <time>2021-09-07T08:24:44Z</time>
      </trkpt>
      <trkpt lat="45.1777" lon="4.53955">
        <ele>952</ele>
        <time>2021-09-07T08:24:47Z</time>
      </trkpt>
      <trkpt lat="45.1777" lon="4.53948">
        <ele>952.59997558594</ele>
        <time>2021-09-07T08:24:50Z</time>
      </trkpt>
      <trkpt lat="45.17769" lon="4.5394">
        <ele>953.20001220703</ele>
        <time>2021-09-07T08:24:55Z</time>
      </trkpt>
      <trkpt lat="45.17769" lon="4.53929">
        <ele>953.59997558594</ele>
        <time>2021-09-07T08:25:00Z</time>
      </trkpt>
      <trkpt lat="45.17772" lon="4.53902">
        <ele>955.40002441406</ele>
        <time>2021-09-07T08:25:12Z</time>
      </trkpt>
      <trkpt lat="45.17778" lon="4.53872">
        <ele>956</ele>
        <time>2021-09-07T08:25:23Z</time>
      </trkpt>
      <trkpt lat="45.17781" lon="4.53862">
        <ele>956</ele>
        <time>2021-09-07T08:25:26Z</time>
      </trkpt>
      <trkpt lat="45.17783" lon="4.53824">
        <ele>955.79998779297</ele>
        <time>2021-09-07T08:25:37Z</time>
      </trkpt>
      <trkpt lat="45.17786" lon="4.53785">
        <ele>956.40002441406</ele>
        <time>2021-09-07T08:25:48Z</time>
      </trkpt>
      <trkpt lat="45.17788" lon="4.53778">
        <ele>956.79998779297</ele>
        <time>2021-09-07T08:25:50Z</time>
      </trkpt>
      <trkpt lat="45.17788" lon="4.53759">
        <ele>957</ele>
        <time>2021-09-07T08:25:55Z</time>
      </trkpt>
      <trkpt lat="45.1778" lon="4.5373">
        <ele>957.20001220703</ele>
        <time>2021-09-07T08:26:03Z</time>
      </trkpt>
      <trkpt lat="45.17752" lon="4.53694">
        <ele>956</ele>
        <time>2021-09-07T08:26:10Z</time>
      </trkpt>
      <trkpt lat="45.17741" lon="4.53685">
        <ele>955.20001220703</ele>
        <time>2021-09-07T08:26:12Z</time>
      </trkpt>
      <trkpt lat="45.17727" lon="4.53674">
        <ele>954.20001220703</ele>
        <time>2021-09-07T08:26:15Z</time>
      </trkpt>
      <trkpt lat="45.17701" lon="4.53647">
        <ele>953.20001220703</ele>
        <time>2021-09-07T08:26:20Z</time>
      </trkpt>
      <trkpt lat="45.17686" lon="4.53637">
        <ele>952.20001220703</ele>
        <time>2021-09-07T08:26:23Z</time>
      </trkpt>
      <trkpt lat="45.17676" lon="4.53629">
        <ele>951.59997558594</ele>
        <time>2021-09-07T08:26:25Z</time>
      </trkpt>
      <trkpt lat="45.17647" lon="4.53591">
        <ele>951.20001220703</ele>
        <time>2021-09-07T08:26:34Z</time>
      </trkpt>
      <trkpt lat="45.17628" lon="4.53559">
        <ele>949.40002441406</ele>
        <time>2021-09-07T08:26:42Z</time>
      </trkpt>
      <trkpt lat="45.176" lon="4.53531">
        <ele>947.79998779297</ele>
        <time>2021-09-07T08:26:51Z</time>
      </trkpt>
      <trkpt lat="45.17592" lon="4.53525">
        <ele>947.59997558594</ele>
        <time>2021-09-07T08:27:02Z</time>
      </trkpt>
      <trkpt lat="45.1757" lon="4.53498">
        <ele>947</ele>
        <time>2021-09-07T08:27:38Z</time>
      </trkpt>
      <trkpt lat="45.17526" lon="4.53433">
        <ele>946.59997558594</ele>
        <time>2021-09-07T08:27:53Z</time>
      </trkpt>
      <trkpt lat="45.17527" lon="4.53372">
        <ele>946.79998779297</ele>
        <time>2021-09-07T08:28:01Z</time>
      </trkpt>
      <trkpt lat="45.17528" lon="4.53348">
        <ele>946.20001220703</ele>
        <time>2021-09-07T08:28:06Z</time>
      </trkpt>
      <trkpt lat="45.17528" lon="4.53346">
        <ele>945.79998779297</ele>
        <time>2021-09-07T08:28:07Z</time>
      </trkpt>
      <trkpt lat="45.17539" lon="4.53323">
        <ele>945</ele>
        <time>2021-09-07T08:28:15Z</time>
      </trkpt>
      <trkpt lat="45.17542" lon="4.53316">
        <ele>944</ele>
        <time>2021-09-07T08:28:27Z</time>
      </trkpt>
      <trkpt lat="45.17538" lon="4.53318">
        <ele>944.59997558594</ele>
        <time>2021-09-07T08:28:43Z</time>
      </trkpt>
      <trkpt lat="45.17526" lon="4.53326">
        <ele>947</ele>
        <time>2021-09-07T08:28:54Z</time>
      </trkpt>
      <trkpt lat="45.17516" lon="4.53332">
        <ele>948.40002441406</ele>
        <time>2021-09-07T08:29:03Z</time>
      </trkpt>
      <trkpt lat="45.17508" lon="4.53344">
        <ele>949.59997558594</ele>
        <time>2021-09-07T08:29:09Z</time>
      </trkpt>
      <trkpt lat="45.17497" lon="4.53359">
        <ele>951.79998779297</ele>
        <time>2021-09-07T08:29:18Z</time>
      </trkpt>
      <trkpt lat="45.17492" lon="4.53364">
        <ele>952.20001220703</ele>
        <time>2021-09-07T08:29:20Z</time>
      </trkpt>
      <trkpt lat="45.17485" lon="4.53375">
        <ele>953</ele>
        <time>2021-09-07T08:29:26Z</time>
      </trkpt>
      <trkpt lat="45.17483" lon="4.5338">
        <ele>953.59997558594</ele>
        <time>2021-09-07T08:29:32Z</time>
      </trkpt>
      <trkpt lat="45.17477" lon="4.53387">
        <ele>955</ele>
        <time>2021-09-07T08:29:37Z</time>
      </trkpt>
      <trkpt lat="45.17475" lon="4.53391">
        <ele>955.79998779297</ele>
        <time>2021-09-07T08:29:39Z</time>
      </trkpt>
      <trkpt lat="45.17468" lon="4.534">
        <ele>957.40002441406</ele>
        <time>2021-09-07T08:29:45Z</time>
      </trkpt>
      <trkpt lat="45.17462" lon="4.53414">
        <ele>959</ele>
        <time>2021-09-07T08:29:53Z</time>
      </trkpt>
      <trkpt lat="45.17459" lon="4.53419">
        <ele>959.79998779297</ele>
        <time>2021-09-07T08:29:56Z</time>
      </trkpt>
      <trkpt lat="45.17449" lon="4.53429">
        <ele>962.20001220703</ele>
        <time>2021-09-07T08:30:07Z</time>
      </trkpt>
      <trkpt lat="45.17449" lon="4.53429">
        <ele>962.40002441406</ele>
        <time>2021-09-07T08:30:09Z</time>
      </trkpt>
      <trkpt lat="45.17447" lon="4.53431">
        <ele>962.59997558594</ele>
        <time>2021-09-07T08:30:14Z</time>
      </trkpt>
      <trkpt lat="45.17448" lon="4.53434">
        <ele>962.59997558594</ele>
        <time>2021-09-07T08:30:16Z</time>
      </trkpt>
      <trkpt lat="45.17446" lon="4.53436">
        <ele>964.40002441406</ele>
        <time>2021-09-07T08:30:36Z</time>
      </trkpt>
      <trkpt lat="45.17446" lon="4.53435">
        <ele>965.20001220703</ele>
        <time>2021-09-07T08:30:44Z</time>
      </trkpt>
      <trkpt lat="45.17444" lon="4.53434">
        <ele>967.40002441406</ele>
        <time>2021-09-07T08:31:08Z</time>
      </trkpt>
      <trkpt lat="45.17443" lon="4.53428">
        <ele>969.59997558594</ele>
        <time>2021-09-07T08:31:29Z</time>
      </trkpt>
      <trkpt lat="45.17441" lon="4.53416">
        <ele>971.79998779297</ele>
        <time>2021-09-07T08:31:49Z</time>
      </trkpt>
      <trkpt lat="45.17438" lon="4.53403">
        <ele>972.79998779297</ele>
        <time>2021-09-07T08:31:57Z</time>
      </trkpt>
      <trkpt lat="45.17438" lon="4.53402">
        <ele>973</ele>
        <time>2021-09-07T08:31:58Z</time>
      </trkpt>
      <trkpt lat="45.17436" lon="4.53395">
        <ele>973.59997558594</ele>
        <time>2021-09-07T08:32:02Z</time>
      </trkpt>
      <trkpt lat="45.17435" lon="4.53392">
        <ele>973.79998779297</ele>
        <time>2021-09-07T08:32:04Z</time>
      </trkpt>
      <trkpt lat="45.17434" lon="4.53385">
        <ele>974.79998779297</ele>
        <time>2021-09-07T08:32:12Z</time>
      </trkpt>
      <trkpt lat="45.17434" lon="4.53367">
        <ele>975</ele>
        <time>2021-09-07T08:32:23Z</time>
      </trkpt>
      <trkpt lat="45.17429" lon="4.5335">
        <ele>975.59997558594</ele>
        <time>2021-09-07T08:32:30Z</time>
      </trkpt>
      <trkpt lat="45.17429" lon="4.53345">
        <ele>976.20001220703</ele>
        <time>2021-09-07T08:32:33Z</time>
      </trkpt>
      <trkpt lat="45.17428" lon="4.53322">
        <ele>979.20001220703</ele>
        <time>2021-09-07T08:32:44Z</time>
      </trkpt>
      <trkpt lat="45.17425" lon="4.53314">
        <ele>980</ele>
        <time>2021-09-07T08:32:48Z</time>
      </trkpt>
      <trkpt lat="45.1742" lon="4.53296">
        <ele>982</ele>
        <time>2021-09-07T08:32:59Z</time>
      </trkpt>
      <trkpt lat="45.17417" lon="4.53293">
        <ele>982.20001220703</ele>
        <time>2021-09-07T08:33:01Z</time>
      </trkpt>
      <trkpt lat="45.17404" lon="4.53297">
        <ele>984.59997558594</ele>
        <time>2021-09-07T08:33:10Z</time>
      </trkpt>
      <trkpt lat="45.17396" lon="4.53308">
        <ele>986</ele>
        <time>2021-09-07T08:33:20Z</time>
      </trkpt>
      <trkpt lat="45.1739" lon="4.53318">
        <ele>986.79998779297</ele>
        <time>2021-09-07T08:33:26Z</time>
      </trkpt>
      <trkpt lat="45.17381" lon="4.53332">
        <ele>987.79998779297</ele>
        <time>2021-09-07T08:33:32Z</time>
      </trkpt>
      <trkpt lat="45.17382" lon="4.53342">
        <ele>988.40002441406</ele>
        <time>2021-09-07T08:33:37Z</time>
      </trkpt>
      <trkpt lat="45.17379" lon="4.53344">
        <ele>988.59997558594</ele>
        <time>2021-09-07T08:33:38Z</time>
      </trkpt>
      <trkpt lat="45.17372" lon="4.53351">
        <ele>990.40002441406</ele>
        <time>2021-09-07T08:33:47Z</time>
      </trkpt>
      <trkpt lat="45.17372" lon="4.53352">
        <ele>990.59997558594</ele>
        <time>2021-09-07T08:33:48Z</time>
      </trkpt>
      <trkpt lat="45.1737" lon="4.53353">
        <ele>991</ele>
        <time>2021-09-07T08:33:50Z</time>
      </trkpt>
      <trkpt lat="45.17364" lon="4.53361">
        <ele>991.79998779297</ele>
        <time>2021-09-07T08:33:57Z</time>
      </trkpt>
      <trkpt lat="45.17357" lon="4.53372">
        <ele>993.20001220703</ele>
        <time>2021-09-07T08:34:04Z</time>
      </trkpt>
      <trkpt lat="45.17354" lon="4.53376">
        <ele>994</ele>
        <time>2021-09-07T08:34:08Z</time>
      </trkpt>
      <trkpt lat="45.1735" lon="4.53387">
        <ele>995</ele>
        <time>2021-09-07T08:34:14Z</time>
      </trkpt>
      <trkpt lat="45.17342" lon="4.53398">
        <ele>995.40002441406</ele>
        <time>2021-09-07T08:34:17Z</time>
      </trkpt>
      <trkpt lat="45.1734" lon="4.53411">
        <ele>996.40002441406</ele>
        <time>2021-09-07T08:34:23Z</time>
      </trkpt>
      <trkpt lat="45.17331" lon="4.53428">
        <ele>998.40002441406</ele>
        <time>2021-09-07T08:34:32Z</time>
      </trkpt>
      <trkpt lat="45.1733" lon="4.53432">
        <ele>998.79998779297</ele>
        <time>2021-09-07T08:34:35Z</time>
      </trkpt>
      <trkpt lat="45.17322" lon="4.53444">
        <ele>999.79998779297</ele>
        <time>2021-09-07T08:34:45Z</time>
      </trkpt>
      <trkpt lat="45.1732" lon="4.53449">
        <ele>1000.4000244141</ele>
        <time>2021-09-07T08:34:48Z</time>
      </trkpt>
      <trkpt lat="45.17315" lon="4.53455">
        <ele>1001.4000244141</ele>
        <time>2021-09-07T08:34:52Z</time>
      </trkpt>
      <trkpt lat="45.17312" lon="4.5346">
        <ele>1002.4000244141</ele>
        <time>2021-09-07T08:34:55Z</time>
      </trkpt>
      <trkpt lat="45.17306" lon="4.5348">
        <ele>1003.799987793</ele>
        <time>2021-09-07T08:35:04Z</time>
      </trkpt>
      <trkpt lat="45.173" lon="4.53501">
        <ele>1005</ele>
        <time>2021-09-07T08:35:14Z</time>
      </trkpt>
      <trkpt lat="45.17298" lon="4.53502">
        <ele>1005</ele>
        <time>2021-09-07T08:35:15Z</time>
      </trkpt>
      <trkpt lat="45.17295" lon="4.53507">
        <ele>1005.200012207</ele>
        <time>2021-09-07T08:35:18Z</time>
      </trkpt>
      <trkpt lat="45.1729" lon="4.53512">
        <ele>1006.5999755859</ele>
        <time>2021-09-07T08:35:23Z</time>
      </trkpt>
      <trkpt lat="45.17284" lon="4.53523">
        <ele>1007.799987793</ele>
        <time>2021-09-07T08:35:33Z</time>
      </trkpt>
      <trkpt lat="45.17278" lon="4.53538">
        <ele>1009</ele>
        <time>2021-09-07T08:35:41Z</time>
      </trkpt>
      <trkpt lat="45.17273" lon="4.53548">
        <ele>1009.5999755859</ele>
        <time>2021-09-07T08:35:46Z</time>
      </trkpt>
      <trkpt lat="45.17269" lon="4.53558">
        <ele>1010.200012207</ele>
        <time>2021-09-07T08:35:49Z</time>
      </trkpt>
      <trkpt lat="45.17264" lon="4.53562">
        <ele>1010.5999755859</ele>
        <time>2021-09-07T08:35:51Z</time>
      </trkpt>
      <trkpt lat="45.1726" lon="4.53573">
        <ele>1011.799987793</ele>
        <time>2021-09-07T08:35:57Z</time>
      </trkpt>
      <trkpt lat="45.17257" lon="4.53578">
        <ele>1012.200012207</ele>
        <time>2021-09-07T08:36:00Z</time>
      </trkpt>
      <trkpt lat="45.17256" lon="4.5358">
        <ele>1012.200012207</ele>
        <time>2021-09-07T08:36:01Z</time>
      </trkpt>
      <trkpt lat="45.17253" lon="4.53589">
        <ele>1013.200012207</ele>
        <time>2021-09-07T08:36:06Z</time>
      </trkpt>
      <trkpt lat="45.1725" lon="4.53595">
        <ele>1015.200012207</ele>
        <time>2021-09-07T08:36:14Z</time>
      </trkpt>
      <trkpt lat="45.1725" lon="4.53595">
        <ele>1015.200012207</ele>
        <time>2021-09-07T08:36:15Z</time>
      </trkpt>
      <trkpt lat="45.17245" lon="4.53602">
        <ele>1015.799987793</ele>
        <time>2021-09-07T08:36:20Z</time>
      </trkpt>
      <trkpt lat="45.17233" lon="4.53616">
        <ele>1017</ele>
        <time>2021-09-07T08:36:30Z</time>
      </trkpt>
      <trkpt lat="45.17229" lon="4.5362">
        <ele>1017.200012207</ele>
        <time>2021-09-07T08:36:33Z</time>
      </trkpt>
      <trkpt lat="45.17216" lon="4.53613">
        <ele>1018.200012207</ele>
        <time>2021-09-07T08:36:40Z</time>
      </trkpt>
      <trkpt lat="45.17214" lon="4.53612">
        <ele>1018.4000244141</ele>
        <time>2021-09-07T08:36:42Z</time>
      </trkpt>
      <trkpt lat="45.1721" lon="4.53595">
        <ele>1018.5999755859</ele>
        <time>2021-09-07T08:36:49Z</time>
      </trkpt>
      <trkpt lat="45.17208" lon="4.53584">
        <ele>1019</ele>
        <time>2021-09-07T08:36:54Z</time>
      </trkpt>
      <trkpt lat="45.17198" lon="4.53512">
        <ele>1020</ele>
        <time>2021-09-07T08:37:17Z</time>
      </trkpt>
      <trkpt lat="45.17189" lon="4.53474">
        <ele>1020.799987793</ele>
        <time>2021-09-07T08:37:28Z</time>
      </trkpt>
      <trkpt lat="45.17183" lon="4.53457">
        <ele>1020.799987793</ele>
        <time>2021-09-07T08:37:33Z</time>
      </trkpt>
      <trkpt lat="45.17181" lon="4.53434">
        <ele>1021.5999755859</ele>
        <time>2021-09-07T08:37:41Z</time>
      </trkpt>
      <trkpt lat="45.17177" lon="4.53416">
        <ele>1022.5999755859</ele>
        <time>2021-09-07T08:37:46Z</time>
      </trkpt>
      <trkpt lat="45.17176" lon="4.53399">
        <ele>1022.799987793</ele>
        <time>2021-09-07T08:37:51Z</time>
      </trkpt>
      <trkpt lat="45.17176" lon="4.53381">
        <ele>1022.799987793</ele>
        <time>2021-09-07T08:37:56Z</time>
      </trkpt>
      <trkpt lat="45.17173" lon="4.53369">
        <ele>1023</ele>
        <time>2021-09-07T08:37:59Z</time>
      </trkpt>
      <trkpt lat="45.17166" lon="4.53346">
        <ele>1023.4000244141</ele>
        <time>2021-09-07T08:38:04Z</time>
      </trkpt>
      <trkpt lat="45.17168" lon="4.53297">
        <ele>1024.5999755859</ele>
        <time>2021-09-07T08:38:16Z</time>
      </trkpt>
      <trkpt lat="45.17169" lon="4.53293">
        <ele>1024.5999755859</ele>
        <time>2021-09-07T08:38:17Z</time>
      </trkpt>
      <trkpt lat="45.1717" lon="4.53274">
        <ele>1025.4000244141</ele>
        <time>2021-09-07T08:38:24Z</time>
      </trkpt>
      <trkpt lat="45.17169" lon="4.53255">
        <ele>1025.5999755859</ele>
        <time>2021-09-07T08:38:29Z</time>
      </trkpt>
      <trkpt lat="45.17147" lon="4.53223">
        <ele>1026.5999755859</ele>
        <time>2021-09-07T08:38:42Z</time>
      </trkpt>
      <trkpt lat="45.17125" lon="4.53201">
        <ele>1028.1999511719</ele>
        <time>2021-09-07T08:38:55Z</time>
      </trkpt>
      <trkpt lat="45.17102" lon="4.53177">
        <ele>1029.8000488281</ele>
        <time>2021-09-07T08:39:08Z</time>
      </trkpt>
      <trkpt lat="45.17089" lon="4.53167">
        <ele>1032.1999511719</ele>
        <time>2021-09-07T08:39:20Z</time>
      </trkpt>
      <trkpt lat="45.17078" lon="4.53164">
        <ele>1032.8000488281</ele>
        <time>2021-09-07T08:39:26Z</time>
      </trkpt>
      <trkpt lat="45.1707" lon="4.53159">
        <ele>1033.8000488281</ele>
        <time>2021-09-07T08:39:34Z</time>
      </trkpt>
      <trkpt lat="45.17054" lon="4.53154">
        <ele>1034</ele>
        <time>2021-09-07T08:39:38Z</time>
      </trkpt>
      <trkpt lat="45.17036" lon="4.53153">
        <ele>1035.4000244141</ele>
        <time>2021-09-07T08:39:47Z</time>
      </trkpt>
      <trkpt lat="45.17023" lon="4.53137">
        <ele>1036</ele>
        <time>2021-09-07T08:39:54Z</time>
      </trkpt>
      <trkpt lat="45.17008" lon="4.53128">
        <ele>1037.1999511719</ele>
        <time>2021-09-07T08:40:00Z</time>
      </trkpt>
      <trkpt lat="45.17003" lon="4.53122">
        <ele>1037.8000488281</ele>
        <time>2021-09-07T08:40:04Z</time>
      </trkpt>
      <trkpt lat="45.16999" lon="4.53118">
        <ele>1038</ele>
        <time>2021-09-07T08:40:07Z</time>
      </trkpt>
      <trkpt lat="45.16985" lon="4.53112">
        <ele>1038.8000488281</ele>
        <time>2021-09-07T08:40:12Z</time>
      </trkpt>
      <trkpt lat="45.16979" lon="4.53108">
        <ele>1039.1999511719</ele>
        <time>2021-09-07T08:40:15Z</time>
      </trkpt>
      <trkpt lat="45.16978" lon="4.53107">
        <ele>1039.1999511719</ele>
        <time>2021-09-07T08:40:16Z</time>
      </trkpt>
      <trkpt lat="45.16966" lon="4.53096">
        <ele>1039.5999755859</ele>
        <time>2021-09-07T08:40:21Z</time>
      </trkpt>
      <trkpt lat="45.1696" lon="4.53082">
        <ele>1040.5999755859</ele>
        <time>2021-09-07T08:40:30Z</time>
      </trkpt>
      <trkpt lat="45.16959" lon="4.53075">
        <ele>1041.1999511719</ele>
        <time>2021-09-07T08:40:34Z</time>
      </trkpt>
      <trkpt lat="45.16958" lon="4.53063">
        <ele>1042</ele>
        <time>2021-09-07T08:40:40Z</time>
      </trkpt>
      <trkpt lat="45.16954" lon="4.53036">
        <ele>1043</ele>
        <time>2021-09-07T08:40:49Z</time>
      </trkpt>
      <trkpt lat="45.16951" lon="4.53022">
        <ele>1043.5999755859</ele>
        <time>2021-09-07T08:40:53Z</time>
      </trkpt>
      <trkpt lat="45.16951" lon="4.53016">
        <ele>1044.1999511719</ele>
        <time>2021-09-07T08:40:57Z</time>
      </trkpt>
      <trkpt lat="45.16947" lon="4.53004">
        <ele>1044.5999755859</ele>
        <time>2021-09-07T08:41:01Z</time>
      </trkpt>
      <trkpt lat="45.16944" lon="4.52992">
        <ele>1045.5999755859</ele>
        <time>2021-09-07T08:41:05Z</time>
      </trkpt>
      <trkpt lat="45.16941" lon="4.5298">
        <ele>1046.8000488281</ele>
        <time>2021-09-07T08:41:11Z</time>
      </trkpt>
      <trkpt lat="45.16938" lon="4.52974">
        <ele>1047.1999511719</ele>
        <time>2021-09-07T08:41:15Z</time>
      </trkpt>
      <trkpt lat="45.16936" lon="4.52958">
        <ele>1048</ele>
        <time>2021-09-07T08:41:20Z</time>
      </trkpt>
      <trkpt lat="45.16934" lon="4.5293">
        <ele>1049.5999755859</ele>
        <time>2021-09-07T08:41:31Z</time>
      </trkpt>
      <trkpt lat="45.16928" lon="4.52908">
        <ele>1051</ele>
        <time>2021-09-07T08:41:40Z</time>
      </trkpt>
      <trkpt lat="45.16927" lon="4.52903">
        <ele>1051.4000244141</ele>
        <time>2021-09-07T08:41:42Z</time>
      </trkpt>
      <trkpt lat="45.16921" lon="4.52884">
        <ele>1052.5999755859</ele>
        <time>2021-09-07T08:41:48Z</time>
      </trkpt>
      <trkpt lat="45.16918" lon="4.52879">
        <ele>1052.8000488281</ele>
        <time>2021-09-07T08:41:51Z</time>
      </trkpt>
      <trkpt lat="45.16909" lon="4.52856">
        <ele>1053.8000488281</ele>
        <time>2021-09-07T08:42:00Z</time>
      </trkpt>
      <trkpt lat="45.16904" lon="4.52851">
        <ele>1054.4000244141</ele>
        <time>2021-09-07T08:42:03Z</time>
      </trkpt>
      <trkpt lat="45.16903" lon="4.52838">
        <ele>1055.4000244141</ele>
        <time>2021-09-07T08:42:10Z</time>
      </trkpt>
      <trkpt lat="45.16902" lon="4.52837">
        <ele>1055.5999755859</ele>
        <time>2021-09-07T08:42:11Z</time>
      </trkpt>
      <trkpt lat="45.16902" lon="4.52834">
        <ele>1056</ele>
        <time>2021-09-07T08:42:14Z</time>
      </trkpt>
      <trkpt lat="45.16902" lon="4.52831">
        <ele>1056.5999755859</ele>
        <time>2021-09-07T08:42:17Z</time>
      </trkpt>
      <trkpt lat="45.16895" lon="4.52825">
        <ele>1057</ele>
        <time>2021-09-07T08:42:20Z</time>
      </trkpt>
      <trkpt lat="45.16895" lon="4.52825">
        <ele>1057</ele>
        <time>2021-09-07T08:42:21Z</time>
      </trkpt>
      <trkpt lat="45.16893" lon="4.52816">
        <ele>1057.4000244141</ele>
        <time>2021-09-07T08:42:24Z</time>
      </trkpt>
      <trkpt lat="45.16887" lon="4.52797">
        <ele>1058.1999511719</ele>
        <time>2021-09-07T08:42:28Z</time>
      </trkpt>
      <trkpt lat="45.16883" lon="4.52784">
        <ele>1058.5999755859</ele>
        <time>2021-09-07T08:42:32Z</time>
      </trkpt>
      <trkpt lat="45.16871" lon="4.52764">
        <ele>1059.8000488281</ele>
        <time>2021-09-07T08:42:38Z</time>
      </trkpt>
      <trkpt lat="45.16871" lon="4.52757">
        <ele>1060.1999511719</ele>
        <time>2021-09-07T08:42:40Z</time>
      </trkpt>
      <trkpt lat="45.16866" lon="4.52744">
        <ele>1060.1999511719</ele>
        <time>2021-09-07T08:42:43Z</time>
      </trkpt>
      <trkpt lat="45.16853" lon="4.52729">
        <ele>1061.4000244141</ele>
        <time>2021-09-07T08:42:50Z</time>
      </trkpt>
      <trkpt lat="45.16834" lon="4.52702">
        <ele>1063.4000244141</ele>
        <time>2021-09-07T08:43:05Z</time>
      </trkpt>
      <trkpt lat="45.16833" lon="4.52701">
        <ele>1063.5999755859</ele>
        <time>2021-09-07T08:43:06Z</time>
      </trkpt>
      <trkpt lat="45.16826" lon="4.52698">
        <ele>1065.1999511719</ele>
        <time>2021-09-07T08:43:18Z</time>
      </trkpt>
      <trkpt lat="45.16816" lon="4.52691">
        <ele>1066.8000488281</ele>
        <time>2021-09-07T08:43:27Z</time>
      </trkpt>
      <trkpt lat="45.16802" lon="4.52686">
        <ele>1068.1999511719</ele>
        <time>2021-09-07T08:43:37Z</time>
      </trkpt>
      <trkpt lat="45.16785" lon="4.52682">
        <ele>1069</ele>
        <time>2021-09-07T08:43:44Z</time>
      </trkpt>
      <trkpt lat="45.16768" lon="4.52679">
        <ele>1070.1999511719</ele>
        <time>2021-09-07T08:43:51Z</time>
      </trkpt>
      <trkpt lat="45.16756" lon="4.52678">
        <ele>1071.1999511719</ele>
        <time>2021-09-07T08:43:59Z</time>
      </trkpt>
      <trkpt lat="45.16741" lon="4.52682">
        <ele>1072.1999511719</ele>
        <time>2021-09-07T08:44:06Z</time>
      </trkpt>
      <trkpt lat="45.16726" lon="4.52683">
        <ele>1072.8000488281</ele>
        <time>2021-09-07T08:44:13Z</time>
      </trkpt>
      <trkpt lat="45.16721" lon="4.52682">
        <ele>1073</ele>
        <time>2021-09-07T08:44:15Z</time>
      </trkpt>
      <trkpt lat="45.16706" lon="4.52685">
        <ele>1073.5999755859</ele>
        <time>2021-09-07T08:44:22Z</time>
      </trkpt>
      <trkpt lat="45.16692" lon="4.52684">
        <ele>1074.1999511719</ele>
        <time>2021-09-07T08:44:29Z</time>
      </trkpt>
      <trkpt lat="45.16675" lon="4.52677">
        <ele>1075.4000244141</ele>
        <time>2021-09-07T08:44:38Z</time>
      </trkpt>
      <trkpt lat="45.16669" lon="4.52676">
        <ele>1075.8000488281</ele>
        <time>2021-09-07T08:44:42Z</time>
      </trkpt>
      <trkpt lat="45.16657" lon="4.52671">
        <ele>1077.4000244141</ele>
        <time>2021-09-07T08:44:50Z</time>
      </trkpt>
      <trkpt lat="45.16645" lon="4.52663">
        <ele>1078.1999511719</ele>
        <time>2021-09-07T08:44:56Z</time>
      </trkpt>
      <trkpt lat="45.16635" lon="4.52653">
        <ele>1079.1999511719</ele>
        <time>2021-09-07T08:45:03Z</time>
      </trkpt>
      <trkpt lat="45.1663" lon="4.52648">
        <ele>1080</ele>
        <time>2021-09-07T08:45:07Z</time>
      </trkpt>
      <trkpt lat="45.16629" lon="4.52642">
        <ele>1080.4000244141</ele>
        <time>2021-09-07T08:45:11Z</time>
      </trkpt>
      <trkpt lat="45.16627" lon="4.52639">
        <ele>1081.5999755859</ele>
        <time>2021-09-07T08:45:22Z</time>
      </trkpt>
      <trkpt lat="45.16614" lon="4.5261">
        <ele>1082.5999755859</ele>
        <time>2021-09-07T08:46:28Z</time>
      </trkpt>
      <trkpt lat="45.16613" lon="4.52608">
        <ele>1082.4000244141</ele>
        <time>2021-09-07T08:46:29Z</time>
      </trkpt>
      <trkpt lat="45.16612" lon="4.52587">
        <ele>1083.1999511719</ele>
        <time>2021-09-07T08:46:36Z</time>
      </trkpt>
      <trkpt lat="45.16613" lon="4.52583">
        <ele>1083.4000244141</ele>
        <time>2021-09-07T08:46:38Z</time>
      </trkpt>
      <trkpt lat="45.16607" lon="4.52561">
        <ele>1084.8000488281</ele>
        <time>2021-09-07T08:46:44Z</time>
      </trkpt>
      <trkpt lat="45.16606" lon="4.52539">
        <ele>1085.8000488281</ele>
        <time>2021-09-07T08:46:51Z</time>
      </trkpt>
      <trkpt lat="45.16606" lon="4.52518">
        <ele>1086.4000244141</ele>
        <time>2021-09-07T08:46:58Z</time>
      </trkpt>
      <trkpt lat="45.16604" lon="4.52505">
        <ele>1087.5999755859</ele>
        <time>2021-09-07T08:47:03Z</time>
      </trkpt>
      <trkpt lat="45.16604" lon="4.52498">
        <ele>1088.1999511719</ele>
        <time>2021-09-07T08:47:07Z</time>
      </trkpt>
      <trkpt lat="45.16602" lon="4.52479">
        <ele>1089.4000244141</ele>
        <time>2021-09-07T08:47:12Z</time>
      </trkpt>
      <trkpt lat="45.16605" lon="4.52458">
        <ele>1090.1999511719</ele>
        <time>2021-09-07T08:47:19Z</time>
      </trkpt>
      <trkpt lat="45.16602" lon="4.52449">
        <ele>1090.4000244141</ele>
        <time>2021-09-07T08:47:22Z</time>
      </trkpt>
      <trkpt lat="45.16603" lon="4.52445">
        <ele>1090.5999755859</ele>
        <time>2021-09-07T08:47:24Z</time>
      </trkpt>
      <trkpt lat="45.166" lon="4.52432">
        <ele>1091.4000244141</ele>
        <time>2021-09-07T08:47:28Z</time>
      </trkpt>
      <trkpt lat="45.166" lon="4.52429">
        <ele>1091.5999755859</ele>
        <time>2021-09-07T08:47:29Z</time>
      </trkpt>
      <trkpt lat="45.16603" lon="4.52417">
        <ele>1092.1999511719</ele>
        <time>2021-09-07T08:47:33Z</time>
      </trkpt>
      <trkpt lat="45.16602" lon="4.52415">
        <ele>1092.5999755859</ele>
        <time>2021-09-07T08:47:35Z</time>
      </trkpt>
      <trkpt lat="45.16597" lon="4.52395">
        <ele>1093.5999755859</ele>
        <time>2021-09-07T08:47:43Z</time>
      </trkpt>
      <trkpt lat="45.16598" lon="4.52392">
        <ele>1094</ele>
        <time>2021-09-07T08:47:45Z</time>
      </trkpt>
      <trkpt lat="45.16595" lon="4.52376">
        <ele>1094.5999755859</ele>
        <time>2021-09-07T08:47:50Z</time>
      </trkpt>
      <trkpt lat="45.16595" lon="4.52373">
        <ele>1094.8000488281</ele>
        <time>2021-09-07T08:47:51Z</time>
      </trkpt>
      <trkpt lat="45.16592" lon="4.52361">
        <ele>1095.8000488281</ele>
        <time>2021-09-07T08:47:56Z</time>
      </trkpt>
      <trkpt lat="45.16589" lon="4.52355">
        <ele>1096.1999511719</ele>
        <time>2021-09-07T08:47:59Z</time>
      </trkpt>
      <trkpt lat="45.16587" lon="4.52341">
        <ele>1097</ele>
        <time>2021-09-07T08:48:05Z</time>
      </trkpt>
      <trkpt lat="45.16583" lon="4.5232">
        <ele>1098</ele>
        <time>2021-09-07T08:48:11Z</time>
      </trkpt>
      <trkpt lat="45.16584" lon="4.52311">
        <ele>1098.5999755859</ele>
        <time>2021-09-07T08:48:15Z</time>
      </trkpt>
      <trkpt lat="45.16583" lon="4.52299">
        <ele>1099</ele>
        <time>2021-09-07T08:48:19Z</time>
      </trkpt>
      <trkpt lat="45.16578" lon="4.52289">
        <ele>1099.4000244141</ele>
        <time>2021-09-07T08:48:22Z</time>
      </trkpt>
      <trkpt lat="45.16573" lon="4.52273">
        <ele>1100.8000488281</ele>
        <time>2021-09-07T08:48:29Z</time>
      </trkpt>
      <trkpt lat="45.16572" lon="4.52257">
        <ele>1101.5999755859</ele>
        <time>2021-09-07T08:48:35Z</time>
      </trkpt>
      <trkpt lat="45.16572" lon="4.52248">
        <ele>1102</ele>
        <time>2021-09-07T08:48:39Z</time>
      </trkpt>
      <trkpt lat="45.16572" lon="4.52239">
        <ele>1102.1999511719</ele>
        <time>2021-09-07T08:48:43Z</time>
      </trkpt>
      <trkpt lat="45.16574" lon="4.52226">
        <ele>1103.1999511719</ele>
        <time>2021-09-07T08:48:48Z</time>
      </trkpt>
      <trkpt lat="45.16574" lon="4.52224">
        <ele>1103.4000244141</ele>
        <time>2021-09-07T08:48:49Z</time>
      </trkpt>
      <trkpt lat="45.16573" lon="4.52215">
        <ele>1103.8000488281</ele>
        <time>2021-09-07T08:48:53Z</time>
      </trkpt>
      <trkpt lat="45.16571" lon="4.52202">
        <ele>1104.5999755859</ele>
        <time>2021-09-07T08:48:59Z</time>
      </trkpt>
      <trkpt lat="45.16569" lon="4.52189">
        <ele>1105.5999755859</ele>
        <time>2021-09-07T08:49:05Z</time>
      </trkpt>
      <trkpt lat="45.16566" lon="4.52184">
        <ele>1106</ele>
        <time>2021-09-07T08:49:07Z</time>
      </trkpt>
      <trkpt lat="45.16558" lon="4.52162">
        <ele>1107.4000244141</ele>
        <time>2021-09-07T08:49:15Z</time>
      </trkpt>
      <trkpt lat="45.16551" lon="4.52141">
        <ele>1109</ele>
        <time>2021-09-07T08:49:22Z</time>
      </trkpt>
      <trkpt lat="45.16553" lon="4.5212">
        <ele>1109.5999755859</ele>
        <time>2021-09-07T08:49:28Z</time>
      </trkpt>
      <trkpt lat="45.16541" lon="4.521">
        <ele>1110</ele>
        <time>2021-09-07T08:49:33Z</time>
      </trkpt>
      <trkpt lat="45.16541" lon="4.52096">
        <ele>1110.1999511719</ele>
        <time>2021-09-07T08:49:36Z</time>
      </trkpt>
      <trkpt lat="45.16537" lon="4.52092">
        <ele>1110.1999511719</ele>
        <time>2021-09-07T08:49:38Z</time>
      </trkpt>
      <trkpt lat="45.16526" lon="4.52071">
        <ele>1110.4000244141</ele>
        <time>2021-09-07T08:49:44Z</time>
      </trkpt>
      <trkpt lat="45.16525" lon="4.5206">
        <ele>1110.8000488281</ele>
        <time>2021-09-07T08:49:49Z</time>
      </trkpt>
      <trkpt lat="45.16522" lon="4.52044">
        <ele>1111</ele>
        <time>2021-09-07T08:49:54Z</time>
      </trkpt>
      <trkpt lat="45.16524" lon="4.52027">
        <ele>1111.8000488281</ele>
        <time>2021-09-07T08:49:58Z</time>
      </trkpt>
      <trkpt lat="45.16509" lon="4.5201">
        <ele>1113.1999511719</ele>
        <time>2021-09-07T08:50:04Z</time>
      </trkpt>
      <trkpt lat="45.16508" lon="4.5201">
        <ele>1113.5999755859</ele>
        <time>2021-09-07T08:50:06Z</time>
      </trkpt>
      <trkpt lat="45.16497" lon="4.52009">
        <ele>1114.1999511719</ele>
        <time>2021-09-07T08:50:14Z</time>
      </trkpt>
      <trkpt lat="45.16497" lon="4.52009">
        <ele>1114.4000244141</ele>
        <time>2021-09-07T08:50:15Z</time>
      </trkpt>
      <trkpt lat="45.16484" lon="4.52002">
        <ele>1114.8000488281</ele>
        <time>2021-09-07T08:50:18Z</time>
      </trkpt>
      <trkpt lat="45.16479" lon="4.51998">
        <ele>1115</ele>
        <time>2021-09-07T08:50:24Z</time>
      </trkpt>
      <trkpt lat="45.16471" lon="4.51996">
        <ele>1115.8000488281</ele>
        <time>2021-09-07T08:50:28Z</time>
      </trkpt>
      <trkpt lat="45.16453" lon="4.51989">
        <ele>1116.1999511719</ele>
        <time>2021-09-07T08:50:33Z</time>
      </trkpt>
      <trkpt lat="45.1645" lon="4.51988">
        <ele>1116.4000244141</ele>
        <time>2021-09-07T08:50:36Z</time>
      </trkpt>
      <trkpt lat="45.16448" lon="4.51986">
        <ele>1116.4000244141</ele>
        <time>2021-09-07T08:50:39Z</time>
      </trkpt>
      <trkpt lat="45.16438" lon="4.51985">
        <ele>1116.8000488281</ele>
        <time>2021-09-07T08:50:42Z</time>
      </trkpt>
      <trkpt lat="45.1642" lon="4.51977">
        <ele>1117.5999755859</ele>
        <time>2021-09-07T08:50:49Z</time>
      </trkpt>
      <trkpt lat="45.16413" lon="4.51974">
        <ele>1117.5999755859</ele>
        <time>2021-09-07T08:50:51Z</time>
      </trkpt>
      <trkpt lat="45.16406" lon="4.51973">
        <ele>1117.8000488281</ele>
        <time>2021-09-07T08:50:53Z</time>
      </trkpt>
      <trkpt lat="45.16396" lon="4.51969">
        <ele>1118.1999511719</ele>
        <time>2021-09-07T08:50:55Z</time>
      </trkpt>
      <trkpt lat="45.1639" lon="4.51968">
        <ele>1119.1999511719</ele>
        <time>2021-09-07T08:51:00Z</time>
      </trkpt>
      <trkpt lat="45.16382" lon="4.51968">
        <ele>1120</ele>
        <time>2021-09-07T08:51:06Z</time>
      </trkpt>
      <trkpt lat="45.16379" lon="4.51969">
        <ele>1120.4000244141</ele>
        <time>2021-09-07T08:51:08Z</time>
      </trkpt>
      <trkpt lat="45.16363" lon="4.51973">
        <ele>1121.4000244141</ele>
        <time>2021-09-07T08:51:17Z</time>
      </trkpt>
      <trkpt lat="45.16343" lon="4.51976">
        <ele>1122.4000244141</ele>
        <time>2021-09-07T08:51:29Z</time>
      </trkpt>
      <trkpt lat="45.16336" lon="4.5198">
        <ele>1123</ele>
        <time>2021-09-07T08:51:33Z</time>
      </trkpt>
      <trkpt lat="45.16327" lon="4.5198">
        <ele>1123.5999755859</ele>
        <time>2021-09-07T08:51:37Z</time>
      </trkpt>
      <trkpt lat="45.16301" lon="4.51977">
        <ele>1124.4000244141</ele>
        <time>2021-09-07T08:51:43Z</time>
      </trkpt>
      <trkpt lat="45.16292" lon="4.51979">
        <ele>1124.5999755859</ele>
        <time>2021-09-07T08:51:48Z</time>
      </trkpt>
      <trkpt lat="45.16279" lon="4.51979">
        <ele>1124.8000488281</ele>
        <time>2021-09-07T08:51:53Z</time>
      </trkpt>
      <trkpt lat="45.16268" lon="4.51984">
        <ele>1125.5999755859</ele>
        <time>2021-09-07T08:51:58Z</time>
      </trkpt>
      <trkpt lat="45.16262" lon="4.51982">
        <ele>1126.4000244141</ele>
        <time>2021-09-07T08:52:04Z</time>
      </trkpt>
      <trkpt lat="45.16244" lon="4.5198">
        <ele>1127.4000244141</ele>
        <time>2021-09-07T08:52:12Z</time>
      </trkpt>
      <trkpt lat="45.16232" lon="4.51979">
        <ele>1128.1999511719</ele>
        <time>2021-09-07T08:52:18Z</time>
      </trkpt>
      <trkpt lat="45.16226" lon="4.51977">
        <ele>1128.5999755859</ele>
        <time>2021-09-07T08:52:22Z</time>
      </trkpt>
      <trkpt lat="45.16204" lon="4.5198">
        <ele>1129.8000488281</ele>
        <time>2021-09-07T08:52:29Z</time>
      </trkpt>
      <trkpt lat="45.16196" lon="4.51979">
        <ele>1130.1999511719</ele>
        <time>2021-09-07T08:52:34Z</time>
      </trkpt>
      <trkpt lat="45.16182" lon="4.51975">
        <ele>1130.5999755859</ele>
        <time>2021-09-07T08:52:39Z</time>
      </trkpt>
      <trkpt lat="45.16176" lon="4.5197">
        <ele>1130.8000488281</ele>
        <time>2021-09-07T08:52:41Z</time>
      </trkpt>
      <trkpt lat="45.1617" lon="4.51972">
        <ele>1131</ele>
        <time>2021-09-07T08:52:44Z</time>
      </trkpt>
      <trkpt lat="45.16162" lon="4.51969">
        <ele>1131.5999755859</ele>
        <time>2021-09-07T08:52:48Z</time>
      </trkpt>
      <trkpt lat="45.16157" lon="4.51971">
        <ele>1132.1999511719</ele>
        <time>2021-09-07T08:52:53Z</time>
      </trkpt>
      <trkpt lat="45.16154" lon="4.51973">
        <ele>1132.1999511719</ele>
        <time>2021-09-07T08:52:56Z</time>
      </trkpt>
      <trkpt lat="45.1614" lon="4.51972">
        <ele>1132.5999755859</ele>
        <time>2021-09-07T08:53:00Z</time>
      </trkpt>
      <trkpt lat="45.16127" lon="4.5197">
        <ele>1133.1999511719</ele>
        <time>2021-09-07T08:53:06Z</time>
      </trkpt>
      <trkpt lat="45.16107" lon="4.51974">
        <ele>1133.8000488281</ele>
        <time>2021-09-07T08:53:12Z</time>
      </trkpt>
      <trkpt lat="45.16106" lon="4.51974">
        <ele>1134</ele>
        <time>2021-09-07T08:53:13Z</time>
      </trkpt>
      <trkpt lat="45.1609" lon="4.51962">
        <ele>1134.4000244141</ele>
        <time>2021-09-07T08:53:18Z</time>
      </trkpt>
      <trkpt lat="45.16075" lon="4.51956">
        <ele>1135.5999755859</ele>
        <time>2021-09-07T08:53:29Z</time>
      </trkpt>
      <trkpt lat="45.16068" lon="4.51951">
        <ele>1136.1999511719</ele>
        <time>2021-09-07T08:53:33Z</time>
      </trkpt>
      <trkpt lat="45.16065" lon="4.51951">
        <ele>1136.8000488281</ele>
        <time>2021-09-07T08:53:37Z</time>
      </trkpt>
      <trkpt lat="45.16059" lon="4.51946">
        <ele>1137.4000244141</ele>
        <time>2021-09-07T08:53:42Z</time>
      </trkpt>
      <trkpt lat="45.16047" lon="4.51941">
        <ele>1137.5999755859</ele>
        <time>2021-09-07T08:53:48Z</time>
      </trkpt>
      <trkpt lat="45.16038" lon="4.51936">
        <ele>1138</ele>
        <time>2021-09-07T08:53:52Z</time>
      </trkpt>
      <trkpt lat="45.16024" lon="4.51927">
        <ele>1138.5999755859</ele>
        <time>2021-09-07T08:53:56Z</time>
      </trkpt>
      <trkpt lat="45.16006" lon="4.51918">
        <ele>1139.4000244141</ele>
        <time>2021-09-07T08:54:02Z</time>
      </trkpt>
      <trkpt lat="45.15992" lon="4.51921">
        <ele>1140.4000244141</ele>
        <time>2021-09-07T08:54:08Z</time>
      </trkpt>
      <trkpt lat="45.15974" lon="4.51911">
        <ele>1141</ele>
        <time>2021-09-07T08:54:14Z</time>
      </trkpt>
      <trkpt lat="45.15967" lon="4.51906">
        <ele>1141.5999755859</ele>
        <time>2021-09-07T08:54:16Z</time>
      </trkpt>
      <trkpt lat="45.15965" lon="4.51904">
        <ele>1141.8000488281</ele>
        <time>2021-09-07T08:54:17Z</time>
      </trkpt>
      <trkpt lat="45.1596" lon="4.51905">
        <ele>1142.4000244141</ele>
        <time>2021-09-07T08:54:22Z</time>
      </trkpt>
      <trkpt lat="45.15946" lon="4.51905">
        <ele>1143.1999511719</ele>
        <time>2021-09-07T08:54:30Z</time>
      </trkpt>
      <trkpt lat="45.1592" lon="4.51902">
        <ele>1145</ele>
        <time>2021-09-07T08:54:41Z</time>
      </trkpt>
      <trkpt lat="45.15901" lon="4.51897">
        <ele>1146.4000244141</ele>
        <time>2021-09-07T08:54:51Z</time>
      </trkpt>
      <trkpt lat="45.15898" lon="4.51897">
        <ele>1146.5999755859</ele>
        <time>2021-09-07T08:54:53Z</time>
      </trkpt>
      <trkpt lat="45.15877" lon="4.51879">
        <ele>1147</ele>
        <time>2021-09-07T08:54:58Z</time>
      </trkpt>
      <trkpt lat="45.15873" lon="4.51876">
        <ele>1147</ele>
        <time>2021-09-07T08:54:59Z</time>
      </trkpt>
      <trkpt lat="45.15869" lon="4.51874">
        <ele>1147.1999511719</ele>
        <time>2021-09-07T08:55:00Z</time>
      </trkpt>
      <trkpt lat="45.15856" lon="4.51862">
        <ele>1147.8000488281</ele>
        <time>2021-09-07T08:55:07Z</time>
      </trkpt>
      <trkpt lat="45.15851" lon="4.51851">
        <ele>1148.5999755859</ele>
        <time>2021-09-07T08:55:11Z</time>
      </trkpt>
      <trkpt lat="45.15849" lon="4.51837">
        <ele>1149</ele>
        <time>2021-09-07T08:55:16Z</time>
      </trkpt>
      <trkpt lat="45.15846" lon="4.51825">
        <ele>1149.4000244141</ele>
        <time>2021-09-07T08:55:20Z</time>
      </trkpt>
      <trkpt lat="45.15853" lon="4.51798">
        <ele>1150.4000244141</ele>
        <time>2021-09-07T08:55:30Z</time>
      </trkpt>
      <trkpt lat="45.15858" lon="4.51775">
        <ele>1151.5999755859</ele>
        <time>2021-09-07T08:55:36Z</time>
      </trkpt>
      <trkpt lat="45.15846" lon="4.51751">
        <ele>1152.4000244141</ele>
        <time>2021-09-07T08:55:42Z</time>
      </trkpt>
      <trkpt lat="45.15831" lon="4.51738">
        <ele>1153.4000244141</ele>
        <time>2021-09-07T08:55:50Z</time>
      </trkpt>
      <trkpt lat="45.1582" lon="4.51728">
        <ele>1155.1999511719</ele>
        <time>2021-09-07T08:55:59Z</time>
      </trkpt>
      <trkpt lat="45.15818" lon="4.51725">
        <ele>1155.1999511719</ele>
        <time>2021-09-07T08:56:00Z</time>
      </trkpt>
      <trkpt lat="45.15802" lon="4.51713">
        <ele>1157.4000244141</ele>
        <time>2021-09-07T08:56:10Z</time>
      </trkpt>
      <trkpt lat="45.15788" lon="4.51707">
        <ele>1158.5999755859</ele>
        <time>2021-09-07T08:56:17Z</time>
      </trkpt>
      <trkpt lat="45.15771" lon="4.51697">
        <ele>1159.1999511719</ele>
        <time>2021-09-07T08:56:26Z</time>
      </trkpt>
      <trkpt lat="45.15762" lon="4.5169">
        <ele>1160.1999511719</ele>
        <time>2021-09-07T08:56:34Z</time>
      </trkpt>
      <trkpt lat="45.15744" lon="4.51683">
        <ele>1161</ele>
        <time>2021-09-07T08:56:45Z</time>
      </trkpt>
      <trkpt lat="45.15738" lon="4.51683">
        <ele>1161.1999511719</ele>
        <time>2021-09-07T08:56:48Z</time>
      </trkpt>
      <trkpt lat="45.15721" lon="4.51683">
        <ele>1162</ele>
        <time>2021-09-07T08:56:56Z</time>
      </trkpt>
      <trkpt lat="45.15703" lon="4.51683">
        <ele>1162.4000244141</ele>
        <time>2021-09-07T08:57:04Z</time>
      </trkpt>
      <trkpt lat="45.15694" lon="4.51682">
        <ele>1162.5999755859</ele>
        <time>2021-09-07T08:57:09Z</time>
      </trkpt>
      <trkpt lat="45.15667" lon="4.51685">
        <ele>1165.5999755859</ele>
        <time>2021-09-07T08:57:25Z</time>
      </trkpt>
      <trkpt lat="45.15645" lon="4.51685">
        <ele>1168.5999755859</ele>
        <time>2021-09-07T08:57:39Z</time>
      </trkpt>
      <trkpt lat="45.15644" lon="4.51685">
        <ele>1168.5999755859</ele>
        <time>2021-09-07T08:57:40Z</time>
      </trkpt>
      <trkpt lat="45.15638" lon="4.51685">
        <ele>1169</ele>
        <time>2021-09-07T08:57:44Z</time>
      </trkpt>
      <trkpt lat="45.15621" lon="4.5168">
        <ele>1171.1999511719</ele>
        <time>2021-09-07T08:57:57Z</time>
      </trkpt>
      <trkpt lat="45.15603" lon="4.51664">
        <ele>1173</ele>
        <time>2021-09-07T08:58:12Z</time>
      </trkpt>
      <trkpt lat="45.15588" lon="4.51648">
        <ele>1174.5999755859</ele>
        <time>2021-09-07T08:58:25Z</time>
      </trkpt>
      <trkpt lat="45.15569" lon="4.51633">
        <ele>1177</ele>
        <time>2021-09-07T08:58:40Z</time>
      </trkpt>
      <trkpt lat="45.15548" lon="4.51624">
        <ele>1179.8000488281</ele>
        <time>2021-09-07T08:58:55Z</time>
      </trkpt>
      <trkpt lat="45.1553" lon="4.51612">
        <ele>1181.5999755859</ele>
        <time>2021-09-07T08:59:08Z</time>
      </trkpt>
      <trkpt lat="45.15514" lon="4.51602">
        <ele>1183</ele>
        <time>2021-09-07T08:59:20Z</time>
      </trkpt>
      <trkpt lat="45.15496" lon="4.51604">
        <ele>1184</ele>
        <time>2021-09-07T08:59:32Z</time>
      </trkpt>
      <trkpt lat="45.15473" lon="4.51612">
        <ele>1185.1999511719</ele>
        <time>2021-09-07T08:59:45Z</time>
      </trkpt>
      <trkpt lat="45.15456" lon="4.51618">
        <ele>1187</ele>
        <time>2021-09-07T08:59:55Z</time>
      </trkpt>
      <trkpt lat="45.15444" lon="4.51625">
        <ele>1188</ele>
        <time>2021-09-07T09:00:03Z</time>
      </trkpt>
      <trkpt lat="45.15442" lon="4.51625">
        <ele>1188</ele>
        <time>2021-09-07T09:00:04Z</time>
      </trkpt>
      <trkpt lat="45.15429" lon="4.51627">
        <ele>1188.1999511719</ele>
        <time>2021-09-07T09:00:09Z</time>
      </trkpt>
      <trkpt lat="45.15412" lon="4.51635">
        <ele>1188.5999755859</ele>
        <time>2021-09-07T09:00:16Z</time>
      </trkpt>
      <trkpt lat="45.15397" lon="4.51647">
        <ele>1189.5999755859</ele>
        <time>2021-09-07T09:00:24Z</time>
      </trkpt>
      <trkpt lat="45.15387" lon="4.51651">
        <ele>1189.8000488281</ele>
        <time>2021-09-07T09:00:29Z</time>
      </trkpt>
      <trkpt lat="45.15364" lon="4.51663">
        <ele>1190.8000488281</ele>
        <time>2021-09-07T09:00:40Z</time>
      </trkpt>
      <trkpt lat="45.15346" lon="4.51674">
        <ele>1192</ele>
        <time>2021-09-07T09:00:48Z</time>
      </trkpt>
      <trkpt lat="45.1534" lon="4.51675">
        <ele>1192.1999511719</ele>
        <time>2021-09-07T09:00:51Z</time>
      </trkpt>
      <trkpt lat="45.15329" lon="4.51679">
        <ele>1192.4000244141</ele>
        <time>2021-09-07T09:00:55Z</time>
      </trkpt>
      <trkpt lat="45.15321" lon="4.51683">
        <ele>1193.4000244141</ele>
        <time>2021-09-07T09:00:58Z</time>
      </trkpt>
      <trkpt lat="45.1531" lon="4.51688">
        <ele>1194</ele>
        <time>2021-09-07T09:01:01Z</time>
      </trkpt>
      <trkpt lat="45.15308" lon="4.51699">
        <ele>1194.4000244141</ele>
        <time>2021-09-07T09:01:06Z</time>
      </trkpt>
      <trkpt lat="45.15298" lon="4.51706">
        <ele>1195</ele>
        <time>2021-09-07T09:01:11Z</time>
      </trkpt>
      <trkpt lat="45.15295" lon="4.51706">
        <ele>1195.5999755859</ele>
        <time>2021-09-07T09:01:13Z</time>
      </trkpt>
      <trkpt lat="45.15284" lon="4.51711">
        <ele>1196</ele>
        <time>2021-09-07T09:01:17Z</time>
      </trkpt>
      <trkpt lat="45.15282" lon="4.51713">
        <ele>1196.1999511719</ele>
        <time>2021-09-07T09:01:19Z</time>
      </trkpt>
      <trkpt lat="45.15274" lon="4.51718">
        <ele>1196.8000488281</ele>
        <time>2021-09-07T09:01:24Z</time>
      </trkpt>
      <trkpt lat="45.15272" lon="4.51721">
        <ele>1197</ele>
        <time>2021-09-07T09:01:26Z</time>
      </trkpt>
      <trkpt lat="45.15259" lon="4.51734">
        <ele>1197.5999755859</ele>
        <time>2021-09-07T09:01:35Z</time>
      </trkpt>
      <trkpt lat="45.15247" lon="4.51744">
        <ele>1197.8000488281</ele>
        <time>2021-09-07T09:01:41Z</time>
      </trkpt>
      <trkpt lat="45.15217" lon="4.51761">
        <ele>1198.1999511719</ele>
        <time>2021-09-07T09:01:49Z</time>
      </trkpt>
      <trkpt lat="45.1519" lon="4.51775">
        <ele>1198.4000244141</ele>
        <time>2021-09-07T09:01:56Z</time>
      </trkpt>
      <trkpt lat="45.1519" lon="4.51775">
        <ele>1198.5999755859</ele>
        <time>2021-09-07T09:01:57Z</time>
      </trkpt>
      <trkpt lat="45.15174" lon="4.51782">
        <ele>1198.4000244141</ele>
        <time>2021-09-07T09:02:01Z</time>
      </trkpt>
      <trkpt lat="45.15168" lon="4.51781">
        <ele>1198.4000244141</ele>
        <time>2021-09-07T09:02:03Z</time>
      </trkpt>
      <trkpt lat="45.15111" lon="4.51759">
        <ele>1199</ele>
        <time>2021-09-07T09:02:21Z</time>
      </trkpt>
      <trkpt lat="45.15062" lon="4.5177">
        <ele>1198.8000488281</ele>
        <time>2021-09-07T09:02:33Z</time>
      </trkpt>
      <trkpt lat="45.15055" lon="4.51771">
        <ele>1198.5999755859</ele>
        <time>2021-09-07T09:02:35Z</time>
      </trkpt>
      <trkpt lat="45.14961" lon="4.51784">
        <ele>1196.5999755859</ele>
        <time>2021-09-07T09:02:58Z</time>
      </trkpt>
      <trkpt lat="45.14925" lon="4.51787">
        <ele>1196</ele>
        <time>2021-09-07T09:03:08Z</time>
      </trkpt>
      <trkpt lat="45.14914" lon="4.51788">
        <ele>1195.4000244141</ele>
        <time>2021-09-07T09:03:12Z</time>
      </trkpt>
      <trkpt lat="45.14906" lon="4.51787">
        <ele>1195.4000244141</ele>
        <time>2021-09-07T09:03:14Z</time>
      </trkpt>
      <trkpt lat="45.14868" lon="4.51782">
        <ele>1195</ele>
        <time>2021-09-07T09:03:21Z</time>
      </trkpt>
      <trkpt lat="45.14794" lon="4.51792">
        <ele>1194.5999755859</ele>
        <time>2021-09-07T09:03:36Z</time>
      </trkpt>
      <trkpt lat="45.14784" lon="4.51793">
        <ele>1194.5999755859</ele>
        <time>2021-09-07T09:03:39Z</time>
      </trkpt>
      <trkpt lat="45.14754" lon="4.51802">
        <ele>1194</ele>
        <time>2021-09-07T09:03:47Z</time>
      </trkpt>
      <trkpt lat="45.14732" lon="4.51812">
        <ele>1193.8000488281</ele>
        <time>2021-09-07T09:03:51Z</time>
      </trkpt>
      <trkpt lat="45.14721" lon="4.51817">
        <ele>1193.5999755859</ele>
        <time>2021-09-07T09:03:54Z</time>
      </trkpt>
      <trkpt lat="45.14716" lon="4.51818">
        <ele>1193.5999755859</ele>
        <time>2021-09-07T09:03:56Z</time>
      </trkpt>
      <trkpt lat="45.14699" lon="4.51809">
        <ele>1193.4000244141</ele>
        <time>2021-09-07T09:03:59Z</time>
      </trkpt>
      <trkpt lat="45.14694" lon="4.518">
        <ele>1193.1999511719</ele>
        <time>2021-09-07T09:04:01Z</time>
      </trkpt>
      <trkpt lat="45.14685" lon="4.51791">
        <ele>1192.4000244141</ele>
        <time>2021-09-07T09:04:05Z</time>
      </trkpt>
      <trkpt lat="45.14665" lon="4.51819">
        <ele>1192.4000244141</ele>
        <time>2021-09-07T09:04:16Z</time>
      </trkpt>
      <trkpt lat="45.14647" lon="4.51836">
        <ele>1193.8000488281</ele>
        <time>2021-09-07T09:04:24Z</time>
      </trkpt>
      <trkpt lat="45.14639" lon="4.51848">
        <ele>1195</ele>
        <time>2021-09-07T09:04:29Z</time>
      </trkpt>
      <trkpt lat="45.14637" lon="4.5185">
        <ele>1195.1999511719</ele>
        <time>2021-09-07T09:04:30Z</time>
      </trkpt>
      <trkpt lat="45.14609" lon="4.51869">
        <ele>1197.4000244141</ele>
        <time>2021-09-07T09:04:43Z</time>
      </trkpt>
      <trkpt lat="45.14589" lon="4.51883">
        <ele>1198</ele>
        <time>2021-09-07T09:04:51Z</time>
      </trkpt>
      <trkpt lat="45.14568" lon="4.51897">
        <ele>1199</ele>
        <time>2021-09-07T09:05:02Z</time>
      </trkpt>
      <trkpt lat="45.14552" lon="4.51908">
        <ele>1200.8000488281</ele>
        <time>2021-09-07T09:05:11Z</time>
      </trkpt>
      <trkpt lat="45.14524" lon="4.51928">
        <ele>1203.8000488281</ele>
        <time>2021-09-07T09:05:27Z</time>
      </trkpt>
      <trkpt lat="45.14509" lon="4.51941">
        <ele>1205.4000244141</ele>
        <time>2021-09-07T09:05:36Z</time>
      </trkpt>
      <trkpt lat="45.145" lon="4.51947">
        <ele>1206.8000488281</ele>
        <time>2021-09-07T09:05:42Z</time>
      </trkpt>
      <trkpt lat="45.14473" lon="4.51962">
        <ele>1209.8000488281</ele>
        <time>2021-09-07T09:05:56Z</time>
      </trkpt>
      <trkpt lat="45.1445" lon="4.51977">
        <ele>1211.8000488281</ele>
        <time>2021-09-07T09:06:10Z</time>
      </trkpt>
      <trkpt lat="45.14428" lon="4.51991">
        <ele>1213.5999755859</ele>
        <time>2021-09-07T09:06:22Z</time>
      </trkpt>
      <trkpt lat="45.14405" lon="4.52008">
        <ele>1216.1999511719</ele>
        <time>2021-09-07T09:06:35Z</time>
      </trkpt>
      <trkpt lat="45.14404" lon="4.52009">
        <ele>1216.1999511719</ele>
        <time>2021-09-07T09:06:36Z</time>
      </trkpt>
      <trkpt lat="45.14387" lon="4.52018">
        <ele>1217.5999755859</ele>
        <time>2021-09-07T09:06:45Z</time>
      </trkpt>
      <trkpt lat="45.14381" lon="4.52025">
        <ele>1218.4000244141</ele>
        <time>2021-09-07T09:06:49Z</time>
      </trkpt>
      <trkpt lat="45.14354" lon="4.52046">
        <ele>1220</ele>
        <time>2021-09-07T09:07:02Z</time>
      </trkpt>
      <trkpt lat="45.1432" lon="4.52067">
        <ele>1221.1999511719</ele>
        <time>2021-09-07T09:07:16Z</time>
      </trkpt>
      <trkpt lat="45.14265" lon="4.52077">
        <ele>1220.1999511719</ele>
        <time>2021-09-07T09:07:27Z</time>
      </trkpt>
      <trkpt lat="45.14205" lon="4.52103">
        <ele>1217</ele>
        <time>2021-09-07T09:07:34Z</time>
      </trkpt>
      <trkpt lat="45.14195" lon="4.52109">
        <ele>1215.5999755859</ele>
        <time>2021-09-07T09:07:35Z</time>
      </trkpt>
      <trkpt lat="45.14172" lon="4.52134">
        <ele>1213.5999755859</ele>
        <time>2021-09-07T09:07:38Z</time>
      </trkpt>
      <trkpt lat="45.14149" lon="4.52165">
        <ele>1211.4000244141</ele>
        <time>2021-09-07T09:07:42Z</time>
      </trkpt>
      <trkpt lat="45.14133" lon="4.52194">
        <ele>1212</ele>
        <time>2021-09-07T09:07:49Z</time>
      </trkpt>
      <trkpt lat="45.1412" lon="4.52214">
        <ele>1215</ele>
        <time>2021-09-07T09:07:58Z</time>
      </trkpt>
      <trkpt lat="45.14106" lon="4.52243">
        <ele>1217.1999511719</ele>
        <time>2021-09-07T09:08:10Z</time>
      </trkpt>
      <trkpt lat="45.14103" lon="4.52258">
        <ele>1218.4000244141</ele>
        <time>2021-09-07T09:08:16Z</time>
      </trkpt>
      <trkpt lat="45.14089" lon="4.52277">
        <ele>1220</ele>
        <time>2021-09-07T09:08:25Z</time>
      </trkpt>
      <trkpt lat="45.14083" lon="4.5229">
        <ele>1220.5999755859</ele>
        <time>2021-09-07T09:08:30Z</time>
      </trkpt>
      <trkpt lat="45.14081" lon="4.52301">
        <ele>1220.8000488281</ele>
        <time>2021-09-07T09:08:32Z</time>
      </trkpt>
      <trkpt lat="45.14081" lon="4.5232">
        <ele>1221</ele>
        <time>2021-09-07T09:08:37Z</time>
      </trkpt>
      <trkpt lat="45.14077" lon="4.52339">
        <ele>1221</ele>
        <time>2021-09-07T09:08:41Z</time>
      </trkpt>
      <trkpt lat="45.14066" lon="4.52375">
        <ele>1220.5999755859</ele>
        <time>2021-09-07T09:08:46Z</time>
      </trkpt>
      <trkpt lat="45.14058" lon="4.52394">
        <ele>1220.1999511719</ele>
        <time>2021-09-07T09:08:48Z</time>
      </trkpt>
      <trkpt lat="45.1404" lon="4.52429">
        <ele>1219.5999755859</ele>
        <time>2021-09-07T09:08:51Z</time>
      </trkpt>
      <trkpt lat="45.14019" lon="4.52497">
        <ele>1216.5999755859</ele>
        <time>2021-09-07T09:08:55Z</time>
      </trkpt>
      <trkpt lat="45.14009" lon="4.52546">
        <ele>1213</ele>
        <time>2021-09-07T09:08:58Z</time>
      </trkpt>
      <trkpt lat="45.14005" lon="4.52566">
        <ele>1209.8000488281</ele>
        <time>2021-09-07T09:09:00Z</time>
      </trkpt>
      <trkpt lat="45.14003" lon="4.52583">
        <ele>1207</ele>
        <time>2021-09-07T09:09:04Z</time>
      </trkpt>
      <trkpt lat="45.14003" lon="4.52586">
        <ele>1206.8000488281</ele>
        <time>2021-09-07T09:09:05Z</time>
      </trkpt>
      <trkpt lat="45.13998" lon="4.52602">
        <ele>1206</ele>
        <time>2021-09-07T09:09:15Z</time>
      </trkpt>
      <trkpt lat="45.13981" lon="4.52638">
        <ele>1208</ele>
        <time>2021-09-07T09:09:29Z</time>
      </trkpt>
      <trkpt lat="45.13979" lon="4.52643">
        <ele>1208.1999511719</ele>
        <time>2021-09-07T09:09:31Z</time>
      </trkpt>
      <trkpt lat="45.13958" lon="4.52683">
        <ele>1207.8000488281</ele>
        <time>2021-09-07T09:09:41Z</time>
      </trkpt>
      <trkpt lat="45.13948" lon="4.52702">
        <ele>1207.8000488281</ele>
        <time>2021-09-07T09:09:46Z</time>
      </trkpt>
      <trkpt lat="45.13942" lon="4.52716">
        <ele>1208.1999511719</ele>
        <time>2021-09-07T09:09:50Z</time>
      </trkpt>
      <trkpt lat="45.13935" lon="4.52731">
        <ele>1208.4000244141</ele>
        <time>2021-09-07T09:09:52Z</time>
      </trkpt>
      <trkpt lat="45.13931" lon="4.52753">
        <ele>1208.8000488281</ele>
        <time>2021-09-07T09:09:57Z</time>
      </trkpt>
      <trkpt lat="45.13922" lon="4.52782">
        <ele>1209.8000488281</ele>
        <time>2021-09-07T09:10:04Z</time>
      </trkpt>
      <trkpt lat="45.13912" lon="4.52799">
        <ele>1209.5999755859</ele>
        <time>2021-09-07T09:10:09Z</time>
      </trkpt>
      <trkpt lat="45.1388" lon="4.52806">
        <ele>1208.1999511719</ele>
        <time>2021-09-07T09:10:20Z</time>
      </trkpt>
      <trkpt lat="45.1387" lon="4.52801">
        <ele>1205.1999511719</ele>
        <time>2021-09-07T09:10:25Z</time>
      </trkpt>
      <trkpt lat="45.13866" lon="4.52798">
        <ele>1204.8000488281</ele>
        <time>2021-09-07T09:10:26Z</time>
      </trkpt>
      <trkpt lat="45.1385" lon="4.52795">
        <ele>1201.5999755859</ele>
        <time>2021-09-07T09:10:31Z</time>
      </trkpt>
      <trkpt lat="45.13834" lon="4.5279">
        <ele>1198.1999511719</ele>
        <time>2021-09-07T09:10:36Z</time>
      </trkpt>
      <trkpt lat="45.1382" lon="4.5278">
        <ele>1195.1999511719</ele>
        <time>2021-09-07T09:10:40Z</time>
      </trkpt>
      <trkpt lat="45.13787" lon="4.5279">
        <ele>1192.5999755859</ele>
        <time>2021-09-07T09:10:46Z</time>
      </trkpt>
      <trkpt lat="45.13773" lon="4.52793">
        <ele>1191.8000488281</ele>
        <time>2021-09-07T09:10:48Z</time>
      </trkpt>
      <trkpt lat="45.13766" lon="4.52794">
        <ele>1191.1999511719</ele>
        <time>2021-09-07T09:10:49Z</time>
      </trkpt>
      <trkpt lat="45.13755" lon="4.52804">
        <ele>1189</ele>
        <time>2021-09-07T09:10:53Z</time>
      </trkpt>
      <trkpt lat="45.1374" lon="4.528">
        <ele>1188.4000244141</ele>
        <time>2021-09-07T09:10:57Z</time>
      </trkpt>
      <trkpt lat="45.13732" lon="4.52794">
        <ele>1188.4000244141</ele>
        <time>2021-09-07T09:10:59Z</time>
      </trkpt>
      <trkpt lat="45.13726" lon="4.5279">
        <ele>1188.5999755859</ele>
        <time>2021-09-07T09:11:02Z</time>
      </trkpt>
      <trkpt lat="45.13693" lon="4.52773">
        <ele>1189</ele>
        <time>2021-09-07T09:11:09Z</time>
      </trkpt>
      <trkpt lat="45.13681" lon="4.5276">
        <ele>1188.5999755859</ele>
        <time>2021-09-07T09:11:13Z</time>
      </trkpt>
      <trkpt lat="45.13674" lon="4.52747">
        <ele>1187.1999511719</ele>
        <time>2021-09-07T09:11:16Z</time>
      </trkpt>
      <trkpt lat="45.13665" lon="4.52722">
        <ele>1185.5999755859</ele>
        <time>2021-09-07T09:11:20Z</time>
      </trkpt>
      <trkpt lat="45.13637" lon="4.52698">
        <ele>1182.5999755859</ele>
        <time>2021-09-07T09:11:26Z</time>
      </trkpt>
      <trkpt lat="45.1363" lon="4.5269">
        <ele>1179.5999755859</ele>
        <time>2021-09-07T09:11:29Z</time>
      </trkpt>
      <trkpt lat="45.1362" lon="4.52681">
        <ele>1176.4000244141</ele>
        <time>2021-09-07T09:11:33Z</time>
      </trkpt>
      <trkpt lat="45.13604" lon="4.52674">
        <ele>1173.1999511719</ele>
        <time>2021-09-07T09:11:39Z</time>
      </trkpt>
      <trkpt lat="45.13586" lon="4.52656">
        <ele>1169.8000488281</ele>
        <time>2021-09-07T09:11:46Z</time>
      </trkpt>
      <trkpt lat="45.13565" lon="4.52646">
        <ele>1166.4000244141</ele>
        <time>2021-09-07T09:11:52Z</time>
      </trkpt>
      <trkpt lat="45.13539" lon="4.52637">
        <ele>1163.4000244141</ele>
        <time>2021-09-07T09:11:57Z</time>
      </trkpt>
      <trkpt lat="45.13512" lon="4.52639">
        <ele>1159.4000244141</ele>
        <time>2021-09-07T09:12:04Z</time>
      </trkpt>
      <trkpt lat="45.13508" lon="4.52641">
        <ele>1159.4000244141</ele>
        <time>2021-09-07T09:12:05Z</time>
      </trkpt>
      <trkpt lat="45.1345" lon="4.52649">
        <ele>1159.5999755859</ele>
        <time>2021-09-07T09:12:22Z</time>
      </trkpt>
      <trkpt lat="45.13404" lon="4.52646">
        <ele>1162.4000244141</ele>
        <time>2021-09-07T09:12:39Z</time>
      </trkpt>
      <trkpt lat="45.13359" lon="4.52617">
        <ele>1163</ele>
        <time>2021-09-07T09:12:54Z</time>
      </trkpt>
      <trkpt lat="45.13328" lon="4.52568">
        <ele>1162.5999755859</ele>
        <time>2021-09-07T09:13:07Z</time>
      </trkpt>
      <trkpt lat="45.13323" lon="4.52565">
        <ele>1162.4000244141</ele>
        <time>2021-09-07T09:13:09Z</time>
      </trkpt>
      <trkpt lat="45.13306" lon="4.52575">
        <ele>1162</ele>
        <time>2021-09-07T09:13:13Z</time>
      </trkpt>
      <trkpt lat="45.13301" lon="4.52582">
        <ele>1162</ele>
        <time>2021-09-07T09:13:14Z</time>
      </trkpt>
      <trkpt lat="45.13291" lon="4.52607">
        <ele>1161.8000488281</ele>
        <time>2021-09-07T09:13:17Z</time>
      </trkpt>
      <trkpt lat="45.13274" lon="4.52632">
        <ele>1161</ele>
        <time>2021-09-07T09:13:21Z</time>
      </trkpt>
      <trkpt lat="45.13267" lon="4.52642">
        <ele>1159.8000488281</ele>
        <time>2021-09-07T09:13:24Z</time>
      </trkpt>
      <trkpt lat="45.13262" lon="4.52653">
        <ele>1159.5999755859</ele>
        <time>2021-09-07T09:13:33Z</time>
      </trkpt>
      <trkpt lat="45.13256" lon="4.52652">
        <ele>1159.8000488281</ele>
        <time>2021-09-07T09:13:35Z</time>
      </trkpt>
      <trkpt lat="45.13217" lon="4.52664">
        <ele>1160.1999511719</ele>
        <time>2021-09-07T09:13:48Z</time>
      </trkpt>
      <trkpt lat="45.13173" lon="4.5272">
        <ele>1159.8000488281</ele>
        <time>2021-09-07T09:14:00Z</time>
      </trkpt>
      <trkpt lat="45.13163" lon="4.52745">
        <ele>1159</ele>
        <time>2021-09-07T09:14:04Z</time>
      </trkpt>
      <trkpt lat="45.13159" lon="4.52757">
        <ele>1158</ele>
        <time>2021-09-07T09:14:06Z</time>
      </trkpt>
      <trkpt lat="45.13158" lon="4.52764">
        <ele>1157.8000488281</ele>
        <time>2021-09-07T09:14:07Z</time>
      </trkpt>
      <trkpt lat="45.13149" lon="4.52801">
        <ele>1155.8000488281</ele>
        <time>2021-09-07T09:14:12Z</time>
      </trkpt>
      <trkpt lat="45.1315" lon="4.52805">
        <ele>1154.5999755859</ele>
        <time>2021-09-07T09:14:15Z</time>
      </trkpt>
      <trkpt lat="45.1314" lon="4.5283">
        <ele>1153.5999755859</ele>
        <time>2021-09-07T09:14:22Z</time>
      </trkpt>
      <trkpt lat="45.13136" lon="4.52843">
        <ele>1153.5999755859</ele>
        <time>2021-09-07T09:14:24Z</time>
      </trkpt>
      <trkpt lat="45.13122" lon="4.52878">
        <ele>1152</ele>
        <time>2021-09-07T09:14:33Z</time>
      </trkpt>
      <trkpt lat="45.13116" lon="4.52905">
        <ele>1154.1999511719</ele>
        <time>2021-09-07T09:14:46Z</time>
      </trkpt>
      <trkpt lat="45.13116" lon="4.52908">
        <ele>1155</ele>
        <time>2021-09-07T09:14:50Z</time>
      </trkpt>
      <trkpt lat="45.13116" lon="4.5291">
        <ele>1155.8000488281</ele>
        <time>2021-09-07T09:14:53Z</time>
      </trkpt>
      <trkpt lat="45.13111" lon="4.5292">
        <ele>1156.4000244141</ele>
        <time>2021-09-07T09:14:57Z</time>
      </trkpt>
      <trkpt lat="45.13111" lon="4.52922">
        <ele>1156.8000488281</ele>
        <time>2021-09-07T09:15:00Z</time>
      </trkpt>
      <trkpt lat="45.1311" lon="4.52939">
        <ele>1158</ele>
        <time>2021-09-07T09:15:06Z</time>
      </trkpt>
      <trkpt lat="45.13109" lon="4.52945">
        <ele>1158.4000244141</ele>
        <time>2021-09-07T09:15:08Z</time>
      </trkpt>
      <trkpt lat="45.13105" lon="4.52953">
        <ele>1160.5999755859</ele>
        <time>2021-09-07T09:15:20Z</time>
      </trkpt>
      <trkpt lat="45.13104" lon="4.52958">
        <ele>1162.5999755859</ele>
        <time>2021-09-07T09:15:49Z</time>
      </trkpt>
      <trkpt lat="45.13104" lon="4.52965">
        <ele>1165.5999755859</ele>
        <time>2021-09-07T09:16:18Z</time>
      </trkpt>
      <trkpt lat="45.13104" lon="4.52965">
        <ele>1165.8000488281</ele>
        <time>2021-09-07T09:16:19Z</time>
      </trkpt>
      <trkpt lat="45.13099" lon="4.52984">
        <ele>1167.1999511719</ele>
        <time>2021-09-07T09:16:31Z</time>
      </trkpt>
      <trkpt lat="45.13098" lon="4.52991">
        <ele>1167.8000488281</ele>
        <time>2021-09-07T09:16:42Z</time>
      </trkpt>
      <trkpt lat="45.13093" lon="4.53022">
        <ele>1169</ele>
        <time>2021-09-07T09:16:57Z</time>
      </trkpt>
      <trkpt lat="45.1309" lon="4.53042">
        <ele>1169.8000488281</ele>
        <time>2021-09-07T09:17:04Z</time>
      </trkpt>
      <trkpt lat="45.13084" lon="4.53078">
        <ele>1170.1999511719</ele>
        <time>2021-09-07T09:17:14Z</time>
      </trkpt>
      <trkpt lat="45.13082" lon="4.53096">
        <ele>1170.8000488281</ele>
        <time>2021-09-07T09:17:19Z</time>
      </trkpt>
      <trkpt lat="45.13079" lon="4.53124">
        <ele>1171</ele>
        <time>2021-09-07T09:17:27Z</time>
      </trkpt>
      <trkpt lat="45.13076" lon="4.5314">
        <ele>1171</ele>
        <time>2021-09-07T09:17:31Z</time>
      </trkpt>
      <trkpt lat="45.13075" lon="4.53145">
        <ele>1171</ele>
        <time>2021-09-07T09:17:32Z</time>
      </trkpt>
      <trkpt lat="45.13078" lon="4.5319">
        <ele>1170.5999755859</ele>
        <time>2021-09-07T09:17:40Z</time>
      </trkpt>
      <trkpt lat="45.13079" lon="4.53221">
        <ele>1168.8000488281</ele>
        <time>2021-09-07T09:17:46Z</time>
      </trkpt>
      <trkpt lat="45.13081" lon="4.53256">
        <ele>1167</ele>
        <time>2021-09-07T09:17:53Z</time>
      </trkpt>
      <trkpt lat="45.13081" lon="4.5328">
        <ele>1165.5999755859</ele>
        <time>2021-09-07T09:17:59Z</time>
      </trkpt>
      <trkpt lat="45.13082" lon="4.53325">
        <ele>1162</ele>
        <time>2021-09-07T09:18:12Z</time>
      </trkpt>
      <trkpt lat="45.13084" lon="4.53348">
        <ele>1161</ele>
        <time>2021-09-07T09:18:16Z</time>
      </trkpt>
      <trkpt lat="45.13072" lon="4.53397">
        <ele>1157.5999755859</ele>
        <time>2021-09-07T09:18:24Z</time>
      </trkpt>
      <trkpt lat="45.13069" lon="4.53402">
        <ele>1157.4000244141</ele>
        <time>2021-09-07T09:18:25Z</time>
      </trkpt>
      <trkpt lat="45.13065" lon="4.53407">
        <ele>1157</ele>
        <time>2021-09-07T09:18:26Z</time>
      </trkpt>
      <trkpt lat="45.1306" lon="4.53411">
        <ele>1157</ele>
        <time>2021-09-07T09:18:27Z</time>
      </trkpt>
      <trkpt lat="45.13027" lon="4.53453">
        <ele>1154.4000244141</ele>
        <time>2021-09-07T09:18:34Z</time>
      </trkpt>
      <trkpt lat="45.13018" lon="4.53462">
        <ele>1152.5999755859</ele>
        <time>2021-09-07T09:18:37Z</time>
      </trkpt>
      <trkpt lat="45.13016" lon="4.53464">
        <ele>1151.8000488281</ele>
        <time>2021-09-07T09:18:39Z</time>
      </trkpt>
      <trkpt lat="45.13015" lon="4.53465">
        <ele>1148.1999511719</ele>
        <time>2021-09-07T09:18:46Z</time>
      </trkpt>
      <trkpt lat="45.13014" lon="4.53466">
        <ele>1147.5999755859</ele>
        <time>2021-09-07T09:18:56Z</time>
      </trkpt>
      <trkpt lat="45.13009" lon="4.53482">
        <ele>1147.1999511719</ele>
        <time>2021-09-07T09:19:05Z</time>
      </trkpt>
      <trkpt lat="45.13015" lon="4.53494">
        <ele>1147.1999511719</ele>
        <time>2021-09-07T09:19:14Z</time>
      </trkpt>
      <trkpt lat="45.13019" lon="4.53494">
        <ele>1147.1999511719</ele>
        <time>2021-09-07T09:19:18Z</time>
      </trkpt>
      <trkpt lat="45.13024" lon="4.53497">
        <ele>1147.1999511719</ele>
        <time>2021-09-07T09:19:22Z</time>
      </trkpt>
      <trkpt lat="45.13032" lon="4.53503">
        <ele>1147.1999511719</ele>
        <time>2021-09-07T09:19:27Z</time>
      </trkpt>
      <trkpt lat="45.13042" lon="4.53504">
        <ele>1147.4000244141</ele>
        <time>2021-09-07T09:19:33Z</time>
      </trkpt>
      <trkpt lat="45.13044" lon="4.53506">
        <ele>1147.4000244141</ele>
        <time>2021-09-07T09:19:35Z</time>
      </trkpt>
      <trkpt lat="45.13049" lon="4.53514">
        <ele>1147.4000244141</ele>
        <time>2021-09-07T09:19:41Z</time>
      </trkpt>
      <trkpt lat="45.13052" lon="4.53521">
        <ele>1147.4000244141</ele>
        <time>2021-09-07T09:19:47Z</time>
      </trkpt>
      <trkpt lat="45.1305" lon="4.53539">
        <ele>1147</ele>
        <time>2021-09-07T09:20:06Z</time>
      </trkpt>
      <trkpt lat="45.13053" lon="4.5354">
        <ele>1146.8000488281</ele>
        <time>2021-09-07T09:20:12Z</time>
      </trkpt>
      <trkpt lat="45.13068" lon="4.5355">
        <ele>1146.4000244141</ele>
        <time>2021-09-07T09:20:20Z</time>
      </trkpt>
      <trkpt lat="45.13067" lon="4.5355">
        <ele>1146.1999511719</ele>
        <time>2021-09-07T09:20:30Z</time>
      </trkpt>
      <trkpt lat="45.13043" lon="4.53544">
        <ele>1146.5999755859</ele>
        <time>2021-09-07T09:20:44Z</time>
      </trkpt>
      <trkpt lat="45.13016" lon="4.53537">
        <ele>1146.1999511719</ele>
        <time>2021-09-07T09:20:57Z</time>
      </trkpt>
      <trkpt lat="45.13005" lon="4.53542">
        <ele>1145.5999755859</ele>
        <time>2021-09-07T09:21:03Z</time>
      </trkpt>
      <trkpt lat="45.1298" lon="4.53534">
        <ele>1144.4000244141</ele>
        <time>2021-09-07T09:21:11Z</time>
      </trkpt>
      <trkpt lat="45.1296" lon="4.53537">
        <ele>1142.8000488281</ele>
        <time>2021-09-07T09:21:18Z</time>
      </trkpt>
      <trkpt lat="45.12953" lon="4.53537">
        <ele>1142.4000244141</ele>
        <time>2021-09-07T09:21:20Z</time>
      </trkpt>
      <trkpt lat="45.12934" lon="4.53541">
        <ele>1141.5999755859</ele>
        <time>2021-09-07T09:21:25Z</time>
      </trkpt>
      <trkpt lat="45.12924" lon="4.53539">
        <ele>1141.1999511719</ele>
        <time>2021-09-07T09:21:27Z</time>
      </trkpt>
      <trkpt lat="45.12904" lon="4.53541">
        <ele>1139.5999755859</ele>
        <time>2021-09-07T09:21:32Z</time>
      </trkpt>
      <trkpt lat="45.12897" lon="4.53542">
        <ele>1138.5999755859</ele>
        <time>2021-09-07T09:21:35Z</time>
      </trkpt>
      <trkpt lat="45.12888" lon="4.53548">
        <ele>1137.4000244141</ele>
        <time>2021-09-07T09:21:43Z</time>
      </trkpt>
      <trkpt lat="45.12887" lon="4.53546">
        <ele>1137.1999511719</ele>
        <time>2021-09-07T09:21:46Z</time>
      </trkpt>
      <trkpt lat="45.12886" lon="4.53542">
        <ele>1136.8000488281</ele>
        <time>2021-09-07T09:21:49Z</time>
      </trkpt>
      <trkpt lat="45.12864" lon="4.53549">
        <ele>1135.4000244141</ele>
        <time>2021-09-07T09:21:57Z</time>
      </trkpt>
      <trkpt lat="45.12843" lon="4.53557">
        <ele>1132.4000244141</ele>
        <time>2021-09-07T09:22:03Z</time>
      </trkpt>
      <trkpt lat="45.12827" lon="4.53568">
        <ele>1131.1999511719</ele>
        <time>2021-09-07T09:22:07Z</time>
      </trkpt>
      <trkpt lat="45.12816" lon="4.53573">
        <ele>1128.4000244141</ele>
        <time>2021-09-07T09:22:13Z</time>
      </trkpt>
      <trkpt lat="45.12816" lon="4.53574">
        <ele>1125.5999755859</ele>
        <time>2021-09-07T09:22:19Z</time>
      </trkpt>
      <trkpt lat="45.12817" lon="4.53575">
        <ele>1125.4000244141</ele>
        <time>2021-09-07T09:22:21Z</time>
      </trkpt>
      <trkpt lat="45.12819" lon="4.5358">
        <ele>1126.5999755859</ele>
        <time>2021-09-07T09:22:39Z</time>
      </trkpt>
      <trkpt lat="45.12818" lon="4.5358">
        <ele>1126.8000488281</ele>
        <time>2021-09-07T09:22:44Z</time>
      </trkpt>
      <trkpt lat="45.12816" lon="4.53583">
        <ele>1126.5999755859</ele>
        <time>2021-09-07T09:22:51Z</time>
      </trkpt>
      <trkpt lat="45.12791" lon="4.53601">
        <ele>1125.4000244141</ele>
        <time>2021-09-07T09:23:01Z</time>
      </trkpt>
      <trkpt lat="45.12785" lon="4.53604">
        <ele>1124.8000488281</ele>
        <time>2021-09-07T09:23:02Z</time>
      </trkpt>
      <trkpt lat="45.12773" lon="4.53609">
        <ele>1123.1999511719</ele>
        <time>2021-09-07T09:23:05Z</time>
      </trkpt>
      <trkpt lat="45.12769" lon="4.53612">
        <ele>1123</ele>
        <time>2021-09-07T09:23:06Z</time>
      </trkpt>
      <trkpt lat="45.12755" lon="4.53617">
        <ele>1122</ele>
        <time>2021-09-07T09:23:09Z</time>
      </trkpt>
      <trkpt lat="45.12743" lon="4.53621">
        <ele>1121</ele>
        <time>2021-09-07T09:23:13Z</time>
      </trkpt>
      <trkpt lat="45.12739" lon="4.53624">
        <ele>1120</ele>
        <time>2021-09-07T09:23:15Z</time>
      </trkpt>
      <trkpt lat="45.12728" lon="4.53638">
        <ele>1118.8000488281</ele>
        <time>2021-09-07T09:23:20Z</time>
      </trkpt>
      <trkpt lat="45.12724" lon="4.5364">
        <ele>1117.8000488281</ele>
        <time>2021-09-07T09:23:26Z</time>
      </trkpt>
      <trkpt lat="45.12715" lon="4.5364">
        <ele>1116.5999755859</ele>
        <time>2021-09-07T09:23:31Z</time>
      </trkpt>
      <trkpt lat="45.12712" lon="4.53641">
        <ele>1115.4000244141</ele>
        <time>2021-09-07T09:23:33Z</time>
      </trkpt>
      <trkpt lat="45.127" lon="4.53633">
        <ele>1113</ele>
        <time>2021-09-07T09:23:38Z</time>
      </trkpt>
      <trkpt lat="45.12673" lon="4.53617">
        <ele>1110</ele>
        <time>2021-09-07T09:23:48Z</time>
      </trkpt>
      <trkpt lat="45.12656" lon="4.53618">
        <ele>1108.4000244141</ele>
        <time>2021-09-07T09:23:52Z</time>
      </trkpt>
      <trkpt lat="45.12621" lon="4.53615">
        <ele>1105</ele>
        <time>2021-09-07T09:23:58Z</time>
      </trkpt>
      <trkpt lat="45.12615" lon="4.53615">
        <ele>1104.8000488281</ele>
        <time>2021-09-07T09:23:59Z</time>
      </trkpt>
      <trkpt lat="45.12596" lon="4.53615">
        <ele>1101.5999755859</ele>
        <time>2021-09-07T09:24:03Z</time>
      </trkpt>
      <trkpt lat="45.12562" lon="4.53612">
        <ele>1098.5999755859</ele>
        <time>2021-09-07T09:24:10Z</time>
      </trkpt>
      <trkpt lat="45.1254" lon="4.53608">
        <ele>1097.1999511719</ele>
        <time>2021-09-07T09:24:14Z</time>
      </trkpt>
      <trkpt lat="45.1253" lon="4.53605">
        <ele>1097</ele>
        <time>2021-09-07T09:24:16Z</time>
      </trkpt>
      <trkpt lat="45.12498" lon="4.53595">
        <ele>1095.5999755859</ele>
        <time>2021-09-07T09:24:20Z</time>
      </trkpt>
      <trkpt lat="45.12471" lon="4.53592">
        <ele>1092.5999755859</ele>
        <time>2021-09-07T09:24:23Z</time>
      </trkpt>
      <trkpt lat="45.12447" lon="4.53591">
        <ele>1088.4000244141</ele>
        <time>2021-09-07T09:24:26Z</time>
      </trkpt>
      <trkpt lat="45.12424" lon="4.53583">
        <ele>1085.1999511719</ele>
        <time>2021-09-07T09:24:29Z</time>
      </trkpt>
      <trkpt lat="45.12401" lon="4.53577">
        <ele>1081.1999511719</ele>
        <time>2021-09-07T09:24:32Z</time>
      </trkpt>
      <trkpt lat="45.12385" lon="4.53574">
        <ele>1080.4000244141</ele>
        <time>2021-09-07T09:24:34Z</time>
      </trkpt>
      <trkpt lat="45.12339" lon="4.5357">
        <ele>1077.1999511719</ele>
        <time>2021-09-07T09:24:40Z</time>
      </trkpt>
      <trkpt lat="45.12333" lon="4.5357">
        <ele>1077.1999511719</ele>
        <time>2021-09-07T09:24:41Z</time>
      </trkpt>
      <trkpt lat="45.12293" lon="4.53556">
        <ele>1077.4000244141</ele>
        <time>2021-09-07T09:24:51Z</time>
      </trkpt>
      <trkpt lat="45.12269" lon="4.5355">
        <ele>1078.4000244141</ele>
        <time>2021-09-07T09:24:58Z</time>
      </trkpt>
      <trkpt lat="45.12205" lon="4.53551">
        <ele>1078.4000244141</ele>
        <time>2021-09-07T09:25:11Z</time>
      </trkpt>
      <trkpt lat="45.12148" lon="4.53547">
        <ele>1076.8000488281</ele>
        <time>2021-09-07T09:25:27Z</time>
      </trkpt>
      <trkpt lat="45.12112" lon="4.5355">
        <ele>1074</ele>
        <time>2021-09-07T09:25:38Z</time>
      </trkpt>
      <trkpt lat="45.12108" lon="4.53551">
        <ele>1073.8000488281</ele>
        <time>2021-09-07T09:25:39Z</time>
      </trkpt>
      <trkpt lat="45.12098" lon="4.53553">
        <ele>1072.5999755859</ele>
        <time>2021-09-07T09:25:41Z</time>
      </trkpt>
      <trkpt lat="45.12072" lon="4.53552">
        <ele>1069.5999755859</ele>
        <time>2021-09-07T09:25:47Z</time>
      </trkpt>
      <trkpt lat="45.12038" lon="4.53558">
        <ele>1065.8000488281</ele>
        <time>2021-09-07T09:25:55Z</time>
      </trkpt>
      <trkpt lat="45.1202" lon="4.53569">
        <ele>1064</ele>
        <time>2021-09-07T09:25:59Z</time>
      </trkpt>
      <trkpt lat="45.12015" lon="4.53572">
        <ele>1063.4000244141</ele>
        <time>2021-09-07T09:26:00Z</time>
      </trkpt>
      <trkpt lat="45.12012" lon="4.53574">
        <ele>1063.1999511719</ele>
        <time>2021-09-07T09:26:01Z</time>
      </trkpt>
      <trkpt lat="45.11997" lon="4.5358">
        <ele>1061</ele>
        <time>2021-09-07T09:26:05Z</time>
      </trkpt>
      <trkpt lat="45.11976" lon="4.53585">
        <ele>1059.8000488281</ele>
        <time>2021-09-07T09:26:10Z</time>
      </trkpt>
      <trkpt lat="45.11972" lon="4.53586">
        <ele>1059</ele>
        <time>2021-09-07T09:26:12Z</time>
      </trkpt>
      <trkpt lat="45.11972" lon="4.53583">
        <ele>1058.4000244141</ele>
        <time>2021-09-07T09:26:15Z</time>
      </trkpt>
      <trkpt lat="45.11966" lon="4.53544">
        <ele>1057</ele>
        <time>2021-09-07T09:26:22Z</time>
      </trkpt>
      <trkpt lat="45.11965" lon="4.53538">
        <ele>1056.8000488281</ele>
        <time>2021-09-07T09:26:23Z</time>
      </trkpt>
      <trkpt lat="45.11963" lon="4.53526">
        <ele>1055</ele>
        <time>2021-09-07T09:26:27Z</time>
      </trkpt>
      <trkpt lat="45.11962" lon="4.53524">
        <ele>1054.5999755859</ele>
        <time>2021-09-07T09:26:28Z</time>
      </trkpt>
      <trkpt lat="45.11961" lon="4.53523">
        <ele>1053.8000488281</ele>
        <time>2021-09-07T09:26:30Z</time>
      </trkpt>
      <trkpt lat="45.11934" lon="4.53532">
        <ele>1053</ele>
        <time>2021-09-07T09:26:40Z</time>
      </trkpt>
      <trkpt lat="45.11924" lon="4.53546">
        <ele>1053.1999511719</ele>
        <time>2021-09-07T09:26:45Z</time>
      </trkpt>
      <trkpt lat="45.11917" lon="4.53571">
        <ele>1053.1999511719</ele>
        <time>2021-09-07T09:26:52Z</time>
      </trkpt>
      <trkpt lat="45.11913" lon="4.53577">
        <ele>1053.1999511719</ele>
        <time>2021-09-07T09:26:54Z</time>
      </trkpt>
      <trkpt lat="45.1187" lon="4.53586">
        <ele>1054.1999511719</ele>
        <time>2021-09-07T09:27:06Z</time>
      </trkpt>
      <trkpt lat="45.11861" lon="4.53594">
        <ele>1054.4000244141</ele>
        <time>2021-09-07T09:27:10Z</time>
      </trkpt>
      <trkpt lat="45.11841" lon="4.53605">
        <ele>1055.4000244141</ele>
        <time>2021-09-07T09:27:18Z</time>
      </trkpt>
      <trkpt lat="45.11842" lon="4.53611">
        <ele>1055.4000244141</ele>
        <time>2021-09-07T09:27:20Z</time>
      </trkpt>
      <trkpt lat="45.11846" lon="4.53625">
        <ele>1055</ele>
        <time>2021-09-07T09:27:36Z</time>
      </trkpt>
      <trkpt lat="45.11843" lon="4.53622">
        <ele>1055.1999511719</ele>
        <time>2021-09-07T09:28:44Z</time>
      </trkpt>
      <trkpt lat="45.11839" lon="4.53593">
        <ele>1055.1999511719</ele>
        <time>2021-09-07T09:28:54Z</time>
      </trkpt>
      <trkpt lat="45.11838" lon="4.53591">
        <ele>1055.1999511719</ele>
        <time>2021-09-07T09:28:55Z</time>
      </trkpt>
      <trkpt lat="45.11832" lon="4.53584">
        <ele>1055.4000244141</ele>
        <time>2021-09-07T09:29:01Z</time>
      </trkpt>
      <trkpt lat="45.11823" lon="4.53538">
        <ele>1057.1999511719</ele>
        <time>2021-09-07T09:29:18Z</time>
      </trkpt>
      <trkpt lat="45.11811" lon="4.53517">
        <ele>1059.1999511719</ele>
        <time>2021-09-07T09:29:28Z</time>
      </trkpt>
      <trkpt lat="45.11794" lon="4.53507">
        <ele>1062.4000244141</ele>
        <time>2021-09-07T09:29:39Z</time>
      </trkpt>
      <trkpt lat="45.11776" lon="4.53494">
        <ele>1065</ele>
        <time>2021-09-07T09:29:54Z</time>
      </trkpt>
      <trkpt lat="45.1176" lon="4.53492">
        <ele>1067.4000244141</ele>
        <time>2021-09-07T09:30:07Z</time>
      </trkpt>
      <trkpt lat="45.11757" lon="4.53496">
        <ele>1068</ele>
        <time>2021-09-07T09:30:11Z</time>
      </trkpt>
      <trkpt lat="45.11744" lon="4.53518">
        <ele>1070.4000244141</ele>
        <time>2021-09-07T09:30:24Z</time>
      </trkpt>
      <trkpt lat="45.1174" lon="4.53524">
        <ele>1071</ele>
        <time>2021-09-07T09:30:28Z</time>
      </trkpt>
      <trkpt lat="45.11735" lon="4.53528">
        <ele>1071.8000488281</ele>
        <time>2021-09-07T09:30:33Z</time>
      </trkpt>
      <trkpt lat="45.11718" lon="4.53523">
        <ele>1074</ele>
        <time>2021-09-07T09:30:46Z</time>
      </trkpt>
      <trkpt lat="45.11696" lon="4.5351">
        <ele>1076</ele>
        <time>2021-09-07T09:31:03Z</time>
      </trkpt>
      <trkpt lat="45.11673" lon="4.535">
        <ele>1078.8000488281</ele>
        <time>2021-09-07T09:31:21Z</time>
      </trkpt>
      <trkpt lat="45.11655" lon="4.53492">
        <ele>1081.5999755859</ele>
        <time>2021-09-07T09:31:36Z</time>
      </trkpt>
      <trkpt lat="45.11653" lon="4.53492">
        <ele>1083.1999511719</ele>
        <time>2021-09-07T09:32:00Z</time>
      </trkpt>
      <trkpt lat="45.11653" lon="4.53491">
        <ele>1083.4000244141</ele>
        <time>2021-09-07T09:35:57Z</time>
      </trkpt>
      <trkpt lat="45.11648" lon="4.53488">
        <ele>1083.8000488281</ele>
        <time>2021-09-07T09:36:06Z</time>
      </trkpt>
      <trkpt lat="45.11637" lon="4.53481">
        <ele>1084.4000244141</ele>
        <time>2021-09-07T09:36:12Z</time>
      </trkpt>
      <trkpt lat="45.11615" lon="4.53472">
        <ele>1087.5999755859</ele>
        <time>2021-09-07T09:36:27Z</time>
      </trkpt>
      <trkpt lat="45.11597" lon="4.5346">
        <ele>1090.5999755859</ele>
        <time>2021-09-07T09:36:41Z</time>
      </trkpt>
      <trkpt lat="45.11595" lon="4.5346">
        <ele>1091.4000244141</ele>
        <time>2021-09-07T09:36:43Z</time>
      </trkpt>
      <trkpt lat="45.11584" lon="4.53451">
        <ele>1094.1999511719</ele>
        <time>2021-09-07T09:36:54Z</time>
      </trkpt>
      <trkpt lat="45.11571" lon="4.53445">
        <ele>1096.4000244141</ele>
        <time>2021-09-07T09:37:06Z</time>
      </trkpt>
      <trkpt lat="45.11559" lon="4.53435">
        <ele>1098.4000244141</ele>
        <time>2021-09-07T09:37:17Z</time>
      </trkpt>
      <trkpt lat="45.11547" lon="4.53425">
        <ele>1099.8000488281</ele>
        <time>2021-09-07T09:37:29Z</time>
      </trkpt>
      <trkpt lat="45.11546" lon="4.53425">
        <ele>1100</ele>
        <time>2021-09-07T09:37:30Z</time>
      </trkpt>
      <trkpt lat="45.11543" lon="4.53421">
        <ele>1100.5999755859</ele>
        <time>2021-09-07T09:37:34Z</time>
      </trkpt>
      <trkpt lat="45.11528" lon="4.5341">
        <ele>1102.5999755859</ele>
        <time>2021-09-07T09:37:48Z</time>
      </trkpt>
      <trkpt lat="45.11511" lon="4.53399">
        <ele>1104.8000488281</ele>
        <time>2021-09-07T09:38:02Z</time>
      </trkpt>
      <trkpt lat="45.11498" lon="4.5339">
        <ele>1107.1999511719</ele>
        <time>2021-09-07T09:38:16Z</time>
      </trkpt>
      <trkpt lat="45.11478" lon="4.53383">
        <ele>1109.5999755859</ele>
        <time>2021-09-07T09:38:33Z</time>
      </trkpt>
      <trkpt lat="45.11476" lon="4.53383">
        <ele>1110</ele>
        <time>2021-09-07T09:38:35Z</time>
      </trkpt>
      <trkpt lat="45.11472" lon="4.53396">
        <ele>1111.8000488281</ele>
        <time>2021-09-07T09:38:45Z</time>
      </trkpt>
      <trkpt lat="45.11473" lon="4.53396">
        <ele>1112</ele>
        <time>2021-09-07T09:38:46Z</time>
      </trkpt>
      <trkpt lat="45.11476" lon="4.53407">
        <ele>1113.1999511719</ele>
        <time>2021-09-07T09:38:54Z</time>
      </trkpt>
      <trkpt lat="45.11481" lon="4.53433">
        <ele>1114.8000488281</ele>
        <time>2021-09-07T09:39:08Z</time>
      </trkpt>
      <trkpt lat="45.11481" lon="4.53435">
        <ele>1115</ele>
        <time>2021-09-07T09:39:09Z</time>
      </trkpt>
      <trkpt lat="45.11483" lon="4.53446">
        <ele>1115.5999755859</ele>
        <time>2021-09-07T09:39:15Z</time>
      </trkpt>
      <trkpt lat="45.11483" lon="4.53452">
        <ele>1116</ele>
        <time>2021-09-07T09:39:18Z</time>
      </trkpt>
      <trkpt lat="45.11485" lon="4.53465">
        <ele>1116.4000244141</ele>
        <time>2021-09-07T09:39:25Z</time>
      </trkpt>
      <trkpt lat="45.11487" lon="4.53467">
        <ele>1116.5999755859</ele>
        <time>2021-09-07T09:39:28Z</time>
      </trkpt>
      <trkpt lat="45.11489" lon="4.53485">
        <ele>1118.1999511719</ele>
        <time>2021-09-07T09:39:40Z</time>
      </trkpt>
      <trkpt lat="45.1149" lon="4.53496">
        <ele>1118.5999755859</ele>
        <time>2021-09-07T09:39:47Z</time>
      </trkpt>
      <trkpt lat="45.11492" lon="4.53501">
        <ele>1119.5999755859</ele>
        <time>2021-09-07T09:40:18Z</time>
      </trkpt>
      <trkpt lat="45.11495" lon="4.5353">
        <ele>1120.5999755859</ele>
        <time>2021-09-07T09:40:28Z</time>
      </trkpt>
      <trkpt lat="45.11499" lon="4.5358">
        <ele>1122</ele>
        <time>2021-09-07T09:40:44Z</time>
      </trkpt>
      <trkpt lat="45.11502" lon="4.53598">
        <ele>1122.5999755859</ele>
        <time>2021-09-07T09:40:51Z</time>
      </trkpt>
      <trkpt lat="45.11501" lon="4.53604">
        <ele>1123</ele>
        <time>2021-09-07T09:40:54Z</time>
      </trkpt>
      <trkpt lat="45.11502" lon="4.53629">
        <ele>1125.4000244141</ele>
        <time>2021-09-07T09:41:06Z</time>
      </trkpt>
      <trkpt lat="45.11499" lon="4.53636">
        <ele>1126.4000244141</ele>
        <time>2021-09-07T09:41:10Z</time>
      </trkpt>
      <trkpt lat="45.11499" lon="4.53643">
        <ele>1126.8000488281</ele>
        <time>2021-09-07T09:41:13Z</time>
      </trkpt>
      <trkpt lat="45.11495" lon="4.53654">
        <ele>1127.4000244141</ele>
        <time>2021-09-07T09:41:17Z</time>
      </trkpt>
      <trkpt lat="45.11492" lon="4.53681">
        <ele>1128.8000488281</ele>
        <time>2021-09-07T09:41:25Z</time>
      </trkpt>
      <trkpt lat="45.11486" lon="4.537">
        <ele>1130</ele>
        <time>2021-09-07T09:41:32Z</time>
      </trkpt>
      <trkpt lat="45.11484" lon="4.53701">
        <ele>1130.1999511719</ele>
        <time>2021-09-07T09:41:33Z</time>
      </trkpt>
      <trkpt lat="45.11479" lon="4.53713">
        <ele>1131.1999511719</ele>
        <time>2021-09-07T09:41:39Z</time>
      </trkpt>
      <trkpt lat="45.11472" lon="4.53724">
        <ele>1132.5999755859</ele>
        <time>2021-09-07T09:41:48Z</time>
      </trkpt>
      <trkpt lat="45.11473" lon="4.53733">
        <ele>1133.4000244141</ele>
        <time>2021-09-07T09:41:53Z</time>
      </trkpt>
      <trkpt lat="45.11475" lon="4.53742">
        <ele>1133.8000488281</ele>
        <time>2021-09-07T09:41:57Z</time>
      </trkpt>
      <trkpt lat="45.11478" lon="4.53766">
        <ele>1133.8000488281</ele>
        <time>2021-09-07T09:42:05Z</time>
      </trkpt>
      <trkpt lat="45.11481" lon="4.53858">
        <ele>1133.1999511719</ele>
        <time>2021-09-07T09:42:23Z</time>
      </trkpt>
      <trkpt lat="45.11481" lon="4.53898">
        <ele>1132.5999755859</ele>
        <time>2021-09-07T09:42:28Z</time>
      </trkpt>
      <trkpt lat="45.11485" lon="4.53938">
        <ele>1132</ele>
        <time>2021-09-07T09:42:33Z</time>
      </trkpt>
      <trkpt lat="45.11487" lon="4.53969">
        <ele>1131</ele>
        <time>2021-09-07T09:42:36Z</time>
      </trkpt>
      <trkpt lat="45.11496" lon="4.53997">
        <ele>1129.4000244141</ele>
        <time>2021-09-07T09:42:40Z</time>
      </trkpt>
      <trkpt lat="45.1151" lon="4.54029">
        <ele>1126.4000244141</ele>
        <time>2021-09-07T09:42:45Z</time>
      </trkpt>
      <trkpt lat="45.11518" lon="4.54063">
        <ele>1123</ele>
        <time>2021-09-07T09:42:50Z</time>
      </trkpt>
      <trkpt lat="45.1152" lon="4.54069">
        <ele>1122.5999755859</ele>
        <time>2021-09-07T09:42:51Z</time>
      </trkpt>
      <trkpt lat="45.11524" lon="4.54081">
        <ele>1121.4000244141</ele>
        <time>2021-09-07T09:42:53Z</time>
      </trkpt>
      <trkpt lat="45.11539" lon="4.54095">
        <ele>1118.1999511719</ele>
        <time>2021-09-07T09:42:58Z</time>
      </trkpt>
      <trkpt lat="45.11542" lon="4.54096">
        <ele>1117.1999511719</ele>
        <time>2021-09-07T09:42:59Z</time>
      </trkpt>
      <trkpt lat="45.11554" lon="4.541">
        <ele>1113.8000488281</ele>
        <time>2021-09-07T09:43:03Z</time>
      </trkpt>
      <trkpt lat="45.11562" lon="4.54097">
        <ele>1110</ele>
        <time>2021-09-07T09:43:06Z</time>
      </trkpt>
      <trkpt lat="45.11569" lon="4.54094">
        <ele>1108.1999511719</ele>
        <time>2021-09-07T09:43:09Z</time>
      </trkpt>
      <trkpt lat="45.11571" lon="4.54093">
        <ele>1107.8000488281</ele>
        <time>2021-09-07T09:43:10Z</time>
      </trkpt>
      <trkpt lat="45.11577" lon="4.54093">
        <ele>1105.4000244141</ele>
        <time>2021-09-07T09:43:13Z</time>
      </trkpt>
      <trkpt lat="45.11579" lon="4.54091">
        <ele>1105.1999511719</ele>
        <time>2021-09-07T09:43:14Z</time>
      </trkpt>
      <trkpt lat="45.1158" lon="4.54093">
        <ele>1102.5999755859</ele>
        <time>2021-09-07T09:43:22Z</time>
      </trkpt>
      <trkpt lat="45.11579" lon="4.54092">
        <ele>1102.4000244141</ele>
        <time>2021-09-07T09:43:24Z</time>
      </trkpt>
      <trkpt lat="45.11561" lon="4.54111">
        <ele>1103.4000244141</ele>
        <time>2021-09-07T09:43:35Z</time>
      </trkpt>
      <trkpt lat="45.11523" lon="4.54153">
        <ele>1104.1999511719</ele>
        <time>2021-09-07T09:43:48Z</time>
      </trkpt>
      <trkpt lat="45.11503" lon="4.54177">
        <ele>1103.8000488281</ele>
        <time>2021-09-07T09:43:53Z</time>
      </trkpt>
      <trkpt lat="45.11497" lon="4.54184">
        <ele>1103.8000488281</ele>
        <time>2021-09-07T09:43:55Z</time>
      </trkpt>
      <trkpt lat="45.11488" lon="4.54191">
        <ele>1103.8000488281</ele>
        <time>2021-09-07T09:43:57Z</time>
      </trkpt>
      <trkpt lat="45.11452" lon="4.54203">
        <ele>1103.1999511719</ele>
        <time>2021-09-07T09:44:05Z</time>
      </trkpt>
      <trkpt lat="45.11448" lon="4.54205">
        <ele>1103</ele>
        <time>2021-09-07T09:44:06Z</time>
      </trkpt>
      <trkpt lat="45.11423" lon="4.54211">
        <ele>1102.1999511719</ele>
        <time>2021-09-07T09:44:12Z</time>
      </trkpt>
      <trkpt lat="45.11414" lon="4.54215">
        <ele>1101.5999755859</ele>
        <time>2021-09-07T09:44:14Z</time>
      </trkpt>
      <trkpt lat="45.11386" lon="4.54228">
        <ele>1099</ele>
        <time>2021-09-07T09:44:20Z</time>
      </trkpt>
      <trkpt lat="45.11381" lon="4.54227">
        <ele>1097.1999511719</ele>
        <time>2021-09-07T09:44:22Z</time>
      </trkpt>
      <trkpt lat="45.11372" lon="4.54227">
        <ele>1095.1999511719</ele>
        <time>2021-09-07T09:44:25Z</time>
      </trkpt>
      <trkpt lat="45.11367" lon="4.54228">
        <ele>1094.5999755859</ele>
        <time>2021-09-07T09:44:28Z</time>
      </trkpt>
      <trkpt lat="45.11359" lon="4.54227">
        <ele>1093.4000244141</ele>
        <time>2021-09-07T09:44:37Z</time>
      </trkpt>
      <trkpt lat="45.11359" lon="4.54227">
        <ele>1093.4000244141</ele>
        <time>2021-09-07T09:44:38Z</time>
      </trkpt>
      <trkpt lat="45.11334" lon="4.5423">
        <ele>1093.1999511719</ele>
        <time>2021-09-07T09:44:49Z</time>
      </trkpt>
      <trkpt lat="45.11311" lon="4.54229">
        <ele>1092.1999511719</ele>
        <time>2021-09-07T09:44:55Z</time>
      </trkpt>
      <trkpt lat="45.11309" lon="4.54228">
        <ele>1092</ele>
        <time>2021-09-07T09:44:56Z</time>
      </trkpt>
      <trkpt lat="45.11292" lon="4.54203">
        <ele>1092.1999511719</ele>
        <time>2021-09-07T09:45:03Z</time>
      </trkpt>
      <trkpt lat="45.11262" lon="4.54134">
        <ele>1091.5999755859</ele>
        <time>2021-09-07T09:45:14Z</time>
      </trkpt>
      <trkpt lat="45.11252" lon="4.54113">
        <ele>1089.8000488281</ele>
        <time>2021-09-07T09:45:20Z</time>
      </trkpt>
      <trkpt lat="45.11249" lon="4.54104">
        <ele>1088.8000488281</ele>
        <time>2021-09-07T09:45:22Z</time>
      </trkpt>
      <trkpt lat="45.11242" lon="4.54076">
        <ele>1086.5999755859</ele>
        <time>2021-09-07T09:45:28Z</time>
      </trkpt>
      <trkpt lat="45.11233" lon="4.54031">
        <ele>1085.8000488281</ele>
        <time>2021-09-07T09:45:36Z</time>
      </trkpt>
      <trkpt lat="45.11226" lon="4.54013">
        <ele>1086</ele>
        <time>2021-09-07T09:45:42Z</time>
      </trkpt>
      <trkpt lat="45.1121" lon="4.53994">
        <ele>1086.4000244141</ele>
        <time>2021-09-07T09:45:49Z</time>
      </trkpt>
      <trkpt lat="45.11191" lon="4.53985">
        <ele>1087.1999511719</ele>
        <time>2021-09-07T09:45:55Z</time>
      </trkpt>
      <trkpt lat="45.11166" lon="4.53983">
        <ele>1088.4000244141</ele>
        <time>2021-09-07T09:46:02Z</time>
      </trkpt>
      <trkpt lat="45.1115" lon="4.53986">
        <ele>1088.4000244141</ele>
        <time>2021-09-07T09:46:07Z</time>
      </trkpt>
      <trkpt lat="45.11147" lon="4.53985">
        <ele>1088.4000244141</ele>
        <time>2021-09-07T09:46:08Z</time>
      </trkpt>
      <trkpt lat="45.11124" lon="4.53996">
        <ele>1086.4000244141</ele>
        <time>2021-09-07T09:46:15Z</time>
      </trkpt>
      <trkpt lat="45.11119" lon="4.53998">
        <ele>1085.4000244141</ele>
        <time>2021-09-07T09:46:16Z</time>
      </trkpt>
      <trkpt lat="45.11106" lon="4.54003">
        <ele>1082.4000244141</ele>
        <time>2021-09-07T09:46:20Z</time>
      </trkpt>
      <trkpt lat="45.11085" lon="4.53999">
        <ele>1080</ele>
        <time>2021-09-07T09:46:26Z</time>
      </trkpt>
      <trkpt lat="45.11075" lon="4.54007">
        <ele>1079.4000244141</ele>
        <time>2021-09-07T09:46:29Z</time>
      </trkpt>
      <trkpt lat="45.11066" lon="4.54013">
        <ele>1077.1999511719</ele>
        <time>2021-09-07T09:46:32Z</time>
      </trkpt>
      <trkpt lat="45.11057" lon="4.54024">
        <ele>1074</ele>
        <time>2021-09-07T09:46:37Z</time>
      </trkpt>
      <trkpt lat="45.11057" lon="4.54024">
        <ele>1071</ele>
        <time>2021-09-07T09:46:42Z</time>
      </trkpt>
      <trkpt lat="45.11057" lon="4.54025">
        <ele>1070</ele>
        <time>2021-09-07T09:46:53Z</time>
      </trkpt>
      <trkpt lat="45.11054" lon="4.54031">
        <ele>1067.5999755859</ele>
        <time>2021-09-07T09:47:07Z</time>
      </trkpt>
      <trkpt lat="45.11047" lon="4.54043">
        <ele>1066.1999511719</ele>
        <time>2021-09-07T09:47:17Z</time>
      </trkpt>
      <trkpt lat="45.11043" lon="4.54047">
        <ele>1064.4000244141</ele>
        <time>2021-09-07T09:47:30Z</time>
      </trkpt>
      <trkpt lat="45.11041" lon="4.5405">
        <ele>1063.5999755859</ele>
        <time>2021-09-07T09:47:44Z</time>
      </trkpt>
      <trkpt lat="45.1104" lon="4.54054">
        <ele>1062.4000244141</ele>
        <time>2021-09-07T09:47:51Z</time>
      </trkpt>
      <trkpt lat="45.11036" lon="4.54061">
        <ele>1059.4000244141</ele>
        <time>2021-09-07T09:47:59Z</time>
      </trkpt>
      <trkpt lat="45.11035" lon="4.54063">
        <ele>1059</ele>
        <time>2021-09-07T09:48:00Z</time>
      </trkpt>
      <trkpt lat="45.11017" lon="4.54086">
        <ele>1055.4000244141</ele>
        <time>2021-09-07T09:48:09Z</time>
      </trkpt>
      <trkpt lat="45.11016" lon="4.54088">
        <ele>1055.4000244141</ele>
        <time>2021-09-07T09:48:10Z</time>
      </trkpt>
      <trkpt lat="45.11006" lon="4.54106">
        <ele>1052.8000488281</ele>
        <time>2021-09-07T09:48:17Z</time>
      </trkpt>
      <trkpt lat="45.10998" lon="4.54117">
        <ele>1049.5999755859</ele>
        <time>2021-09-07T09:48:25Z</time>
      </trkpt>
      <trkpt lat="45.10981" lon="4.5413">
        <ele>1048.4000244141</ele>
        <time>2021-09-07T09:48:32Z</time>
      </trkpt>
      <trkpt lat="45.1098" lon="4.54133">
        <ele>1048.1999511719</ele>
        <time>2021-09-07T09:48:33Z</time>
      </trkpt>
      <trkpt lat="45.10978" lon="4.54139">
        <ele>1048</ele>
        <time>2021-09-07T09:48:35Z</time>
      </trkpt>
      <trkpt lat="45.10968" lon="4.5415">
        <ele>1045.5999755859</ele>
        <time>2021-09-07T09:48:40Z</time>
      </trkpt>
      <trkpt lat="45.10946" lon="4.54184">
        <ele>1043.1999511719</ele>
        <time>2021-09-07T09:48:49Z</time>
      </trkpt>
      <trkpt lat="45.10924" lon="4.54204">
        <ele>1040.1999511719</ele>
        <time>2021-09-07T09:48:57Z</time>
      </trkpt>
      <trkpt lat="45.10922" lon="4.54207">
        <ele>1040</ele>
        <time>2021-09-07T09:48:58Z</time>
      </trkpt>
      <trkpt lat="45.10913" lon="4.54217">
        <ele>1038.1999511719</ele>
        <time>2021-09-07T09:49:03Z</time>
      </trkpt>
      <trkpt lat="45.1091" lon="4.54218">
        <ele>1037.4000244141</ele>
        <time>2021-09-07T09:49:04Z</time>
      </trkpt>
      <trkpt lat="45.10895" lon="4.54227">
        <ele>1034.4000244141</ele>
        <time>2021-09-07T09:49:10Z</time>
      </trkpt>
      <trkpt lat="45.10882" lon="4.54236">
        <ele>1031.5999755859</ele>
        <time>2021-09-07T09:49:16Z</time>
      </trkpt>
      <trkpt lat="45.10872" lon="4.54239">
        <ele>1030</ele>
        <time>2021-09-07T09:49:20Z</time>
      </trkpt>
      <trkpt lat="45.10859" lon="4.54237">
        <ele>1027.4000244141</ele>
        <time>2021-09-07T09:49:26Z</time>
      </trkpt>
      <trkpt lat="45.10853" lon="4.5424">
        <ele>1026.4000244141</ele>
        <time>2021-09-07T09:49:28Z</time>
      </trkpt>
      <trkpt lat="45.10844" lon="4.54246">
        <ele>1023.4000244141</ele>
        <time>2021-09-07T09:49:35Z</time>
      </trkpt>
      <trkpt lat="45.10828" lon="4.54252">
        <ele>1020.5999755859</ele>
        <time>2021-09-07T09:49:45Z</time>
      </trkpt>
      <trkpt lat="45.10823" lon="4.54253">
        <ele>1017.5999755859</ele>
        <time>2021-09-07T09:49:50Z</time>
      </trkpt>
      <trkpt lat="45.10821" lon="4.54253">
        <ele>1016.5999755859</ele>
        <time>2021-09-07T09:49:53Z</time>
      </trkpt>
      <trkpt lat="45.10807" lon="4.54255">
        <ele>1014.799987793</ele>
        <time>2021-09-07T09:50:00Z</time>
      </trkpt>
      <trkpt lat="45.10802" lon="4.54253">
        <ele>1014.5999755859</ele>
        <time>2021-09-07T09:50:02Z</time>
      </trkpt>
      <trkpt lat="45.10796" lon="4.54251">
        <ele>1013.200012207</ele>
        <time>2021-09-07T09:50:04Z</time>
      </trkpt>
      <trkpt lat="45.10794" lon="4.54249">
        <ele>1013</ele>
        <time>2021-09-07T09:50:05Z</time>
      </trkpt>
      <trkpt lat="45.10788" lon="4.54248">
        <ele>1012.200012207</ele>
        <time>2021-09-07T09:50:08Z</time>
      </trkpt>
      <trkpt lat="45.10776" lon="4.54244">
        <ele>1009.200012207</ele>
        <time>2021-09-07T09:50:16Z</time>
      </trkpt>
      <trkpt lat="45.10768" lon="4.54237">
        <ele>1008.799987793</ele>
        <time>2021-09-07T09:50:19Z</time>
      </trkpt>
      <trkpt lat="45.10759" lon="4.54226">
        <ele>1007.200012207</ele>
        <time>2021-09-07T09:50:23Z</time>
      </trkpt>
      <trkpt lat="45.10752" lon="4.54216">
        <ele>1003.799987793</ele>
        <time>2021-09-07T09:50:29Z</time>
      </trkpt>
      <trkpt lat="45.10749" lon="4.54212">
        <ele>1003.5999755859</ele>
        <time>2021-09-07T09:50:30Z</time>
      </trkpt>
      <trkpt lat="45.10746" lon="4.54208">
        <ele>1001.5999755859</ele>
        <time>2021-09-07T09:50:37Z</time>
      </trkpt>
      <trkpt lat="45.10742" lon="4.54208">
        <ele>1000.4000244141</ele>
        <time>2021-09-07T09:50:46Z</time>
      </trkpt>
      <trkpt lat="45.10735" lon="4.5422">
        <ele>1000</ele>
        <time>2021-09-07T09:50:51Z</time>
      </trkpt>
      <trkpt lat="45.10728" lon="4.54231">
        <ele>999.79998779297</ele>
        <time>2021-09-07T09:50:55Z</time>
      </trkpt>
      <trkpt lat="45.10707" lon="4.54249">
        <ele>998.79998779297</ele>
        <time>2021-09-07T09:51:03Z</time>
      </trkpt>
      <trkpt lat="45.10688" lon="4.5424">
        <ele>998.20001220703</ele>
        <time>2021-09-07T09:51:07Z</time>
      </trkpt>
      <trkpt lat="45.10608" lon="4.54207">
        <ele>995.20001220703</ele>
        <time>2021-09-07T09:51:22Z</time>
      </trkpt>
      <trkpt lat="45.10566" lon="4.54195">
        <ele>994.79998779297</ele>
        <time>2021-09-07T09:51:30Z</time>
      </trkpt>
      <trkpt lat="45.10536" lon="4.5419">
        <ele>994.40002441406</ele>
        <time>2021-09-07T09:51:35Z</time>
      </trkpt>
      <trkpt lat="45.10439" lon="4.54192">
        <ele>992.40002441406</ele>
        <time>2021-09-07T09:51:52Z</time>
      </trkpt>
      <trkpt lat="45.10397" lon="4.54227">
        <ele>992.20001220703</ele>
        <time>2021-09-07T09:52:02Z</time>
      </trkpt>
      <trkpt lat="45.10383" lon="4.54245">
        <ele>992.40002441406</ele>
        <time>2021-09-07T09:52:06Z</time>
      </trkpt>
      <trkpt lat="45.10375" lon="4.54253">
        <ele>992.40002441406</ele>
        <time>2021-09-07T09:52:08Z</time>
      </trkpt>
      <trkpt lat="45.10354" lon="4.54263">
        <ele>992.40002441406</ele>
        <time>2021-09-07T09:52:13Z</time>
      </trkpt>
      <trkpt lat="45.1034" lon="4.54265">
        <ele>992.40002441406</ele>
        <time>2021-09-07T09:52:16Z</time>
      </trkpt>
      <trkpt lat="45.10313" lon="4.54251">
        <ele>992.40002441406</ele>
        <time>2021-09-07T09:52:22Z</time>
      </trkpt>
      <trkpt lat="45.10291" lon="4.54233">
        <ele>992.40002441406</ele>
        <time>2021-09-07T09:52:28Z</time>
      </trkpt>
      <trkpt lat="45.10264" lon="4.54211">
        <ele>992.40002441406</ele>
        <time>2021-09-07T09:52:35Z</time>
      </trkpt>
      <trkpt lat="45.10253" lon="4.54205">
        <ele>992.40002441406</ele>
        <time>2021-09-07T09:52:38Z</time>
      </trkpt>
      <trkpt lat="45.10211" lon="4.54176">
        <ele>992.20001220703</ele>
        <time>2021-09-07T09:52:48Z</time>
      </trkpt>
      <trkpt lat="45.1016" lon="4.54162">
        <ele>991.59997558594</ele>
        <time>2021-09-07T09:52:59Z</time>
      </trkpt>
      <trkpt lat="45.10151" lon="4.54162">
        <ele>991.59997558594</ele>
        <time>2021-09-07T09:53:01Z</time>
      </trkpt>
      <trkpt lat="45.10121" lon="4.54188">
        <ele>990.40002441406</ele>
        <time>2021-09-07T09:53:08Z</time>
      </trkpt>
      <trkpt lat="45.10119" lon="4.54193">
        <ele>990</ele>
        <time>2021-09-07T09:53:09Z</time>
      </trkpt>
      <trkpt lat="45.10123" lon="4.54198">
        <ele>988.40002441406</ele>
        <time>2021-09-07T09:53:15Z</time>
      </trkpt>
      <trkpt lat="45.10126" lon="4.54193">
        <ele>987.79998779297</ele>
        <time>2021-09-07T09:53:18Z</time>
      </trkpt>
      <trkpt lat="45.10129" lon="4.54187">
        <ele>987.59997558594</ele>
        <time>2021-09-07T09:53:22Z</time>
      </trkpt>
      <trkpt lat="45.10131" lon="4.54179">
        <ele>987.79998779297</ele>
        <time>2021-09-07T09:53:28Z</time>
      </trkpt>
      <trkpt lat="45.10126" lon="4.54188">
        <ele>987.79998779297</ele>
        <time>2021-09-07T09:53:34Z</time>
      </trkpt>
      <trkpt lat="45.10125" lon="4.54189">
        <ele>987.79998779297</ele>
        <time>2021-09-07T09:53:35Z</time>
      </trkpt>
      <trkpt lat="45.10129" lon="4.54216">
        <ele>984.79998779297</ele>
        <time>2021-09-07T09:53:43Z</time>
      </trkpt>
      <trkpt lat="45.10129" lon="4.54223">
        <ele>983.79998779297</ele>
        <time>2021-09-07T09:53:45Z</time>
      </trkpt>
      <trkpt lat="45.10131" lon="4.54237">
        <ele>980.79998779297</ele>
        <time>2021-09-07T09:53:50Z</time>
      </trkpt>
      <trkpt lat="45.10131" lon="4.54241">
        <ele>980</ele>
        <time>2021-09-07T09:53:52Z</time>
      </trkpt>
      <trkpt lat="45.10133" lon="4.54266">
        <ele>977</ele>
        <time>2021-09-07T09:53:59Z</time>
      </trkpt>
      <trkpt lat="45.10128" lon="4.54294">
        <ele>973.59997558594</ele>
        <time>2021-09-07T09:54:04Z</time>
      </trkpt>
      <trkpt lat="45.10127" lon="4.54322">
        <ele>969.40002441406</ele>
        <time>2021-09-07T09:54:10Z</time>
      </trkpt>
      <trkpt lat="45.10126" lon="4.54331">
        <ele>967.79998779297</ele>
        <time>2021-09-07T09:54:13Z</time>
      </trkpt>
      <trkpt lat="45.10122" lon="4.54349">
        <ele>965.79998779297</ele>
        <time>2021-09-07T09:54:16Z</time>
      </trkpt>
      <trkpt lat="45.10111" lon="4.54373">
        <ele>962.20001220703</ele>
        <time>2021-09-07T09:54:21Z</time>
      </trkpt>
      <trkpt lat="45.1011" lon="4.54392">
        <ele>959.79998779297</ele>
        <time>2021-09-07T09:54:25Z</time>
      </trkpt>
      <trkpt lat="45.10107" lon="4.54398">
        <ele>959.40002441406</ele>
        <time>2021-09-07T09:54:26Z</time>
      </trkpt>
      <trkpt lat="45.10109" lon="4.54408">
        <ele>957.79998779297</ele>
        <time>2021-09-07T09:54:29Z</time>
      </trkpt>
      <trkpt lat="45.10134" lon="4.54453">
        <ele>954</ele>
        <time>2021-09-07T09:54:37Z</time>
      </trkpt>
      <trkpt lat="45.10138" lon="4.54461">
        <ele>953.59997558594</ele>
        <time>2021-09-07T09:54:38Z</time>
      </trkpt>
      <trkpt lat="45.10141" lon="4.54466">
        <ele>953</ele>
        <time>2021-09-07T09:54:39Z</time>
      </trkpt>
      <trkpt lat="45.10151" lon="4.54506">
        <ele>949.59997558594</ele>
        <time>2021-09-07T09:54:45Z</time>
      </trkpt>
      <trkpt lat="45.10154" lon="4.54523">
        <ele>948.59997558594</ele>
        <time>2021-09-07T09:54:47Z</time>
      </trkpt>
      <trkpt lat="45.10148" lon="4.54552">
        <ele>946.20001220703</ele>
        <time>2021-09-07T09:54:53Z</time>
      </trkpt>
      <trkpt lat="45.10145" lon="4.54566">
        <ele>944.20001220703</ele>
        <time>2021-09-07T09:54:59Z</time>
      </trkpt>
      <trkpt lat="45.10142" lon="4.54571">
        <ele>943.79998779297</ele>
        <time>2021-09-07T09:55:01Z</time>
      </trkpt>
      <trkpt lat="45.10125" lon="4.54591">
        <ele>940.79998779297</ele>
        <time>2021-09-07T09:55:08Z</time>
      </trkpt>
      <trkpt lat="45.1012" lon="4.54611">
        <ele>937.79998779297</ele>
        <time>2021-09-07T09:55:13Z</time>
      </trkpt>
      <trkpt lat="45.1012" lon="4.54617">
        <ele>937.59997558594</ele>
        <time>2021-09-07T09:55:14Z</time>
      </trkpt>
      <trkpt lat="45.10133" lon="4.54679">
        <ele>936</ele>
        <time>2021-09-07T09:55:20Z</time>
      </trkpt>
      <trkpt lat="45.10147" lon="4.54721">
        <ele>935.20001220703</ele>
        <time>2021-09-07T09:55:24Z</time>
      </trkpt>
      <trkpt lat="45.10157" lon="4.54766">
        <ele>934</ele>
        <time>2021-09-07T09:55:30Z</time>
      </trkpt>
      <trkpt lat="45.10157" lon="4.5478">
        <ele>933.79998779297</ele>
        <time>2021-09-07T09:55:33Z</time>
      </trkpt>
      <trkpt lat="45.10164" lon="4.54813">
        <ele>933.79998779297</ele>
        <time>2021-09-07T09:55:38Z</time>
      </trkpt>
      <trkpt lat="45.10169" lon="4.5483">
        <ele>933.59997558594</ele>
        <time>2021-09-07T09:55:42Z</time>
      </trkpt>
      <trkpt lat="45.1017" lon="4.54836">
        <ele>933.40002441406</ele>
        <time>2021-09-07T09:55:43Z</time>
      </trkpt>
      <trkpt lat="45.10177" lon="4.54868">
        <ele>933.40002441406</ele>
        <time>2021-09-07T09:55:48Z</time>
      </trkpt>
      <trkpt lat="45.10199" lon="4.54907">
        <ele>933</ele>
        <time>2021-09-07T09:55:56Z</time>
      </trkpt>
      <trkpt lat="45.10214" lon="4.54916">
        <ele>932.40002441406</ele>
        <time>2021-09-07T09:55:59Z</time>
      </trkpt>
      <trkpt lat="45.10243" lon="4.54959">
        <ele>930.59997558594</ele>
        <time>2021-09-07T09:56:06Z</time>
      </trkpt>
      <trkpt lat="45.10264" lon="4.54985">
        <ele>929.40002441406</ele>
        <time>2021-09-07T09:56:11Z</time>
      </trkpt>
      <trkpt lat="45.10278" lon="4.55022">
        <ele>929.40002441406</ele>
        <time>2021-09-07T09:56:17Z</time>
      </trkpt>
      <trkpt lat="45.10288" lon="4.55046">
        <ele>929.59997558594</ele>
        <time>2021-09-07T09:56:23Z</time>
      </trkpt>
      <trkpt lat="45.10295" lon="4.55064">
        <ele>930.40002441406</ele>
        <time>2021-09-07T09:56:28Z</time>
      </trkpt>
      <trkpt lat="45.10304" lon="4.55079">
        <ele>932.79998779297</ele>
        <time>2021-09-07T09:56:35Z</time>
      </trkpt>
      <trkpt lat="45.10314" lon="4.55104">
        <ele>935.20001220703</ele>
        <time>2021-09-07T09:56:47Z</time>
      </trkpt>
      <trkpt lat="45.10323" lon="4.55136">
        <ele>937.20001220703</ele>
        <time>2021-09-07T09:57:00Z</time>
      </trkpt>
      <trkpt lat="45.10324" lon="4.5515">
        <ele>938</ele>
        <time>2021-09-07T09:57:05Z</time>
      </trkpt>
      <trkpt lat="45.10326" lon="4.55158">
        <ele>938.59997558594</ele>
        <time>2021-09-07T09:57:10Z</time>
      </trkpt>
      <trkpt lat="45.10327" lon="4.55172">
        <ele>939.20001220703</ele>
        <time>2021-09-07T09:57:15Z</time>
      </trkpt>
      <trkpt lat="45.10325" lon="4.55194">
        <ele>940.20001220703</ele>
        <time>2021-09-07T09:57:22Z</time>
      </trkpt>
      <trkpt lat="45.10325" lon="4.55221">
        <ele>940</ele>
        <time>2021-09-07T09:57:26Z</time>
      </trkpt>
      <trkpt lat="45.1032" lon="4.5528">
        <ele>939.20001220703</ele>
        <time>2021-09-07T09:57:32Z</time>
      </trkpt>
      <trkpt lat="45.10346" lon="4.55387">
        <ele>936.20001220703</ele>
        <time>2021-09-07T09:57:41Z</time>
      </trkpt>
      <trkpt lat="45.10359" lon="4.55411">
        <ele>935</ele>
        <time>2021-09-07T09:57:43Z</time>
      </trkpt>
      <trkpt lat="45.10377" lon="4.55447">
        <ele>933.59997558594</ele>
        <time>2021-09-07T09:57:46Z</time>
      </trkpt>
      <trkpt lat="45.10382" lon="4.5546">
        <ele>933</ele>
        <time>2021-09-07T09:57:47Z</time>
      </trkpt>
      <trkpt lat="45.10389" lon="4.55516">
        <ele>931.20001220703</ele>
        <time>2021-09-07T09:57:51Z</time>
      </trkpt>
      <trkpt lat="45.10395" lon="4.55557">
        <ele>928.20001220703</ele>
        <time>2021-09-07T09:57:54Z</time>
      </trkpt>
      <trkpt lat="45.10423" lon="4.55618">
        <ele>926</ele>
        <time>2021-09-07T09:57:59Z</time>
      </trkpt>
      <trkpt lat="45.10435" lon="4.5564">
        <ele>923.79998779297</ele>
        <time>2021-09-07T09:58:01Z</time>
      </trkpt>
      <trkpt lat="45.1046" lon="4.55709">
        <ele>920.40002441406</ele>
        <time>2021-09-07T09:58:06Z</time>
      </trkpt>
      <trkpt lat="45.10484" lon="4.55802">
        <ele>916.79998779297</ele>
        <time>2021-09-07T09:58:12Z</time>
      </trkpt>
      <trkpt lat="45.10489" lon="4.55819">
        <ele>916.59997558594</ele>
        <time>2021-09-07T09:58:13Z</time>
      </trkpt>
      <trkpt lat="45.10496" lon="4.55886">
        <ele>913</ele>
        <time>2021-09-07T09:58:17Z</time>
      </trkpt>
      <trkpt lat="45.105" lon="4.55952">
        <ele>910</ele>
        <time>2021-09-07T09:58:21Z</time>
      </trkpt>
      <trkpt lat="45.10495" lon="4.56006">
        <ele>906.79998779297</ele>
        <time>2021-09-07T09:58:24Z</time>
      </trkpt>
      <trkpt lat="45.10494" lon="4.56042">
        <ele>905.20001220703</ele>
        <time>2021-09-07T09:58:26Z</time>
      </trkpt>
      <trkpt lat="45.10494" lon="4.5606">
        <ele>905</ele>
        <time>2021-09-07T09:58:27Z</time>
      </trkpt>
      <trkpt lat="45.10494" lon="4.56094">
        <ele>903</ele>
        <time>2021-09-07T09:58:29Z</time>
      </trkpt>
      <trkpt lat="45.10502" lon="4.56145">
        <ele>899.79998779297</ele>
        <time>2021-09-07T09:58:33Z</time>
      </trkpt>
      <trkpt lat="45.10508" lon="4.56169">
        <ele>897</ele>
        <time>2021-09-07T09:58:36Z</time>
      </trkpt>
      <trkpt lat="45.10508" lon="4.56176">
        <ele>896</ele>
        <time>2021-09-07T09:58:37Z</time>
      </trkpt>
      <trkpt lat="45.10515" lon="4.56199">
        <ele>892.59997558594</ele>
        <time>2021-09-07T09:58:41Z</time>
      </trkpt>
      <trkpt lat="45.10517" lon="4.56212">
        <ele>891.59997558594</ele>
        <time>2021-09-07T09:58:43Z</time>
      </trkpt>
      <trkpt lat="45.10518" lon="4.56231">
        <ele>890.20001220703</ele>
        <time>2021-09-07T09:58:46Z</time>
      </trkpt>
      <trkpt lat="45.1052" lon="4.56241">
        <ele>889.59997558594</ele>
        <time>2021-09-07T09:58:48Z</time>
      </trkpt>
      <trkpt lat="45.10528" lon="4.56241">
        <ele>887.79998779297</ele>
        <time>2021-09-07T09:58:52Z</time>
      </trkpt>
      <trkpt lat="45.10541" lon="4.56223">
        <ele>886</ele>
        <time>2021-09-07T09:58:57Z</time>
      </trkpt>
      <trkpt lat="45.10572" lon="4.56221">
        <ele>884.20001220703</ele>
        <time>2021-09-07T09:59:07Z</time>
      </trkpt>
      <trkpt lat="45.10602" lon="4.56227">
        <ele>884</ele>
        <time>2021-09-07T09:59:19Z</time>
      </trkpt>
      <trkpt lat="45.10638" lon="4.56251">
        <ele>883.59997558594</ele>
        <time>2021-09-07T09:59:30Z</time>
      </trkpt>
      <trkpt lat="45.10647" lon="4.56256">
        <ele>883.20001220703</ele>
        <time>2021-09-07T09:59:32Z</time>
      </trkpt>
      <trkpt lat="45.10673" lon="4.56273">
        <ele>883.20001220703</ele>
        <time>2021-09-07T09:59:39Z</time>
      </trkpt>
      <trkpt lat="45.1071" lon="4.56281">
        <ele>883.59997558594</ele>
        <time>2021-09-07T09:59:47Z</time>
      </trkpt>
      <trkpt lat="45.1073" lon="4.56282">
        <ele>884</ele>
        <time>2021-09-07T09:59:51Z</time>
      </trkpt>
      <trkpt lat="45.10738" lon="4.56285">
        <ele>884</ele>
        <time>2021-09-07T09:59:53Z</time>
      </trkpt>
      <trkpt lat="45.10757" lon="4.5629">
        <ele>884.20001220703</ele>
        <time>2021-09-07T09:59:57Z</time>
      </trkpt>
      <trkpt lat="45.10773" lon="4.56295">
        <ele>884.20001220703</ele>
        <time>2021-09-07T10:00:01Z</time>
      </trkpt>
      <trkpt lat="45.10781" lon="4.56301">
        <ele>884.59997558594</ele>
        <time>2021-09-07T10:00:03Z</time>
      </trkpt>
      <trkpt lat="45.10812" lon="4.56337">
        <ele>885.59997558594</ele>
        <time>2021-09-07T10:00:14Z</time>
      </trkpt>
      <trkpt lat="45.10814" lon="4.56341">
        <ele>885.79998779297</ele>
        <time>2021-09-07T10:00:16Z</time>
      </trkpt>
      <trkpt lat="45.10829" lon="4.56367">
        <ele>886.79998779297</ele>
        <time>2021-09-07T10:00:24Z</time>
      </trkpt>
      <trkpt lat="45.10838" lon="4.56389">
        <ele>887</ele>
        <time>2021-09-07T10:00:28Z</time>
      </trkpt>
      <trkpt lat="45.10857" lon="4.56434">
        <ele>887.59997558594</ele>
        <time>2021-09-07T10:00:39Z</time>
      </trkpt>
      <trkpt lat="45.10859" lon="4.5645">
        <ele>888.40002441406</ele>
        <time>2021-09-07T10:00:45Z</time>
      </trkpt>
      <trkpt lat="45.1086" lon="4.56462">
        <ele>889.79998779297</ele>
        <time>2021-09-07T10:00:50Z</time>
      </trkpt>
      <trkpt lat="45.10862" lon="4.5648">
        <ele>890.40002441406</ele>
        <time>2021-09-07T10:00:57Z</time>
      </trkpt>
      <trkpt lat="45.10867" lon="4.56499">
        <ele>891.40002441406</ele>
        <time>2021-09-07T10:01:06Z</time>
      </trkpt>
      <trkpt lat="45.10875" lon="4.56528">
        <ele>892.59997558594</ele>
        <time>2021-09-07T10:01:13Z</time>
      </trkpt>
      <trkpt lat="45.10879" lon="4.56553">
        <ele>893.79998779297</ele>
        <time>2021-09-07T10:01:20Z</time>
      </trkpt>
      <trkpt lat="45.1088" lon="4.56564">
        <ele>894.20001220703</ele>
        <time>2021-09-07T10:01:26Z</time>
      </trkpt>
      <trkpt lat="45.1088" lon="4.56564">
        <ele>894.20001220703</ele>
        <time>2021-09-07T10:01:27Z</time>
      </trkpt>
      <trkpt lat="45.10881" lon="4.56582">
        <ele>894.79998779297</ele>
        <time>2021-09-07T10:01:32Z</time>
      </trkpt>
      <trkpt lat="45.10881" lon="4.56583">
        <ele>895.20001220703</ele>
        <time>2021-09-07T10:01:34Z</time>
      </trkpt>
      <trkpt lat="45.10882" lon="4.56607">
        <ele>896.59997558594</ele>
        <time>2021-09-07T10:01:42Z</time>
      </trkpt>
      <trkpt lat="45.10883" lon="4.56622">
        <ele>897.20001220703</ele>
        <time>2021-09-07T10:01:49Z</time>
      </trkpt>
      <trkpt lat="45.10887" lon="4.56646">
        <ele>898.59997558594</ele>
        <time>2021-09-07T10:01:54Z</time>
      </trkpt>
      <trkpt lat="45.10889" lon="4.5666">
        <ele>899.20001220703</ele>
        <time>2021-09-07T10:01:58Z</time>
      </trkpt>
      <trkpt lat="45.1089" lon="4.56665">
        <ele>899.20001220703</ele>
        <time>2021-09-07T10:01:59Z</time>
      </trkpt>
      <trkpt lat="45.10897" lon="4.56692">
        <ele>899.40002441406</ele>
        <time>2021-09-07T10:02:05Z</time>
      </trkpt>
      <trkpt lat="45.10899" lon="4.56697">
        <ele>899.59997558594</ele>
        <time>2021-09-07T10:02:07Z</time>
      </trkpt>
      <trkpt lat="45.10902" lon="4.56704">
        <ele>900</ele>
        <time>2021-09-07T10:02:11Z</time>
      </trkpt>
      <trkpt lat="45.10908" lon="4.56727">
        <ele>901</ele>
        <time>2021-09-07T10:02:16Z</time>
      </trkpt>
      <trkpt lat="45.10912" lon="4.56735">
        <ele>901.59997558594</ele>
        <time>2021-09-07T10:02:20Z</time>
      </trkpt>
      <trkpt lat="45.10912" lon="4.56737">
        <ele>901.79998779297</ele>
        <time>2021-09-07T10:02:21Z</time>
      </trkpt>
      <trkpt lat="45.10915" lon="4.56741">
        <ele>902</ele>
        <time>2021-09-07T10:02:24Z</time>
      </trkpt>
      <trkpt lat="45.10916" lon="4.56745">
        <ele>902.40002441406</ele>
        <time>2021-09-07T10:02:28Z</time>
      </trkpt>
      <trkpt lat="45.10922" lon="4.56761">
        <ele>904.79998779297</ele>
        <time>2021-09-07T10:02:40Z</time>
      </trkpt>
      <trkpt lat="45.1093" lon="4.56785">
        <ele>906.79998779297</ele>
        <time>2021-09-07T10:02:49Z</time>
      </trkpt>
      <trkpt lat="45.10939" lon="4.56803">
        <ele>907.79998779297</ele>
        <time>2021-09-07T10:02:57Z</time>
      </trkpt>
      <trkpt lat="45.1094" lon="4.56804">
        <ele>908</ele>
        <time>2021-09-07T10:02:58Z</time>
      </trkpt>
      <trkpt lat="45.10944" lon="4.56812">
        <ele>908.40002441406</ele>
        <time>2021-09-07T10:03:01Z</time>
      </trkpt>
      <trkpt lat="45.10942" lon="4.56817">
        <ele>908.79998779297</ele>
        <time>2021-09-07T10:03:04Z</time>
      </trkpt>
      <trkpt lat="45.10947" lon="4.56831">
        <ele>909.20001220703</ele>
        <time>2021-09-07T10:03:09Z</time>
      </trkpt>
      <trkpt lat="45.10947" lon="4.56837">
        <ele>909.59997558594</ele>
        <time>2021-09-07T10:03:11Z</time>
      </trkpt>
      <trkpt lat="45.10947" lon="4.56839">
        <ele>909.59997558594</ele>
        <time>2021-09-07T10:03:13Z</time>
      </trkpt>
      <trkpt lat="45.10951" lon="4.56836">
        <ele>910</ele>
        <time>2021-09-07T10:03:20Z</time>
      </trkpt>
      <trkpt lat="45.10951" lon="4.56836">
        <ele>909</ele>
        <time>2021-09-07T10:03:56Z</time>
      </trkpt>
      <trkpt lat="45.10951" lon="4.56836">
        <ele>910.79998779297</ele>
        <time>2021-09-07T10:23:05Z</time>
      </trkpt>
      <trkpt lat="45.10951" lon="4.56836">
        <ele>911.59997558594</ele>
        <time>2021-09-07T10:27:26Z</time>
      </trkpt>
      <trkpt lat="45.10951" lon="4.56837">
        <ele>912.59997558594</ele>
        <time>2021-09-07T10:37:29Z</time>
      </trkpt>
      <trkpt lat="45.10951" lon="4.56838">
        <ele>913.20001220703</ele>
        <time>2021-09-07T10:39:08Z</time>
      </trkpt>
      <trkpt lat="45.10951" lon="4.56838">
        <ele>913.79998779297</ele>
        <time>2021-09-07T10:41:45Z</time>
      </trkpt>
      <trkpt lat="45.10951" lon="4.56856">
        <ele>915</ele>
        <time>2021-09-07T10:41:55Z</time>
      </trkpt>
      <trkpt lat="45.10951" lon="4.5686">
        <ele>916.79998779297</ele>
        <time>2021-09-07T10:42:04Z</time>
      </trkpt>
      <trkpt lat="45.1095" lon="4.56867">
        <ele>917</ele>
        <time>2021-09-07T10:42:07Z</time>
      </trkpt>
      <trkpt lat="45.10943" lon="4.56882">
        <ele>918.59997558594</ele>
        <time>2021-09-07T10:42:13Z</time>
      </trkpt>
      <trkpt lat="45.10942" lon="4.56891">
        <ele>919.79998779297</ele>
        <time>2021-09-07T10:42:19Z</time>
      </trkpt>
      <trkpt lat="45.10942" lon="4.56892">
        <ele>920.40002441406</ele>
        <time>2021-09-07T10:42:23Z</time>
      </trkpt>
      <trkpt lat="45.10937" lon="4.569">
        <ele>920.79998779297</ele>
        <time>2021-09-07T10:42:27Z</time>
      </trkpt>
      <trkpt lat="45.10933" lon="4.56904">
        <ele>921</ele>
        <time>2021-09-07T10:42:29Z</time>
      </trkpt>
      <trkpt lat="45.10928" lon="4.56914">
        <ele>921.59997558594</ele>
        <time>2021-09-07T10:42:36Z</time>
      </trkpt>
      <trkpt lat="45.10925" lon="4.56927">
        <ele>923.20001220703</ele>
        <time>2021-09-07T10:42:42Z</time>
      </trkpt>
      <trkpt lat="45.10919" lon="4.56941">
        <ele>924</ele>
        <time>2021-09-07T10:42:48Z</time>
      </trkpt>
      <trkpt lat="45.10918" lon="4.56948">
        <ele>925.20001220703</ele>
        <time>2021-09-07T10:42:54Z</time>
      </trkpt>
      <trkpt lat="45.10918" lon="4.56952">
        <ele>925.59997558594</ele>
        <time>2021-09-07T10:43:00Z</time>
      </trkpt>
      <trkpt lat="45.10911" lon="4.56955">
        <ele>926.79998779297</ele>
        <time>2021-09-07T10:43:08Z</time>
      </trkpt>
      <trkpt lat="45.10901" lon="4.5696">
        <ele>928</ele>
        <time>2021-09-07T10:43:19Z</time>
      </trkpt>
      <trkpt lat="45.10901" lon="4.5696">
        <ele>928.79998779297</ele>
        <time>2021-09-07T10:43:23Z</time>
      </trkpt>
      <trkpt lat="45.10895" lon="4.56965">
        <ele>930</ele>
        <time>2021-09-07T10:43:31Z</time>
      </trkpt>
      <trkpt lat="45.10888" lon="4.56971">
        <ele>931</ele>
        <time>2021-09-07T10:43:38Z</time>
      </trkpt>
      <trkpt lat="45.10869" lon="4.56984">
        <ele>933</ele>
        <time>2021-09-07T10:43:48Z</time>
      </trkpt>
      <trkpt lat="45.10857" lon="4.56998">
        <ele>933.59997558594</ele>
        <time>2021-09-07T10:43:55Z</time>
      </trkpt>
      <trkpt lat="45.10854" lon="4.57005">
        <ele>934.20001220703</ele>
        <time>2021-09-07T10:44:01Z</time>
      </trkpt>
      <trkpt lat="45.10852" lon="4.57008">
        <ele>935</ele>
        <time>2021-09-07T10:44:06Z</time>
      </trkpt>
      <trkpt lat="45.10844" lon="4.57017">
        <ele>935.79998779297</ele>
        <time>2021-09-07T10:44:13Z</time>
      </trkpt>
      <trkpt lat="45.10845" lon="4.57019">
        <ele>936</ele>
        <time>2021-09-07T10:44:15Z</time>
      </trkpt>
      <trkpt lat="45.10846" lon="4.57044">
        <ele>936.79998779297</ele>
        <time>2021-09-07T10:44:23Z</time>
      </trkpt>
      <trkpt lat="45.10844" lon="4.57051">
        <ele>937</ele>
        <time>2021-09-07T10:44:26Z</time>
      </trkpt>
      <trkpt lat="45.10843" lon="4.57073">
        <ele>937.40002441406</ele>
        <time>2021-09-07T10:44:33Z</time>
      </trkpt>
      <trkpt lat="45.10843" lon="4.57074">
        <ele>937.79998779297</ele>
        <time>2021-09-07T10:44:35Z</time>
      </trkpt>
      <trkpt lat="45.10841" lon="4.57094">
        <ele>938.40002441406</ele>
        <time>2021-09-07T10:44:41Z</time>
      </trkpt>
      <trkpt lat="45.10844" lon="4.57104">
        <ele>938.40002441406</ele>
        <time>2021-09-07T10:44:44Z</time>
      </trkpt>
      <trkpt lat="45.10844" lon="4.57108">
        <ele>938.59997558594</ele>
        <time>2021-09-07T10:44:46Z</time>
      </trkpt>
      <trkpt lat="45.10845" lon="4.57138">
        <ele>938.59997558594</ele>
        <time>2021-09-07T10:44:50Z</time>
      </trkpt>
      <trkpt lat="45.10847" lon="4.5715">
        <ele>938.79998779297</ele>
        <time>2021-09-07T10:44:53Z</time>
      </trkpt>
      <trkpt lat="45.10848" lon="4.57182">
        <ele>939.40002441406</ele>
        <time>2021-09-07T10:45:00Z</time>
      </trkpt>
      <trkpt lat="45.10849" lon="4.57188">
        <ele>939.40002441406</ele>
        <time>2021-09-07T10:45:04Z</time>
      </trkpt>
      <trkpt lat="45.10847" lon="4.57212">
        <ele>940.40002441406</ele>
        <time>2021-09-07T10:45:10Z</time>
      </trkpt>
      <trkpt lat="45.10848" lon="4.57232">
        <ele>940.59997558594</ele>
        <time>2021-09-07T10:45:15Z</time>
      </trkpt>
      <trkpt lat="45.10853" lon="4.5726">
        <ele>940.59997558594</ele>
        <time>2021-09-07T10:45:20Z</time>
      </trkpt>
      <trkpt lat="45.10854" lon="4.57262">
        <ele>940.79998779297</ele>
        <time>2021-09-07T10:45:21Z</time>
      </trkpt>
      <trkpt lat="45.10851" lon="4.57289">
        <ele>941.79998779297</ele>
        <time>2021-09-07T10:45:26Z</time>
      </trkpt>
      <trkpt lat="45.10853" lon="4.57304">
        <ele>942.20001220703</ele>
        <time>2021-09-07T10:45:30Z</time>
      </trkpt>
      <trkpt lat="45.10862" lon="4.57312">
        <ele>942</ele>
        <time>2021-09-07T10:45:33Z</time>
      </trkpt>
      <trkpt lat="45.10879" lon="4.57321">
        <ele>941.79998779297</ele>
        <time>2021-09-07T10:45:37Z</time>
      </trkpt>
      <trkpt lat="45.10887" lon="4.57324">
        <ele>942</ele>
        <time>2021-09-07T10:45:38Z</time>
      </trkpt>
      <trkpt lat="45.109" lon="4.57333">
        <ele>942.59997558594</ele>
        <time>2021-09-07T10:45:43Z</time>
      </trkpt>
      <trkpt lat="45.1092" lon="4.57343">
        <ele>943</ele>
        <time>2021-09-07T10:45:49Z</time>
      </trkpt>
      <trkpt lat="45.10935" lon="4.57343">
        <ele>943.20001220703</ele>
        <time>2021-09-07T10:45:53Z</time>
      </trkpt>
      <trkpt lat="45.10959" lon="4.5736">
        <ele>944</ele>
        <time>2021-09-07T10:45:58Z</time>
      </trkpt>
      <trkpt lat="45.10971" lon="4.57383">
        <ele>944.59997558594</ele>
        <time>2021-09-07T10:46:05Z</time>
      </trkpt>
      <trkpt lat="45.10985" lon="4.57405">
        <ele>944.40002441406</ele>
        <time>2021-09-07T10:46:15Z</time>
      </trkpt>
      <trkpt lat="45.10987" lon="4.57408">
        <ele>944.40002441406</ele>
        <time>2021-09-07T10:46:17Z</time>
      </trkpt>
      <trkpt lat="45.10998" lon="4.57416">
        <ele>945.20001220703</ele>
        <time>2021-09-07T10:46:24Z</time>
      </trkpt>
      <trkpt lat="45.11012" lon="4.57436">
        <ele>946.59997558594</ele>
        <time>2021-09-07T10:46:33Z</time>
      </trkpt>
      <trkpt lat="45.11027" lon="4.57465">
        <ele>948.40002441406</ele>
        <time>2021-09-07T10:46:45Z</time>
      </trkpt>
      <trkpt lat="45.11027" lon="4.57478">
        <ele>950</ele>
        <time>2021-09-07T10:46:54Z</time>
      </trkpt>
      <trkpt lat="45.11029" lon="4.57489">
        <ele>950.20001220703</ele>
        <time>2021-09-07T10:47:00Z</time>
      </trkpt>
      <trkpt lat="45.11028" lon="4.57494">
        <ele>950.40002441406</ele>
        <time>2021-09-07T10:47:04Z</time>
      </trkpt>
      <trkpt lat="45.11032" lon="4.57503">
        <ele>951.20001220703</ele>
        <time>2021-09-07T10:47:08Z</time>
      </trkpt>
      <trkpt lat="45.11032" lon="4.57512">
        <ele>951.79998779297</ele>
        <time>2021-09-07T10:47:14Z</time>
      </trkpt>
      <trkpt lat="45.11029" lon="4.57544">
        <ele>953</ele>
        <time>2021-09-07T10:47:22Z</time>
      </trkpt>
      <trkpt lat="45.11021" lon="4.57564">
        <ele>953.59997558594</ele>
        <time>2021-09-07T10:47:28Z</time>
      </trkpt>
      <trkpt lat="45.1102" lon="4.57591">
        <ele>954.20001220703</ele>
        <time>2021-09-07T10:47:36Z</time>
      </trkpt>
      <trkpt lat="45.11016" lon="4.57608">
        <ele>954</ele>
        <time>2021-09-07T10:47:40Z</time>
      </trkpt>
      <trkpt lat="45.11015" lon="4.57628">
        <ele>954</ele>
        <time>2021-09-07T10:47:45Z</time>
      </trkpt>
      <trkpt lat="45.11013" lon="4.57632">
        <ele>954</ele>
        <time>2021-09-07T10:47:46Z</time>
      </trkpt>
      <trkpt lat="45.11006" lon="4.57652">
        <ele>953.79998779297</ele>
        <time>2021-09-07T10:47:51Z</time>
      </trkpt>
      <trkpt lat="45.11004" lon="4.57671">
        <ele>952.59997558594</ele>
        <time>2021-09-07T10:47:57Z</time>
      </trkpt>
      <trkpt lat="45.11004" lon="4.57702">
        <ele>950</ele>
        <time>2021-09-07T10:48:05Z</time>
      </trkpt>
      <trkpt lat="45.11005" lon="4.57711">
        <ele>949.40002441406</ele>
        <time>2021-09-07T10:48:06Z</time>
      </trkpt>
      <trkpt lat="45.11004" lon="4.5773">
        <ele>946.40002441406</ele>
        <time>2021-09-07T10:48:10Z</time>
      </trkpt>
      <trkpt lat="45.11005" lon="4.57744">
        <ele>944.79998779297</ele>
        <time>2021-09-07T10:48:13Z</time>
      </trkpt>
      <trkpt lat="45.11004" lon="4.57768">
        <ele>942.59997558594</ele>
        <time>2021-09-07T10:48:18Z</time>
      </trkpt>
      <trkpt lat="45.11" lon="4.57811">
        <ele>939.40002441406</ele>
        <time>2021-09-07T10:48:25Z</time>
      </trkpt>
      <trkpt lat="45.10998" lon="4.57837">
        <ele>936</ele>
        <time>2021-09-07T10:48:29Z</time>
      </trkpt>
      <trkpt lat="45.10995" lon="4.57858">
        <ele>933.20001220703</ele>
        <time>2021-09-07T10:48:34Z</time>
      </trkpt>
      <trkpt lat="45.10999" lon="4.57891">
        <ele>931.59997558594</ele>
        <time>2021-09-07T10:48:39Z</time>
      </trkpt>
      <trkpt lat="45.11003" lon="4.57896">
        <ele>930.79998779297</ele>
        <time>2021-09-07T10:48:41Z</time>
      </trkpt>
      <trkpt lat="45.11005" lon="4.57899">
        <ele>930.40002441406</ele>
        <time>2021-09-07T10:48:43Z</time>
      </trkpt>
      <trkpt lat="45.1101" lon="4.57907">
        <ele>928.20001220703</ele>
        <time>2021-09-07T10:48:48Z</time>
      </trkpt>
      <trkpt lat="45.11013" lon="4.57921">
        <ele>925</ele>
        <time>2021-09-07T10:48:57Z</time>
      </trkpt>
      <trkpt lat="45.11009" lon="4.57941">
        <ele>921.20001220703</ele>
        <time>2021-09-07T10:49:07Z</time>
      </trkpt>
      <trkpt lat="45.11005" lon="4.57956">
        <ele>918</ele>
        <time>2021-09-07T10:49:15Z</time>
      </trkpt>
      <trkpt lat="45.11008" lon="4.57971">
        <ele>914.59997558594</ele>
        <time>2021-09-07T10:49:23Z</time>
      </trkpt>
      <trkpt lat="45.11007" lon="4.57974">
        <ele>913.79998779297</ele>
        <time>2021-09-07T10:49:25Z</time>
      </trkpt>
      <trkpt lat="45.11006" lon="4.57993">
        <ele>911.79998779297</ele>
        <time>2021-09-07T10:49:31Z</time>
      </trkpt>
      <trkpt lat="45.11007" lon="4.58006">
        <ele>909.20001220703</ele>
        <time>2021-09-07T10:49:37Z</time>
      </trkpt>
      <trkpt lat="45.11004" lon="4.58015">
        <ele>907.40002441406</ele>
        <time>2021-09-07T10:49:41Z</time>
      </trkpt>
      <trkpt lat="45.11002" lon="4.58031">
        <ele>905.79998779297</ele>
        <time>2021-09-07T10:49:45Z</time>
      </trkpt>
      <trkpt lat="45.11005" lon="4.58047">
        <ele>903.59997558594</ele>
        <time>2021-09-07T10:49:50Z</time>
      </trkpt>
      <trkpt lat="45.11004" lon="4.5805">
        <ele>903.40002441406</ele>
        <time>2021-09-07T10:49:51Z</time>
      </trkpt>
      <trkpt lat="45.11012" lon="4.58074">
        <ele>900.59997558594</ele>
        <time>2021-09-07T10:49:57Z</time>
      </trkpt>
      <trkpt lat="45.11013" lon="4.5808">
        <ele>899.79998779297</ele>
        <time>2021-09-07T10:49:59Z</time>
      </trkpt>
      <trkpt lat="45.11012" lon="4.58088">
        <ele>899</ele>
        <time>2021-09-07T10:50:01Z</time>
      </trkpt>
      <trkpt lat="45.11017" lon="4.58103">
        <ele>895.79998779297</ele>
        <time>2021-09-07T10:50:06Z</time>
      </trkpt>
      <trkpt lat="45.11019" lon="4.58108">
        <ele>895.20001220703</ele>
        <time>2021-09-07T10:50:08Z</time>
      </trkpt>
      <trkpt lat="45.11023" lon="4.58125">
        <ele>893.59997558594</ele>
        <time>2021-09-07T10:50:12Z</time>
      </trkpt>
      <trkpt lat="45.11023" lon="4.58127">
        <ele>893.40002441406</ele>
        <time>2021-09-07T10:50:13Z</time>
      </trkpt>
      <trkpt lat="45.11023" lon="4.5813">
        <ele>892.79998779297</ele>
        <time>2021-09-07T10:50:14Z</time>
      </trkpt>
      <trkpt lat="45.11027" lon="4.58141">
        <ele>891.79998779297</ele>
        <time>2021-09-07T10:50:17Z</time>
      </trkpt>
      <trkpt lat="45.11029" lon="4.5815">
        <ele>889.79998779297</ele>
        <time>2021-09-07T10:50:20Z</time>
      </trkpt>
      <trkpt lat="45.11033" lon="4.58157">
        <ele>889</ele>
        <time>2021-09-07T10:50:22Z</time>
      </trkpt>
      <trkpt lat="45.11051" lon="4.58183">
        <ele>886.20001220703</ele>
        <time>2021-09-07T10:50:32Z</time>
      </trkpt>
      <trkpt lat="45.11058" lon="4.58176">
        <ele>885.20001220703</ele>
        <time>2021-09-07T10:50:38Z</time>
      </trkpt>
      <trkpt lat="45.11061" lon="4.5817">
        <ele>885.40002441406</ele>
        <time>2021-09-07T10:50:42Z</time>
      </trkpt>
      <trkpt lat="45.11066" lon="4.58134">
        <ele>886.59997558594</ele>
        <time>2021-09-07T10:50:55Z</time>
      </trkpt>
      <trkpt lat="45.11067" lon="4.58123">
        <ele>887.20001220703</ele>
        <time>2021-09-07T10:50:58Z</time>
      </trkpt>
      <trkpt lat="45.11084" lon="4.58072">
        <ele>888.40002441406</ele>
        <time>2021-09-07T10:51:08Z</time>
      </trkpt>
      <trkpt lat="45.11099" lon="4.58035">
        <ele>887</ele>
        <time>2021-09-07T10:51:16Z</time>
      </trkpt>
      <trkpt lat="45.11109" lon="4.58041">
        <ele>886.59997558594</ele>
        <time>2021-09-07T10:51:21Z</time>
      </trkpt>
      <trkpt lat="45.11137" lon="4.58072">
        <ele>884.79998779297</ele>
        <time>2021-09-07T10:51:31Z</time>
      </trkpt>
      <trkpt lat="45.11162" lon="4.58087">
        <ele>884.59997558594</ele>
        <time>2021-09-07T10:51:38Z</time>
      </trkpt>
      <trkpt lat="45.11171" lon="4.5809">
        <ele>885.59997558594</ele>
        <time>2021-09-07T10:51:44Z</time>
      </trkpt>
      <trkpt lat="45.1118" lon="4.5809">
        <ele>886</ele>
        <time>2021-09-07T10:51:50Z</time>
      </trkpt>
      <trkpt lat="45.11205" lon="4.58094">
        <ele>887</ele>
        <time>2021-09-07T10:51:58Z</time>
      </trkpt>
      <trkpt lat="45.11207" lon="4.58095">
        <ele>887</ele>
        <time>2021-09-07T10:51:59Z</time>
      </trkpt>
      <trkpt lat="45.1122" lon="4.581">
        <ele>887.20001220703</ele>
        <time>2021-09-07T10:52:04Z</time>
      </trkpt>
      <trkpt lat="45.11227" lon="4.58105">
        <ele>887.40002441406</ele>
        <time>2021-09-07T10:52:06Z</time>
      </trkpt>
      <trkpt lat="45.11231" lon="4.58106">
        <ele>887.40002441406</ele>
        <time>2021-09-07T10:52:10Z</time>
      </trkpt>
      <trkpt lat="45.11234" lon="4.58104">
        <ele>887.40002441406</ele>
        <time>2021-09-07T10:52:12Z</time>
      </trkpt>
      <trkpt lat="45.11246" lon="4.58111">
        <ele>888</ele>
        <time>2021-09-07T10:52:21Z</time>
      </trkpt>
      <trkpt lat="45.11251" lon="4.58117">
        <ele>888.59997558594</ele>
        <time>2021-09-07T10:52:25Z</time>
      </trkpt>
      <trkpt lat="45.11269" lon="4.5813">
        <ele>889.40002441406</ele>
        <time>2021-09-07T10:52:34Z</time>
      </trkpt>
      <trkpt lat="45.11272" lon="4.58132">
        <ele>889.59997558594</ele>
        <time>2021-09-07T10:52:35Z</time>
      </trkpt>
      <trkpt lat="45.11303" lon="4.58154">
        <ele>890.40002441406</ele>
        <time>2021-09-07T10:52:43Z</time>
      </trkpt>
      <trkpt lat="45.11328" lon="4.58164">
        <ele>890.40002441406</ele>
        <time>2021-09-07T10:52:51Z</time>
      </trkpt>
      <trkpt lat="45.11357" lon="4.5817">
        <ele>891.20001220703</ele>
        <time>2021-09-07T10:52:59Z</time>
      </trkpt>
      <trkpt lat="45.11359" lon="4.58171">
        <ele>891.20001220703</ele>
        <time>2021-09-07T10:53:00Z</time>
      </trkpt>
      <trkpt lat="45.11402" lon="4.5818">
        <ele>893</ele>
        <time>2021-09-07T10:53:09Z</time>
      </trkpt>
      <trkpt lat="45.11406" lon="4.58181">
        <ele>893.20001220703</ele>
        <time>2021-09-07T10:53:10Z</time>
      </trkpt>
      <trkpt lat="45.11423" lon="4.58175">
        <ele>894</ele>
        <time>2021-09-07T10:53:15Z</time>
      </trkpt>
      <trkpt lat="45.11431" lon="4.58174">
        <ele>894.20001220703</ele>
        <time>2021-09-07T10:53:17Z</time>
      </trkpt>
      <trkpt lat="45.11448" lon="4.58182">
        <ele>894.79998779297</ele>
        <time>2021-09-07T10:53:21Z</time>
      </trkpt>
      <trkpt lat="45.11452" lon="4.58185">
        <ele>895</ele>
        <time>2021-09-07T10:53:22Z</time>
      </trkpt>
      <trkpt lat="45.11456" lon="4.58214">
        <ele>895.20001220703</ele>
        <time>2021-09-07T10:53:28Z</time>
      </trkpt>
      <trkpt lat="45.11456" lon="4.58244">
        <ele>894.59997558594</ele>
        <time>2021-09-07T10:53:34Z</time>
      </trkpt>
      <trkpt lat="45.1146" lon="4.58285">
        <ele>894.40002441406</ele>
        <time>2021-09-07T10:53:42Z</time>
      </trkpt>
      <trkpt lat="45.11463" lon="4.58322">
        <ele>894.20001220703</ele>
        <time>2021-09-07T10:53:49Z</time>
      </trkpt>
      <trkpt lat="45.11477" lon="4.58367">
        <ele>893.79998779297</ele>
        <time>2021-09-07T10:53:57Z</time>
      </trkpt>
      <trkpt lat="45.11477" lon="4.58395">
        <ele>892.40002441406</ele>
        <time>2021-09-07T10:54:01Z</time>
      </trkpt>
      <trkpt lat="45.11481" lon="4.58407">
        <ele>891.59997558594</ele>
        <time>2021-09-07T10:54:03Z</time>
      </trkpt>
      <trkpt lat="45.11486" lon="4.5843">
        <ele>890.20001220703</ele>
        <time>2021-09-07T10:54:07Z</time>
      </trkpt>
      <trkpt lat="45.11507" lon="4.58479">
        <ele>888.59997558594</ele>
        <time>2021-09-07T10:54:14Z</time>
      </trkpt>
      <trkpt lat="45.11512" lon="4.58486">
        <ele>887.40002441406</ele>
        <time>2021-09-07T10:54:15Z</time>
      </trkpt>
      <trkpt lat="45.11543" lon="4.58546">
        <ele>884.20001220703</ele>
        <time>2021-09-07T10:54:21Z</time>
      </trkpt>
      <trkpt lat="45.11547" lon="4.58555">
        <ele>883.40002441406</ele>
        <time>2021-09-07T10:54:22Z</time>
      </trkpt>
      <trkpt lat="45.11553" lon="4.58588">
        <ele>882</ele>
        <time>2021-09-07T10:54:26Z</time>
      </trkpt>
      <trkpt lat="45.11554" lon="4.58596">
        <ele>882</ele>
        <time>2021-09-07T10:54:27Z</time>
      </trkpt>
      <trkpt lat="45.11574" lon="4.58652">
        <ele>879.40002441406</ele>
        <time>2021-09-07T10:54:32Z</time>
      </trkpt>
      <trkpt lat="45.11583" lon="4.58675">
        <ele>877.79998779297</ele>
        <time>2021-09-07T10:54:34Z</time>
      </trkpt>
      <trkpt lat="45.11614" lon="4.58718">
        <ele>876.40002441406</ele>
        <time>2021-09-07T10:54:39Z</time>
      </trkpt>
      <trkpt lat="45.11643" lon="4.58761">
        <ele>875.20001220703</ele>
        <time>2021-09-07T10:54:45Z</time>
      </trkpt>
      <trkpt lat="45.11662" lon="4.58774">
        <ele>874.40002441406</ele>
        <time>2021-09-07T10:54:49Z</time>
      </trkpt>
      <trkpt lat="45.11667" lon="4.58774">
        <ele>874.40002441406</ele>
        <time>2021-09-07T10:54:50Z</time>
      </trkpt>
      <trkpt lat="45.11687" lon="4.58789">
        <ele>873.79998779297</ele>
        <time>2021-09-07T10:54:55Z</time>
      </trkpt>
      <trkpt lat="45.1169" lon="4.58794">
        <ele>873.79998779297</ele>
        <time>2021-09-07T10:54:56Z</time>
      </trkpt>
      <trkpt lat="45.11694" lon="4.58806">
        <ele>873.79998779297</ele>
        <time>2021-09-07T10:54:58Z</time>
      </trkpt>
      <trkpt lat="45.11715" lon="4.58877">
        <ele>872.40002441406</ele>
        <time>2021-09-07T10:55:07Z</time>
      </trkpt>
      <trkpt lat="45.11727" lon="4.58906">
        <ele>870.59997558594</ele>
        <time>2021-09-07T10:55:12Z</time>
      </trkpt>
      <trkpt lat="45.11734" lon="4.58947">
        <ele>871.20001220703</ele>
        <time>2021-09-07T10:55:20Z</time>
      </trkpt>
      <trkpt lat="45.11734" lon="4.58974">
        <ele>874.20001220703</ele>
        <time>2021-09-07T10:55:27Z</time>
      </trkpt>
      <trkpt lat="45.11744" lon="4.59001">
        <ele>876.20001220703</ele>
        <time>2021-09-07T10:55:37Z</time>
      </trkpt>
      <trkpt lat="45.11746" lon="4.59006">
        <ele>877</ele>
        <time>2021-09-07T10:55:57Z</time>
      </trkpt>
      <trkpt lat="45.11743" lon="4.58998">
        <ele>876.79998779297</ele>
        <time>2021-09-07T10:56:01Z</time>
      </trkpt>
      <trkpt lat="45.11739" lon="4.58982">
        <ele>876.79998779297</ele>
        <time>2021-09-07T10:56:06Z</time>
      </trkpt>
      <trkpt lat="45.11726" lon="4.58991">
        <ele>875.40002441406</ele>
        <time>2021-09-07T10:56:13Z</time>
      </trkpt>
      <trkpt lat="45.11721" lon="4.59002">
        <ele>874.79998779297</ele>
        <time>2021-09-07T10:56:16Z</time>
      </trkpt>
      <trkpt lat="45.1171" lon="4.59039">
        <ele>873.59997558594</ele>
        <time>2021-09-07T10:56:23Z</time>
      </trkpt>
      <trkpt lat="45.11702" lon="4.59073">
        <ele>872.79998779297</ele>
        <time>2021-09-07T10:56:27Z</time>
      </trkpt>
      <trkpt lat="45.11709" lon="4.59147">
        <ele>870.59997558594</ele>
        <time>2021-09-07T10:56:34Z</time>
      </trkpt>
      <trkpt lat="45.11713" lon="4.5916">
        <ele>870</ele>
        <time>2021-09-07T10:56:36Z</time>
      </trkpt>
      <trkpt lat="45.11728" lon="4.59189">
        <ele>868.59997558594</ele>
        <time>2021-09-07T10:56:40Z</time>
      </trkpt>
      <trkpt lat="45.11759" lon="4.59225">
        <ele>868</ele>
        <time>2021-09-07T10:56:48Z</time>
      </trkpt>
      <trkpt lat="45.11785" lon="4.59258">
        <ele>867.79998779297</ele>
        <time>2021-09-07T10:56:55Z</time>
      </trkpt>
      <trkpt lat="45.11791" lon="4.59268">
        <ele>867.59997558594</ele>
        <time>2021-09-07T10:56:57Z</time>
      </trkpt>
      <trkpt lat="45.11811" lon="4.59315">
        <ele>867.20001220703</ele>
        <time>2021-09-07T10:57:06Z</time>
      </trkpt>
      <trkpt lat="45.11816" lon="4.59333">
        <ele>866.40002441406</ele>
        <time>2021-09-07T10:57:09Z</time>
      </trkpt>
      <trkpt lat="45.11821" lon="4.59373">
        <ele>866</ele>
        <time>2021-09-07T10:57:15Z</time>
      </trkpt>
      <trkpt lat="45.11835" lon="4.59432">
        <ele>865.40002441406</ele>
        <time>2021-09-07T10:57:23Z</time>
      </trkpt>
      <trkpt lat="45.11851" lon="4.59486">
        <ele>865.40002441406</ele>
        <time>2021-09-07T10:57:30Z</time>
      </trkpt>
      <trkpt lat="45.11858" lon="4.59507">
        <ele>865.40002441406</ele>
        <time>2021-09-07T10:57:32Z</time>
      </trkpt>
      <trkpt lat="45.11868" lon="4.59542">
        <ele>865</ele>
        <time>2021-09-07T10:57:40Z</time>
      </trkpt>
      <trkpt lat="45.1187" lon="4.5958">
        <ele>865</ele>
        <time>2021-09-07T10:57:46Z</time>
      </trkpt>
      <trkpt lat="45.11869" lon="4.59589">
        <ele>865</ele>
        <time>2021-09-07T10:57:47Z</time>
      </trkpt>
      <trkpt lat="45.11871" lon="4.59607">
        <ele>865</ele>
        <time>2021-09-07T10:57:50Z</time>
      </trkpt>
      <trkpt lat="45.11867" lon="4.5963">
        <ele>864.59997558594</ele>
        <time>2021-09-07T10:57:54Z</time>
      </trkpt>
      <trkpt lat="45.11866" lon="4.5964">
        <ele>864.20001220703</ele>
        <time>2021-09-07T10:57:56Z</time>
      </trkpt>
      <trkpt lat="45.11843" lon="4.59686">
        <ele>864</ele>
        <time>2021-09-07T10:58:03Z</time>
      </trkpt>
      <trkpt lat="45.11831" lon="4.59739">
        <ele>863.79998779297</ele>
        <time>2021-09-07T10:58:08Z</time>
      </trkpt>
      <trkpt lat="45.1183" lon="4.59774">
        <ele>863.20001220703</ele>
        <time>2021-09-07T10:58:13Z</time>
      </trkpt>
      <trkpt lat="45.11819" lon="4.59825">
        <ele>862</ele>
        <time>2021-09-07T10:58:19Z</time>
      </trkpt>
      <trkpt lat="45.11814" lon="4.59859">
        <ele>861.79998779297</ele>
        <time>2021-09-07T10:58:24Z</time>
      </trkpt>
      <trkpt lat="45.1182" lon="4.59879">
        <ele>861.40002441406</ele>
        <time>2021-09-07T10:58:27Z</time>
      </trkpt>
      <trkpt lat="45.11825" lon="4.59906">
        <ele>861.20001220703</ele>
        <time>2021-09-07T10:58:31Z</time>
      </trkpt>
      <trkpt lat="45.11847" lon="4.59973">
        <ele>861</ele>
        <time>2021-09-07T10:58:42Z</time>
      </trkpt>
      <trkpt lat="45.11851" lon="4.59986">
        <ele>861.20001220703</ele>
        <time>2021-09-07T10:58:44Z</time>
      </trkpt>
      <trkpt lat="45.11858" lon="4.60011">
        <ele>861.40002441406</ele>
        <time>2021-09-07T10:58:48Z</time>
      </trkpt>
      <trkpt lat="45.1187" lon="4.60033">
        <ele>861</ele>
        <time>2021-09-07T10:58:52Z</time>
      </trkpt>
      <trkpt lat="45.11875" lon="4.6008">
        <ele>859.79998779297</ele>
        <time>2021-09-07T10:58:59Z</time>
      </trkpt>
      <trkpt lat="45.11877" lon="4.60106">
        <ele>859.59997558594</ele>
        <time>2021-09-07T10:59:02Z</time>
      </trkpt>
      <trkpt lat="45.11877" lon="4.60135">
        <ele>858.79998779297</ele>
        <time>2021-09-07T10:59:06Z</time>
      </trkpt>
      <trkpt lat="45.11879" lon="4.60143">
        <ele>858.59997558594</ele>
        <time>2021-09-07T10:59:07Z</time>
      </trkpt>
      <trkpt lat="45.11886" lon="4.60187">
        <ele>855.79998779297</ele>
        <time>2021-09-07T10:59:12Z</time>
      </trkpt>
      <trkpt lat="45.11886" lon="4.60196">
        <ele>855.59997558594</ele>
        <time>2021-09-07T10:59:13Z</time>
      </trkpt>
      <trkpt lat="45.1189" lon="4.60231">
        <ele>854.59997558594</ele>
        <time>2021-09-07T10:59:17Z</time>
      </trkpt>
      <trkpt lat="45.11894" lon="4.60263">
        <ele>854.59997558594</ele>
        <time>2021-09-07T10:59:20Z</time>
      </trkpt>
      <trkpt lat="45.11889" lon="4.60278">
        <ele>854.59997558594</ele>
        <time>2021-09-07T10:59:22Z</time>
      </trkpt>
      <trkpt lat="45.11857" lon="4.6034">
        <ele>854.20001220703</ele>
        <time>2021-09-07T10:59:30Z</time>
      </trkpt>
      <trkpt lat="45.1184" lon="4.60361">
        <ele>853</ele>
        <time>2021-09-07T10:59:33Z</time>
      </trkpt>
      <trkpt lat="45.1183" lon="4.60377">
        <ele>852.40002441406</ele>
        <time>2021-09-07T10:59:35Z</time>
      </trkpt>
      <trkpt lat="45.1181" lon="4.60422">
        <ele>850</ele>
        <time>2021-09-07T10:59:40Z</time>
      </trkpt>
      <trkpt lat="45.11805" lon="4.6043">
        <ele>849.79998779297</ele>
        <time>2021-09-07T10:59:41Z</time>
      </trkpt>
      <trkpt lat="45.11788" lon="4.60483">
        <ele>846.59997558594</ele>
        <time>2021-09-07T10:59:47Z</time>
      </trkpt>
      <trkpt lat="45.11804" lon="4.60503">
        <ele>845</ele>
        <time>2021-09-07T10:59:51Z</time>
      </trkpt>
      <trkpt lat="45.11809" lon="4.60505">
        <ele>844.79998779297</ele>
        <time>2021-09-07T10:59:52Z</time>
      </trkpt>
      <trkpt lat="45.11856" lon="4.60548">
        <ele>842.40002441406</ele>
        <time>2021-09-07T11:00:01Z</time>
      </trkpt>
      <trkpt lat="45.11871" lon="4.60562">
        <ele>841.20001220703</ele>
        <time>2021-09-07T11:00:03Z</time>
      </trkpt>
      <trkpt lat="45.11915" lon="4.60577">
        <ele>839.79998779297</ele>
        <time>2021-09-07T11:00:10Z</time>
      </trkpt>
      <trkpt lat="45.11919" lon="4.60577">
        <ele>839.79998779297</ele>
        <time>2021-09-07T11:00:11Z</time>
      </trkpt>
      <trkpt lat="45.11953" lon="4.60586">
        <ele>838.79998779297</ele>
        <time>2021-09-07T11:00:16Z</time>
      </trkpt>
      <trkpt lat="45.11978" lon="4.60616">
        <ele>836</ele>
        <time>2021-09-07T11:00:22Z</time>
      </trkpt>
      <trkpt lat="45.11979" lon="4.60621">
        <ele>835.40002441406</ele>
        <time>2021-09-07T11:00:23Z</time>
      </trkpt>
      <trkpt lat="45.11985" lon="4.60657">
        <ele>832.59997558594</ele>
        <time>2021-09-07T11:00:27Z</time>
      </trkpt>
      <trkpt lat="45.11999" lon="4.60745">
        <ele>829.40002441406</ele>
        <time>2021-09-07T11:00:36Z</time>
      </trkpt>
      <trkpt lat="45.12001" lon="4.60753">
        <ele>828.79998779297</ele>
        <time>2021-09-07T11:00:37Z</time>
      </trkpt>
      <trkpt lat="45.12006" lon="4.60788">
        <ele>826.20001220703</ele>
        <time>2021-09-07T11:00:41Z</time>
      </trkpt>
      <trkpt lat="45.12001" lon="4.60807">
        <ele>825.40002441406</ele>
        <time>2021-09-07T11:00:43Z</time>
      </trkpt>
      <trkpt lat="45.11956" lon="4.60842">
        <ele>823.79998779297</ele>
        <time>2021-09-07T11:00:50Z</time>
      </trkpt>
      <trkpt lat="45.11951" lon="4.60851">
        <ele>823.40002441406</ele>
        <time>2021-09-07T11:00:51Z</time>
      </trkpt>
      <trkpt lat="45.1194" lon="4.60867">
        <ele>822.79998779297</ele>
        <time>2021-09-07T11:00:53Z</time>
      </trkpt>
      <trkpt lat="45.11927" lon="4.60903">
        <ele>821</ele>
        <time>2021-09-07T11:00:57Z</time>
      </trkpt>
      <trkpt lat="45.11919" lon="4.60918">
        <ele>820</ele>
        <time>2021-09-07T11:00:59Z</time>
      </trkpt>
      <trkpt lat="45.11908" lon="4.60961">
        <ele>817.79998779297</ele>
        <time>2021-09-07T11:01:04Z</time>
      </trkpt>
      <trkpt lat="45.11907" lon="4.60972">
        <ele>817.59997558594</ele>
        <time>2021-09-07T11:01:05Z</time>
      </trkpt>
      <trkpt lat="45.11906" lon="4.60985">
        <ele>817</ele>
        <time>2021-09-07T11:01:06Z</time>
      </trkpt>
      <trkpt lat="45.11903" lon="4.61021">
        <ele>815.79998779297</ele>
        <time>2021-09-07T11:01:10Z</time>
      </trkpt>
      <trkpt lat="45.11915" lon="4.61048">
        <ele>814.59997558594</ele>
        <time>2021-09-07T11:01:14Z</time>
      </trkpt>
      <trkpt lat="45.11918" lon="4.61053">
        <ele>814.40002441406</ele>
        <time>2021-09-07T11:01:15Z</time>
      </trkpt>
      <trkpt lat="45.11925" lon="4.61063">
        <ele>813.20001220703</ele>
        <time>2021-09-07T11:01:17Z</time>
      </trkpt>
      <trkpt lat="45.11934" lon="4.61077">
        <ele>812.40002441406</ele>
        <time>2021-09-07T11:01:20Z</time>
      </trkpt>
      <trkpt lat="45.11971" lon="4.61125">
        <ele>811</ele>
        <time>2021-09-07T11:01:29Z</time>
      </trkpt>
      <trkpt lat="45.1198" lon="4.61142">
        <ele>810.59997558594</ele>
        <time>2021-09-07T11:01:31Z</time>
      </trkpt>
      <trkpt lat="45.11991" lon="4.61156">
        <ele>810.40002441406</ele>
        <time>2021-09-07T11:01:33Z</time>
      </trkpt>
      <trkpt lat="45.12019" lon="4.61182">
        <ele>809.20001220703</ele>
        <time>2021-09-07T11:01:39Z</time>
      </trkpt>
      <trkpt lat="45.12048" lon="4.61201">
        <ele>808.59997558594</ele>
        <time>2021-09-07T11:01:47Z</time>
      </trkpt>
      <trkpt lat="45.12054" lon="4.61201">
        <ele>808.40002441406</ele>
        <time>2021-09-07T11:01:48Z</time>
      </trkpt>
      <trkpt lat="45.12104" lon="4.61218">
        <ele>808.59997558594</ele>
        <time>2021-09-07T11:01:55Z</time>
      </trkpt>
      <trkpt lat="45.12118" lon="4.61222">
        <ele>808.40002441406</ele>
        <time>2021-09-07T11:01:58Z</time>
      </trkpt>
      <trkpt lat="45.12138" lon="4.61221">
        <ele>808.20001220703</ele>
        <time>2021-09-07T11:02:03Z</time>
      </trkpt>
      <trkpt lat="45.1215" lon="4.61226">
        <ele>808.40002441406</ele>
        <time>2021-09-07T11:02:06Z</time>
      </trkpt>
      <trkpt lat="45.1216" lon="4.61226">
        <ele>808.59997558594</ele>
        <time>2021-09-07T11:02:08Z</time>
      </trkpt>
      <trkpt lat="45.12182" lon="4.6122">
        <ele>808.79998779297</ele>
        <time>2021-09-07T11:02:12Z</time>
      </trkpt>
      <trkpt lat="45.12191" lon="4.61216">
        <ele>808.79998779297</ele>
        <time>2021-09-07T11:02:14Z</time>
      </trkpt>
      <trkpt lat="45.12199" lon="4.6121">
        <ele>808.59997558594</ele>
        <time>2021-09-07T11:02:16Z</time>
      </trkpt>
      <trkpt lat="45.12227" lon="4.61236">
        <ele>806.79998779297</ele>
        <time>2021-09-07T11:02:22Z</time>
      </trkpt>
      <trkpt lat="45.1224" lon="4.61276">
        <ele>805.59997558594</ele>
        <time>2021-09-07T11:02:27Z</time>
      </trkpt>
      <trkpt lat="45.12247" lon="4.61297">
        <ele>804.79998779297</ele>
        <time>2021-09-07T11:02:30Z</time>
      </trkpt>
      <trkpt lat="45.12257" lon="4.61343">
        <ele>802.59997558594</ele>
        <time>2021-09-07T11:02:36Z</time>
      </trkpt>
      <trkpt lat="45.12259" lon="4.61349">
        <ele>802.40002441406</ele>
        <time>2021-09-07T11:02:37Z</time>
      </trkpt>
      <trkpt lat="45.12268" lon="4.61424">
        <ele>800.40002441406</ele>
        <time>2021-09-07T11:02:47Z</time>
      </trkpt>
      <trkpt lat="45.12277" lon="4.61464">
        <ele>797.40002441406</ele>
        <time>2021-09-07T11:02:53Z</time>
      </trkpt>
      <trkpt lat="45.12273" lon="4.61497">
        <ele>794.40002441406</ele>
        <time>2021-09-07T11:02:57Z</time>
      </trkpt>
      <trkpt lat="45.12272" lon="4.61516">
        <ele>793.20001220703</ele>
        <time>2021-09-07T11:02:59Z</time>
      </trkpt>
      <trkpt lat="45.12266" lon="4.61546">
        <ele>791</ele>
        <time>2021-09-07T11:03:02Z</time>
      </trkpt>
      <trkpt lat="45.12246" lon="4.61566">
        <ele>789.40002441406</ele>
        <time>2021-09-07T11:03:05Z</time>
      </trkpt>
      <trkpt lat="45.12223" lon="4.61592">
        <ele>788.59997558594</ele>
        <time>2021-09-07T11:03:09Z</time>
      </trkpt>
      <trkpt lat="45.12196" lon="4.61643">
        <ele>786.20001220703</ele>
        <time>2021-09-07T11:03:16Z</time>
      </trkpt>
      <trkpt lat="45.1218" lon="4.61663">
        <ele>785.20001220703</ele>
        <time>2021-09-07T11:03:19Z</time>
      </trkpt>
      <trkpt lat="45.12139" lon="4.61714">
        <ele>782.59997558594</ele>
        <time>2021-09-07T11:03:27Z</time>
      </trkpt>
      <trkpt lat="45.12127" lon="4.61734">
        <ele>781</ele>
        <time>2021-09-07T11:03:30Z</time>
      </trkpt>
      <trkpt lat="45.12123" lon="4.61738">
        <ele>780.59997558594</ele>
        <time>2021-09-07T11:03:31Z</time>
      </trkpt>
      <trkpt lat="45.12104" lon="4.61775">
        <ele>779.20001220703</ele>
        <time>2021-09-07T11:03:37Z</time>
      </trkpt>
      <trkpt lat="45.12104" lon="4.61782">
        <ele>779.20001220703</ele>
        <time>2021-09-07T11:03:38Z</time>
      </trkpt>
      <trkpt lat="45.12105" lon="4.61798">
        <ele>778.79998779297</ele>
        <time>2021-09-07T11:03:40Z</time>
      </trkpt>
      <trkpt lat="45.12108" lon="4.61828">
        <ele>777.79998779297</ele>
        <time>2021-09-07T11:03:44Z</time>
      </trkpt>
      <trkpt lat="45.12123" lon="4.61881">
        <ele>775</ele>
        <time>2021-09-07T11:03:52Z</time>
      </trkpt>
      <trkpt lat="45.12134" lon="4.61897">
        <ele>774.20001220703</ele>
        <time>2021-09-07T11:03:55Z</time>
      </trkpt>
      <trkpt lat="45.1215" lon="4.61908">
        <ele>773.59997558594</ele>
        <time>2021-09-07T11:03:59Z</time>
      </trkpt>
      <trkpt lat="45.12173" lon="4.61922">
        <ele>773.59997558594</ele>
        <time>2021-09-07T11:04:07Z</time>
      </trkpt>
      <trkpt lat="45.12184" lon="4.61933">
        <ele>774.40002441406</ele>
        <time>2021-09-07T11:04:11Z</time>
      </trkpt>
      <trkpt lat="45.12192" lon="4.61958">
        <ele>776.20001220703</ele>
        <time>2021-09-07T11:04:18Z</time>
      </trkpt>
      <trkpt lat="45.12192" lon="4.61966">
        <ele>777.20001220703</ele>
        <time>2021-09-07T11:04:24Z</time>
      </trkpt>
      <trkpt lat="45.12185" lon="4.61996">
        <ele>778.59997558594</ele>
        <time>2021-09-07T11:04:35Z</time>
      </trkpt>
      <trkpt lat="45.12185" lon="4.62">
        <ele>779.20001220703</ele>
        <time>2021-09-07T11:04:39Z</time>
      </trkpt>
      <trkpt lat="45.12178" lon="4.62018">
        <ele>779.79998779297</ele>
        <time>2021-09-07T11:04:45Z</time>
      </trkpt>
      <trkpt lat="45.12178" lon="4.62019">
        <ele>780</ele>
        <time>2021-09-07T11:04:46Z</time>
      </trkpt>
      <trkpt lat="45.12174" lon="4.62032">
        <ele>780.59997558594</ele>
        <time>2021-09-07T11:04:50Z</time>
      </trkpt>
      <trkpt lat="45.12174" lon="4.62041">
        <ele>781.40002441406</ele>
        <time>2021-09-07T11:04:54Z</time>
      </trkpt>
      <trkpt lat="45.1218" lon="4.62066">
        <ele>782.79998779297</ele>
        <time>2021-09-07T11:05:01Z</time>
      </trkpt>
      <trkpt lat="45.12181" lon="4.62077">
        <ele>783.40002441406</ele>
        <time>2021-09-07T11:05:05Z</time>
      </trkpt>
      <trkpt lat="45.12176" lon="4.62093">
        <ele>784</ele>
        <time>2021-09-07T11:05:10Z</time>
      </trkpt>
      <trkpt lat="45.12176" lon="4.62123">
        <ele>785.20001220703</ele>
        <time>2021-09-07T11:05:16Z</time>
      </trkpt>
      <trkpt lat="45.12173" lon="4.62159">
        <ele>786</ele>
        <time>2021-09-07T11:05:23Z</time>
      </trkpt>
      <trkpt lat="45.12172" lon="4.62184">
        <ele>786.40002441406</ele>
        <time>2021-09-07T11:05:29Z</time>
      </trkpt>
      <trkpt lat="45.12172" lon="4.62189">
        <ele>786.59997558594</ele>
        <time>2021-09-07T11:05:30Z</time>
      </trkpt>
      <trkpt lat="45.12175" lon="4.62202">
        <ele>786.59997558594</ele>
        <time>2021-09-07T11:05:32Z</time>
      </trkpt>
      <trkpt lat="45.12167" lon="4.62234">
        <ele>787.20001220703</ele>
        <time>2021-09-07T11:05:39Z</time>
      </trkpt>
      <trkpt lat="45.12151" lon="4.6227">
        <ele>787.20001220703</ele>
        <time>2021-09-07T11:05:48Z</time>
      </trkpt>
      <trkpt lat="45.12137" lon="4.62268">
        <ele>787.20001220703</ele>
        <time>2021-09-07T11:05:51Z</time>
      </trkpt>
      <trkpt lat="45.1213" lon="4.62266">
        <ele>787.40002441406</ele>
        <time>2021-09-07T11:05:53Z</time>
      </trkpt>
      <trkpt lat="45.12089" lon="4.62254">
        <ele>787.59997558594</ele>
        <time>2021-09-07T11:06:05Z</time>
      </trkpt>
      <trkpt lat="45.12064" lon="4.62239">
        <ele>786.59997558594</ele>
        <time>2021-09-07T11:06:11Z</time>
      </trkpt>
      <trkpt lat="45.12047" lon="4.62227">
        <ele>784.40002441406</ele>
        <time>2021-09-07T11:06:15Z</time>
      </trkpt>
      <trkpt lat="45.12043" lon="4.62224">
        <ele>783.59997558594</ele>
        <time>2021-09-07T11:06:16Z</time>
      </trkpt>
      <trkpt lat="45.12032" lon="4.62209">
        <ele>783.40002441406</ele>
        <time>2021-09-07T11:06:18Z</time>
      </trkpt>
      <trkpt lat="45.12022" lon="4.62196">
        <ele>783</ele>
        <time>2021-09-07T11:06:22Z</time>
      </trkpt>
      <trkpt lat="45.12015" lon="4.62191">
        <ele>783</ele>
        <time>2021-09-07T11:06:23Z</time>
      </trkpt>
      <trkpt lat="45.11978" lon="4.62165">
        <ele>781.40002441406</ele>
        <time>2021-09-07T11:06:31Z</time>
      </trkpt>
      <trkpt lat="45.11943" lon="4.62149">
        <ele>779.20001220703</ele>
        <time>2021-09-07T11:06:36Z</time>
      </trkpt>
      <trkpt lat="45.11898" lon="4.62135">
        <ele>776.59997558594</ele>
        <time>2021-09-07T11:06:42Z</time>
      </trkpt>
      <trkpt lat="45.11888" lon="4.62132">
        <ele>774.40002441406</ele>
        <time>2021-09-07T11:06:44Z</time>
      </trkpt>
      <trkpt lat="45.11882" lon="4.6213">
        <ele>774.20001220703</ele>
        <time>2021-09-07T11:06:45Z</time>
      </trkpt>
      <trkpt lat="45.11868" lon="4.62118">
        <ele>771.79998779297</ele>
        <time>2021-09-07T11:06:49Z</time>
      </trkpt>
      <trkpt lat="45.11865" lon="4.62117">
        <ele>771.40002441406</ele>
        <time>2021-09-07T11:06:50Z</time>
      </trkpt>
      <trkpt lat="45.11854" lon="4.62103">
        <ele>770.20001220703</ele>
        <time>2021-09-07T11:06:55Z</time>
      </trkpt>
      <trkpt lat="45.11832" lon="4.62065">
        <ele>769.59997558594</ele>
        <time>2021-09-07T11:07:06Z</time>
      </trkpt>
      <trkpt lat="45.11825" lon="4.62057">
        <ele>769.59997558594</ele>
        <time>2021-09-07T11:07:09Z</time>
      </trkpt>
      <trkpt lat="45.11801" lon="4.62046">
        <ele>769.40002441406</ele>
        <time>2021-09-07T11:07:15Z</time>
      </trkpt>
      <trkpt lat="45.11795" lon="4.62044">
        <ele>769.40002441406</ele>
        <time>2021-09-07T11:07:16Z</time>
      </trkpt>
      <trkpt lat="45.11773" lon="4.62038">
        <ele>769.20001220703</ele>
        <time>2021-09-07T11:07:21Z</time>
      </trkpt>
      <trkpt lat="45.11752" lon="4.62051">
        <ele>768.79998779297</ele>
        <time>2021-09-07T11:07:29Z</time>
      </trkpt>
      <trkpt lat="45.11731" lon="4.62072">
        <ele>769</ele>
        <time>2021-09-07T11:07:39Z</time>
      </trkpt>
      <trkpt lat="45.11717" lon="4.62102">
        <ele>770.20001220703</ele>
        <time>2021-09-07T11:07:49Z</time>
      </trkpt>
      <trkpt lat="45.11714" lon="4.62115">
        <ele>771</ele>
        <time>2021-09-07T11:07:52Z</time>
      </trkpt>
      <trkpt lat="45.11707" lon="4.62135">
        <ele>772.20001220703</ele>
        <time>2021-09-07T11:07:59Z</time>
      </trkpt>
      <trkpt lat="45.11701" lon="4.62156">
        <ele>773.59997558594</ele>
        <time>2021-09-07T11:08:04Z</time>
      </trkpt>
      <trkpt lat="45.11697" lon="4.62172">
        <ele>774.40002441406</ele>
        <time>2021-09-07T11:08:10Z</time>
      </trkpt>
      <trkpt lat="45.11697" lon="4.62174">
        <ele>774.59997558594</ele>
        <time>2021-09-07T11:08:11Z</time>
      </trkpt>
      <trkpt lat="45.11697" lon="4.62179">
        <ele>774.59997558594</ele>
        <time>2021-09-07T11:08:12Z</time>
      </trkpt>
      <trkpt lat="45.11697" lon="4.62207">
        <ele>775.79998779297</ele>
        <time>2021-09-07T11:08:18Z</time>
      </trkpt>
      <trkpt lat="45.11698" lon="4.62212">
        <ele>775.79998779297</ele>
        <time>2021-09-07T11:08:19Z</time>
      </trkpt>
      <trkpt lat="45.117" lon="4.62234">
        <ele>776.40002441406</ele>
        <time>2021-09-07T11:08:26Z</time>
      </trkpt>
      <trkpt lat="45.11711" lon="4.62252">
        <ele>777.40002441406</ele>
        <time>2021-09-07T11:08:34Z</time>
      </trkpt>
      <trkpt lat="45.11713" lon="4.62255">
        <ele>777.40002441406</ele>
        <time>2021-09-07T11:08:35Z</time>
      </trkpt>
      <trkpt lat="45.11717" lon="4.62263">
        <ele>778</ele>
        <time>2021-09-07T11:08:39Z</time>
      </trkpt>
      <trkpt lat="45.11723" lon="4.62267">
        <ele>778.59997558594</ele>
        <time>2021-09-07T11:08:42Z</time>
      </trkpt>
      <trkpt lat="45.1174" lon="4.6228">
        <ele>779.59997558594</ele>
        <time>2021-09-07T11:08:49Z</time>
      </trkpt>
      <trkpt lat="45.11744" lon="4.62284">
        <ele>779.79998779297</ele>
        <time>2021-09-07T11:08:51Z</time>
      </trkpt>
      <trkpt lat="45.11753" lon="4.62293">
        <ele>780.20001220703</ele>
        <time>2021-09-07T11:08:56Z</time>
      </trkpt>
      <trkpt lat="45.11767" lon="4.62324">
        <ele>780.40002441406</ele>
        <time>2021-09-07T11:09:04Z</time>
      </trkpt>
      <trkpt lat="45.11769" lon="4.62327">
        <ele>780.40002441406</ele>
        <time>2021-09-07T11:09:05Z</time>
      </trkpt>
      <trkpt lat="45.11776" lon="4.62355">
        <ele>780.40002441406</ele>
        <time>2021-09-07T11:09:12Z</time>
      </trkpt>
      <trkpt lat="45.1178" lon="4.62407">
        <ele>779.79998779297</ele>
        <time>2021-09-07T11:09:22Z</time>
      </trkpt>
      <trkpt lat="45.11781" lon="4.62442">
        <ele>779.79998779297</ele>
        <time>2021-09-07T11:09:28Z</time>
      </trkpt>
      <trkpt lat="45.11783" lon="4.62529">
        <ele>780</ele>
        <time>2021-09-07T11:09:42Z</time>
      </trkpt>
      <trkpt lat="45.11785" lon="4.62541">
        <ele>780</ele>
        <time>2021-09-07T11:09:44Z</time>
      </trkpt>
      <trkpt lat="45.11794" lon="4.6257">
        <ele>780</ele>
        <time>2021-09-07T11:09:49Z</time>
      </trkpt>
      <trkpt lat="45.11808" lon="4.62626">
        <ele>779.79998779297</ele>
        <time>2021-09-07T11:10:00Z</time>
      </trkpt>
      <trkpt lat="45.11811" lon="4.62635">
        <ele>779.79998779297</ele>
        <time>2021-09-07T11:10:02Z</time>
      </trkpt>
      <trkpt lat="45.11813" lon="4.6267">
        <ele>780</ele>
        <time>2021-09-07T11:10:07Z</time>
      </trkpt>
      <trkpt lat="45.11805" lon="4.6273">
        <ele>780.40002441406</ele>
        <time>2021-09-07T11:10:15Z</time>
      </trkpt>
      <trkpt lat="45.11807" lon="4.62755">
        <ele>780.40002441406</ele>
        <time>2021-09-07T11:10:19Z</time>
      </trkpt>
      <trkpt lat="45.11806" lon="4.62806">
        <ele>780.40002441406</ele>
        <time>2021-09-07T11:10:27Z</time>
      </trkpt>
      <trkpt lat="45.11798" lon="4.62837">
        <ele>779.40002441406</ele>
        <time>2021-09-07T11:10:31Z</time>
      </trkpt>
      <trkpt lat="45.11788" lon="4.62878">
        <ele>778</ele>
        <time>2021-09-07T11:10:36Z</time>
      </trkpt>
      <trkpt lat="45.11786" lon="4.62887">
        <ele>777</ele>
        <time>2021-09-07T11:10:37Z</time>
      </trkpt>
      <trkpt lat="45.11785" lon="4.62924">
        <ele>774.40002441406</ele>
        <time>2021-09-07T11:10:41Z</time>
      </trkpt>
      <trkpt lat="45.11794" lon="4.62969">
        <ele>771.20001220703</ele>
        <time>2021-09-07T11:10:46Z</time>
      </trkpt>
      <trkpt lat="45.11798" lon="4.62985">
        <ele>770</ele>
        <time>2021-09-07T11:10:48Z</time>
      </trkpt>
      <trkpt lat="45.11825" lon="4.63037">
        <ele>766.79998779297</ele>
        <time>2021-09-07T11:10:54Z</time>
      </trkpt>
      <trkpt lat="45.11852" lon="4.63073">
        <ele>764.79998779297</ele>
        <time>2021-09-07T11:10:59Z</time>
      </trkpt>
      <trkpt lat="45.11889" lon="4.63086">
        <ele>762.59997558594</ele>
        <time>2021-09-07T11:11:04Z</time>
      </trkpt>
      <trkpt lat="45.11914" lon="4.63085">
        <ele>761.40002441406</ele>
        <time>2021-09-07T11:11:08Z</time>
      </trkpt>
      <trkpt lat="45.11952" lon="4.6307">
        <ele>759</ele>
        <time>2021-09-07T11:11:14Z</time>
      </trkpt>
      <trkpt lat="45.11992" lon="4.63044">
        <ele>757.20001220703</ele>
        <time>2021-09-07T11:11:19Z</time>
      </trkpt>
      <trkpt lat="45.11999" lon="4.63034">
        <ele>757.20001220703</ele>
        <time>2021-09-07T11:11:20Z</time>
      </trkpt>
      <trkpt lat="45.12014" lon="4.63007">
        <ele>754</ele>
        <time>2021-09-07T11:11:23Z</time>
      </trkpt>
      <trkpt lat="45.12027" lon="4.62985">
        <ele>751.79998779297</ele>
        <time>2021-09-07T11:11:26Z</time>
      </trkpt>
      <trkpt lat="45.12032" lon="4.62976">
        <ele>751.59997558594</ele>
        <time>2021-09-07T11:11:27Z</time>
      </trkpt>
      <trkpt lat="45.12039" lon="4.62962">
        <ele>751.40002441406</ele>
        <time>2021-09-07T11:11:29Z</time>
      </trkpt>
      <trkpt lat="45.12046" lon="4.62932">
        <ele>750.59997558594</ele>
        <time>2021-09-07T11:11:32Z</time>
      </trkpt>
      <trkpt lat="45.12052" lon="4.62917">
        <ele>749.79998779297</ele>
        <time>2021-09-07T11:11:34Z</time>
      </trkpt>
      <trkpt lat="45.12057" lon="4.62904">
        <ele>749.20001220703</ele>
        <time>2021-09-07T11:11:35Z</time>
      </trkpt>
      <trkpt lat="45.12054" lon="4.62867">
        <ele>748.40002441406</ele>
        <time>2021-09-07T11:11:38Z</time>
      </trkpt>
      <trkpt lat="45.12053" lon="4.62822">
        <ele>746.40002441406</ele>
        <time>2021-09-07T11:11:43Z</time>
      </trkpt>
      <trkpt lat="45.1206" lon="4.62826">
        <ele>745</ele>
        <time>2021-09-07T11:11:46Z</time>
      </trkpt>
      <trkpt lat="45.12061" lon="4.6283">
        <ele>744.79998779297</ele>
        <time>2021-09-07T11:11:47Z</time>
      </trkpt>
      <trkpt lat="45.1206" lon="4.62858">
        <ele>742.79998779297</ele>
        <time>2021-09-07T11:11:53Z</time>
      </trkpt>
      <trkpt lat="45.12064" lon="4.62867">
        <ele>742.59997558594</ele>
        <time>2021-09-07T11:11:54Z</time>
      </trkpt>
      <trkpt lat="45.12067" lon="4.62875">
        <ele>742.20001220703</ele>
        <time>2021-09-07T11:11:55Z</time>
      </trkpt>
      <trkpt lat="45.12076" lon="4.62923">
        <ele>739.79998779297</ele>
        <time>2021-09-07T11:12:01Z</time>
      </trkpt>
      <trkpt lat="45.12076" lon="4.62933">
        <ele>738.79998779297</ele>
        <time>2021-09-07T11:12:02Z</time>
      </trkpt>
      <trkpt lat="45.12076" lon="4.62942">
        <ele>738.59997558594</ele>
        <time>2021-09-07T11:12:03Z</time>
      </trkpt>
      <trkpt lat="45.1208" lon="4.62962">
        <ele>737.40002441406</ele>
        <time>2021-09-07T11:12:05Z</time>
      </trkpt>
      <trkpt lat="45.12086" lon="4.62986">
        <ele>736.20001220703</ele>
        <time>2021-09-07T11:12:07Z</time>
      </trkpt>
      <trkpt lat="45.12087" lon="4.62996">
        <ele>736</ele>
        <time>2021-09-07T11:12:08Z</time>
      </trkpt>
      <trkpt lat="45.1209" lon="4.63021">
        <ele>735.20001220703</ele>
        <time>2021-09-07T11:12:10Z</time>
      </trkpt>
      <trkpt lat="45.12084" lon="4.63083">
        <ele>733.79998779297</ele>
        <time>2021-09-07T11:12:15Z</time>
      </trkpt>
      <trkpt lat="45.12083" lon="4.63091">
        <ele>732</ele>
        <time>2021-09-07T11:12:16Z</time>
      </trkpt>
      <trkpt lat="45.12082" lon="4.63122">
        <ele>730.40002441406</ele>
        <time>2021-09-07T11:12:19Z</time>
      </trkpt>
      <trkpt lat="45.1208" lon="4.63138">
        <ele>727</ele>
        <time>2021-09-07T11:12:23Z</time>
      </trkpt>
      <trkpt lat="45.12084" lon="4.63135">
        <ele>725.20001220703</ele>
        <time>2021-09-07T11:12:26Z</time>
      </trkpt>
      <trkpt lat="45.12089" lon="4.63118">
        <ele>724.20001220703</ele>
        <time>2021-09-07T11:12:32Z</time>
      </trkpt>
      <trkpt lat="45.12094" lon="4.63093">
        <ele>724.20001220703</ele>
        <time>2021-09-07T11:12:38Z</time>
      </trkpt>
      <trkpt lat="45.12113" lon="4.63046">
        <ele>723.40002441406</ele>
        <time>2021-09-07T11:12:47Z</time>
      </trkpt>
      <trkpt lat="45.12115" lon="4.63042">
        <ele>723.20001220703</ele>
        <time>2021-09-07T11:12:48Z</time>
      </trkpt>
      <trkpt lat="45.12119" lon="4.63023">
        <ele>723.40002441406</ele>
        <time>2021-09-07T11:12:52Z</time>
      </trkpt>
      <trkpt lat="45.12127" lon="4.63001">
        <ele>723.40002441406</ele>
        <time>2021-09-07T11:12:58Z</time>
      </trkpt>
      <trkpt lat="45.12126" lon="4.62953">
        <ele>722.59997558594</ele>
        <time>2021-09-07T11:13:05Z</time>
      </trkpt>
      <trkpt lat="45.12119" lon="4.62929">
        <ele>722.20001220703</ele>
        <time>2021-09-07T11:13:09Z</time>
      </trkpt>
      <trkpt lat="45.12117" lon="4.62923">
        <ele>722.20001220703</ele>
        <time>2021-09-07T11:13:10Z</time>
      </trkpt>
      <trkpt lat="45.12114" lon="4.62907">
        <ele>722.40002441406</ele>
        <time>2021-09-07T11:13:13Z</time>
      </trkpt>
      <trkpt lat="45.12119" lon="4.62889">
        <ele>722.79998779297</ele>
        <time>2021-09-07T11:13:16Z</time>
      </trkpt>
      <trkpt lat="45.12108" lon="4.62865">
        <ele>723.20001220703</ele>
        <time>2021-09-07T11:13:20Z</time>
      </trkpt>
      <trkpt lat="45.12106" lon="4.62845">
        <ele>724.20001220703</ele>
        <time>2021-09-07T11:13:25Z</time>
      </trkpt>
      <trkpt lat="45.12106" lon="4.62838">
        <ele>724.79998779297</ele>
        <time>2021-09-07T11:13:27Z</time>
      </trkpt>
      <trkpt lat="45.12117" lon="4.62826">
        <ele>725</ele>
        <time>2021-09-07T11:13:31Z</time>
      </trkpt>
      <trkpt lat="45.12128" lon="4.62825">
        <ele>725</ele>
        <time>2021-09-07T11:13:35Z</time>
      </trkpt>
      <trkpt lat="45.12133" lon="4.62826">
        <ele>725</ele>
        <time>2021-09-07T11:13:36Z</time>
      </trkpt>
      <trkpt lat="45.12149" lon="4.62834">
        <ele>724.59997558594</ele>
        <time>2021-09-07T11:13:40Z</time>
      </trkpt>
      <trkpt lat="45.12173" lon="4.62844">
        <ele>721.59997558594</ele>
        <time>2021-09-07T11:13:45Z</time>
      </trkpt>
      <trkpt lat="45.1218" lon="4.62847">
        <ele>720.20001220703</ele>
        <time>2021-09-07T11:13:47Z</time>
      </trkpt>
      <trkpt lat="45.12186" lon="4.6285">
        <ele>719.40002441406</ele>
        <time>2021-09-07T11:13:49Z</time>
      </trkpt>
      <trkpt lat="45.12213" lon="4.62855">
        <ele>715</ele>
        <time>2021-09-07T11:13:55Z</time>
      </trkpt>
      <trkpt lat="45.12254" lon="4.62868">
        <ele>712.40002441406</ele>
        <time>2021-09-07T11:14:05Z</time>
      </trkpt>
      <trkpt lat="45.12261" lon="4.62871">
        <ele>711.79998779297</ele>
        <time>2021-09-07T11:14:07Z</time>
      </trkpt>
      <trkpt lat="45.12297" lon="4.62866">
        <ele>710.79998779297</ele>
        <time>2021-09-07T11:14:14Z</time>
      </trkpt>
      <trkpt lat="45.12302" lon="4.62863">
        <ele>710.79998779297</ele>
        <time>2021-09-07T11:14:15Z</time>
      </trkpt>
      <trkpt lat="45.12319" lon="4.62842">
        <ele>710.20001220703</ele>
        <time>2021-09-07T11:14:19Z</time>
      </trkpt>
      <trkpt lat="45.12326" lon="4.62824">
        <ele>710</ele>
        <time>2021-09-07T11:14:22Z</time>
      </trkpt>
      <trkpt lat="45.12336" lon="4.62808">
        <ele>709.40002441406</ele>
        <time>2021-09-07T11:14:25Z</time>
      </trkpt>
      <trkpt lat="45.12359" lon="4.62797">
        <ele>707.59997558594</ele>
        <time>2021-09-07T11:14:31Z</time>
      </trkpt>
      <trkpt lat="45.12364" lon="4.62786">
        <ele>707.40002441406</ele>
        <time>2021-09-07T11:14:35Z</time>
      </trkpt>
      <trkpt lat="45.12369" lon="4.62774">
        <ele>707.59997558594</ele>
        <time>2021-09-07T11:14:39Z</time>
      </trkpt>
      <trkpt lat="45.12381" lon="4.62771">
        <ele>707.20001220703</ele>
        <time>2021-09-07T11:14:46Z</time>
      </trkpt>
      <trkpt lat="45.12382" lon="4.62773">
        <ele>705.40002441406</ele>
        <time>2021-09-07T11:14:53Z</time>
      </trkpt>
      <trkpt lat="45.12395" lon="4.6279">
        <ele>704.20001220703</ele>
        <time>2021-09-07T11:15:01Z</time>
      </trkpt>
      <trkpt lat="45.12398" lon="4.62785">
        <ele>702.20001220703</ele>
        <time>2021-09-07T11:15:08Z</time>
      </trkpt>
      <trkpt lat="45.12395" lon="4.6279">
        <ele>701.59997558594</ele>
        <time>2021-09-07T11:15:21Z</time>
      </trkpt>
      <trkpt lat="45.12385" lon="4.62776">
        <ele>704.20001220703</ele>
        <time>2021-09-07T11:15:37Z</time>
      </trkpt>
      <trkpt lat="45.12381" lon="4.62773">
        <ele>705.40002441406</ele>
        <time>2021-09-07T11:15:42Z</time>
      </trkpt>
      <trkpt lat="45.12374" lon="4.62774">
        <ele>706.40002441406</ele>
        <time>2021-09-07T11:15:51Z</time>
      </trkpt>
      <trkpt lat="45.1237" lon="4.62776">
        <ele>706.79998779297</ele>
        <time>2021-09-07T11:15:56Z</time>
      </trkpt>
      <trkpt lat="45.12362" lon="4.62773">
        <ele>709</ele>
        <time>2021-09-07T11:16:09Z</time>
      </trkpt>
      <trkpt lat="45.1236" lon="4.62768">
        <ele>709.79998779297</ele>
        <time>2021-09-07T11:16:18Z</time>
      </trkpt>
      <trkpt lat="45.12357" lon="4.6276">
        <ele>711</ele>
        <time>2021-09-07T11:16:29Z</time>
      </trkpt>
      <trkpt lat="45.12355" lon="4.62755">
        <ele>712.79998779297</ele>
        <time>2021-09-07T11:16:46Z</time>
      </trkpt>
      <trkpt lat="45.12342" lon="4.62722">
        <ele>714.59997558594</ele>
        <time>2021-09-07T11:17:03Z</time>
      </trkpt>
      <trkpt lat="45.12339" lon="4.62717">
        <ele>715.20001220703</ele>
        <time>2021-09-07T11:17:05Z</time>
      </trkpt>
      <trkpt lat="45.12337" lon="4.62708">
        <ele>715.59997558594</ele>
        <time>2021-09-07T11:17:09Z</time>
      </trkpt>
      <trkpt lat="45.12338" lon="4.6268">
        <ele>715.79998779297</ele>
        <time>2021-09-07T11:17:18Z</time>
      </trkpt>
      <trkpt lat="45.12335" lon="4.62673">
        <ele>715.79998779297</ele>
        <time>2021-09-07T11:17:20Z</time>
      </trkpt>
      <trkpt lat="45.12341" lon="4.62659">
        <ele>716.20001220703</ele>
        <time>2021-09-07T11:17:27Z</time>
      </trkpt>
      <trkpt lat="45.12356" lon="4.62655">
        <ele>716.59997558594</ele>
        <time>2021-09-07T11:17:34Z</time>
      </trkpt>
      <trkpt lat="45.12367" lon="4.62652">
        <ele>717.59997558594</ele>
        <time>2021-09-07T11:17:40Z</time>
      </trkpt>
      <trkpt lat="45.12379" lon="4.62653">
        <ele>719</ele>
        <time>2021-09-07T11:17:47Z</time>
      </trkpt>
      <trkpt lat="45.12382" lon="4.62653">
        <ele>719.79998779297</ele>
        <time>2021-09-07T11:17:51Z</time>
      </trkpt>
      <trkpt lat="45.12384" lon="4.62652">
        <ele>721.20001220703</ele>
        <time>2021-09-07T11:18:09Z</time>
      </trkpt>
      <trkpt lat="45.12389" lon="4.6265">
        <ele>724.59997558594</ele>
        <time>2021-09-07T11:18:39Z</time>
      </trkpt>
      <trkpt lat="45.12389" lon="4.6265">
        <ele>726</ele>
        <time>2021-09-07T11:18:46Z</time>
      </trkpt>
      <trkpt lat="45.12395" lon="4.62649">
        <ele>727.59997558594</ele>
        <time>2021-09-07T11:18:57Z</time>
      </trkpt>
      <trkpt lat="45.12397" lon="4.6265">
        <ele>727.79998779297</ele>
        <time>2021-09-07T11:18:58Z</time>
      </trkpt>
      <trkpt lat="45.12411" lon="4.62652">
        <ele>729.59997558594</ele>
        <time>2021-09-07T11:19:11Z</time>
      </trkpt>
      <trkpt lat="45.12417" lon="4.6265">
        <ele>730.40002441406</ele>
        <time>2021-09-07T11:19:21Z</time>
      </trkpt>
      <trkpt lat="45.12422" lon="4.6265">
        <ele>731.59997558594</ele>
        <time>2021-09-07T11:19:31Z</time>
      </trkpt>
      <trkpt lat="45.12424" lon="4.62649">
        <ele>733.40002441406</ele>
        <time>2021-09-07T11:19:45Z</time>
      </trkpt>
      <trkpt lat="45.12425" lon="4.62649">
        <ele>733.79998779297</ele>
        <time>2021-09-07T11:19:50Z</time>
      </trkpt>
      <trkpt lat="45.12436" lon="4.62645">
        <ele>735</ele>
        <time>2021-09-07T11:19:59Z</time>
      </trkpt>
      <trkpt lat="45.12437" lon="4.62645">
        <ele>737.40002441406</ele>
        <time>2021-09-07T11:20:18Z</time>
      </trkpt>
      <trkpt lat="45.12439" lon="4.62644">
        <ele>738.59997558594</ele>
        <time>2021-09-07T11:20:25Z</time>
      </trkpt>
      <trkpt lat="45.12452" lon="4.62641">
        <ele>740</ele>
        <time>2021-09-07T11:20:35Z</time>
      </trkpt>
      <trkpt lat="45.12452" lon="4.62641">
        <ele>743</ele>
        <time>2021-09-07T11:20:51Z</time>
      </trkpt>
      <trkpt lat="45.12457" lon="4.6264">
        <ele>746.59997558594</ele>
        <time>2021-09-07T11:21:23Z</time>
      </trkpt>
      <trkpt lat="45.12457" lon="4.6264">
        <ele>746.79998779297</ele>
        <time>2021-09-07T11:21:26Z</time>
      </trkpt>
      <trkpt lat="45.12474" lon="4.62638">
        <ele>749</ele>
        <time>2021-09-07T11:21:45Z</time>
      </trkpt>
      <trkpt lat="45.1249" lon="4.62637">
        <ele>750.59997558594</ele>
        <time>2021-09-07T11:21:54Z</time>
      </trkpt>
      <trkpt lat="45.12495" lon="4.62635">
        <ele>751.40002441406</ele>
        <time>2021-09-07T11:21:59Z</time>
      </trkpt>
      <trkpt lat="45.12506" lon="4.6263">
        <ele>752.20001220703</ele>
        <time>2021-09-07T11:22:06Z</time>
      </trkpt>
      <trkpt lat="45.1251" lon="4.6263">
        <ele>752.59997558594</ele>
        <time>2021-09-07T11:22:10Z</time>
      </trkpt>
      <trkpt lat="45.12516" lon="4.62622">
        <ele>753.59997558594</ele>
        <time>2021-09-07T11:22:16Z</time>
      </trkpt>
      <trkpt lat="45.12522" lon="4.62616">
        <ele>754</ele>
        <time>2021-09-07T11:22:20Z</time>
      </trkpt>
      <trkpt lat="45.12523" lon="4.62615">
        <ele>754.59997558594</ele>
        <time>2021-09-07T11:22:23Z</time>
      </trkpt>
      <trkpt lat="45.12524" lon="4.62616">
        <ele>755</ele>
        <time>2021-09-07T11:22:25Z</time>
      </trkpt>
      <trkpt lat="45.12528" lon="4.62617">
        <ele>755.20001220703</ele>
        <time>2021-09-07T11:22:28Z</time>
      </trkpt>
      <trkpt lat="45.12532" lon="4.62611">
        <ele>756.20001220703</ele>
        <time>2021-09-07T11:22:36Z</time>
      </trkpt>
      <trkpt lat="45.12543" lon="4.62603">
        <ele>758.20001220703</ele>
        <time>2021-09-07T11:23:26Z</time>
      </trkpt>
      <trkpt lat="45.12548" lon="4.62595">
        <ele>758.79998779297</ele>
        <time>2021-09-07T11:23:29Z</time>
      </trkpt>
      <trkpt lat="45.12549" lon="4.62591">
        <ele>759</ele>
        <time>2021-09-07T11:23:32Z</time>
      </trkpt>
      <trkpt lat="45.12551" lon="4.62587">
        <ele>759.59997558594</ele>
        <time>2021-09-07T11:23:34Z</time>
      </trkpt>
      <trkpt lat="45.12552" lon="4.62583">
        <ele>760.40002441406</ele>
        <time>2021-09-07T11:23:37Z</time>
      </trkpt>
      <trkpt lat="45.12562" lon="4.6257">
        <ele>760.79998779297</ele>
        <time>2021-09-07T11:23:43Z</time>
      </trkpt>
      <trkpt lat="45.12569" lon="4.62556">
        <ele>761</ele>
        <time>2021-09-07T11:23:47Z</time>
      </trkpt>
      <trkpt lat="45.12576" lon="4.6254">
        <ele>761.59997558594</ele>
        <time>2021-09-07T11:23:54Z</time>
      </trkpt>
      <trkpt lat="45.12577" lon="4.62533">
        <ele>761.79998779297</ele>
        <time>2021-09-07T11:23:56Z</time>
      </trkpt>
      <trkpt lat="45.12582" lon="4.62506">
        <ele>762.79998779297</ele>
        <time>2021-09-07T11:24:03Z</time>
      </trkpt>
      <trkpt lat="45.12583" lon="4.62504">
        <ele>763</ele>
        <time>2021-09-07T11:24:04Z</time>
      </trkpt>
      <trkpt lat="45.12589" lon="4.62499">
        <ele>763.79998779297</ele>
        <time>2021-09-07T11:24:08Z</time>
      </trkpt>
      <trkpt lat="45.12592" lon="4.62485">
        <ele>764.59997558594</ele>
        <time>2021-09-07T11:24:13Z</time>
      </trkpt>
      <trkpt lat="45.12593" lon="4.62482">
        <ele>765</ele>
        <time>2021-09-07T11:24:14Z</time>
      </trkpt>
      <trkpt lat="45.12602" lon="4.62472">
        <ele>765.59997558594</ele>
        <time>2021-09-07T11:24:21Z</time>
      </trkpt>
      <trkpt lat="45.12602" lon="4.62471">
        <ele>765.79998779297</ele>
        <time>2021-09-07T11:24:22Z</time>
      </trkpt>
      <trkpt lat="45.12608" lon="4.62457">
        <ele>767</ele>
        <time>2021-09-07T11:24:28Z</time>
      </trkpt>
      <trkpt lat="45.1261" lon="4.62448">
        <ele>768.20001220703</ele>
        <time>2021-09-07T11:24:35Z</time>
      </trkpt>
      <trkpt lat="45.1261" lon="4.62448">
        <ele>768.20001220703</ele>
        <time>2021-09-07T11:24:36Z</time>
      </trkpt>
      <trkpt lat="45.12614" lon="4.62444">
        <ele>768.59997558594</ele>
        <time>2021-09-07T11:24:39Z</time>
      </trkpt>
      <trkpt lat="45.12617" lon="4.62434">
        <ele>769.40002441406</ele>
        <time>2021-09-07T11:24:44Z</time>
      </trkpt>
      <trkpt lat="45.12629" lon="4.62417">
        <ele>771.20001220703</ele>
        <time>2021-09-07T11:24:52Z</time>
      </trkpt>
      <trkpt lat="45.1264" lon="4.62399">
        <ele>771.59997558594</ele>
        <time>2021-09-07T11:24:55Z</time>
      </trkpt>
      <trkpt lat="45.1265" lon="4.62372">
        <ele>771.40002441406</ele>
        <time>2021-09-07T11:24:59Z</time>
      </trkpt>
      <trkpt lat="45.12667" lon="4.62341">
        <ele>769.40002441406</ele>
        <time>2021-09-07T11:25:03Z</time>
      </trkpt>
      <trkpt lat="45.12669" lon="4.62336">
        <ele>769.20001220703</ele>
        <time>2021-09-07T11:25:04Z</time>
      </trkpt>
      <trkpt lat="45.12675" lon="4.62319">
        <ele>769</ele>
        <time>2021-09-07T11:25:08Z</time>
      </trkpt>
      <trkpt lat="45.12675" lon="4.62316">
        <ele>769</ele>
        <time>2021-09-07T11:25:09Z</time>
      </trkpt>
      <trkpt lat="45.12679" lon="4.62306">
        <ele>769.59997558594</ele>
        <time>2021-09-07T11:25:12Z</time>
      </trkpt>
      <trkpt lat="45.12693" lon="4.62276">
        <ele>771</ele>
        <time>2021-09-07T11:25:21Z</time>
      </trkpt>
      <trkpt lat="45.12703" lon="4.62253">
        <ele>771.59997558594</ele>
        <time>2021-09-07T11:25:29Z</time>
      </trkpt>
      <trkpt lat="45.12715" lon="4.62228">
        <ele>773.20001220703</ele>
        <time>2021-09-07T11:25:38Z</time>
      </trkpt>
      <trkpt lat="45.12726" lon="4.62222">
        <ele>773.59997558594</ele>
        <time>2021-09-07T11:25:43Z</time>
      </trkpt>
      <trkpt lat="45.12737" lon="4.62196">
        <ele>774.20001220703</ele>
        <time>2021-09-07T11:25:49Z</time>
      </trkpt>
      <trkpt lat="45.1275" lon="4.62185">
        <ele>774.20001220703</ele>
        <time>2021-09-07T11:25:53Z</time>
      </trkpt>
      <trkpt lat="45.12772" lon="4.62152">
        <ele>773.59997558594</ele>
        <time>2021-09-07T11:25:59Z</time>
      </trkpt>
      <trkpt lat="45.12787" lon="4.62133">
        <ele>771.40002441406</ele>
        <time>2021-09-07T11:26:04Z</time>
      </trkpt>
      <trkpt lat="45.12791" lon="4.62129">
        <ele>770.20001220703</ele>
        <time>2021-09-07T11:26:06Z</time>
      </trkpt>
      <trkpt lat="45.12796" lon="4.62121">
        <ele>769.20001220703</ele>
        <time>2021-09-07T11:26:08Z</time>
      </trkpt>
      <trkpt lat="45.12816" lon="4.62101">
        <ele>766.20001220703</ele>
        <time>2021-09-07T11:26:12Z</time>
      </trkpt>
      <trkpt lat="45.12818" lon="4.62089">
        <ele>763.20001220703</ele>
        <time>2021-09-07T11:26:15Z</time>
      </trkpt>
      <trkpt lat="45.12829" lon="4.62052">
        <ele>760.79998779297</ele>
        <time>2021-09-07T11:26:21Z</time>
      </trkpt>
      <trkpt lat="45.1283" lon="4.62037">
        <ele>758.79998779297</ele>
        <time>2021-09-07T11:26:23Z</time>
      </trkpt>
      <trkpt lat="45.12831" lon="4.62026">
        <ele>758.59997558594</ele>
        <time>2021-09-07T11:26:24Z</time>
      </trkpt>
      <trkpt lat="45.12845" lon="4.61976">
        <ele>757.40002441406</ele>
        <time>2021-09-07T11:26:30Z</time>
      </trkpt>
      <trkpt lat="45.12854" lon="4.61964">
        <ele>757.40002441406</ele>
        <time>2021-09-07T11:26:34Z</time>
      </trkpt>
      <trkpt lat="45.12873" lon="4.61937">
        <ele>757.59997558594</ele>
        <time>2021-09-07T11:26:40Z</time>
      </trkpt>
      <trkpt lat="45.12895" lon="4.61893">
        <ele>757</ele>
        <time>2021-09-07T11:26:49Z</time>
      </trkpt>
      <trkpt lat="45.12935" lon="4.61855">
        <ele>758</ele>
        <time>2021-09-07T11:27:01Z</time>
      </trkpt>
      <trkpt lat="45.12946" lon="4.61855">
        <ele>758.20001220703</ele>
        <time>2021-09-07T11:27:04Z</time>
      </trkpt>
      <trkpt lat="45.12956" lon="4.61861">
        <ele>759</ele>
        <time>2021-09-07T11:27:09Z</time>
      </trkpt>
      <trkpt lat="45.1296" lon="4.61862">
        <ele>760.40002441406</ele>
        <time>2021-09-07T11:27:21Z</time>
      </trkpt>
      <trkpt lat="45.12961" lon="4.61863">
        <ele>760.59997558594</ele>
        <time>2021-09-07T11:27:48Z</time>
      </trkpt>
      <trkpt lat="45.12965" lon="4.61852">
        <ele>760.79998779297</ele>
        <time>2021-09-07T11:27:54Z</time>
      </trkpt>
      <trkpt lat="45.12946" lon="4.61784">
        <ele>763.40002441406</ele>
        <time>2021-09-07T11:28:17Z</time>
      </trkpt>
      <trkpt lat="45.12929" lon="4.61733">
        <ele>765.59997558594</ele>
        <time>2021-09-07T11:28:34Z</time>
      </trkpt>
      <trkpt lat="45.12915" lon="4.61685">
        <ele>767</ele>
        <time>2021-09-07T11:28:49Z</time>
      </trkpt>
      <trkpt lat="45.12914" lon="4.61666">
        <ele>767.20001220703</ele>
        <time>2021-09-07T11:28:55Z</time>
      </trkpt>
      <trkpt lat="45.12916" lon="4.61657">
        <ele>767.79998779297</ele>
        <time>2021-09-07T11:28:58Z</time>
      </trkpt>
      <trkpt lat="45.12911" lon="4.61632">
        <ele>768.59997558594</ele>
        <time>2021-09-07T11:29:05Z</time>
      </trkpt>
      <trkpt lat="45.12911" lon="4.61595">
        <ele>770.20001220703</ele>
        <time>2021-09-07T11:29:14Z</time>
      </trkpt>
      <trkpt lat="45.12916" lon="4.61533">
        <ele>770.40002441406</ele>
        <time>2021-09-07T11:29:28Z</time>
      </trkpt>
      <trkpt lat="45.12934" lon="4.61428">
        <ele>771.40002441406</ele>
        <time>2021-09-07T11:29:51Z</time>
      </trkpt>
      <trkpt lat="45.12941" lon="4.61369">
        <ele>772.79998779297</ele>
        <time>2021-09-07T11:30:04Z</time>
      </trkpt>
      <trkpt lat="45.12953" lon="4.61298">
        <ele>774.79998779297</ele>
        <time>2021-09-07T11:30:23Z</time>
      </trkpt>
      <trkpt lat="45.12958" lon="4.61291">
        <ele>775</ele>
        <time>2021-09-07T11:30:26Z</time>
      </trkpt>
      <trkpt lat="45.12967" lon="4.61311">
        <ele>775.59997558594</ele>
        <time>2021-09-07T11:30:34Z</time>
      </trkpt>
      <trkpt lat="45.12976" lon="4.61333">
        <ele>776.20001220703</ele>
        <time>2021-09-07T11:30:41Z</time>
      </trkpt>
      <trkpt lat="45.13001" lon="4.61373">
        <ele>778</ele>
        <time>2021-09-07T11:30:54Z</time>
      </trkpt>
      <trkpt lat="45.13005" lon="4.61376">
        <ele>778.40002441406</ele>
        <time>2021-09-07T11:30:56Z</time>
      </trkpt>
      <trkpt lat="45.13008" lon="4.61383">
        <ele>778.59997558594</ele>
        <time>2021-09-07T11:30:59Z</time>
      </trkpt>
      <trkpt lat="45.13016" lon="4.61405">
        <ele>779</ele>
        <time>2021-09-07T11:31:06Z</time>
      </trkpt>
      <trkpt lat="45.13019" lon="4.61407">
        <ele>779.20001220703</ele>
        <time>2021-09-07T11:31:07Z</time>
      </trkpt>
      <trkpt lat="45.13031" lon="4.61425">
        <ele>779.79998779297</ele>
        <time>2021-09-07T11:31:15Z</time>
      </trkpt>
      <trkpt lat="45.13059" lon="4.61477">
        <ele>782.20001220703</ele>
        <time>2021-09-07T11:31:34Z</time>
      </trkpt>
      <trkpt lat="45.13079" lon="4.61507">
        <ele>783.20001220703</ele>
        <time>2021-09-07T11:31:46Z</time>
      </trkpt>
      <trkpt lat="45.13115" lon="4.61535">
        <ele>784.40002441406</ele>
        <time>2021-09-07T11:32:02Z</time>
      </trkpt>
      <trkpt lat="45.13151" lon="4.61564">
        <ele>785.59997558594</ele>
        <time>2021-09-07T11:32:13Z</time>
      </trkpt>
      <trkpt lat="45.13163" lon="4.61576">
        <ele>786.40002441406</ele>
        <time>2021-09-07T11:32:18Z</time>
      </trkpt>
      <trkpt lat="45.13178" lon="4.61595">
        <ele>787.59997558594</ele>
        <time>2021-09-07T11:32:25Z</time>
      </trkpt>
      <trkpt lat="45.1319" lon="4.6161">
        <ele>788.20001220703</ele>
        <time>2021-09-07T11:32:32Z</time>
      </trkpt>
      <trkpt lat="45.13204" lon="4.61627">
        <ele>789</ele>
        <time>2021-09-07T11:32:41Z</time>
      </trkpt>
      <trkpt lat="45.13241" lon="4.61668">
        <ele>789</ele>
        <time>2021-09-07T11:32:58Z</time>
      </trkpt>
      <trkpt lat="45.13276" lon="4.617">
        <ele>789.59997558594</ele>
        <time>2021-09-07T11:33:16Z</time>
      </trkpt>
      <trkpt lat="45.13303" lon="4.61734">
        <ele>789.59997558594</ele>
        <time>2021-09-07T11:33:27Z</time>
      </trkpt>
      <trkpt lat="45.13331" lon="4.61771">
        <ele>791.79998779297</ele>
        <time>2021-09-07T11:33:38Z</time>
      </trkpt>
      <trkpt lat="45.13358" lon="4.61796">
        <ele>792.20001220703</ele>
        <time>2021-09-07T11:33:48Z</time>
      </trkpt>
      <trkpt lat="45.1336" lon="4.61799">
        <ele>792.40002441406</ele>
        <time>2021-09-07T11:33:49Z</time>
      </trkpt>
      <trkpt lat="45.134" lon="4.61831">
        <ele>794.40002441406</ele>
        <time>2021-09-07T11:34:07Z</time>
      </trkpt>
      <trkpt lat="45.13421" lon="4.61838">
        <ele>795.20001220703</ele>
        <time>2021-09-07T11:34:14Z</time>
      </trkpt>
      <trkpt lat="45.13441" lon="4.61846">
        <ele>796.20001220703</ele>
        <time>2021-09-07T11:34:22Z</time>
      </trkpt>
      <trkpt lat="45.1345" lon="4.61848">
        <ele>796.59997558594</ele>
        <time>2021-09-07T11:34:26Z</time>
      </trkpt>
      <trkpt lat="45.13462" lon="4.61854">
        <ele>797.20001220703</ele>
        <time>2021-09-07T11:34:30Z</time>
      </trkpt>
      <trkpt lat="45.13483" lon="4.61864">
        <ele>797.79998779297</ele>
        <time>2021-09-07T11:34:38Z</time>
      </trkpt>
      <trkpt lat="45.13493" lon="4.61876">
        <ele>799.40002441406</ele>
        <time>2021-09-07T11:34:45Z</time>
      </trkpt>
      <trkpt lat="45.13509" lon="4.61886">
        <ele>800.79998779297</ele>
        <time>2021-09-07T11:34:54Z</time>
      </trkpt>
      <trkpt lat="45.13526" lon="4.61904">
        <ele>800.79998779297</ele>
        <time>2021-09-07T11:35:04Z</time>
      </trkpt>
      <trkpt lat="45.13545" lon="4.61928">
        <ele>802.59997558594</ele>
        <time>2021-09-07T11:35:14Z</time>
      </trkpt>
      <trkpt lat="45.13559" lon="4.61945">
        <ele>804</ele>
        <time>2021-09-07T11:35:22Z</time>
      </trkpt>
      <trkpt lat="45.13575" lon="4.61969">
        <ele>805.40002441406</ele>
        <time>2021-09-07T11:35:31Z</time>
      </trkpt>
      <trkpt lat="45.13587" lon="4.61995">
        <ele>807.79998779297</ele>
        <time>2021-09-07T11:35:41Z</time>
      </trkpt>
      <trkpt lat="45.13598" lon="4.62033">
        <ele>808.59997558594</ele>
        <time>2021-09-07T11:35:51Z</time>
      </trkpt>
      <trkpt lat="45.13581" lon="4.6206">
        <ele>807.79998779297</ele>
        <time>2021-09-07T11:35:59Z</time>
      </trkpt>
      <trkpt lat="45.13577" lon="4.62063">
        <ele>807.59997558594</ele>
        <time>2021-09-07T11:36:00Z</time>
      </trkpt>
      <trkpt lat="45.13542" lon="4.62083">
        <ele>805.40002441406</ele>
        <time>2021-09-07T11:36:10Z</time>
      </trkpt>
      <trkpt lat="45.13539" lon="4.62085">
        <ele>805.40002441406</ele>
        <time>2021-09-07T11:36:11Z</time>
      </trkpt>
      <trkpt lat="45.13454" lon="4.62164">
        <ele>806.20001220703</ele>
        <time>2021-09-07T11:36:38Z</time>
      </trkpt>
      <trkpt lat="45.13433" lon="4.6221">
        <ele>806.59997558594</ele>
        <time>2021-09-07T11:36:49Z</time>
      </trkpt>
      <trkpt lat="45.13437" lon="4.62235">
        <ele>806.59997558594</ele>
        <time>2021-09-07T11:36:53Z</time>
      </trkpt>
      <trkpt lat="45.13427" lon="4.62315">
        <ele>805.40002441406</ele>
        <time>2021-09-07T11:37:04Z</time>
      </trkpt>
      <trkpt lat="45.13406" lon="4.62384">
        <ele>802.79998779297</ele>
        <time>2021-09-07T11:37:11Z</time>
      </trkpt>
      <trkpt lat="45.13385" lon="4.62413">
        <ele>801.40002441406</ele>
        <time>2021-09-07T11:37:15Z</time>
      </trkpt>
      <trkpt lat="45.1337" lon="4.62435">
        <ele>800</ele>
        <time>2021-09-07T11:37:18Z</time>
      </trkpt>
      <trkpt lat="45.13361" lon="4.62463">
        <ele>798.20001220703</ele>
        <time>2021-09-07T11:37:21Z</time>
      </trkpt>
      <trkpt lat="45.13355" lon="4.62483">
        <ele>796.79998779297</ele>
        <time>2021-09-07T11:37:23Z</time>
      </trkpt>
      <trkpt lat="45.1335" lon="4.62503">
        <ele>795.59997558594</ele>
        <time>2021-09-07T11:37:25Z</time>
      </trkpt>
      <trkpt lat="45.1334" lon="4.62533">
        <ele>792.79998779297</ele>
        <time>2021-09-07T11:37:28Z</time>
      </trkpt>
      <trkpt lat="45.13327" lon="4.62577">
        <ele>790.20001220703</ele>
        <time>2021-09-07T11:37:32Z</time>
      </trkpt>
      <trkpt lat="45.13322" lon="4.62633">
        <ele>787</ele>
        <time>2021-09-07T11:37:37Z</time>
      </trkpt>
      <trkpt lat="45.13323" lon="4.62643">
        <ele>786.79998779297</ele>
        <time>2021-09-07T11:37:38Z</time>
      </trkpt>
      <trkpt lat="45.1334" lon="4.62674">
        <ele>784.40002441406</ele>
        <time>2021-09-07T11:37:42Z</time>
      </trkpt>
      <trkpt lat="45.13385" lon="4.62723">
        <ele>780.59997558594</ele>
        <time>2021-09-07T11:37:48Z</time>
      </trkpt>
      <trkpt lat="45.13407" lon="4.62753">
        <ele>779</ele>
        <time>2021-09-07T11:37:51Z</time>
      </trkpt>
      <trkpt lat="45.13452" lon="4.62842">
        <ele>776</ele>
        <time>2021-09-07T11:37:58Z</time>
      </trkpt>
      <trkpt lat="45.1348" lon="4.62882">
        <ele>772.40002441406</ele>
        <time>2021-09-07T11:38:02Z</time>
      </trkpt>
      <trkpt lat="45.1349" lon="4.62892">
        <ele>771.79998779297</ele>
        <time>2021-09-07T11:38:03Z</time>
      </trkpt>
      <trkpt lat="45.13518" lon="4.62918">
        <ele>769.40002441406</ele>
        <time>2021-09-07T11:38:06Z</time>
      </trkpt>
      <trkpt lat="45.13549" lon="4.62927">
        <ele>767.20001220703</ele>
        <time>2021-09-07T11:38:10Z</time>
      </trkpt>
      <trkpt lat="45.13559" lon="4.62927">
        <ele>766.20001220703</ele>
        <time>2021-09-07T11:38:11Z</time>
      </trkpt>
      <trkpt lat="45.13567" lon="4.62926">
        <ele>766</ele>
        <time>2021-09-07T11:38:12Z</time>
      </trkpt>
      <trkpt lat="45.1362" lon="4.62945">
        <ele>762</ele>
        <time>2021-09-07T11:38:18Z</time>
      </trkpt>
      <trkpt lat="45.13638" lon="4.62955">
        <ele>761</ele>
        <time>2021-09-07T11:38:20Z</time>
      </trkpt>
      <trkpt lat="45.13658" lon="4.62994">
        <ele>758.20001220703</ele>
        <time>2021-09-07T11:38:24Z</time>
      </trkpt>
      <trkpt lat="45.13662" lon="4.63006">
        <ele>757.20001220703</ele>
        <time>2021-09-07T11:38:25Z</time>
      </trkpt>
      <trkpt lat="45.13685" lon="4.63067">
        <ele>754.20001220703</ele>
        <time>2021-09-07T11:38:30Z</time>
      </trkpt>
      <trkpt lat="45.13721" lon="4.63156">
        <ele>750</ele>
        <time>2021-09-07T11:38:37Z</time>
      </trkpt>
      <trkpt lat="45.1374" lon="4.63192">
        <ele>748.20001220703</ele>
        <time>2021-09-07T11:38:40Z</time>
      </trkpt>
      <trkpt lat="45.13781" lon="4.63298">
        <ele>744.40002441406</ele>
        <time>2021-09-07T11:38:47Z</time>
      </trkpt>
      <trkpt lat="45.13793" lon="4.63326">
        <ele>743.20001220703</ele>
        <time>2021-09-07T11:38:49Z</time>
      </trkpt>
      <trkpt lat="45.13804" lon="4.63351">
        <ele>742.40002441406</ele>
        <time>2021-09-07T11:38:51Z</time>
      </trkpt>
      <trkpt lat="45.13823" lon="4.63384">
        <ele>739</ele>
        <time>2021-09-07T11:38:54Z</time>
      </trkpt>
      <trkpt lat="45.13831" lon="4.63396">
        <ele>737.40002441406</ele>
        <time>2021-09-07T11:38:55Z</time>
      </trkpt>
      <trkpt lat="45.13851" lon="4.6342">
        <ele>734.20001220703</ele>
        <time>2021-09-07T11:38:58Z</time>
      </trkpt>
      <trkpt lat="45.13863" lon="4.63435">
        <ele>733.40002441406</ele>
        <time>2021-09-07T11:39:00Z</time>
      </trkpt>
      <trkpt lat="45.13869" lon="4.63441">
        <ele>732</ele>
        <time>2021-09-07T11:39:01Z</time>
      </trkpt>
      <trkpt lat="45.13898" lon="4.63462">
        <ele>729.40002441406</ele>
        <time>2021-09-07T11:39:05Z</time>
      </trkpt>
      <trkpt lat="45.13919" lon="4.63477">
        <ele>727.40002441406</ele>
        <time>2021-09-07T11:39:08Z</time>
      </trkpt>
      <trkpt lat="45.13954" lon="4.63505">
        <ele>725.79998779297</ele>
        <time>2021-09-07T11:39:12Z</time>
      </trkpt>
      <trkpt lat="45.14006" lon="4.63547">
        <ele>722.20001220703</ele>
        <time>2021-09-07T11:39:18Z</time>
      </trkpt>
      <trkpt lat="45.14016" lon="4.63556">
        <ele>722</ele>
        <time>2021-09-07T11:39:19Z</time>
      </trkpt>
      <trkpt lat="45.14042" lon="4.63576">
        <ele>718.59997558594</ele>
        <time>2021-09-07T11:39:22Z</time>
      </trkpt>
      <trkpt lat="45.14061" lon="4.63588">
        <ele>717</ele>
        <time>2021-09-07T11:39:24Z</time>
      </trkpt>
      <trkpt lat="45.14107" lon="4.63604">
        <ele>714</ele>
        <time>2021-09-07T11:39:29Z</time>
      </trkpt>
      <trkpt lat="45.14125" lon="4.63607">
        <ele>712.59997558594</ele>
        <time>2021-09-07T11:39:31Z</time>
      </trkpt>
      <trkpt lat="45.14166" lon="4.63594">
        <ele>710</ele>
        <time>2021-09-07T11:39:36Z</time>
      </trkpt>
      <trkpt lat="45.14186" lon="4.63567">
        <ele>707</ele>
        <time>2021-09-07T11:39:41Z</time>
      </trkpt>
      <trkpt lat="45.14188" lon="4.63558">
        <ele>706.59997558594</ele>
        <time>2021-09-07T11:39:42Z</time>
      </trkpt>
      <trkpt lat="45.14192" lon="4.63541">
        <ele>705</ele>
        <time>2021-09-07T11:39:44Z</time>
      </trkpt>
      <trkpt lat="45.1421" lon="4.63468">
        <ele>701.59997558594</ele>
        <time>2021-09-07T11:39:52Z</time>
      </trkpt>
      <trkpt lat="45.14225" lon="4.63441">
        <ele>700.40002441406</ele>
        <time>2021-09-07T11:39:55Z</time>
      </trkpt>
      <trkpt lat="45.1426" lon="4.63403">
        <ele>697.79998779297</ele>
        <time>2021-09-07T11:40:00Z</time>
      </trkpt>
      <trkpt lat="45.14272" lon="4.63385">
        <ele>696.59997558594</ele>
        <time>2021-09-07T11:40:02Z</time>
      </trkpt>
      <trkpt lat="45.14318" lon="4.63324">
        <ele>692.79998779297</ele>
        <time>2021-09-07T11:40:10Z</time>
      </trkpt>
      <trkpt lat="45.1435" lon="4.6329">
        <ele>689.79998779297</ele>
        <time>2021-09-07T11:40:14Z</time>
      </trkpt>
      <trkpt lat="45.1437" lon="4.6327">
        <ele>687</ele>
        <time>2021-09-07T11:40:17Z</time>
      </trkpt>
      <trkpt lat="45.14374" lon="4.63265">
        <ele>687</ele>
        <time>2021-09-07T11:40:18Z</time>
      </trkpt>
      <trkpt lat="45.14395" lon="4.63249">
        <ele>684</ele>
        <time>2021-09-07T11:40:21Z</time>
      </trkpt>
      <trkpt lat="45.14427" lon="4.63203">
        <ele>681</ele>
        <time>2021-09-07T11:40:26Z</time>
      </trkpt>
      <trkpt lat="45.14438" lon="4.63183">
        <ele>680.40002441406</ele>
        <time>2021-09-07T11:40:28Z</time>
      </trkpt>
      <trkpt lat="45.14444" lon="4.63173">
        <ele>679.59997558594</ele>
        <time>2021-09-07T11:40:29Z</time>
      </trkpt>
      <trkpt lat="45.14467" lon="4.6314">
        <ele>675.20001220703</ele>
        <time>2021-09-07T11:40:33Z</time>
      </trkpt>
      <trkpt lat="45.14469" lon="4.63133">
        <ele>674.79998779297</ele>
        <time>2021-09-07T11:40:34Z</time>
      </trkpt>
      <trkpt lat="45.14473" lon="4.63124">
        <ele>673.79998779297</ele>
        <time>2021-09-07T11:40:36Z</time>
      </trkpt>
      <trkpt lat="45.1448" lon="4.63112">
        <ele>672.20001220703</ele>
        <time>2021-09-07T11:40:39Z</time>
      </trkpt>
      <trkpt lat="45.14482" lon="4.63106">
        <ele>671.20001220703</ele>
        <time>2021-09-07T11:40:40Z</time>
      </trkpt>
      <trkpt lat="45.14491" lon="4.63093">
        <ele>669.79998779297</ele>
        <time>2021-09-07T11:40:43Z</time>
      </trkpt>
      <trkpt lat="45.14502" lon="4.63125">
        <ele>666.40002441406</ele>
        <time>2021-09-07T11:40:48Z</time>
      </trkpt>
      <trkpt lat="45.14506" lon="4.63188">
        <ele>662.20001220703</ele>
        <time>2021-09-07T11:40:53Z</time>
      </trkpt>
      <trkpt lat="45.14506" lon="4.63227">
        <ele>658.79998779297</ele>
        <time>2021-09-07T11:40:56Z</time>
      </trkpt>
      <trkpt lat="45.14499" lon="4.63266">
        <ele>656.59997558594</ele>
        <time>2021-09-07T11:40:59Z</time>
      </trkpt>
      <trkpt lat="45.14489" lon="4.63295">
        <ele>654</ele>
        <time>2021-09-07T11:41:02Z</time>
      </trkpt>
      <trkpt lat="45.14495" lon="4.63316">
        <ele>650.79998779297</ele>
        <time>2021-09-07T11:41:05Z</time>
      </trkpt>
      <trkpt lat="45.14514" lon="4.63297">
        <ele>647.40002441406</ele>
        <time>2021-09-07T11:41:09Z</time>
      </trkpt>
      <trkpt lat="45.14546" lon="4.63268">
        <ele>644.20001220703</ele>
        <time>2021-09-07T11:41:14Z</time>
      </trkpt>
      <trkpt lat="45.14565" lon="4.6325">
        <ele>642.79998779297</ele>
        <time>2021-09-07T11:41:17Z</time>
      </trkpt>
      <trkpt lat="45.14593" lon="4.63259">
        <ele>640.79998779297</ele>
        <time>2021-09-07T11:41:22Z</time>
      </trkpt>
      <trkpt lat="45.1463" lon="4.63328">
        <ele>637.40002441406</ele>
        <time>2021-09-07T11:41:30Z</time>
      </trkpt>
      <trkpt lat="45.14676" lon="4.63388">
        <ele>634</ele>
        <time>2021-09-07T11:41:38Z</time>
      </trkpt>
      <trkpt lat="45.14701" lon="4.63459">
        <ele>631.20001220703</ele>
        <time>2021-09-07T11:41:45Z</time>
      </trkpt>
      <trkpt lat="45.14717" lon="4.63511">
        <ele>628.79998779297</ele>
        <time>2021-09-07T11:41:49Z</time>
      </trkpt>
      <trkpt lat="45.1474" lon="4.63559">
        <ele>624.40002441406</ele>
        <time>2021-09-07T11:41:53Z</time>
      </trkpt>
      <trkpt lat="45.14763" lon="4.63602">
        <ele>619</ele>
        <time>2021-09-07T11:41:57Z</time>
      </trkpt>
      <trkpt lat="45.14774" lon="4.63622">
        <ele>615.79998779297</ele>
        <time>2021-09-07T11:41:59Z</time>
      </trkpt>
      <trkpt lat="45.14788" lon="4.6365">
        <ele>612.20001220703</ele>
        <time>2021-09-07T11:42:02Z</time>
      </trkpt>
      <trkpt lat="45.14803" lon="4.63677">
        <ele>608.40002441406</ele>
        <time>2021-09-07T11:42:05Z</time>
      </trkpt>
      <trkpt lat="45.14819" lon="4.63703">
        <ele>605.59997558594</ele>
        <time>2021-09-07T11:42:08Z</time>
      </trkpt>
      <trkpt lat="45.14866" lon="4.63737">
        <ele>601.40002441406</ele>
        <time>2021-09-07T11:42:14Z</time>
      </trkpt>
      <trkpt lat="45.14878" lon="4.63746">
        <ele>600.20001220703</ele>
        <time>2021-09-07T11:42:16Z</time>
      </trkpt>
      <trkpt lat="45.14882" lon="4.63748">
        <ele>600</ele>
        <time>2021-09-07T11:42:17Z</time>
      </trkpt>
      <trkpt lat="45.149" lon="4.63741">
        <ele>597.20001220703</ele>
        <time>2021-09-07T11:42:22Z</time>
      </trkpt>
      <trkpt lat="45.14925" lon="4.63718">
        <ele>596.40002441406</ele>
        <time>2021-09-07T11:42:30Z</time>
      </trkpt>
      <trkpt lat="45.14982" lon="4.63606">
        <ele>594.79998779297</ele>
        <time>2021-09-07T11:42:46Z</time>
      </trkpt>
      <trkpt lat="45.14984" lon="4.63597">
        <ele>594.59997558594</ele>
        <time>2021-09-07T11:42:47Z</time>
      </trkpt>
      <trkpt lat="45.14997" lon="4.63528">
        <ele>592.59997558594</ele>
        <time>2021-09-07T11:42:56Z</time>
      </trkpt>
      <trkpt lat="45.14993" lon="4.63441">
        <ele>590</ele>
        <time>2021-09-07T11:43:06Z</time>
      </trkpt>
      <trkpt lat="45.14992" lon="4.6343">
        <ele>589.59997558594</ele>
        <time>2021-09-07T11:43:07Z</time>
      </trkpt>
      <trkpt lat="45.14986" lon="4.63379">
        <ele>587</ele>
        <time>2021-09-07T11:43:12Z</time>
      </trkpt>
      <trkpt lat="45.14978" lon="4.63348">
        <ele>584.40002441406</ele>
        <time>2021-09-07T11:43:17Z</time>
      </trkpt>
      <trkpt lat="45.14953" lon="4.63291">
        <ele>582</ele>
        <time>2021-09-07T11:43:25Z</time>
      </trkpt>
      <trkpt lat="45.14946" lon="4.63245">
        <ele>581</ele>
        <time>2021-09-07T11:43:29Z</time>
      </trkpt>
      <trkpt lat="45.14943" lon="4.63236">
        <ele>580.59997558594</ele>
        <time>2021-09-07T11:43:30Z</time>
      </trkpt>
      <trkpt lat="45.14924" lon="4.63181">
        <ele>578.20001220703</ele>
        <time>2021-09-07T11:43:37Z</time>
      </trkpt>
      <trkpt lat="45.1491" lon="4.63151">
        <ele>575.40002441406</ele>
        <time>2021-09-07T11:43:42Z</time>
      </trkpt>
      <trkpt lat="45.14907" lon="4.63124">
        <ele>572</ele>
        <time>2021-09-07T11:43:47Z</time>
      </trkpt>
      <trkpt lat="45.1491" lon="4.63122">
        <ele>571.79998779297</ele>
        <time>2021-09-07T11:43:48Z</time>
      </trkpt>
      <trkpt lat="45.14942" lon="4.63133">
        <ele>570.59997558594</ele>
        <time>2021-09-07T11:43:57Z</time>
      </trkpt>
      <trkpt lat="45.14948" lon="4.63136">
        <ele>570.59997558594</ele>
        <time>2021-09-07T11:43:58Z</time>
      </trkpt>
      <trkpt lat="45.14991" lon="4.63168">
        <ele>569</ele>
        <time>2021-09-07T11:44:06Z</time>
      </trkpt>
      <trkpt lat="45.14998" lon="4.63172">
        <ele>568.40002441406</ele>
        <time>2021-09-07T11:44:07Z</time>
      </trkpt>
      <trkpt lat="45.15026" lon="4.63178">
        <ele>565</ele>
        <time>2021-09-07T11:44:11Z</time>
      </trkpt>
      <trkpt lat="45.1508" lon="4.63183">
        <ele>561.79998779297</ele>
        <time>2021-09-07T11:44:18Z</time>
      </trkpt>
      <trkpt lat="45.15087" lon="4.63183">
        <ele>561.59997558594</ele>
        <time>2021-09-07T11:44:19Z</time>
      </trkpt>
      <trkpt lat="45.15116" lon="4.63203">
        <ele>559.40002441406</ele>
        <time>2021-09-07T11:44:24Z</time>
      </trkpt>
      <trkpt lat="45.15122" lon="4.63206">
        <ele>559.20001220703</ele>
        <time>2021-09-07T11:44:25Z</time>
      </trkpt>
      <trkpt lat="45.15149" lon="4.63202">
        <ele>556.59997558594</ele>
        <time>2021-09-07T11:44:30Z</time>
      </trkpt>
      <trkpt lat="45.15155" lon="4.63196">
        <ele>555.79998779297</ele>
        <time>2021-09-07T11:44:32Z</time>
      </trkpt>
      <trkpt lat="45.15192" lon="4.63157">
        <ele>555.40002441406</ele>
        <time>2021-09-07T11:44:44Z</time>
      </trkpt>
      <trkpt lat="45.15187" lon="4.63137">
        <ele>556.79998779297</ele>
        <time>2021-09-07T11:44:50Z</time>
      </trkpt>
      <trkpt lat="45.15179" lon="4.6313">
        <ele>559.40002441406</ele>
        <time>2021-09-07T11:45:06Z</time>
      </trkpt>
      <trkpt lat="45.1518" lon="4.6313">
        <ele>559.40002441406</ele>
        <time>2021-09-07T11:45:07Z</time>
      </trkpt>
      <trkpt lat="45.15185" lon="4.63138">
        <ele>559.20001220703</ele>
        <time>2021-09-07T11:45:11Z</time>
      </trkpt>
      <trkpt lat="45.1519" lon="4.63148">
        <ele>558.79998779297</ele>
        <time>2021-09-07T11:45:14Z</time>
      </trkpt>
      <trkpt lat="45.15196" lon="4.63144">
        <ele>558.20001220703</ele>
        <time>2021-09-07T11:45:19Z</time>
      </trkpt>
      <trkpt lat="45.15207" lon="4.63094">
        <ele>554.40002441406</ele>
        <time>2021-09-07T11:45:32Z</time>
      </trkpt>
      <trkpt lat="45.15215" lon="4.63063">
        <ele>552.40002441406</ele>
        <time>2021-09-07T11:45:37Z</time>
      </trkpt>
      <trkpt lat="45.15218" lon="4.63037">
        <ele>550.20001220703</ele>
        <time>2021-09-07T11:45:40Z</time>
      </trkpt>
      <trkpt lat="45.15217" lon="4.63031">
        <ele>550</ele>
        <time>2021-09-07T11:45:41Z</time>
      </trkpt>
      <trkpt lat="45.15217" lon="4.62989">
        <ele>548.20001220703</ele>
        <time>2021-09-07T11:45:47Z</time>
      </trkpt>
      <trkpt lat="45.15217" lon="4.62974">
        <ele>546.40002441406</ele>
        <time>2021-09-07T11:45:49Z</time>
      </trkpt>
      <trkpt lat="45.15216" lon="4.62961">
        <ele>544.40002441406</ele>
        <time>2021-09-07T11:45:51Z</time>
      </trkpt>
      <trkpt lat="45.15214" lon="4.62948">
        <ele>543</ele>
        <time>2021-09-07T11:45:53Z</time>
      </trkpt>
      <trkpt lat="45.15204" lon="4.62916">
        <ele>539.59997558594</ele>
        <time>2021-09-07T11:45:58Z</time>
      </trkpt>
      <trkpt lat="45.15203" lon="4.62912">
        <ele>539.40002441406</ele>
        <time>2021-09-07T11:45:59Z</time>
      </trkpt>
      <trkpt lat="45.15199" lon="4.62885">
        <ele>536.59997558594</ele>
        <time>2021-09-07T11:46:05Z</time>
      </trkpt>
      <trkpt lat="45.15198" lon="4.62867">
        <ele>533.59997558594</ele>
        <time>2021-09-07T11:46:09Z</time>
      </trkpt>
      <trkpt lat="45.15202" lon="4.62824">
        <ele>528.79998779297</ele>
        <time>2021-09-07T11:46:16Z</time>
      </trkpt>
      <trkpt lat="45.15209" lon="4.62813">
        <ele>525.79998779297</ele>
        <time>2021-09-07T11:46:19Z</time>
      </trkpt>
      <trkpt lat="45.15206" lon="4.6281">
        <ele>523.79998779297</ele>
        <time>2021-09-07T11:46:22Z</time>
      </trkpt>
      <trkpt lat="45.15206" lon="4.62802">
        <ele>522.79998779297</ele>
        <time>2021-09-07T11:46:25Z</time>
      </trkpt>
      <trkpt lat="45.15222" lon="4.62754">
        <ele>519.40002441406</ele>
        <time>2021-09-07T11:46:34Z</time>
      </trkpt>
      <trkpt lat="45.15224" lon="4.62749">
        <ele>518.40002441406</ele>
        <time>2021-09-07T11:46:35Z</time>
      </trkpt>
      <trkpt lat="45.15232" lon="4.62726">
        <ele>514.79998779297</ele>
        <time>2021-09-07T11:46:39Z</time>
      </trkpt>
      <trkpt lat="45.15238" lon="4.62708">
        <ele>513.20001220703</ele>
        <time>2021-09-07T11:46:42Z</time>
      </trkpt>
      <trkpt lat="45.15246" lon="4.62691">
        <ele>510.20001220703</ele>
        <time>2021-09-07T11:46:45Z</time>
      </trkpt>
      <trkpt lat="45.15247" lon="4.62685">
        <ele>508.79998779297</ele>
        <time>2021-09-07T11:46:46Z</time>
      </trkpt>
      <trkpt lat="45.1525" lon="4.62671">
        <ele>505.60000610352</ele>
        <time>2021-09-07T11:46:49Z</time>
      </trkpt>
      <trkpt lat="45.15257" lon="4.62644">
        <ele>502.39999389648</ele>
        <time>2021-09-07T11:46:54Z</time>
      </trkpt>
      <trkpt lat="45.15264" lon="4.62635">
        <ele>499</ele>
        <time>2021-09-07T11:46:57Z</time>
      </trkpt>
      <trkpt lat="45.15266" lon="4.62621">
        <ele>496.60000610352</ele>
        <time>2021-09-07T11:47:01Z</time>
      </trkpt>
      <trkpt lat="45.15264" lon="4.62617">
        <ele>496.39999389648</ele>
        <time>2021-09-07T11:47:02Z</time>
      </trkpt>
      <trkpt lat="45.15239" lon="4.62521">
        <ele>494.39999389648</ele>
        <time>2021-09-07T11:47:18Z</time>
      </trkpt>
      <trkpt lat="45.15222" lon="4.62465">
        <ele>493.60000610352</ele>
        <time>2021-09-07T11:47:26Z</time>
      </trkpt>
      <trkpt lat="45.15201" lon="4.62383">
        <ele>491.60000610352</ele>
        <time>2021-09-07T11:47:38Z</time>
      </trkpt>
      <trkpt lat="45.15183" lon="4.62314">
        <ele>490.20001220703</ele>
        <time>2021-09-07T11:47:48Z</time>
      </trkpt>
      <trkpt lat="45.15179" lon="4.62299">
        <ele>490</ele>
        <time>2021-09-07T11:47:50Z</time>
      </trkpt>
      <trkpt lat="45.15136" lon="4.62141">
        <ele>488</ele>
        <time>2021-09-07T11:48:09Z</time>
      </trkpt>
      <trkpt lat="45.15095" lon="4.61985">
        <ele>486.60000610352</ele>
        <time>2021-09-07T11:48:28Z</time>
      </trkpt>
      <trkpt lat="45.15051" lon="4.61822">
        <ele>484.60000610352</ele>
        <time>2021-09-07T11:48:48Z</time>
      </trkpt>
      <trkpt lat="45.15049" lon="4.61815">
        <ele>484.60000610352</ele>
        <time>2021-09-07T11:48:49Z</time>
      </trkpt>
      <trkpt lat="45.15042" lon="4.61788">
        <ele>484.39999389648</ele>
        <time>2021-09-07T11:48:53Z</time>
      </trkpt>
      <trkpt lat="45.14997" lon="4.6162">
        <ele>484</ele>
        <time>2021-09-07T11:49:16Z</time>
      </trkpt>
      <trkpt lat="45.14994" lon="4.61606">
        <ele>484.20001220703</ele>
        <time>2021-09-07T11:49:18Z</time>
      </trkpt>
      <trkpt lat="45.14991" lon="4.61584">
        <ele>484.20001220703</ele>
        <time>2021-09-07T11:49:21Z</time>
      </trkpt>
      <trkpt lat="45.15009" lon="4.61535">
        <ele>484.39999389648</ele>
        <time>2021-09-07T11:49:29Z</time>
      </trkpt>
      <trkpt lat="45.15014" lon="4.61532">
        <ele>484.39999389648</ele>
        <time>2021-09-07T11:49:30Z</time>
      </trkpt>
      <trkpt lat="45.15041" lon="4.61515">
        <ele>484.60000610352</ele>
        <time>2021-09-07T11:49:36Z</time>
      </trkpt>
      <trkpt lat="45.15061" lon="4.61502">
        <ele>484.79998779297</ele>
        <time>2021-09-07T11:49:42Z</time>
      </trkpt>
      <trkpt lat="45.15067" lon="4.6151">
        <ele>484.79998779297</ele>
        <time>2021-09-07T11:49:45Z</time>
      </trkpt>
      <trkpt lat="45.15082" lon="4.61534">
        <ele>484.39999389648</ele>
        <time>2021-09-07T11:49:49Z</time>
      </trkpt>
      <trkpt lat="45.1511" lon="4.61618">
        <ele>483</ele>
        <time>2021-09-07T11:49:58Z</time>
      </trkpt>
      <trkpt lat="45.15127" lon="4.61671">
        <ele>482.60000610352</ele>
        <time>2021-09-07T11:50:04Z</time>
      </trkpt>
      <trkpt lat="45.15144" lon="4.61719">
        <ele>481.79998779297</ele>
        <time>2021-09-07T11:50:10Z</time>
      </trkpt>
      <trkpt lat="45.15147" lon="4.61734">
        <ele>481.60000610352</ele>
        <time>2021-09-07T11:50:12Z</time>
      </trkpt>
      <trkpt lat="45.15168" lon="4.61789">
        <ele>481.60000610352</ele>
        <time>2021-09-07T11:50:19Z</time>
      </trkpt>
      <trkpt lat="45.15187" lon="4.61818">
        <ele>481</ele>
        <time>2021-09-07T11:50:30Z</time>
      </trkpt>
      <trkpt lat="45.15192" lon="4.61825">
        <ele>480.79998779297</ele>
        <time>2021-09-07T11:50:32Z</time>
      </trkpt>
      <trkpt lat="45.15227" lon="4.61883">
        <ele>480.20001220703</ele>
        <time>2021-09-07T11:50:42Z</time>
      </trkpt>
      <trkpt lat="45.1531" lon="4.62035">
        <ele>479.20001220703</ele>
        <time>2021-09-07T11:51:01Z</time>
      </trkpt>
      <trkpt lat="45.15399" lon="4.62179">
        <ele>477</ele>
        <time>2021-09-07T11:51:20Z</time>
      </trkpt>
      <trkpt lat="45.15492" lon="4.62337">
        <ele>475.20001220703</ele>
        <time>2021-09-07T11:51:42Z</time>
      </trkpt>
      <trkpt lat="45.1551" lon="4.62368">
        <ele>474.60000610352</ele>
        <time>2021-09-07T11:51:47Z</time>
      </trkpt>
      <trkpt lat="45.15517" lon="4.62381">
        <ele>474.60000610352</ele>
        <time>2021-09-07T11:51:49Z</time>
      </trkpt>
      <trkpt lat="45.15578" lon="4.62481">
        <ele>474.39999389648</ele>
        <time>2021-09-07T11:52:03Z</time>
      </trkpt>
      <trkpt lat="45.15602" lon="4.62561">
        <ele>473.20001220703</ele>
        <time>2021-09-07T11:52:11Z</time>
      </trkpt>
      <trkpt lat="45.15675" lon="4.62709">
        <ele>469.79998779297</ele>
        <time>2021-09-07T11:52:29Z</time>
      </trkpt>
      <trkpt lat="45.15751" lon="4.62862">
        <ele>466.60000610352</ele>
        <time>2021-09-07T11:52:46Z</time>
      </trkpt>
      <trkpt lat="45.15754" lon="4.62927">
        <ele>465.79998779297</ele>
        <time>2021-09-07T11:52:52Z</time>
      </trkpt>
      <trkpt lat="45.15741" lon="4.62984">
        <ele>466.39999389648</ele>
        <time>2021-09-07T11:52:58Z</time>
      </trkpt>
      <trkpt lat="45.15738" lon="4.63009">
        <ele>466.79998779297</ele>
        <time>2021-09-07T11:53:01Z</time>
      </trkpt>
      <trkpt lat="45.15741" lon="4.63044">
        <ele>467.39999389648</ele>
        <time>2021-09-07T11:53:05Z</time>
      </trkpt>
      <trkpt lat="45.15745" lon="4.6307">
        <ele>467.60000610352</ele>
        <time>2021-09-07T11:53:08Z</time>
      </trkpt>
      <trkpt lat="45.15781" lon="4.63123">
        <ele>468.39999389648</ele>
        <time>2021-09-07T11:53:17Z</time>
      </trkpt>
      <trkpt lat="45.15795" lon="4.63136">
        <ele>468.39999389648</ele>
        <time>2021-09-07T11:53:20Z</time>
      </trkpt>
      <trkpt lat="45.1583" lon="4.63193">
        <ele>468.20001220703</ele>
        <time>2021-09-07T11:53:29Z</time>
      </trkpt>
      <trkpt lat="45.15851" lon="4.63194">
        <ele>467.79998779297</ele>
        <time>2021-09-07T11:53:32Z</time>
      </trkpt>
      <trkpt lat="45.15857" lon="4.63194">
        <ele>467.79998779297</ele>
        <time>2021-09-07T11:53:33Z</time>
      </trkpt>
      <trkpt lat="45.15901" lon="4.63233">
        <ele>466.39999389648</ele>
        <time>2021-09-07T11:53:42Z</time>
      </trkpt>
      <trkpt lat="45.15905" lon="4.63284">
        <ele>463.79998779297</ele>
        <time>2021-09-07T11:53:47Z</time>
      </trkpt>
      <trkpt lat="45.15894" lon="4.63306">
        <ele>462.60000610352</ele>
        <time>2021-09-07T11:53:49Z</time>
      </trkpt>
      <trkpt lat="45.15873" lon="4.63349">
        <ele>459.20001220703</ele>
        <time>2021-09-07T11:53:53Z</time>
      </trkpt>
      <trkpt lat="45.15857" lon="4.63381">
        <ele>457.79998779297</ele>
        <time>2021-09-07T11:53:57Z</time>
      </trkpt>
      <trkpt lat="45.15859" lon="4.63416">
        <ele>458.20001220703</ele>
        <time>2021-09-07T11:54:05Z</time>
      </trkpt>
      <trkpt lat="45.15863" lon="4.63448">
        <ele>461.20001220703</ele>
        <time>2021-09-07T11:54:14Z</time>
      </trkpt>
      <trkpt lat="45.15858" lon="4.6346">
        <ele>462.60000610352</ele>
        <time>2021-09-07T11:54:18Z</time>
      </trkpt>
      <trkpt lat="45.15837" lon="4.63479">
        <ele>464.79998779297</ele>
        <time>2021-09-07T11:54:27Z</time>
      </trkpt>
      <trkpt lat="45.15817" lon="4.63514">
        <ele>467.39999389648</ele>
        <time>2021-09-07T11:54:41Z</time>
      </trkpt>
      <trkpt lat="45.15815" lon="4.6355">
        <ele>468.60000610352</ele>
        <time>2021-09-07T11:54:50Z</time>
      </trkpt>
      <trkpt lat="45.15833" lon="4.63548">
        <ele>469.20001220703</ele>
        <time>2021-09-07T11:54:58Z</time>
      </trkpt>
      <trkpt lat="45.15842" lon="4.6354">
        <ele>470</ele>
        <time>2021-09-07T11:55:03Z</time>
      </trkpt>
      <trkpt lat="45.15851" lon="4.63533">
        <ele>471.20001220703</ele>
        <time>2021-09-07T11:55:09Z</time>
      </trkpt>
      <trkpt lat="45.15872" lon="4.63524">
        <ele>473</ele>
        <time>2021-09-07T11:55:21Z</time>
      </trkpt>
      <trkpt lat="45.15896" lon="4.6353">
        <ele>475.60000610352</ele>
        <time>2021-09-07T11:55:33Z</time>
      </trkpt>
      <trkpt lat="45.15918" lon="4.63548">
        <ele>477.79998779297</ele>
        <time>2021-09-07T11:55:46Z</time>
      </trkpt>
      <trkpt lat="45.15929" lon="4.63584">
        <ele>480.39999389648</ele>
        <time>2021-09-07T11:56:00Z</time>
      </trkpt>
      <trkpt lat="45.15913" lon="4.63612">
        <ele>483.60000610352</ele>
        <time>2021-09-07T11:56:14Z</time>
      </trkpt>
      <trkpt lat="45.15901" lon="4.63625">
        <ele>484.79998779297</ele>
        <time>2021-09-07T11:56:21Z</time>
      </trkpt>
      <trkpt lat="45.15899" lon="4.63637">
        <ele>485</ele>
        <time>2021-09-07T11:56:24Z</time>
      </trkpt>
      <trkpt lat="45.15907" lon="4.6369">
        <ele>485</ele>
        <time>2021-09-07T11:56:34Z</time>
      </trkpt>
      <trkpt lat="45.15918" lon="4.63773">
        <ele>485</ele>
        <time>2021-09-07T11:56:49Z</time>
      </trkpt>
      <trkpt lat="45.15928" lon="4.63814">
        <ele>485.20001220703</ele>
        <time>2021-09-07T11:56:56Z</time>
      </trkpt>
      <trkpt lat="45.15954" lon="4.63923">
        <ele>485.79998779297</ele>
        <time>2021-09-07T11:57:16Z</time>
      </trkpt>
      <trkpt lat="45.15946" lon="4.63978">
        <ele>486.79998779297</ele>
        <time>2021-09-07T11:57:29Z</time>
      </trkpt>
      <trkpt lat="45.15922" lon="4.63995">
        <ele>489.79998779297</ele>
        <time>2021-09-07T11:57:41Z</time>
      </trkpt>
      <trkpt lat="45.15902" lon="4.6402">
        <ele>492.79998779297</ele>
        <time>2021-09-07T11:57:56Z</time>
      </trkpt>
      <trkpt lat="45.15898" lon="4.64031">
        <ele>495.39999389648</ele>
        <time>2021-09-07T11:58:12Z</time>
      </trkpt>
      <trkpt lat="45.15898" lon="4.64033">
        <ele>496.20001220703</ele>
        <time>2021-09-07T12:06:23Z</time>
      </trkpt>
      <trkpt lat="45.15904" lon="4.64058">
        <ele>496.79998779297</ele>
        <time>2021-09-07T12:06:32Z</time>
      </trkpt>
      <trkpt lat="45.1591" lon="4.6409">
        <ele>498.79998779297</ele>
        <time>2021-09-07T12:06:43Z</time>
      </trkpt>
      <trkpt lat="45.1592" lon="4.64128">
        <ele>500.39999389648</ele>
        <time>2021-09-07T12:06:55Z</time>
      </trkpt>
      <trkpt lat="45.15939" lon="4.6418">
        <ele>501.20001220703</ele>
        <time>2021-09-07T12:07:09Z</time>
      </trkpt>
      <trkpt lat="45.15958" lon="4.64261">
        <ele>501</ele>
        <time>2021-09-07T12:07:27Z</time>
      </trkpt>
      <trkpt lat="45.15943" lon="4.64281">
        <ele>500.79998779297</ele>
        <time>2021-09-07T12:07:34Z</time>
      </trkpt>
      <trkpt lat="45.15957" lon="4.64288">
        <ele>500.20001220703</ele>
        <time>2021-09-07T12:07:40Z</time>
      </trkpt>
      <trkpt lat="45.15961" lon="4.64329">
        <ele>499.20001220703</ele>
        <time>2021-09-07T12:07:47Z</time>
      </trkpt>
      <trkpt lat="45.15962" lon="4.64335">
        <ele>499</ele>
        <time>2021-09-07T12:07:48Z</time>
      </trkpt>
      <trkpt lat="45.15963" lon="4.64359">
        <ele>497.79998779297</ele>
        <time>2021-09-07T12:07:52Z</time>
      </trkpt>
      <trkpt lat="45.15982" lon="4.64406">
        <ele>495.79998779297</ele>
        <time>2021-09-07T12:08:01Z</time>
      </trkpt>
      <trkpt lat="45.15992" lon="4.64421">
        <ele>495.60000610352</ele>
        <time>2021-09-07T12:08:04Z</time>
      </trkpt>
      <trkpt lat="45.15999" lon="4.6443">
        <ele>495.60000610352</ele>
        <time>2021-09-07T12:08:06Z</time>
      </trkpt>
      <trkpt lat="45.16012" lon="4.64446">
        <ele>495.20001220703</ele>
        <time>2021-09-07T12:08:10Z</time>
      </trkpt>
      <trkpt lat="45.16037" lon="4.64463">
        <ele>492.39999389648</ele>
        <time>2021-09-07T12:08:17Z</time>
      </trkpt>
      <trkpt lat="45.16042" lon="4.64475">
        <ele>491.60000610352</ele>
        <time>2021-09-07T12:08:19Z</time>
      </trkpt>
      <trkpt lat="45.16048" lon="4.64488">
        <ele>490.20001220703</ele>
        <time>2021-09-07T12:08:21Z</time>
      </trkpt>
      <trkpt lat="45.16067" lon="4.64513">
        <ele>489</ele>
        <time>2021-09-07T12:08:25Z</time>
      </trkpt>
      <trkpt lat="45.16064" lon="4.64534">
        <ele>485.79998779297</ele>
        <time>2021-09-07T12:08:30Z</time>
      </trkpt>
      <trkpt lat="45.16047" lon="4.6454">
        <ele>484.39999389648</ele>
        <time>2021-09-07T12:08:35Z</time>
      </trkpt>
      <trkpt lat="45.16026" lon="4.64545">
        <ele>481</ele>
        <time>2021-09-07T12:08:43Z</time>
      </trkpt>
      <trkpt lat="45.1602" lon="4.64578">
        <ele>479.39999389648</ele>
        <time>2021-09-07T12:08:50Z</time>
      </trkpt>
      <trkpt lat="45.16024" lon="4.64592">
        <ele>478.39999389648</ele>
        <time>2021-09-07T12:08:54Z</time>
      </trkpt>
      <trkpt lat="45.16051" lon="4.64648">
        <ele>476.20001220703</ele>
        <time>2021-09-07T12:09:09Z</time>
      </trkpt>
      <trkpt lat="45.16054" lon="4.64653">
        <ele>476</ele>
        <time>2021-09-07T12:09:10Z</time>
      </trkpt>
      <trkpt lat="45.16059" lon="4.64667">
        <ele>472.20001220703</ele>
        <time>2021-09-07T12:09:13Z</time>
      </trkpt>
      <trkpt lat="45.16088" lon="4.64717">
        <ele>469.60000610352</ele>
        <time>2021-09-07T12:09:21Z</time>
      </trkpt>
      <trkpt lat="45.16116" lon="4.64759">
        <ele>467.60000610352</ele>
        <time>2021-09-07T12:09:28Z</time>
      </trkpt>
      <trkpt lat="45.16126" lon="4.64775">
        <ele>465.79998779297</ele>
        <time>2021-09-07T12:09:32Z</time>
      </trkpt>
      <trkpt lat="45.16137" lon="4.64803">
        <ele>462.79998779297</ele>
        <time>2021-09-07T12:09:37Z</time>
      </trkpt>
      <trkpt lat="45.16145" lon="4.64826">
        <ele>459.79998779297</ele>
        <time>2021-09-07T12:09:41Z</time>
      </trkpt>
      <trkpt lat="45.16155" lon="4.6484">
        <ele>458.20001220703</ele>
        <time>2021-09-07T12:09:44Z</time>
      </trkpt>
      <trkpt lat="45.16167" lon="4.64859">
        <ele>457</ele>
        <time>2021-09-07T12:09:48Z</time>
      </trkpt>
      <trkpt lat="45.16171" lon="4.64874">
        <ele>454</ele>
        <time>2021-09-07T12:09:52Z</time>
      </trkpt>
      <trkpt lat="45.16152" lon="4.64907">
        <ele>452.20001220703</ele>
        <time>2021-09-07T12:10:04Z</time>
      </trkpt>
      <trkpt lat="45.16117" lon="4.64945">
        <ele>455.60000610352</ele>
        <time>2021-09-07T12:10:20Z</time>
      </trkpt>
      <trkpt lat="45.16084" lon="4.64987">
        <ele>457.79998779297</ele>
        <time>2021-09-07T12:10:38Z</time>
      </trkpt>
      <trkpt lat="45.16057" lon="4.65035">
        <ele>459.20001220703</ele>
        <time>2021-09-07T12:10:57Z</time>
      </trkpt>
      <trkpt lat="45.16035" lon="4.65075">
        <ele>461.60000610352</ele>
        <time>2021-09-07T12:11:13Z</time>
      </trkpt>
      <trkpt lat="45.16" lon="4.651">
        <ele>464</ele>
        <time>2021-09-07T12:11:28Z</time>
      </trkpt>
      <trkpt lat="45.15982" lon="4.65134">
        <ele>466.20001220703</ele>
        <time>2021-09-07T12:11:40Z</time>
      </trkpt>
      <trkpt lat="45.15987" lon="4.65176">
        <ele>467.60000610352</ele>
        <time>2021-09-07T12:11:52Z</time>
      </trkpt>
      <trkpt lat="45.15968" lon="4.65211">
        <ele>469.20001220703</ele>
        <time>2021-09-07T12:12:04Z</time>
      </trkpt>
      <trkpt lat="45.15939" lon="4.65232">
        <ele>472.20001220703</ele>
        <time>2021-09-07T12:12:16Z</time>
      </trkpt>
      <trkpt lat="45.159" lon="4.65252">
        <ele>475.20001220703</ele>
        <time>2021-09-07T12:12:32Z</time>
      </trkpt>
      <trkpt lat="45.15887" lon="4.65293">
        <ele>476</ele>
        <time>2021-09-07T12:12:44Z</time>
      </trkpt>
      <trkpt lat="45.15909" lon="4.65335">
        <ele>477.79998779297</ele>
        <time>2021-09-07T12:12:58Z</time>
      </trkpt>
      <trkpt lat="45.15926" lon="4.65381">
        <ele>480.39999389648</ele>
        <time>2021-09-07T12:13:14Z</time>
      </trkpt>
      <trkpt lat="45.15932" lon="4.65417">
        <ele>483.39999389648</ele>
        <time>2021-09-07T12:13:27Z</time>
      </trkpt>
      <trkpt lat="45.1592" lon="4.65457">
        <ele>486.39999389648</ele>
        <time>2021-09-07T12:13:43Z</time>
      </trkpt>
      <trkpt lat="45.15914" lon="4.65467">
        <ele>488</ele>
        <time>2021-09-07T12:13:52Z</time>
      </trkpt>
      <trkpt lat="45.15934" lon="4.65492">
        <ele>486.79998779297</ele>
        <time>2021-09-07T12:14:01Z</time>
      </trkpt>
      <trkpt lat="45.15941" lon="4.655">
        <ele>485.60000610352</ele>
        <time>2021-09-07T12:14:03Z</time>
      </trkpt>
      <trkpt lat="45.15965" lon="4.65513">
        <ele>485.20001220703</ele>
        <time>2021-09-07T12:14:08Z</time>
      </trkpt>
      <trkpt lat="45.15987" lon="4.65518">
        <ele>484.20001220703</ele>
        <time>2021-09-07T12:14:12Z</time>
      </trkpt>
      <trkpt lat="45.16015" lon="4.65534">
        <ele>482.79998779297</ele>
        <time>2021-09-07T12:14:17Z</time>
      </trkpt>
      <trkpt lat="45.1602" lon="4.65537">
        <ele>482</ele>
        <time>2021-09-07T12:14:18Z</time>
      </trkpt>
      <trkpt lat="45.16041" lon="4.65538">
        <ele>479</ele>
        <time>2021-09-07T12:14:22Z</time>
      </trkpt>
      <trkpt lat="45.16046" lon="4.65538">
        <ele>477.79998779297</ele>
        <time>2021-09-07T12:14:23Z</time>
      </trkpt>
      <trkpt lat="45.16058" lon="4.65537">
        <ele>476.39999389648</ele>
        <time>2021-09-07T12:14:26Z</time>
      </trkpt>
      <trkpt lat="45.16066" lon="4.65537">
        <ele>475.39999389648</ele>
        <time>2021-09-07T12:14:28Z</time>
      </trkpt>
      <trkpt lat="45.16081" lon="4.65522">
        <ele>472.79998779297</ele>
        <time>2021-09-07T12:14:33Z</time>
      </trkpt>
      <trkpt lat="45.16083" lon="4.65502">
        <ele>471.39999389648</ele>
        <time>2021-09-07T12:14:36Z</time>
      </trkpt>
      <trkpt lat="45.1608" lon="4.65454">
        <ele>469.79998779297</ele>
        <time>2021-09-07T12:14:43Z</time>
      </trkpt>
      <trkpt lat="45.1608" lon="4.65423">
        <ele>467.79998779297</ele>
        <time>2021-09-07T12:14:48Z</time>
      </trkpt>
      <trkpt lat="45.16079" lon="4.65415">
        <ele>467.60000610352</ele>
        <time>2021-09-07T12:14:49Z</time>
      </trkpt>
      <trkpt lat="45.16079" lon="4.65375">
        <ele>465.60000610352</ele>
        <time>2021-09-07T12:14:55Z</time>
      </trkpt>
      <trkpt lat="45.16091" lon="4.65385">
        <ele>462.60000610352</ele>
        <time>2021-09-07T12:15:00Z</time>
      </trkpt>
      <trkpt lat="45.16101" lon="4.65402">
        <ele>461.39999389648</ele>
        <time>2021-09-07T12:15:04Z</time>
      </trkpt>
      <trkpt lat="45.16113" lon="4.65419">
        <ele>458.39999389648</ele>
        <time>2021-09-07T12:15:08Z</time>
      </trkpt>
      <trkpt lat="45.16126" lon="4.65434">
        <ele>455.39999389648</ele>
        <time>2021-09-07T12:15:12Z</time>
      </trkpt>
      <trkpt lat="45.16143" lon="4.6546">
        <ele>453</ele>
        <time>2021-09-07T12:15:22Z</time>
      </trkpt>
      <trkpt lat="45.16152" lon="4.65452">
        <ele>450.39999389648</ele>
        <time>2021-09-07T12:15:27Z</time>
      </trkpt>
      <trkpt lat="45.16159" lon="4.65448">
        <ele>449.79998779297</ele>
        <time>2021-09-07T12:15:30Z</time>
      </trkpt>
      <trkpt lat="45.16172" lon="4.65459">
        <ele>446.79998779297</ele>
        <time>2021-09-07T12:15:36Z</time>
      </trkpt>
      <trkpt lat="45.16179" lon="4.65475">
        <ele>443.20001220703</ele>
        <time>2021-09-07T12:15:41Z</time>
      </trkpt>
      <trkpt lat="45.16182" lon="4.65486">
        <ele>442.39999389648</ele>
        <time>2021-09-07T12:15:44Z</time>
      </trkpt>
      <trkpt lat="45.16182" lon="4.65491">
        <ele>442.20001220703</ele>
        <time>2021-09-07T12:15:45Z</time>
      </trkpt>
      <trkpt lat="45.162" lon="4.65519">
        <ele>440.60000610352</ele>
        <time>2021-09-07T12:15:49Z</time>
      </trkpt>
      <trkpt lat="45.16219" lon="4.65564">
        <ele>437.79998779297</ele>
        <time>2021-09-07T12:15:58Z</time>
      </trkpt>
      <trkpt lat="45.16223" lon="4.65571">
        <ele>437</ele>
        <time>2021-09-07T12:16:00Z</time>
      </trkpt>
      <trkpt lat="45.16225" lon="4.65583">
        <ele>435.79998779297</ele>
        <time>2021-09-07T12:16:04Z</time>
      </trkpt>
      <trkpt lat="45.16235" lon="4.65609">
        <ele>434</ele>
        <time>2021-09-07T12:16:09Z</time>
      </trkpt>
      <trkpt lat="45.16239" lon="4.65619">
        <ele>433</ele>
        <time>2021-09-07T12:16:12Z</time>
      </trkpt>
      <trkpt lat="45.16245" lon="4.65659">
        <ele>430.20001220703</ele>
        <time>2021-09-07T12:16:21Z</time>
      </trkpt>
      <trkpt lat="45.16248" lon="4.65665">
        <ele>427.39999389648</ele>
        <time>2021-09-07T12:16:33Z</time>
      </trkpt>
      <trkpt lat="45.16248" lon="4.65665">
        <ele>427.39999389648</ele>
        <time>2021-09-07T12:16:36Z</time>
      </trkpt>
      <trkpt lat="45.16251" lon="4.65664">
        <ele>426.20001220703</ele>
        <time>2021-09-07T12:16:58Z</time>
      </trkpt>
      <trkpt lat="45.16254" lon="4.65665">
        <ele>426</ele>
        <time>2021-09-07T12:17:04Z</time>
      </trkpt>
      <trkpt lat="45.16261" lon="4.65665">
        <ele>426.79998779297</ele>
        <time>2021-09-07T12:17:23Z</time>
      </trkpt>
      <trkpt lat="45.16276" lon="4.65663">
        <ele>428</ele>
        <time>2021-09-07T12:18:12Z</time>
      </trkpt>
      <trkpt lat="45.16306" lon="4.6565">
        <ele>429</ele>
        <time>2021-09-07T12:18:24Z</time>
      </trkpt>
      <trkpt lat="45.16332" lon="4.65651">
        <ele>429.60000610352</ele>
        <time>2021-09-07T12:18:36Z</time>
      </trkpt>
      <trkpt lat="45.16336" lon="4.65655">
        <ele>429.79998779297</ele>
        <time>2021-09-07T12:18:39Z</time>
      </trkpt>
      <trkpt lat="45.16351" lon="4.65653">
        <ele>430.60000610352</ele>
        <time>2021-09-07T12:18:48Z</time>
      </trkpt>
      <trkpt lat="45.16364" lon="4.65649">
        <ele>432.20001220703</ele>
        <time>2021-09-07T12:18:58Z</time>
      </trkpt>
      <trkpt lat="45.16366" lon="4.65649">
        <ele>433</ele>
        <time>2021-09-07T12:19:01Z</time>
      </trkpt>
      <trkpt lat="45.16362" lon="4.65622">
        <ele>433.79998779297</ele>
        <time>2021-09-07T12:19:11Z</time>
      </trkpt>
      <trkpt lat="45.16365" lon="4.65599">
        <ele>433.79998779297</ele>
        <time>2021-09-07T12:19:18Z</time>
      </trkpt>
      <trkpt lat="45.16377" lon="4.65591">
        <ele>434.20001220703</ele>
        <time>2021-09-07T12:19:24Z</time>
      </trkpt>
      <trkpt lat="45.16404" lon="4.6558">
        <ele>436.79998779297</ele>
        <time>2021-09-07T12:19:38Z</time>
      </trkpt>
      <trkpt lat="45.16429" lon="4.65586">
        <ele>439.39999389648</ele>
        <time>2021-09-07T12:19:52Z</time>
      </trkpt>
      <trkpt lat="45.16425" lon="4.65636">
        <ele>441.39999389648</ele>
        <time>2021-09-07T12:20:07Z</time>
      </trkpt>
      <trkpt lat="45.16418" lon="4.65683">
        <ele>442.60000610352</ele>
        <time>2021-09-07T12:20:21Z</time>
      </trkpt>
      <trkpt lat="45.16406" lon="4.65757">
        <ele>445.79998779297</ele>
        <time>2021-09-07T12:20:44Z</time>
      </trkpt>
      <trkpt lat="45.16409" lon="4.6579">
        <ele>449</ele>
        <time>2021-09-07T12:20:56Z</time>
      </trkpt>
      <trkpt lat="45.16417" lon="4.65844">
        <ele>451</ele>
        <time>2021-09-07T12:21:14Z</time>
      </trkpt>
      <trkpt lat="45.16416" lon="4.6589">
        <ele>452.79998779297</ele>
        <time>2021-09-07T12:21:29Z</time>
      </trkpt>
      <trkpt lat="45.16415" lon="4.65928">
        <ele>455.39999389648</ele>
        <time>2021-09-07T12:21:43Z</time>
      </trkpt>
      <trkpt lat="45.16424" lon="4.65952">
        <ele>458.39999389648</ele>
        <time>2021-09-07T12:21:55Z</time>
      </trkpt>
      <trkpt lat="45.16427" lon="4.6596">
        <ele>459.79998779297</ele>
        <time>2021-09-07T12:22:01Z</time>
      </trkpt>
      <trkpt lat="45.16424" lon="4.65983">
        <ele>461.60000610352</ele>
        <time>2021-09-07T12:22:10Z</time>
      </trkpt>
      <trkpt lat="45.16426" lon="4.66011">
        <ele>462.60000610352</ele>
        <time>2021-09-07T12:22:21Z</time>
      </trkpt>
      <trkpt lat="45.1643" lon="4.6606">
        <ele>464.20001220703</ele>
        <time>2021-09-07T12:22:35Z</time>
      </trkpt>
      <trkpt lat="45.16434" lon="4.66122">
        <ele>464</ele>
        <time>2021-09-07T12:22:47Z</time>
      </trkpt>
      <trkpt lat="45.16435" lon="4.66136">
        <ele>464</ele>
        <time>2021-09-07T12:22:49Z</time>
      </trkpt>
      <trkpt lat="45.16438" lon="4.66157">
        <ele>464</ele>
        <time>2021-09-07T12:22:52Z</time>
      </trkpt>
      <trkpt lat="45.16439" lon="4.66197">
        <ele>463.39999389648</ele>
        <time>2021-09-07T12:22:57Z</time>
      </trkpt>
      <trkpt lat="45.16443" lon="4.6623">
        <ele>462.39999389648</ele>
        <time>2021-09-07T12:23:01Z</time>
      </trkpt>
      <trkpt lat="45.16443" lon="4.66248">
        <ele>461.79998779297</ele>
        <time>2021-09-07T12:23:03Z</time>
      </trkpt>
      <trkpt lat="45.16445" lon="4.6632">
        <ele>460.79998779297</ele>
        <time>2021-09-07T12:23:12Z</time>
      </trkpt>
      <trkpt lat="45.16447" lon="4.66352">
        <ele>460.60000610352</ele>
        <time>2021-09-07T12:23:17Z</time>
      </trkpt>
      <trkpt lat="45.16448" lon="4.66395">
        <ele>460.60000610352</ele>
        <time>2021-09-07T12:23:23Z</time>
      </trkpt>
      <trkpt lat="45.16448" lon="4.66419">
        <ele>460.79998779297</ele>
        <time>2021-09-07T12:23:27Z</time>
      </trkpt>
      <trkpt lat="45.16453" lon="4.66435">
        <ele>461</ele>
        <time>2021-09-07T12:23:31Z</time>
      </trkpt>
      <trkpt lat="45.16476" lon="4.66439">
        <ele>461.20001220703</ele>
        <time>2021-09-07T12:23:36Z</time>
      </trkpt>
      <trkpt lat="45.16476" lon="4.66439">
        <ele>461.39999389648</ele>
        <time>2021-09-07T12:23:37Z</time>
      </trkpt>
      <trkpt lat="45.16494" lon="4.66444">
        <ele>462.20001220703</ele>
        <time>2021-09-07T12:23:42Z</time>
      </trkpt>
      <trkpt lat="45.16507" lon="4.66448">
        <ele>464.60000610352</ele>
        <time>2021-09-07T12:23:49Z</time>
      </trkpt>
      <trkpt lat="45.16524" lon="4.66454">
        <ele>466.60000610352</ele>
        <time>2021-09-07T12:23:58Z</time>
      </trkpt>
      <trkpt lat="45.16544" lon="4.6646">
        <ele>468.20001220703</ele>
        <time>2021-09-07T12:24:07Z</time>
      </trkpt>
      <trkpt lat="45.16563" lon="4.66485">
        <ele>469.60000610352</ele>
        <time>2021-09-07T12:24:19Z</time>
      </trkpt>
      <trkpt lat="45.16576" lon="4.66532">
        <ele>470.60000610352</ele>
        <time>2021-09-07T12:24:32Z</time>
      </trkpt>
      <trkpt lat="45.16614" lon="4.66583">
        <ele>471.39999389648</ele>
        <time>2021-09-07T12:24:48Z</time>
      </trkpt>
      <trkpt lat="45.1668" lon="4.66607">
        <ele>472</ele>
        <time>2021-09-07T12:25:07Z</time>
      </trkpt>
      <trkpt lat="45.16698" lon="4.66623">
        <ele>472</ele>
        <time>2021-09-07T12:25:12Z</time>
      </trkpt>
      <trkpt lat="45.16719" lon="4.66653">
        <ele>471.20001220703</ele>
        <time>2021-09-07T12:25:22Z</time>
      </trkpt>
      <trkpt lat="45.16722" lon="4.66662">
        <ele>471</ele>
        <time>2021-09-07T12:25:25Z</time>
      </trkpt>
      <trkpt lat="45.16762" lon="4.66686">
        <ele>469.39999389648</ele>
        <time>2021-09-07T12:25:35Z</time>
      </trkpt>
      <trkpt lat="45.16791" lon="4.66702">
        <ele>467.20001220703</ele>
        <time>2021-09-07T12:25:41Z</time>
      </trkpt>
      <trkpt lat="45.16812" lon="4.6672">
        <ele>463.60000610352</ele>
        <time>2021-09-07T12:25:46Z</time>
      </trkpt>
      <trkpt lat="45.16816" lon="4.6672">
        <ele>463.39999389648</ele>
        <time>2021-09-07T12:25:47Z</time>
      </trkpt>
      <trkpt lat="45.16839" lon="4.6672">
        <ele>461</ele>
        <time>2021-09-07T12:25:51Z</time>
      </trkpt>
      <trkpt lat="45.1685" lon="4.66718">
        <ele>459.20001220703</ele>
        <time>2021-09-07T12:25:53Z</time>
      </trkpt>
      <trkpt lat="45.16901" lon="4.66677">
        <ele>454.79998779297</ele>
        <time>2021-09-07T12:26:02Z</time>
      </trkpt>
      <trkpt lat="45.16906" lon="4.66674">
        <ele>454.39999389648</ele>
        <time>2021-09-07T12:26:03Z</time>
      </trkpt>
      <trkpt lat="45.16934" lon="4.66657">
        <ele>452.20001220703</ele>
        <time>2021-09-07T12:26:09Z</time>
      </trkpt>
      <trkpt lat="45.16988" lon="4.66651">
        <ele>449.60000610352</ele>
        <time>2021-09-07T12:26:17Z</time>
      </trkpt>
      <trkpt lat="45.17001" lon="4.66652">
        <ele>448.39999389648</ele>
        <time>2021-09-07T12:26:19Z</time>
      </trkpt>
      <trkpt lat="45.17038" lon="4.66648">
        <ele>447.20001220703</ele>
        <time>2021-09-07T12:26:25Z</time>
      </trkpt>
      <trkpt lat="45.17064" lon="4.66644">
        <ele>447</ele>
        <time>2021-09-07T12:26:30Z</time>
      </trkpt>
      <trkpt lat="45.17108" lon="4.66629">
        <ele>446.20001220703</ele>
        <time>2021-09-07T12:26:39Z</time>
      </trkpt>
      <trkpt lat="45.17162" lon="4.66635">
        <ele>446</ele>
        <time>2021-09-07T12:26:49Z</time>
      </trkpt>
      <trkpt lat="45.17205" lon="4.66638">
        <ele>445.39999389648</ele>
        <time>2021-09-07T12:26:57Z</time>
      </trkpt>
      <trkpt lat="45.17242" lon="4.66636">
        <ele>445</ele>
        <time>2021-09-07T12:27:05Z</time>
      </trkpt>
      <trkpt lat="45.17301" lon="4.66642">
        <ele>443.60000610352</ele>
        <time>2021-09-07T12:27:17Z</time>
      </trkpt>
      <trkpt lat="45.17311" lon="4.66642">
        <ele>443.20001220703</ele>
        <time>2021-09-07T12:27:19Z</time>
      </trkpt>
      <trkpt lat="45.17327" lon="4.66644">
        <ele>443</ele>
        <time>2021-09-07T12:27:22Z</time>
      </trkpt>
      <trkpt lat="45.17413" lon="4.66668">
        <ele>440</ele>
        <time>2021-09-07T12:27:39Z</time>
      </trkpt>
      <trkpt lat="45.17471" lon="4.66678">
        <ele>439</ele>
        <time>2021-09-07T12:27:54Z</time>
      </trkpt>
      <trkpt lat="45.17485" lon="4.66681">
        <ele>439.39999389648</ele>
        <time>2021-09-07T12:27:58Z</time>
      </trkpt>
      <trkpt lat="45.17538" lon="4.66708">
        <ele>440.39999389648</ele>
        <time>2021-09-07T12:28:12Z</time>
      </trkpt>
      <trkpt lat="45.17578" lon="4.66713">
        <ele>441.60000610352</ele>
        <time>2021-09-07T12:28:23Z</time>
      </trkpt>
      <trkpt lat="45.17585" lon="4.66712">
        <ele>441.60000610352</ele>
        <time>2021-09-07T12:28:27Z</time>
      </trkpt>
      <trkpt lat="45.17585" lon="4.66709">
        <ele>442.20001220703</ele>
        <time>2021-09-07T12:28:40Z</time>
      </trkpt>
      <trkpt lat="45.17581" lon="4.66707">
        <ele>442.39999389648</ele>
        <time>2021-09-07T12:29:08Z</time>
      </trkpt>
      <trkpt lat="45.1758" lon="4.66706">
        <ele>442.20001220703</ele>
        <time>2021-09-07T12:29:09Z</time>
      </trkpt>
      <trkpt lat="45.17584" lon="4.66656">
        <ele>443</ele>
        <time>2021-09-07T12:29:30Z</time>
      </trkpt>
      <trkpt lat="45.1759" lon="4.66624">
        <ele>445.79998779297</ele>
        <time>2021-09-07T12:29:45Z</time>
      </trkpt>
      <trkpt lat="45.17598" lon="4.66597">
        <ele>446.79998779297</ele>
        <time>2021-09-07T12:29:59Z</time>
      </trkpt>
      <trkpt lat="45.17605" lon="4.66586">
        <ele>447.60000610352</ele>
        <time>2021-09-07T12:30:06Z</time>
      </trkpt>
      <trkpt lat="45.17615" lon="4.66583">
        <ele>449.39999389648</ele>
        <time>2021-09-07T12:30:13Z</time>
      </trkpt>
      <trkpt lat="45.17634" lon="4.66587">
        <ele>450.60000610352</ele>
        <time>2021-09-07T12:30:26Z</time>
      </trkpt>
      <trkpt lat="45.17659" lon="4.66572">
        <ele>452.39999389648</ele>
        <time>2021-09-07T12:30:43Z</time>
      </trkpt>
      <trkpt lat="45.17684" lon="4.66551">
        <ele>453.79998779297</ele>
        <time>2021-09-07T12:31:02Z</time>
      </trkpt>
      <trkpt lat="45.17698" lon="4.66541">
        <ele>455</ele>
        <time>2021-09-07T12:31:11Z</time>
      </trkpt>
      <trkpt lat="45.17717" lon="4.66526">
        <ele>458</ele>
        <time>2021-09-07T12:31:26Z</time>
      </trkpt>
      <trkpt lat="45.17732" lon="4.66514">
        <ele>461</ele>
        <time>2021-09-07T12:31:39Z</time>
      </trkpt>
      <trkpt lat="45.17741" lon="4.66498">
        <ele>462.79998779297</ele>
        <time>2021-09-07T12:31:49Z</time>
      </trkpt>
      <trkpt lat="45.17745" lon="4.66482">
        <ele>465.20001220703</ele>
        <time>2021-09-07T12:31:58Z</time>
      </trkpt>
      <trkpt lat="45.1775" lon="4.66475">
        <ele>466</ele>
        <time>2021-09-07T12:32:03Z</time>
      </trkpt>
      <trkpt lat="45.17755" lon="4.66465">
        <ele>467.20001220703</ele>
        <time>2021-09-07T12:32:10Z</time>
      </trkpt>
      <trkpt lat="45.17777" lon="4.6647">
        <ele>469.60000610352</ele>
        <time>2021-09-07T12:32:24Z</time>
      </trkpt>
      <trkpt lat="45.17794" lon="4.66482">
        <ele>469.39999389648</ele>
        <time>2021-09-07T12:32:33Z</time>
      </trkpt>
      <trkpt lat="45.17809" lon="4.66496">
        <ele>470.60000610352</ele>
        <time>2021-09-07T12:32:46Z</time>
      </trkpt>
      <trkpt lat="45.17812" lon="4.66498">
        <ele>471.20001220703</ele>
        <time>2021-09-07T12:32:48Z</time>
      </trkpt>
      <trkpt lat="45.1782" lon="4.66485">
        <ele>473.79998779297</ele>
        <time>2021-09-07T12:32:57Z</time>
      </trkpt>
      <trkpt lat="45.17824" lon="4.66478">
        <ele>475.20001220703</ele>
        <time>2021-09-07T12:33:01Z</time>
      </trkpt>
      <trkpt lat="45.17825" lon="4.66472">
        <ele>475.39999389648</ele>
        <time>2021-09-07T12:33:04Z</time>
      </trkpt>
      <trkpt lat="45.17835" lon="4.66456">
        <ele>476.79998779297</ele>
        <time>2021-09-07T12:33:17Z</time>
      </trkpt>
      <trkpt lat="45.17857" lon="4.66452">
        <ele>478.60000610352</ele>
        <time>2021-09-07T12:33:32Z</time>
      </trkpt>
      <trkpt lat="45.17879" lon="4.66445">
        <ele>480</ele>
        <time>2021-09-07T12:33:47Z</time>
      </trkpt>
      <trkpt lat="45.17903" lon="4.66442">
        <ele>482</ele>
        <time>2021-09-07T12:34:01Z</time>
      </trkpt>
      <trkpt lat="45.17918" lon="4.66441">
        <ele>484</ele>
        <time>2021-09-07T12:34:10Z</time>
      </trkpt>
      <trkpt lat="45.1792" lon="4.6643">
        <ele>484.79998779297</ele>
        <time>2021-09-07T12:34:15Z</time>
      </trkpt>
      <trkpt lat="45.17916" lon="4.66393">
        <ele>486</ele>
        <time>2021-09-07T12:34:28Z</time>
      </trkpt>
      <trkpt lat="45.17915" lon="4.66385">
        <ele>486.60000610352</ele>
        <time>2021-09-07T12:34:31Z</time>
      </trkpt>
      <trkpt lat="45.17929" lon="4.66366">
        <ele>487.39999389648</ele>
        <time>2021-09-07T12:34:41Z</time>
      </trkpt>
      <trkpt lat="45.1796" lon="4.66344">
        <ele>488.60000610352</ele>
        <time>2021-09-07T12:34:54Z</time>
      </trkpt>
      <trkpt lat="45.18014" lon="4.66303">
        <ele>489.79998779297</ele>
        <time>2021-09-07T12:35:12Z</time>
      </trkpt>
      <trkpt lat="45.18102" lon="4.66231">
        <ele>487</ele>
        <time>2021-09-07T12:35:32Z</time>
      </trkpt>
      <trkpt lat="45.18152" lon="4.66181">
        <ele>484</ele>
        <time>2021-09-07T12:35:41Z</time>
      </trkpt>
      <trkpt lat="45.18179" lon="4.66147">
        <ele>483.20001220703</ele>
        <time>2021-09-07T12:35:47Z</time>
      </trkpt>
      <trkpt lat="45.18212" lon="4.6612">
        <ele>483.39999389648</ele>
        <time>2021-09-07T12:35:58Z</time>
      </trkpt>
      <trkpt lat="45.18246" lon="4.66107">
        <ele>484.79998779297</ele>
        <time>2021-09-07T12:36:13Z</time>
      </trkpt>
      <trkpt lat="45.18273" lon="4.66088">
        <ele>486.39999389648</ele>
        <time>2021-09-07T12:36:27Z</time>
      </trkpt>
      <trkpt lat="45.18287" lon="4.66054">
        <ele>488.39999389648</ele>
        <time>2021-09-07T12:36:40Z</time>
      </trkpt>
      <trkpt lat="45.18304" lon="4.66015">
        <ele>491.60000610352</ele>
        <time>2021-09-07T12:36:56Z</time>
      </trkpt>
      <trkpt lat="45.1832" lon="4.65985">
        <ele>493</ele>
        <time>2021-09-07T12:37:10Z</time>
      </trkpt>
      <trkpt lat="45.18337" lon="4.65946">
        <ele>494.79998779297</ele>
        <time>2021-09-07T12:37:24Z</time>
      </trkpt>
      <trkpt lat="45.18354" lon="4.6591">
        <ele>495.20001220703</ele>
        <time>2021-09-07T12:37:34Z</time>
      </trkpt>
      <trkpt lat="45.18393" lon="4.65849">
        <ele>495.60000610352</ele>
        <time>2021-09-07T12:37:49Z</time>
      </trkpt>
      <trkpt lat="45.18408" lon="4.6582">
        <ele>495.79998779297</ele>
        <time>2021-09-07T12:37:54Z</time>
      </trkpt>
      <trkpt lat="45.18422" lon="4.65784">
        <ele>495.20001220703</ele>
        <time>2021-09-07T12:37:59Z</time>
      </trkpt>
      <trkpt lat="45.18432" lon="4.65751">
        <ele>494.39999389648</ele>
        <time>2021-09-07T12:38:03Z</time>
      </trkpt>
      <trkpt lat="45.18446" lon="4.65669">
        <ele>491.39999389648</ele>
        <time>2021-09-07T12:38:14Z</time>
      </trkpt>
      <trkpt lat="45.1845" lon="4.65631">
        <ele>490.39999389648</ele>
        <time>2021-09-07T12:38:19Z</time>
      </trkpt>
      <trkpt lat="45.18439" lon="4.65526">
        <ele>488.79998779297</ele>
        <time>2021-09-07T12:38:33Z</time>
      </trkpt>
      <trkpt lat="45.18429" lon="4.6551">
        <ele>488.20001220703</ele>
        <time>2021-09-07T12:38:36Z</time>
      </trkpt>
      <trkpt lat="45.18397" lon="4.65473">
        <ele>487.20001220703</ele>
        <time>2021-09-07T12:38:44Z</time>
      </trkpt>
      <trkpt lat="45.18354" lon="4.65435">
        <ele>485.39999389648</ele>
        <time>2021-09-07T12:38:55Z</time>
      </trkpt>
      <trkpt lat="45.18353" lon="4.654">
        <ele>485.39999389648</ele>
        <time>2021-09-07T12:39:01Z</time>
      </trkpt>
      <trkpt lat="45.18354" lon="4.65395">
        <ele>485.60000610352</ele>
        <time>2021-09-07T12:39:02Z</time>
      </trkpt>
      <trkpt lat="45.18347" lon="4.65348">
        <ele>487.20001220703</ele>
        <time>2021-09-07T12:39:12Z</time>
      </trkpt>
      <trkpt lat="45.18335" lon="4.65323">
        <ele>489</ele>
        <time>2021-09-07T12:39:21Z</time>
      </trkpt>
      <trkpt lat="45.18312" lon="4.65286">
        <ele>491</ele>
        <time>2021-09-07T12:39:34Z</time>
      </trkpt>
      <trkpt lat="45.18305" lon="4.6525">
        <ele>492.60000610352</ele>
        <time>2021-09-07T12:39:43Z</time>
      </trkpt>
      <trkpt lat="45.18298" lon="4.65198">
        <ele>491.60000610352</ele>
        <time>2021-09-07T12:39:56Z</time>
      </trkpt>
      <trkpt lat="45.18292" lon="4.65071">
        <ele>492.39999389648</ele>
        <time>2021-09-07T12:40:22Z</time>
      </trkpt>
      <trkpt lat="45.18263" lon="4.65034">
        <ele>492.79998779297</ele>
        <time>2021-09-07T12:40:33Z</time>
      </trkpt>
      <trkpt lat="45.18223" lon="4.65002">
        <ele>494.39999389648</ele>
        <time>2021-09-07T12:40:51Z</time>
      </trkpt>
      <trkpt lat="45.18199" lon="4.64977">
        <ele>497.39999389648</ele>
        <time>2021-09-07T12:41:04Z</time>
      </trkpt>
      <trkpt lat="45.18178" lon="4.64945">
        <ele>499.20001220703</ele>
        <time>2021-09-07T12:41:16Z</time>
      </trkpt>
      <trkpt lat="45.18165" lon="4.64901">
        <ele>500.20001220703</ele>
        <time>2021-09-07T12:41:31Z</time>
      </trkpt>
      <trkpt lat="45.18162" lon="4.64888">
        <ele>500.60000610352</ele>
        <time>2021-09-07T12:41:39Z</time>
      </trkpt>
      <trkpt lat="45.18162" lon="4.64896">
        <ele>501</ele>
        <time>2021-09-07T12:41:45Z</time>
      </trkpt>
      <trkpt lat="45.18165" lon="4.64887">
        <ele>500.79998779297</ele>
        <time>2021-09-07T12:42:21Z</time>
      </trkpt>
      <trkpt lat="45.18191" lon="4.6486">
        <ele>500.60000610352</ele>
        <time>2021-09-07T12:42:32Z</time>
      </trkpt>
      <trkpt lat="45.18209" lon="4.64841">
        <ele>500</ele>
        <time>2021-09-07T12:42:36Z</time>
      </trkpt>
      <trkpt lat="45.18244" lon="4.64795">
        <ele>496.79998779297</ele>
        <time>2021-09-07T12:42:47Z</time>
      </trkpt>
      <trkpt lat="45.18248" lon="4.64789">
        <ele>496.60000610352</ele>
        <time>2021-09-07T12:42:48Z</time>
      </trkpt>
      <trkpt lat="45.18259" lon="4.64706">
        <ele>494.60000610352</ele>
        <time>2021-09-07T12:42:58Z</time>
      </trkpt>
      <trkpt lat="45.18257" lon="4.64687">
        <ele>493.20001220703</ele>
        <time>2021-09-07T12:43:00Z</time>
      </trkpt>
      <trkpt lat="45.18266" lon="4.64668">
        <ele>490.39999389648</ele>
        <time>2021-09-07T12:43:06Z</time>
      </trkpt>
      <trkpt lat="45.18269" lon="4.64673">
        <ele>489.20001220703</ele>
        <time>2021-09-07T12:43:08Z</time>
      </trkpt>
      <trkpt lat="45.1827" lon="4.64678">
        <ele>488.60000610352</ele>
        <time>2021-09-07T12:43:09Z</time>
      </trkpt>
      <trkpt lat="45.18272" lon="4.64683">
        <ele>488.39999389648</ele>
        <time>2021-09-07T12:43:10Z</time>
      </trkpt>
      <trkpt lat="45.18305" lon="4.64722">
        <ele>485.20001220703</ele>
        <time>2021-09-07T12:43:17Z</time>
      </trkpt>
      <trkpt lat="45.18318" lon="4.6473">
        <ele>483.39999389648</ele>
        <time>2021-09-07T12:43:20Z</time>
      </trkpt>
      <trkpt lat="45.18327" lon="4.64711">
        <ele>480.39999389648</ele>
        <time>2021-09-07T12:43:27Z</time>
      </trkpt>
      <trkpt lat="45.18325" lon="4.6468">
        <ele>479</ele>
        <time>2021-09-07T12:43:31Z</time>
      </trkpt>
      <trkpt lat="45.18325" lon="4.64634">
        <ele>476.79998779297</ele>
        <time>2021-09-07T12:43:36Z</time>
      </trkpt>
      <trkpt lat="45.18325" lon="4.64623">
        <ele>476</ele>
        <time>2021-09-07T12:43:38Z</time>
      </trkpt>
      <trkpt lat="45.18326" lon="4.64619">
        <ele>474.39999389648</ele>
        <time>2021-09-07T12:43:39Z</time>
      </trkpt>
      <trkpt lat="45.18349" lon="4.6462">
        <ele>471.39999389648</ele>
        <time>2021-09-07T12:43:46Z</time>
      </trkpt>
      <trkpt lat="45.18352" lon="4.64623">
        <ele>471.20001220703</ele>
        <time>2021-09-07T12:43:47Z</time>
      </trkpt>
      <trkpt lat="45.18354" lon="4.64625">
        <ele>470.79998779297</ele>
        <time>2021-09-07T12:43:48Z</time>
      </trkpt>
      <trkpt lat="45.1837" lon="4.64641">
        <ele>469.60000610352</ele>
        <time>2021-09-07T12:43:56Z</time>
      </trkpt>
      <trkpt lat="45.18379" lon="4.64627">
        <ele>468.79998779297</ele>
        <time>2021-09-07T12:44:03Z</time>
      </trkpt>
      <trkpt lat="45.18378" lon="4.64558">
        <ele>470.79998779297</ele>
        <time>2021-09-07T12:44:26Z</time>
      </trkpt>
      <trkpt lat="45.18375" lon="4.64532">
        <ele>472</ele>
        <time>2021-09-07T12:44:35Z</time>
      </trkpt>
      <trkpt lat="45.18399" lon="4.64522">
        <ele>472.79998779297</ele>
        <time>2021-09-07T12:44:44Z</time>
      </trkpt>
      <trkpt lat="45.18495" lon="4.64552">
        <ele>469.60000610352</ele>
        <time>2021-09-07T12:44:56Z</time>
      </trkpt>
      <trkpt lat="45.18575" lon="4.64572">
        <ele>466.39999389648</ele>
        <time>2021-09-07T12:45:04Z</time>
      </trkpt>
      <trkpt lat="45.18638" lon="4.6459">
        <ele>462.79998779297</ele>
        <time>2021-09-07T12:45:10Z</time>
      </trkpt>
      <trkpt lat="45.18709" lon="4.6461">
        <ele>459.39999389648</ele>
        <time>2021-09-07T12:45:17Z</time>
      </trkpt>
      <trkpt lat="45.18718" lon="4.64613">
        <ele>459.20001220703</ele>
        <time>2021-09-07T12:45:18Z</time>
      </trkpt>
      <trkpt lat="45.18775" lon="4.64626">
        <ele>458</ele>
        <time>2021-09-07T12:45:24Z</time>
      </trkpt>
      <trkpt lat="45.1882" lon="4.64612">
        <ele>456.79998779297</ele>
        <time>2021-09-07T12:45:29Z</time>
      </trkpt>
      <trkpt lat="45.18854" lon="4.64594">
        <ele>453.60000610352</ele>
        <time>2021-09-07T12:45:35Z</time>
      </trkpt>
      <trkpt lat="45.18859" lon="4.64588">
        <ele>453.20001220703</ele>
        <time>2021-09-07T12:45:37Z</time>
      </trkpt>
      <trkpt lat="45.18857" lon="4.64569">
        <ele>452.60000610352</ele>
        <time>2021-09-07T12:45:41Z</time>
      </trkpt>
      <trkpt lat="45.18853" lon="4.64558">
        <ele>452.20001220703</ele>
        <time>2021-09-07T12:45:43Z</time>
      </trkpt>
      <trkpt lat="45.18852" lon="4.6453">
        <ele>451.20001220703</ele>
        <time>2021-09-07T12:45:49Z</time>
      </trkpt>
      <trkpt lat="45.18853" lon="4.64493">
        <ele>451.60000610352</ele>
        <time>2021-09-07T12:46:00Z</time>
      </trkpt>
      <trkpt lat="45.18853" lon="4.64442">
        <ele>454.60000610352</ele>
        <time>2021-09-07T12:46:18Z</time>
      </trkpt>
      <trkpt lat="45.18853" lon="4.64439">
        <ele>454.79998779297</ele>
        <time>2021-09-07T12:46:19Z</time>
      </trkpt>
      <trkpt lat="45.18849" lon="4.64403">
        <ele>456.79998779297</ele>
        <time>2021-09-07T12:46:33Z</time>
      </trkpt>
      <trkpt lat="45.18836" lon="4.64371">
        <ele>458</ele>
        <time>2021-09-07T12:46:48Z</time>
      </trkpt>
      <trkpt lat="45.18825" lon="4.64335">
        <ele>460.60000610352</ele>
        <time>2021-09-07T12:47:05Z</time>
      </trkpt>
      <trkpt lat="45.18816" lon="4.64306">
        <ele>462.60000610352</ele>
        <time>2021-09-07T12:47:21Z</time>
      </trkpt>
      <trkpt lat="45.18805" lon="4.64275">
        <ele>464.60000610352</ele>
        <time>2021-09-07T12:47:36Z</time>
      </trkpt>
      <trkpt lat="45.18792" lon="4.6423">
        <ele>467.79998779297</ele>
        <time>2021-09-07T12:47:56Z</time>
      </trkpt>
      <trkpt lat="45.18784" lon="4.64201">
        <ele>470.39999389648</ele>
        <time>2021-09-07T12:48:10Z</time>
      </trkpt>
      <trkpt lat="45.18781" lon="4.64168">
        <ele>472.20001220703</ele>
        <time>2021-09-07T12:48:24Z</time>
      </trkpt>
      <trkpt lat="45.18795" lon="4.64138">
        <ele>474.39999389648</ele>
        <time>2021-09-07T12:48:40Z</time>
      </trkpt>
      <trkpt lat="45.18816" lon="4.64136">
        <ele>475.20001220703</ele>
        <time>2021-09-07T12:48:50Z</time>
      </trkpt>
      <trkpt lat="45.18842" lon="4.64126">
        <ele>476.20001220703</ele>
        <time>2021-09-07T12:49:00Z</time>
      </trkpt>
      <trkpt lat="45.18902" lon="4.64102">
        <ele>477.60000610352</ele>
        <time>2021-09-07T12:49:18Z</time>
      </trkpt>
      <trkpt lat="45.18926" lon="4.64093">
        <ele>477.60000610352</ele>
        <time>2021-09-07T12:49:25Z</time>
      </trkpt>
      <trkpt lat="45.18937" lon="4.64113">
        <ele>478</ele>
        <time>2021-09-07T12:49:30Z</time>
      </trkpt>
      <trkpt lat="45.18968" lon="4.64149">
        <ele>478</ele>
        <time>2021-09-07T12:49:38Z</time>
      </trkpt>
      <trkpt lat="45.19043" lon="4.64232">
        <ele>477.60000610352</ele>
        <time>2021-09-07T12:49:59Z</time>
      </trkpt>
      <trkpt lat="45.19101" lon="4.64295">
        <ele>478</ele>
        <time>2021-09-07T12:50:18Z</time>
      </trkpt>
      <trkpt lat="45.1917" lon="4.6436">
        <ele>480</ele>
        <time>2021-09-07T12:50:42Z</time>
      </trkpt>
      <trkpt lat="45.19176" lon="4.64373">
        <ele>480.39999389648</ele>
        <time>2021-09-07T12:50:45Z</time>
      </trkpt>
      <trkpt lat="45.19195" lon="4.64399">
        <ele>480.79998779297</ele>
        <time>2021-09-07T12:50:51Z</time>
      </trkpt>
      <trkpt lat="45.19208" lon="4.64416">
        <ele>480.79998779297</ele>
        <time>2021-09-07T12:50:55Z</time>
      </trkpt>
      <trkpt lat="45.19284" lon="4.64513">
        <ele>480.79998779297</ele>
        <time>2021-09-07T12:51:15Z</time>
      </trkpt>
      <trkpt lat="45.19379" lon="4.64586">
        <ele>479.39999389648</ele>
        <time>2021-09-07T12:51:32Z</time>
      </trkpt>
      <trkpt lat="45.19414" lon="4.64609">
        <ele>478.20001220703</ele>
        <time>2021-09-07T12:51:38Z</time>
      </trkpt>
      <trkpt lat="45.1942" lon="4.64612">
        <ele>478</ele>
        <time>2021-09-07T12:51:39Z</time>
      </trkpt>
      <trkpt lat="45.19547" lon="4.64679">
        <ele>479.60000610352</ele>
        <time>2021-09-07T12:52:00Z</time>
      </trkpt>
      <trkpt lat="45.19661" lon="4.6476">
        <ele>481.39999389648</ele>
        <time>2021-09-07T12:52:23Z</time>
      </trkpt>
      <trkpt lat="45.19698" lon="4.64778">
        <ele>481.79998779297</ele>
        <time>2021-09-07T12:52:30Z</time>
      </trkpt>
      <trkpt lat="45.19808" lon="4.6486">
        <ele>480.79998779297</ele>
        <time>2021-09-07T12:52:50Z</time>
      </trkpt>
      <trkpt lat="45.19883" lon="4.64906">
        <ele>481</ele>
        <time>2021-09-07T12:53:03Z</time>
      </trkpt>
      <trkpt lat="45.19954" lon="4.64934">
        <ele>481.20001220703</ele>
        <time>2021-09-07T12:53:15Z</time>
      </trkpt>
      <trkpt lat="45.20044" lon="4.64979">
        <ele>480.79998779297</ele>
        <time>2021-09-07T12:53:31Z</time>
      </trkpt>
      <trkpt lat="45.20058" lon="4.64985">
        <ele>480.79998779297</ele>
        <time>2021-09-07T12:53:34Z</time>
      </trkpt>
      <trkpt lat="45.20095" lon="4.6501">
        <ele>481.20001220703</ele>
        <time>2021-09-07T12:53:46Z</time>
      </trkpt>
      <trkpt lat="45.20114" lon="4.65018">
        <ele>481.60000610352</ele>
        <time>2021-09-07T12:53:52Z</time>
      </trkpt>
      <trkpt lat="45.20166" lon="4.65023">
        <ele>481.79998779297</ele>
        <time>2021-09-07T12:54:04Z</time>
      </trkpt>
      <trkpt lat="45.20188" lon="4.65021">
        <ele>481.39999389648</ele>
        <time>2021-09-07T12:54:08Z</time>
      </trkpt>
      <trkpt lat="45.20205" lon="4.65025">
        <ele>481.20001220703</ele>
        <time>2021-09-07T12:54:11Z</time>
      </trkpt>
      <trkpt lat="45.20237" lon="4.65035">
        <ele>480.79998779297</ele>
        <time>2021-09-07T12:54:16Z</time>
      </trkpt>
      <trkpt lat="45.20267" lon="4.65053">
        <ele>479.39999389648</ele>
        <time>2021-09-07T12:54:21Z</time>
      </trkpt>
      <trkpt lat="45.20315" lon="4.65077">
        <ele>475.20001220703</ele>
        <time>2021-09-07T12:54:29Z</time>
      </trkpt>
      <trkpt lat="45.20326" lon="4.65084">
        <ele>474.39999389648</ele>
        <time>2021-09-07T12:54:31Z</time>
      </trkpt>
      <trkpt lat="45.20427" lon="4.65136">
        <ele>472</ele>
        <time>2021-09-07T12:54:47Z</time>
      </trkpt>
      <trkpt lat="45.20494" lon="4.65112">
        <ele>470</ele>
        <time>2021-09-07T12:54:57Z</time>
      </trkpt>
      <trkpt lat="45.20499" lon="4.65107">
        <ele>469.60000610352</ele>
        <time>2021-09-07T12:54:58Z</time>
      </trkpt>
      <trkpt lat="45.20518" lon="4.65089">
        <ele>469.20001220703</ele>
        <time>2021-09-07T12:55:02Z</time>
      </trkpt>
      <trkpt lat="45.20603" lon="4.65061">
        <ele>470</ele>
        <time>2021-09-07T12:55:17Z</time>
      </trkpt>
      <trkpt lat="45.20658" lon="4.65048">
        <ele>468.20001220703</ele>
        <time>2021-09-07T12:55:26Z</time>
      </trkpt>
      <trkpt lat="45.20704" lon="4.65056">
        <ele>467.20001220703</ele>
        <time>2021-09-07T12:55:34Z</time>
      </trkpt>
      <trkpt lat="45.20781" lon="4.65076">
        <ele>465.60000610352</ele>
        <time>2021-09-07T12:55:46Z</time>
      </trkpt>
      <trkpt lat="45.20821" lon="4.65087">
        <ele>464.60000610352</ele>
        <time>2021-09-07T12:55:52Z</time>
      </trkpt>
      <trkpt lat="45.20828" lon="4.65092">
        <ele>464.39999389648</ele>
        <time>2021-09-07T12:55:53Z</time>
      </trkpt>
      <trkpt lat="45.20863" lon="4.65109">
        <ele>463</ele>
        <time>2021-09-07T12:55:58Z</time>
      </trkpt>
      <trkpt lat="45.20905" lon="4.65108">
        <ele>462.39999389648</ele>
        <time>2021-09-07T12:56:04Z</time>
      </trkpt>
      <trkpt lat="45.20942" lon="4.65096">
        <ele>461.20001220703</ele>
        <time>2021-09-07T12:56:09Z</time>
      </trkpt>
      <trkpt lat="45.21037" lon="4.65099">
        <ele>460.20001220703</ele>
        <time>2021-09-07T12:56:23Z</time>
      </trkpt>
      <trkpt lat="45.21049" lon="4.651">
        <ele>460.39999389648</ele>
        <time>2021-09-07T12:56:25Z</time>
      </trkpt>
      <trkpt lat="45.21101" lon="4.65121">
        <ele>462.39999389648</ele>
        <time>2021-09-07T12:56:37Z</time>
      </trkpt>
      <trkpt lat="45.21108" lon="4.65122">
        <ele>463.20001220703</ele>
        <time>2021-09-07T12:56:39Z</time>
      </trkpt>
      <trkpt lat="45.21178" lon="4.6506">
        <ele>462.60000610352</ele>
        <time>2021-09-07T12:56:56Z</time>
      </trkpt>
      <trkpt lat="45.21206" lon="4.64972">
        <ele>462.20001220703</ele>
        <time>2021-09-07T12:57:07Z</time>
      </trkpt>
      <trkpt lat="45.21221" lon="4.64899">
        <ele>462.39999389648</ele>
        <time>2021-09-07T12:57:19Z</time>
      </trkpt>
      <trkpt lat="45.21216" lon="4.64834">
        <ele>464.79998779297</ele>
        <time>2021-09-07T12:57:34Z</time>
      </trkpt>
      <trkpt lat="45.21239" lon="4.6479">
        <ele>464.60000610352</ele>
        <time>2021-09-07T12:57:43Z</time>
      </trkpt>
      <trkpt lat="45.21248" lon="4.64788">
        <ele>464.39999389648</ele>
        <time>2021-09-07T12:57:45Z</time>
      </trkpt>
      <trkpt lat="45.21292" lon="4.64782">
        <ele>466.79998779297</ele>
        <time>2021-09-07T12:58:00Z</time>
      </trkpt>
      <trkpt lat="45.21338" lon="4.64769">
        <ele>469.79998779297</ele>
        <time>2021-09-07T12:58:16Z</time>
      </trkpt>
      <trkpt lat="45.21379" lon="4.64742">
        <ele>471.79998779297</ele>
        <time>2021-09-07T12:58:32Z</time>
      </trkpt>
      <trkpt lat="45.2142" lon="4.64727">
        <ele>473.60000610352</ele>
        <time>2021-09-07T12:58:48Z</time>
      </trkpt>
      <trkpt lat="45.21456" lon="4.64727">
        <ele>476.60000610352</ele>
        <time>2021-09-07T12:59:01Z</time>
      </trkpt>
      <trkpt lat="45.21497" lon="4.64721">
        <ele>479.20001220703</ele>
        <time>2021-09-07T12:59:15Z</time>
      </trkpt>
      <trkpt lat="45.21537" lon="4.64727">
        <ele>480.79998779297</ele>
        <time>2021-09-07T12:59:28Z</time>
      </trkpt>
      <trkpt lat="45.21563" lon="4.64728">
        <ele>483</ele>
        <time>2021-09-07T12:59:40Z</time>
      </trkpt>
      <trkpt lat="45.21586" lon="4.64711">
        <ele>486.20001220703</ele>
        <time>2021-09-07T12:59:54Z</time>
      </trkpt>
      <trkpt lat="45.2162" lon="4.64675">
        <ele>489</ele>
        <time>2021-09-07T13:00:11Z</time>
      </trkpt>
      <trkpt lat="45.21641" lon="4.64628">
        <ele>490</ele>
        <time>2021-09-07T13:00:26Z</time>
      </trkpt>
      <trkpt lat="45.21666" lon="4.64593">
        <ele>491.20001220703</ele>
        <time>2021-09-07T13:00:40Z</time>
      </trkpt>
      <trkpt lat="45.21691" lon="4.64605">
        <ele>493</ele>
        <time>2021-09-07T13:00:49Z</time>
      </trkpt>
      <trkpt lat="45.21728" lon="4.64625">
        <ele>493.79998779297</ele>
        <time>2021-09-07T13:01:04Z</time>
      </trkpt>
      <trkpt lat="45.21742" lon="4.64641">
        <ele>495</ele>
        <time>2021-09-07T13:01:11Z</time>
      </trkpt>
      <trkpt lat="45.2174" lon="4.6468">
        <ele>496.20001220703</ele>
        <time>2021-09-07T13:01:21Z</time>
      </trkpt>
      <trkpt lat="45.21717" lon="4.6474">
        <ele>496</ele>
        <time>2021-09-07T13:01:35Z</time>
      </trkpt>
      <trkpt lat="45.21727" lon="4.64794">
        <ele>494.60000610352</ele>
        <time>2021-09-07T13:01:42Z</time>
      </trkpt>
      <trkpt lat="45.21769" lon="4.64852">
        <ele>492</ele>
        <time>2021-09-07T13:01:49Z</time>
      </trkpt>
      <trkpt lat="45.21773" lon="4.64859">
        <ele>489</ele>
        <time>2021-09-07T13:01:53Z</time>
      </trkpt>
      <trkpt lat="45.21776" lon="4.64863">
        <ele>488</ele>
        <time>2021-09-07T13:01:57Z</time>
      </trkpt>
      <trkpt lat="45.21776" lon="4.64857">
        <ele>487.79998779297</ele>
        <time>2021-09-07T13:02:02Z</time>
      </trkpt>
      <trkpt lat="45.2176" lon="4.64836">
        <ele>487.79998779297</ele>
        <time>2021-09-07T13:02:11Z</time>
      </trkpt>
      <trkpt lat="45.21762" lon="4.64859">
        <ele>487.79998779297</ele>
        <time>2021-09-07T13:02:19Z</time>
      </trkpt>
      <trkpt lat="45.21763" lon="4.64904">
        <ele>484.39999389648</ele>
        <time>2021-09-07T13:02:28Z</time>
      </trkpt>
      <trkpt lat="45.21761" lon="4.64909">
        <ele>481.39999389648</ele>
        <time>2021-09-07T13:02:32Z</time>
      </trkpt>
      <trkpt lat="45.21757" lon="4.64923">
        <ele>479.60000610352</ele>
        <time>2021-09-07T13:02:45Z</time>
      </trkpt>
      <trkpt lat="45.21741" lon="4.64974">
        <ele>477.79998779297</ele>
        <time>2021-09-07T13:02:59Z</time>
      </trkpt>
      <trkpt lat="45.21723" lon="4.6505">
        <ele>475.79998779297</ele>
        <time>2021-09-07T13:03:14Z</time>
      </trkpt>
      <trkpt lat="45.21714" lon="4.651">
        <ele>472.79998779297</ele>
        <time>2021-09-07T13:03:24Z</time>
      </trkpt>
      <trkpt lat="45.21713" lon="4.65128">
        <ele>469.79998779297</ele>
        <time>2021-09-07T13:03:31Z</time>
      </trkpt>
      <trkpt lat="45.21712" lon="4.65145">
        <ele>467.60000610352</ele>
        <time>2021-09-07T13:03:44Z</time>
      </trkpt>
      <trkpt lat="45.21709" lon="4.65192">
        <ele>466.39999389648</ele>
        <time>2021-09-07T13:04:00Z</time>
      </trkpt>
      <trkpt lat="45.21705" lon="4.65224">
        <ele>464.60000610352</ele>
        <time>2021-09-07T13:04:07Z</time>
      </trkpt>
      <trkpt lat="45.21704" lon="4.65256">
        <ele>461.79998779297</ele>
        <time>2021-09-07T13:04:13Z</time>
      </trkpt>
      <trkpt lat="45.21702" lon="4.65262">
        <ele>461.60000610352</ele>
        <time>2021-09-07T13:04:14Z</time>
      </trkpt>
      <trkpt lat="45.21702" lon="4.65275">
        <ele>461.39999389648</ele>
        <time>2021-09-07T13:04:16Z</time>
      </trkpt>
      <trkpt lat="45.21701" lon="4.65329">
        <ele>458.60000610352</ele>
        <time>2021-09-07T13:04:27Z</time>
      </trkpt>
      <trkpt lat="45.21698" lon="4.65379">
        <ele>456.39999389648</ele>
        <time>2021-09-07T13:04:40Z</time>
      </trkpt>
      <trkpt lat="45.21695" lon="4.65429">
        <ele>453.20001220703</ele>
        <time>2021-09-07T13:04:51Z</time>
      </trkpt>
      <trkpt lat="45.21693" lon="4.65445">
        <ele>453</ele>
        <time>2021-09-07T13:04:54Z</time>
      </trkpt>
      <trkpt lat="45.21691" lon="4.65483">
        <ele>452.20001220703</ele>
        <time>2021-09-07T13:04:59Z</time>
      </trkpt>
      <trkpt lat="45.21691" lon="4.65509">
        <ele>450.39999389648</ele>
        <time>2021-09-07T13:05:02Z</time>
      </trkpt>
      <trkpt lat="45.21693" lon="4.65552">
        <ele>447.60000610352</ele>
        <time>2021-09-07T13:05:07Z</time>
      </trkpt>
      <trkpt lat="45.2171" lon="4.65612">
        <ele>446</ele>
        <time>2021-09-07T13:05:13Z</time>
      </trkpt>
      <trkpt lat="45.2172" lon="4.65647">
        <ele>444.39999389648</ele>
        <time>2021-09-07T13:05:16Z</time>
      </trkpt>
      <trkpt lat="45.21744" lon="4.65703">
        <ele>441.39999389648</ele>
        <time>2021-09-07T13:05:21Z</time>
      </trkpt>
      <trkpt lat="45.21779" lon="4.65764">
        <ele>437.20001220703</ele>
        <time>2021-09-07T13:05:27Z</time>
      </trkpt>
      <trkpt lat="45.21806" lon="4.65805">
        <ele>434.20001220703</ele>
        <time>2021-09-07T13:05:31Z</time>
      </trkpt>
      <trkpt lat="45.2186" lon="4.65893">
        <ele>430.60000610352</ele>
        <time>2021-09-07T13:05:39Z</time>
      </trkpt>
      <trkpt lat="45.219" lon="4.65959">
        <ele>427.60000610352</ele>
        <time>2021-09-07T13:05:45Z</time>
      </trkpt>
      <trkpt lat="45.21912" lon="4.6598">
        <ele>426.39999389648</ele>
        <time>2021-09-07T13:05:47Z</time>
      </trkpt>
      <trkpt lat="45.21975" lon="4.66081">
        <ele>423.79998779297</ele>
        <time>2021-09-07T13:05:59Z</time>
      </trkpt>
      <trkpt lat="45.21999" lon="4.66121">
        <ele>423.79998779297</ele>
        <time>2021-09-07T13:06:06Z</time>
      </trkpt>
      <trkpt lat="45.22006" lon="4.66136">
        <ele>424</ele>
        <time>2021-09-07T13:06:09Z</time>
      </trkpt>
      <trkpt lat="45.22063" lon="4.66234">
        <ele>424.39999389648</ele>
        <time>2021-09-07T13:06:30Z</time>
      </trkpt>
      <trkpt lat="45.22109" lon="4.66275">
        <ele>424.60000610352</ele>
        <time>2021-09-07T13:06:44Z</time>
      </trkpt>
      <trkpt lat="45.22191" lon="4.6634">
        <ele>424.79998779297</ele>
        <time>2021-09-07T13:07:04Z</time>
      </trkpt>
      <trkpt lat="45.22259" lon="4.66416">
        <ele>426.60000610352</ele>
        <time>2021-09-07T13:07:22Z</time>
      </trkpt>
      <trkpt lat="45.22319" lon="4.66455">
        <ele>426.79998779297</ele>
        <time>2021-09-07T13:07:36Z</time>
      </trkpt>
      <trkpt lat="45.22323" lon="4.66457">
        <ele>426.79998779297</ele>
        <time>2021-09-07T13:07:37Z</time>
      </trkpt>
      <trkpt lat="45.22338" lon="4.66463">
        <ele>426.60000610352</ele>
        <time>2021-09-07T13:07:41Z</time>
      </trkpt>
      <trkpt lat="45.22341" lon="4.66461">
        <ele>425.60000610352</ele>
        <time>2021-09-07T13:07:48Z</time>
      </trkpt>
      <trkpt lat="45.22337" lon="4.66464">
        <ele>425.39999389648</ele>
        <time>2021-09-07T13:07:51Z</time>
      </trkpt>
      <trkpt lat="45.22323" lon="4.66493">
        <ele>425.20001220703</ele>
        <time>2021-09-07T13:07:58Z</time>
      </trkpt>
      <trkpt lat="45.22308" lon="4.66516">
        <ele>425.60000610352</ele>
        <time>2021-09-07T13:08:03Z</time>
      </trkpt>
      <trkpt lat="45.22303" lon="4.66553">
        <ele>425.60000610352</ele>
        <time>2021-09-07T13:08:08Z</time>
      </trkpt>
      <trkpt lat="45.22304" lon="4.66611">
        <ele>423.60000610352</ele>
        <time>2021-09-07T13:08:15Z</time>
      </trkpt>
      <trkpt lat="45.22316" lon="4.66639">
        <ele>420.60000610352</ele>
        <time>2021-09-07T13:08:19Z</time>
      </trkpt>
      <trkpt lat="45.22331" lon="4.6665">
        <ele>419.79998779297</ele>
        <time>2021-09-07T13:08:22Z</time>
      </trkpt>
      <trkpt lat="45.22335" lon="4.66653">
        <ele>419.60000610352</ele>
        <time>2021-09-07T13:08:23Z</time>
      </trkpt>
      <trkpt lat="45.22358" lon="4.66683">
        <ele>417.60000610352</ele>
        <time>2021-09-07T13:08:29Z</time>
      </trkpt>
      <trkpt lat="45.2236" lon="4.66691">
        <ele>416.60000610352</ele>
        <time>2021-09-07T13:08:30Z</time>
      </trkpt>
      <trkpt lat="45.22361" lon="4.66699">
        <ele>416.39999389648</ele>
        <time>2021-09-07T13:08:31Z</time>
      </trkpt>
      <trkpt lat="45.22363" lon="4.66714">
        <ele>415.60000610352</ele>
        <time>2021-09-07T13:08:33Z</time>
      </trkpt>
      <trkpt lat="45.22367" lon="4.66724">
        <ele>412.60000610352</ele>
        <time>2021-09-07T13:08:35Z</time>
      </trkpt>
      <trkpt lat="45.22379" lon="4.66725">
        <ele>411.39999389648</ele>
        <time>2021-09-07T13:08:38Z</time>
      </trkpt>
      <trkpt lat="45.2242" lon="4.66729">
        <ele>410</ele>
        <time>2021-09-07T13:08:45Z</time>
      </trkpt>
      <trkpt lat="45.22429" lon="4.66734">
        <ele>409.20001220703</ele>
        <time>2021-09-07T13:08:47Z</time>
      </trkpt>
      <trkpt lat="45.22434" lon="4.66751">
        <ele>408.39999389648</ele>
        <time>2021-09-07T13:08:52Z</time>
      </trkpt>
      <trkpt lat="45.22433" lon="4.66756">
        <ele>408.39999389648</ele>
        <time>2021-09-07T13:08:53Z</time>
      </trkpt>
      <trkpt lat="45.22431" lon="4.66769">
        <ele>408.20001220703</ele>
        <time>2021-09-07T13:08:55Z</time>
      </trkpt>
      <trkpt lat="45.2242" lon="4.66839">
        <ele>406</ele>
        <time>2021-09-07T13:09:04Z</time>
      </trkpt>
      <trkpt lat="45.22418" lon="4.66853">
        <ele>405.60000610352</ele>
        <time>2021-09-07T13:09:06Z</time>
      </trkpt>
      <trkpt lat="45.22416" lon="4.66879">
        <ele>405</ele>
        <time>2021-09-07T13:09:10Z</time>
      </trkpt>
      <trkpt lat="45.22411" lon="4.66908">
        <ele>404.79998779297</ele>
        <time>2021-09-07T13:09:14Z</time>
      </trkpt>
      <trkpt lat="45.22387" lon="4.66956">
        <ele>404.20001220703</ele>
        <time>2021-09-07T13:09:22Z</time>
      </trkpt>
      <trkpt lat="45.22382" lon="4.6696">
        <ele>404</ele>
        <time>2021-09-07T13:09:23Z</time>
      </trkpt>
      <trkpt lat="45.22337" lon="4.67017">
        <ele>403.20001220703</ele>
        <time>2021-09-07T13:09:34Z</time>
      </trkpt>
      <trkpt lat="45.22317" lon="4.6704">
        <ele>403.39999389648</ele>
        <time>2021-09-07T13:09:39Z</time>
      </trkpt>
      <trkpt lat="45.22309" lon="4.67052">
        <ele>403.60000610352</ele>
        <time>2021-09-07T13:09:41Z</time>
      </trkpt>
      <trkpt lat="45.22268" lon="4.67093">
        <ele>400.60000610352</ele>
        <time>2021-09-07T13:09:48Z</time>
      </trkpt>
      <trkpt lat="45.22237" lon="4.67098">
        <ele>397.39999389648</ele>
        <time>2021-09-07T13:09:54Z</time>
      </trkpt>
      <trkpt lat="45.22229" lon="4.67088">
        <ele>396.79998779297</ele>
        <time>2021-09-07T13:09:57Z</time>
      </trkpt>
      <trkpt lat="45.22221" lon="4.67072">
        <ele>396.39999389648</ele>
        <time>2021-09-07T13:10:00Z</time>
      </trkpt>
      <trkpt lat="45.22194" lon="4.67042">
        <ele>396</ele>
        <time>2021-09-07T13:10:07Z</time>
      </trkpt>
      <trkpt lat="45.22179" lon="4.67031">
        <ele>393</ele>
        <time>2021-09-07T13:10:13Z</time>
      </trkpt>
      <trkpt lat="45.22176" lon="4.6703">
        <ele>389.79998779297</ele>
        <time>2021-09-07T13:10:23Z</time>
      </trkpt>
      <trkpt lat="45.22183" lon="4.67078">
        <ele>390</ele>
        <time>2021-09-07T13:10:34Z</time>
      </trkpt>
      <trkpt lat="45.22232" lon="4.67183">
        <ele>389.20001220703</ele>
        <time>2021-09-07T13:10:52Z</time>
      </trkpt>
      <trkpt lat="45.22241" lon="4.67191">
        <ele>389.20001220703</ele>
        <time>2021-09-07T13:10:54Z</time>
      </trkpt>
      <trkpt lat="45.22254" lon="4.67202">
        <ele>389.39999389648</ele>
        <time>2021-09-07T13:10:57Z</time>
      </trkpt>
      <trkpt lat="45.22308" lon="4.67212">
        <ele>389</ele>
        <time>2021-09-07T13:11:06Z</time>
      </trkpt>
      <trkpt lat="45.22357" lon="4.67213">
        <ele>389</ele>
        <time>2021-09-07T13:11:13Z</time>
      </trkpt>
      <trkpt lat="45.2239" lon="4.67222">
        <ele>388.60000610352</ele>
        <time>2021-09-07T13:11:18Z</time>
      </trkpt>
      <trkpt lat="45.22401" lon="4.67221">
        <ele>387.79998779297</ele>
        <time>2021-09-07T13:11:20Z</time>
      </trkpt>
      <trkpt lat="45.22425" lon="4.67237">
        <ele>388</ele>
        <time>2021-09-07T13:11:27Z</time>
      </trkpt>
      <trkpt lat="45.22428" lon="4.67239">
        <ele>388.60000610352</ele>
        <time>2021-09-07T13:11:28Z</time>
      </trkpt>
      <trkpt lat="45.22457" lon="4.67256">
        <ele>390.79998779297</ele>
        <time>2021-09-07T13:11:41Z</time>
      </trkpt>
      <trkpt lat="45.22473" lon="4.6726">
        <ele>392.39999389648</ele>
        <time>2021-09-07T13:11:49Z</time>
      </trkpt>
      <trkpt lat="45.22485" lon="4.67253">
        <ele>394</ele>
        <time>2021-09-07T13:11:58Z</time>
      </trkpt>
      <trkpt lat="45.225" lon="4.6725">
        <ele>396</ele>
        <time>2021-09-07T13:12:11Z</time>
      </trkpt>
      <trkpt lat="45.22516" lon="4.67239">
        <ele>397.60000610352</ele>
        <time>2021-09-07T13:12:22Z</time>
      </trkpt>
      <trkpt lat="45.22541" lon="4.67225">
        <ele>398.79998779297</ele>
        <time>2021-09-07T13:12:32Z</time>
      </trkpt>
      <trkpt lat="45.2255" lon="4.67222">
        <ele>399.39999389648</ele>
        <time>2021-09-07T13:12:37Z</time>
      </trkpt>
      <trkpt lat="45.22557" lon="4.67219">
        <ele>399.79998779297</ele>
        <time>2021-09-07T13:12:41Z</time>
      </trkpt>
      <trkpt lat="45.22581" lon="4.67208">
        <ele>401</ele>
        <time>2021-09-07T13:12:57Z</time>
      </trkpt>
      <trkpt lat="45.226" lon="4.67182">
        <ele>403.39999389648</ele>
        <time>2021-09-07T13:13:12Z</time>
      </trkpt>
      <trkpt lat="45.22619" lon="4.67143">
        <ele>404.60000610352</ele>
        <time>2021-09-07T13:13:26Z</time>
      </trkpt>
      <trkpt lat="45.22649" lon="4.67091">
        <ele>404</ele>
        <time>2021-09-07T13:13:40Z</time>
      </trkpt>
      <trkpt lat="45.22673" lon="4.6708">
        <ele>403</ele>
        <time>2021-09-07T13:13:48Z</time>
      </trkpt>
      <trkpt lat="45.2269" lon="4.67068">
        <ele>405</ele>
        <time>2021-09-07T13:14:00Z</time>
      </trkpt>
      <trkpt lat="45.22695" lon="4.67064">
        <ele>405.60000610352</ele>
        <time>2021-09-07T13:14:04Z</time>
      </trkpt>
      <trkpt lat="45.22698" lon="4.6706">
        <ele>406.79998779297</ele>
        <time>2021-09-07T13:14:07Z</time>
      </trkpt>
      <trkpt lat="45.22705" lon="4.67053">
        <ele>408</ele>
        <time>2021-09-07T13:14:12Z</time>
      </trkpt>
      <trkpt lat="45.22713" lon="4.67047">
        <ele>409.79998779297</ele>
        <time>2021-09-07T13:14:18Z</time>
      </trkpt>
      <trkpt lat="45.22727" lon="4.67028">
        <ele>412</ele>
        <time>2021-09-07T13:14:32Z</time>
      </trkpt>
      <trkpt lat="45.22741" lon="4.6701">
        <ele>413.60000610352</ele>
        <time>2021-09-07T13:14:45Z</time>
      </trkpt>
      <trkpt lat="45.22753" lon="4.66993">
        <ele>415.20001220703</ele>
        <time>2021-09-07T13:14:55Z</time>
      </trkpt>
      <trkpt lat="45.22768" lon="4.66976">
        <ele>415.79998779297</ele>
        <time>2021-09-07T13:15:02Z</time>
      </trkpt>
      <trkpt lat="45.22809" lon="4.66959">
        <ele>415.39999389648</ele>
        <time>2021-09-07T13:15:10Z</time>
      </trkpt>
      <trkpt lat="45.22854" lon="4.66962">
        <ele>414</ele>
        <time>2021-09-07T13:15:20Z</time>
      </trkpt>
      <trkpt lat="45.22892" lon="4.66952">
        <ele>414.20001220703</ele>
        <time>2021-09-07T13:15:31Z</time>
      </trkpt>
      <trkpt lat="45.22929" lon="4.67017">
        <ele>413.79998779297</ele>
        <time>2021-09-07T13:15:40Z</time>
      </trkpt>
      <trkpt lat="45.22964" lon="4.67016">
        <ele>409.79998779297</ele>
        <time>2021-09-07T13:15:45Z</time>
      </trkpt>
      <trkpt lat="45.22977" lon="4.67006">
        <ele>407.79998779297</ele>
        <time>2021-09-07T13:15:47Z</time>
      </trkpt>
      <trkpt lat="45.23001" lon="4.66989">
        <ele>405.20001220703</ele>
        <time>2021-09-07T13:15:51Z</time>
      </trkpt>
      <trkpt lat="45.23027" lon="4.66965">
        <ele>404.79998779297</ele>
        <time>2021-09-07T13:15:57Z</time>
      </trkpt>
      <trkpt lat="45.23041" lon="4.66951">
        <ele>405.20001220703</ele>
        <time>2021-09-07T13:16:01Z</time>
      </trkpt>
      <trkpt lat="45.23058" lon="4.66932">
        <ele>406.20001220703</ele>
        <time>2021-09-07T13:16:06Z</time>
      </trkpt>
      <trkpt lat="45.23073" lon="4.66911">
        <ele>406.20001220703</ele>
        <time>2021-09-07T13:16:14Z</time>
      </trkpt>
      <trkpt lat="45.23093" lon="4.66933">
        <ele>404.79998779297</ele>
        <time>2021-09-07T13:16:22Z</time>
      </trkpt>
      <trkpt lat="45.2311" lon="4.66955">
        <ele>404.39999389648</ele>
        <time>2021-09-07T13:16:26Z</time>
      </trkpt>
      <trkpt lat="45.23137" lon="4.67015">
        <ele>402.79998779297</ele>
        <time>2021-09-07T13:16:33Z</time>
      </trkpt>
      <trkpt lat="45.23149" lon="4.67059">
        <ele>401.60000610352</ele>
        <time>2021-09-07T13:16:37Z</time>
      </trkpt>
      <trkpt lat="45.23151" lon="4.67071">
        <ele>401.39999389648</ele>
        <time>2021-09-07T13:16:38Z</time>
      </trkpt>
      <trkpt lat="45.23139" lon="4.67156">
        <ele>399</ele>
        <time>2021-09-07T13:16:45Z</time>
      </trkpt>
      <trkpt lat="45.23133" lon="4.67167">
        <ele>398.79998779297</ele>
        <time>2021-09-07T13:16:46Z</time>
      </trkpt>
      <trkpt lat="45.23108" lon="4.67212">
        <ele>397.20001220703</ele>
        <time>2021-09-07T13:16:50Z</time>
      </trkpt>
      <trkpt lat="45.23072" lon="4.67243">
        <ele>395.39999389648</ele>
        <time>2021-09-07T13:16:54Z</time>
      </trkpt>
      <trkpt lat="45.23062" lon="4.67249">
        <ele>395.20001220703</ele>
        <time>2021-09-07T13:16:55Z</time>
      </trkpt>
      <trkpt lat="45.23028" lon="4.67289">
        <ele>392</ele>
        <time>2021-09-07T13:16:59Z</time>
      </trkpt>
      <trkpt lat="45.2301" lon="4.67326">
        <ele>389</ele>
        <time>2021-09-07T13:17:04Z</time>
      </trkpt>
      <trkpt lat="45.23035" lon="4.67329">
        <ele>385.39999389648</ele>
        <time>2021-09-07T13:17:08Z</time>
      </trkpt>
      <trkpt lat="45.23076" lon="4.67321">
        <ele>382.20001220703</ele>
        <time>2021-09-07T13:17:13Z</time>
      </trkpt>
      <trkpt lat="45.23117" lon="4.67353">
        <ele>380.20001220703</ele>
        <time>2021-09-07T13:17:18Z</time>
      </trkpt>
      <trkpt lat="45.23124" lon="4.67395">
        <ele>379</ele>
        <time>2021-09-07T13:17:21Z</time>
      </trkpt>
      <trkpt lat="45.23126" lon="4.67409">
        <ele>378.79998779297</ele>
        <time>2021-09-07T13:17:22Z</time>
      </trkpt>
      <trkpt lat="45.23161" lon="4.67438">
        <ele>376.20001220703</ele>
        <time>2021-09-07T13:17:27Z</time>
      </trkpt>
      <trkpt lat="45.23204" lon="4.67416">
        <ele>372.60000610352</ele>
        <time>2021-09-07T13:17:31Z</time>
      </trkpt>
      <trkpt lat="45.23221" lon="4.67395">
        <ele>371.39999389648</ele>
        <time>2021-09-07T13:17:33Z</time>
      </trkpt>
      <trkpt lat="45.23229" lon="4.67382">
        <ele>371.20001220703</ele>
        <time>2021-09-07T13:17:34Z</time>
      </trkpt>
      <trkpt lat="45.23273" lon="4.6732">
        <ele>368.20001220703</ele>
        <time>2021-09-07T13:17:39Z</time>
      </trkpt>
      <trkpt lat="45.2332" lon="4.67268">
        <ele>364.79998779297</ele>
        <time>2021-09-07T13:17:44Z</time>
      </trkpt>
      <trkpt lat="45.23324" lon="4.67252">
        <ele>364.60000610352</ele>
        <time>2021-09-07T13:17:45Z</time>
      </trkpt>
      <trkpt lat="45.23324" lon="4.67224">
        <ele>363.39999389648</ele>
        <time>2021-09-07T13:17:47Z</time>
      </trkpt>
      <trkpt lat="45.23323" lon="4.67213">
        <ele>362.20001220703</ele>
        <time>2021-09-07T13:17:48Z</time>
      </trkpt>
      <trkpt lat="45.23332" lon="4.67191">
        <ele>359.20001220703</ele>
        <time>2021-09-07T13:17:51Z</time>
      </trkpt>
      <trkpt lat="45.2335" lon="4.67196">
        <ele>357</ele>
        <time>2021-09-07T13:17:54Z</time>
      </trkpt>
      <trkpt lat="45.23364" lon="4.67205">
        <ele>355.60000610352</ele>
        <time>2021-09-07T13:17:56Z</time>
      </trkpt>
      <trkpt lat="45.23384" lon="4.67223">
        <ele>355</ele>
        <time>2021-09-07T13:17:59Z</time>
      </trkpt>
      <trkpt lat="45.23404" lon="4.67235">
        <ele>354.20001220703</ele>
        <time>2021-09-07T13:18:02Z</time>
      </trkpt>
      <trkpt lat="45.23413" lon="4.67248">
        <ele>351.20001220703</ele>
        <time>2021-09-07T13:18:07Z</time>
      </trkpt>
      <trkpt lat="45.23413" lon="4.67255">
        <ele>349.79998779297</ele>
        <time>2021-09-07T13:18:09Z</time>
      </trkpt>
      <trkpt lat="45.23415" lon="4.67271">
        <ele>348.60000610352</ele>
        <time>2021-09-07T13:18:12Z</time>
      </trkpt>
      <trkpt lat="45.23418" lon="4.67276">
        <ele>348.39999389648</ele>
        <time>2021-09-07T13:18:13Z</time>
      </trkpt>
      <trkpt lat="45.23445" lon="4.67263">
        <ele>347.39999389648</ele>
        <time>2021-09-07T13:18:19Z</time>
      </trkpt>
      <trkpt lat="45.23455" lon="4.67257">
        <ele>347.20001220703</ele>
        <time>2021-09-07T13:18:21Z</time>
      </trkpt>
      <trkpt lat="45.23518" lon="4.672">
        <ele>344.79998779297</ele>
        <time>2021-09-07T13:18:31Z</time>
      </trkpt>
      <trkpt lat="45.23561" lon="4.67156">
        <ele>341.79998779297</ele>
        <time>2021-09-07T13:18:37Z</time>
      </trkpt>
      <trkpt lat="45.23589" lon="4.67157">
        <ele>338.20001220703</ele>
        <time>2021-09-07T13:18:43Z</time>
      </trkpt>
      <trkpt lat="45.23594" lon="4.67164">
        <ele>336.79998779297</ele>
        <time>2021-09-07T13:18:45Z</time>
      </trkpt>
      <trkpt lat="45.23605" lon="4.67201">
        <ele>334.39999389648</ele>
        <time>2021-09-07T13:18:51Z</time>
      </trkpt>
      <trkpt lat="45.23624" lon="4.67211">
        <ele>334.20001220703</ele>
        <time>2021-09-07T13:19:00Z</time>
      </trkpt>
      <trkpt lat="45.2363" lon="4.67211">
        <ele>334.20001220703</ele>
        <time>2021-09-07T13:19:01Z</time>
      </trkpt>
      <trkpt lat="45.23676" lon="4.67209">
        <ele>333.39999389648</ele>
        <time>2021-09-07T13:19:07Z</time>
      </trkpt>
      <trkpt lat="45.23714" lon="4.67189">
        <ele>330.39999389648</ele>
        <time>2021-09-07T13:19:11Z</time>
      </trkpt>
      <trkpt lat="45.23766" lon="4.67157">
        <ele>327.60000610352</ele>
        <time>2021-09-07T13:19:17Z</time>
      </trkpt>
      <trkpt lat="45.23811" lon="4.6712">
        <ele>326.20001220703</ele>
        <time>2021-09-07T13:19:24Z</time>
      </trkpt>
      <trkpt lat="45.23841" lon="4.67087">
        <ele>325.79998779297</ele>
        <time>2021-09-07T13:19:30Z</time>
      </trkpt>
      <trkpt lat="45.23861" lon="4.6704">
        <ele>326</ele>
        <time>2021-09-07T13:19:39Z</time>
      </trkpt>
      <trkpt lat="45.23862" lon="4.67019">
        <ele>326.20001220703</ele>
        <time>2021-09-07T13:19:43Z</time>
      </trkpt>
      <trkpt lat="45.23862" lon="4.66989">
        <ele>327.20001220703</ele>
        <time>2021-09-07T13:19:49Z</time>
      </trkpt>
      <trkpt lat="45.2386" lon="4.6698">
        <ele>327.79998779297</ele>
        <time>2021-09-07T13:19:51Z</time>
      </trkpt>
      <trkpt lat="45.23857" lon="4.6694">
        <ele>329.20001220703</ele>
        <time>2021-09-07T13:19:59Z</time>
      </trkpt>
      <trkpt lat="45.23839" lon="4.66928">
        <ele>330.20001220703</ele>
        <time>2021-09-07T13:20:06Z</time>
      </trkpt>
      <trkpt lat="45.23831" lon="4.66894">
        <ele>330</ele>
        <time>2021-09-07T13:20:12Z</time>
      </trkpt>
      <trkpt lat="45.2383" lon="4.66889">
        <ele>330</ele>
        <time>2021-09-07T13:20:13Z</time>
      </trkpt>
      <trkpt lat="45.23824" lon="4.66864">
        <ele>330.60000610352</ele>
        <time>2021-09-07T13:20:27Z</time>
      </trkpt>
      <trkpt lat="45.23822" lon="4.66864">
        <ele>329.60000610352</ele>
        <time>2021-09-07T13:21:40Z</time>
      </trkpt>
      <trkpt lat="45.23822" lon="4.66864">
        <ele>330.39999389648</ele>
        <time>2021-09-07T13:22:48Z</time>
      </trkpt>
    </trkseg>
  </trk>
</gpx>